# Wetter Temperatur Luftdruck Luftfeuchtigkeit Sichtweite Windgeschwindigkeit Windrichtung Zeit
1 Clear 20 1006 42 10000 1.54 200 05:18 02.10.2022
2 Clear 22 1006 37 10000 1.03 0 00:57 02.10.2022
3 Clear 22 1006 37 10000 1.03 0 00:37 02.10.2022
4 Clear 30 1006 17 10000 3.02 295 23:24 01.10.2022
5 Clear 25 1007 31 10000 1.03 0 21:38 01.10.2022
6 Clear 31 1007 22 10000 2.06 320 18:54 01.10.2022
7 Clear 33 1007 19 10000 2.57 290 17:26 01.10.2022
8 Clear 38 1008 17 10000 5.14 280 14:50 01.10.2022
9 Clear 39 1008 16 10000 5.14 270 13:44 01.10.2022
10 Clear 38 1009 18 10000 5.14 300 12:34 01.10.2022
11 Clear 36 1010 26 10000 5.66 310 11:22 01.10.2022
12 Clear 34 1010 26 10000 4.63 300 10:47 01.10.2022
13 Clear 34 1010 26 10000 4.63 300 10:26 01.10.2022
14 Clear 31 1011 29 10000 5.14 300 09:21 01.10.2022
15 Clear 29 1011 34 10000 4.63 290 08:26 01.10.2022
16 Clear 23 1009 35 10000 2.57 280 03:39 01.10.2022
17 Clear 24 1009 29 10000 3.09 290 01:31 01.10.2022
18 Clear 22 1009 35 10000 2.06 290 23:20 30.09.2022
19 Clear 23 1009 31 10000 1.03 300 21:57 30.09.2022
20 Clear 27 1010 24 10000 2.06 290 20:45 30.09.2022
21 Clear 27 1010 24 10000 2.06 290 20:20 30.09.2022
22 Clear 34 1009 16 10000 2.57 280 17:59 30.09.2022
23 Clear 37 1008 14 10000 4.12 300 16:31 30.09.2022
24 Clear 37 1008 16 10000 3.6 280 14:22 30.09.2022
25 Clear 36 1009 23 10000 3.09 270 12:29 30.09.2022
26 Clear 35 1010 26 7000 3.09 270 11:54 30.09.2022
27 Clear 27 1010 36 10000 4.12 290 08:57 30.09.2022
28 Clear 21 1010 49 9000 1.54 240 06:38 30.09.2022
29 Clear 20 1008 52 10000 2.06 300 02:51 30.09.2022
30 Clear 21 1007 49 10000 2.06 300 00:53 30.09.2022
31 Clear 22 1008 46 10000 1.03 0 21:39 29.09.2022
32 Clear 22 1008 46 10000 1.03 0 21:19 29.09.2022
33 Clear 30 1007 30 10000 2.57 270 18:54 29.09.2022
34 Clear 32 1006 27 10000 3.09 270 17:49 29.09.2022
35 Clear 34 1006 24 10000 5.14 280 16:29 29.09.2022
36 Clear 34 1006 26 10000 6.17 270 15:37 29.09.2022
37 Clear 34 1006 27 10000 6.17 290 14:59 29.09.2022
38 Clear 33 1008 31 10000 6.69 280 11:54 29.09.2022
39 Clear 28 1009 39 10000 7.2 290 08:44 29.09.2022
40 Clear 20 1008 37 10000 4.63 310 04:22 29.09.2022
41 Clear 23 1007 35 10000 4.12 310 01:47 29.09.2022
42 Clear 27 1007 19 10000 5.14 270 23:20 28.09.2022
43 Clear 28 1007 16 10000 5.14 280 21:31 28.09.2022
44 Clear 29 1007 16 10000 4.63 270 20:49 28.09.2022
45 Clear 30 1007 17 10000 5.66 270 19:56 28.09.2022
46 Clear 35 1006 11 10000 6.69 270 16:35 28.09.2022
47 Clear 36 1007 11 10000 6.69 270 13:28 28.09.2022
48 Clear 35 1008 17 10000 7.72 300 11:45 28.09.2022
49 Clear 29 1009 26 8000 5.14 300 09:37 28.09.2022
50 Clear 25 1009 27 8000 5.14 280 07:43 28.09.2022
51 Clear 20 1009 30 10000 2.57 260 05:37 28.09.2022
52 Clear 22 1008 21 10000 3.09 300 01:44 28.09.2022
53 Clear 23 1008 20 10000 3.6 300 00:36 28.09.2022
54 Clear 23 1008 25 10000 1.03 280 22:40 27.09.2022
55 Clear 25 1009 19 10000 1.54 270 21:20 27.09.2022
56 Clear 25 1008 20 10000 1.03 0 20:34 27.09.2022
57 Clear 27 1008 17 10000 1.54 240 19:40 27.09.2022
58 Clear 33 1008 13 10000 3.6 290 17:47 27.09.2022
59 Clear 36 1008 11 10000 6.69 290 16:56 27.09.2022
60 Clear 36 1008 11 10000 7.72 290 15:18 27.09.2022
61 Clear 37 1008 10 10000 6.69 280 14:21 27.09.2022
62 Clear 35 1009 12 10000 4.63 270 12:39 27.09.2022
63 Clear 35 1009 12 10000 4.63 270 12:39 27.09.2022
64 Clear 30 1010 19 10000 3.09 270 10:45 27.09.2022
65 Clear 25 1010 25 10000 3.6 260 08:36 27.09.2022
66 Clear 19 1009 32 10000 1.54 250 05:22 27.09.2022
67 Clear 22 1008 26 10000 3.6 310 01:40 27.09.2022
68 Clear 24 1009 17 10000 3.09 300 00:28 27.09.2022
69 Clear 25 1009 19 10000 2.57 270 23:24 26.09.2022
70 Clear 27 1009 17 10000 4.12 260 21:37 26.09.2022
71 Clear 29 1009 16 10000 4.63 250 20:18 26.09.2022
72 Clear 30 1009 17 10000 4.12 260 19:19 26.09.2022
73 Clear 33 1009 17 10000 5.66 280 17:27 26.09.2022
74 Clear 35 1008 16 10000 6.69 280 15:44 26.09.2022
75 Clear 34 1009 18 8000 9.26 290 12:42 26.09.2022
76 Clear 34 1010 20 8000 9.26 290 11:28 26.09.2022
77 Clear 33 1010 19 7000 10.29 290 10:36 26.09.2022
78 Clear 33 1010 19 7000 10.29 290 10:18 26.09.2022
79 Dust 33 1010 19 5000 9.77 290 09:52 26.09.2022
80 Clear 31 1010 27 9000 6.69 280 09:21 26.09.2022
81 Clear 21 1010 43 10000 3.6 280 05:49 26.09.2022
82 Clear 24 1010 35 10000 5.14 290 02:35 26.09.2022
83 Clear 26 1011 34 10000 6.17 290 23:25 25.09.2022
84 Clear 28 1011 23 10000 6.17 270 21:48 25.09.2022
85 Clear 28 1011 23 10000 6.17 270 21:25 25.09.2022
86 Clear 29 1011 30 10000 6.69 270 20:37 25.09.2022
87 Clear 30 1011 28 10000 5.66 280 19:25 25.09.2022
88 Clear 31 1011 23 10000 6.17 280 18:29 25.09.2022
89 Clear 31 1011 23 10000 6.17 280 18:29 25.09.2022
90 Clear 32 1010 25 10000 7.2 280 17:29 25.09.2022
91 Clear 33 1010 24 10000 9.77 290 16:21 25.09.2022
92 Clear 35 1010 23 10000 9.77 310 14:55 25.09.2022
93 Clear 35 1010 23 10000 9.77 310 14:19 25.09.2022
94 Clear 34 1012 26 8000 8.23 320 11:35 25.09.2022
95 Clear 32 1013 27 6000 7.72 320 09:48 25.09.2022
96 Clear 27 1012 34 10000 5.14 320 07:43 25.09.2022
97 Clear 22 1011 43 7000 4.12 320 05:27 25.09.2022
98 Clear 28 1010 34 10000 5.66 310 23:37 24.09.2022
99 Clear 28 1010 34 10000 5.66 310 23:37 24.09.2022
100 Clear 29 1011 30 10000 5.14 290 21:25 24.09.2022
101 Clear 30 1011 26 10000 4.63 290 20:34 24.09.2022
102 Clear 32 1010 25 10000 5.14 300 19:20 24.09.2022
103 Clear 35 1010 21 10000 8.23 310 16:57 24.09.2022
104 Clear 36 1010 20 10000 8.75 300 15:29 24.09.2022
105 Clear 37 1010 19 10000 7.72 280 14:47 24.09.2022
106 Clear 37 1010 19 10000 8.23 290 13:22 24.09.2022
107 Clear 37 1011 19 10000 7.72 310 12:25 24.09.2022
108 Clear 32 1013 25 10000 4.12 320 09:59 24.09.2022
109 Clear 32 1013 25 10000 4.12 320 09:21 24.09.2022
110 Clear 30 1013 28 10000 4.12 320 08:40 24.09.2022
111 Clear 22 1011 40 10000 3.6 310 04:55 24.09.2022
112 Clear 22 1011 40 10000 3.6 310 04:27 24.09.2022
113 Clear 28 1010 42 10000 6.69 300 23:25 23.09.2022
114 Clear 29 1010 28 10000 5.14 300 21:41 23.09.2022
115 Clear 29 1010 28 10000 5.14 300 21:22 23.09.2022
116 Clear 27 1009 26 10000 3.09 310 20:54 23.09.2022
117 Clear 29 1009 24 10000 2.57 330 19:20 23.09.2022
118 Clear 35 1008 16 10000 5.66 280 17:50 23.09.2022
119 Clear 38 1008 17 10000 5.14 330 13:40 23.09.2022
120 Clear 36 1009 21 10000 6.17 340 10:24 23.09.2022
121 Clear 28 1009 39 10000 2.57 340 07:43 23.09.2022
122 Clear 27 1007 36 10000 3.6 320 02:32 23.09.2022
123 Clear 30 1006 32 10000 3.6 320 23:29 22.09.2022
124 Clear 31 1006 29 10000 4.63 300 22:28 22.09.2022
125 Clear 30 1006 28 10000 2.57 340 21:35 22.09.2022
126 Clear 32 1006 25 10000 4.12 320 20:23 22.09.2022
127 Clear 35 1005 24 10000 3.6 270 18:58 22.09.2022
128 Clouds 39 1004 22 8000 2.06 210 15:39 22.09.2022
129 Clouds 35 1005 28 7000 1.54 220 10:51 22.09.2022
130 Clouds 35 1005 28 7000 1.54 220 10:19 22.09.2022
131 Clouds 32 1005 29 8000 2.06 10 07:55 22.09.2022
132 Clouds 27 1004 34 6000 2.06 290 05:22 22.09.2022
133 Clouds 26 1004 36 7000 1.54 130 01:19 22.09.2022
134 Clear 28 1004 36 10000 1.03 0 22:29 21.09.2022
135 Clear 30 1004 32 10000 1.54 20 21:18 21.09.2022
136 Clear 33 1003 24 10000 2.06 230 18:51 21.09.2022
137 Clouds 36 1003 21 10000 3.09 170 17:44 21.09.2022
138 Clouds 39 1003 19 10000 5.66 190 15:47 21.09.2022
139 Clouds 41 1003 14 10000 5.66 170 13:54 21.09.2022
140 Clouds 40 1003 20 9000 5.66 110 11:43 21.09.2022
141 Clouds 37 1005 22 6000 4.12 140 10:59 21.09.2022
142 Clouds 31 1005 27 5000 3.09 170 09:40 21.09.2022
143 Clouds 30 1005 28 9000 4.12 170 08:43 21.09.2022
144 Clear 29 1003 24 10000 3.6 110 03:56 21.09.2022
145 Clear 25 1003 31 10000 2.57 140 02:38 21.09.2022
146 Clear 27 1003 26 10000 1.54 130 01:58 21.09.2022
147 Clear 29 1003 23 10000 2.06 200 00:20 21.09.2022
148 Clear 34 1003 18 10000 5.14 100 21:53 20.09.2022
149 Clear 35 1003 17 10000 4.63 120 20:33 20.09.2022
150 Clouds 36 1003 17 10000 4.12 120 18:51 20.09.2022
151 Clear 41 1003 13 10000 4.12 100 15:57 20.09.2022
152 Clear 42 1003 10 10000 3.6 130 14:29 20.09.2022
153 Clear 42 1004 10 10000 6.17 140 12:32 20.09.2022
154 Clear 32 1006 20 9000 3.6 130 08:50 20.09.2022
155 Clear 32 1006 20 9000 3.6 130 08:24 20.09.2022
156 Clear 25 1004 38 8000 1.03 0 04:40 20.09.2022
157 Clear 26 1004 34 10000 1.03 0 02:34 20.09.2022
158 Clear 29 1004 30 10000 0 0 22:46 19.09.2022
159 Clear 28 1009 12 8000 0 0 21:36 19.09.2022
160 Clear 32 1005 27 10000 1.54 330 20:40 19.09.2022
161 Clear 33 1004 24 10000 0.51 0 19:20 19.09.2022
162 Clear 38 1004 17 10000 0.51 0 17:37 19.09.2022
163 Clear 41 1004 14 10000 2.06 0 13:53 19.09.2022
164 Clear 41 1005 16 8000 1.03 0 12:33 19.09.2022
165 Clear 36 1006 24 6000 2.57 240 10:31 19.09.2022
166 Clear 32 1005 27 8000 1.03 0 08:42 19.09.2022
167 Clear 21 1004 49 10000 1.03 0 04:39 19.09.2022
168 Clear 26 1003 34 10000 1.03 0 01:18 19.09.2022
169 Clear 28 1004 30 10000 1.54 0 23:22 18.09.2022
170 Clear 29 1003 32 10000 1.03 0 21:32 18.09.2022
171 Clear 34 1003 24 10000 2.06 200 19:58 18.09.2022
172 Clear 38 1002 17 10000 0 0 17:53 18.09.2022
173 Clear 38 1002 17 10000 0 0 17:19 18.09.2022
174 Clear 42 1002 12 10000 2.06 270 15:34 18.09.2022
175 Clear 40 1003 18 10000 3.6 240 13:47 18.09.2022
176 Clear 43 1002 8 10000 4.57 294 12:33 18.09.2022
177 Clear 35 1004 28 8000 2.57 310 10:45 18.09.2022
178 Clear 26 1002 29 10000 2.06 260 03:40 18.09.2022
179 Clear 27 1001 28 10000 2.06 270 01:24 18.09.2022
180 Clear 28 1002 26 10000 2.57 280 00:21 18.09.2022
181 Clear 30 1002 21 10000 3.6 240 21:36 17.09.2022
182 Clear 29 1002 20 10000 2.06 210 19:42 17.09.2022
183 Clear 37 1001 14 10000 2.57 270 18:57 17.09.2022
184 Clear 40 1001 12 10000 6.17 260 15:58 17.09.2022
185 Clear 40 1001 9 10000 5.9 299 13:56 17.09.2022
186 Clear 39 1003 11 10000 6.69 305 10:56 17.09.2022
187 Clear 36 1004 15 10000 6.62 309 08:55 17.09.2022
188 Clear 26 1004 41 10000 4.12 280 06:24 17.09.2022
189 Clear 28 1004 28 10000 3.09 270 23:59 16.09.2022
190 Clear 29 1005 24 10000 3.6 270 22:52 16.09.2022
191 Clear 30 1005 23 10000 4.12 260 21:22 16.09.2022
192 Clear 33 1004 16 10000 4.68 294 19:50 16.09.2022
193 Clear 37 1005 14 10000 8.75 280 16:38 16.09.2022
194 Clear 38 1005 15 8000 9.26 280 14:58 16.09.2022
195 Clear 38 1006 15 9000 10.29 290 13:57 16.09.2022
196 Clear 38 1007 16 10000 9.26 300 11:31 16.09.2022
197 Clear 32 1009 25 10000 5.14 320 08:19 16.09.2022
198 Clear 29 1009 30 10000 3.6 310 07:19 16.09.2022
199 Clear 25 1008 36 10000 4.12 310 06:47 16.09.2022
200 Clear 27 1007 39 10000 3.09 320 02:40 16.09.2022
201 Clear 30 1008 28 10000 4.63 300 22:52 15.09.2022
202 Clear 33 1009 22 10000 5.14 280 20:57 15.09.2022
203 Clear 34 1008 20 10000 5.66 290 19:49 15.09.2022
204 Clear 35 1008 18 10000 6.17 290 18:29 15.09.2022
205 Clear 36 1008 17 10000 7.2 290 17:32 15.09.2022
206 Clear 38 1008 16 10000 8.23 290 16:43 15.09.2022
207 Clear 39 1008 17 10000 8.75 290 14:36 15.09.2022
208 Clear 39 1009 18 10000 6.69 310 12:21 15.09.2022
209 Clear 33 1010 29 10000 4.63 310 09:54 15.09.2022
210 Clear 29 1009 34 10000 2.57 310 07:50 15.09.2022
211 Clear 27 1007 41 10000 2.06 300 03:56 15.09.2022
212 Clear 27 1007 44 10000 2.57 330 01:20 15.09.2022
213 Clear 32 1007 31 10000 5.66 290 21:39 14.09.2022
214 Clear 35 1006 17 10000 4.63 290 19:34 14.09.2022
215 Clear 36 1005 16 10000 5.14 280 18:32 14.09.2022
216 Clear 37 1004 14 10000 6.77 299 16:57 14.09.2022
217 Clear 41 1004 15 10000 6.17 290 15:38 14.09.2022
218 Clear 40 1004 17 10000 5.66 330 13:54 14.09.2022
219 Clear 39 1005 18 8000 6.69 330 11:39 14.09.2022
220 Clear 37 1006 25 9000 6.17 350 09:48 14.09.2022
221 Clear 30 1005 32 10000 4.12 330 07:29 14.09.2022
222 Clear 34 1004 22 10000 6.9 340 06:46 14.09.2022
223 Clear 31 1003 25 10000 5.59 335 04:33 14.09.2022
224 Clear 30 1002 28 10000 3.6 330 01:47 14.09.2022
225 Clear 30 1002 28 10000 3.6 330 01:27 14.09.2022
226 Clear 31 1001 27 10000 3.6 330 00:48 14.09.2022
227 Clear 32 1001 27 10000 5.66 320 23:54 13.09.2022
228 Clear 32 1001 27 10000 5.66 320 23:36 13.09.2022
229 Clear 32 1001 27 10000 5.66 320 23:18 13.09.2022
230 Clear 32 1001 25 10000 3.6 320 21:50 13.09.2022
231 Clear 36 1000 20 10000 4.12 290 19:45 13.09.2022
232 Clear 40 999 17 10000 0.51 140 17:44 13.09.2022
233 Clear 44 999 13 10000 4.63 170 15:55 13.09.2022
234 Clear 44 999 13 10000 5.14 190 14:36 13.09.2022
235 Clear 43 1000 14 10000 3.09 140 12:40 13.09.2022
236 Clear 36 1001 24 6000 0.51 0 08:50 13.09.2022
237 Dust 26 1001 38 4900 1.54 190 05:45 13.09.2022
238 Clear 27 1000 32 9000 0.51 0 00:19 13.09.2022
239 Clear 30 1000 30 9000 1.03 120 22:50 12.09.2022
240 Clear 36 1000 12 10000 3.77 313 21:37 12.09.2022
241 Clear 37 1000 12 10000 3.89 314 20:25 12.09.2022
242 Clear 36 1000 20 10000 2.06 310 18:44 12.09.2022
243 Clear 42 1000 13 10000 3.09 290 16:38 12.09.2022
244 Clear 42 1000 13 10000 3.09 270 14:36 12.09.2022
245 Clear 41 1002 15 10000 3.09 350 11:29 12.09.2022
246 Clear 36 1003 20 10000 3.6 350 09:56 12.09.2022
247 Clear 26 1001 36 10000 3.09 320 04:51 12.09.2022
248 Clear 26 1001 36 10000 3.09 320 04:24 12.09.2022
249 Clear 32 1002 27 8000 2.06 330 23:35 11.09.2022
250 Clear 33 1002 25 10000 3.09 360 22:28 11.09.2022
251 Clear 33 1003 19 10000 1.03 0 20:50 11.09.2022
252 Clear 35 1003 20 10000 0 0 19:57 11.09.2022
253 Clear 35 1003 20 10000 0 0 19:25 11.09.2022
254 Clear 37 1002 19 10000 1.54 360 18:21 11.09.2022
255 Clear 42 1002 13 10000 3.09 360 16:46 11.09.2022
256 Clear 43 1003 12 10000 3.09 320 14:53 11.09.2022
257 Clear 42 1004 11 10000 2.57 360 12:50 11.09.2022
258 Clear 37 1006 19 6000 2.57 340 09:25 11.09.2022
259 Clear 37 1006 19 6000 2.57 340 09:25 11.09.2022
260 Clear 31 1006 23 5000 3.09 290 07:19 11.09.2022
261 Clear 32 1004 22 10000 1.54 40 00:54 11.09.2022
262 Clear 34 1005 22 10000 1.54 40 22:56 10.09.2022
263 Clear 35 1006 21 10000 4.12 10 21:33 10.09.2022
264 Clear 34 1006 26 10000 2.06 340 19:48 10.09.2022
265 Clear 34 1006 26 10000 2.06 340 19:29 10.09.2022
266 Clear 35 1005 23 10000 2.57 340 18:55 10.09.2022
267 Clear 42 1005 14 10000 3.09 340 16:51 10.09.2022
268 Clear 42 1006 14 10000 4.63 340 14:43 10.09.2022
269 Clear 43 1007 14 10000 5.14 340 12:53 10.09.2022
270 Clear 41 1007 13 10000 3.6 40 11:35 10.09.2022
271 Clear 40 1008 16 10000 3.09 20 09:51 10.09.2022
272 Clear 37 1008 23 7000 2.57 340 08:37 10.09.2022
273 Clear 35 1008 23 9000 2.57 340 07:49 10.09.2022
274 Clear 35 1006 23 10000 4.63 360 00:51 10.09.2022
275 Clear 35 1007 23 10000 3.6 360 23:34 09.09.2022
276 Clear 36 1007 21 10000 4.12 360 22:20 09.09.2022
277 Clear 35 1008 26 10000 3.09 350 20:48 09.09.2022
278 Clear 35 1007 26 10000 3.09 350 19:25 09.09.2022
279 Clear 36 1006 23 10000 3.09 330 18:53 09.09.2022
280 Clear 42 1006 15 10000 4.63 340 16:33 09.09.2022
281 Clear 44 1007 14 10000 5.66 340 13:51 09.09.2022
282 Clear 44 1007 14 10000 5.14 350 12:47 09.09.2022
283 Clear 43 1008 14 10000 5.66 360 10:22 09.09.2022
284 Clear 36 1007 19 10000 5.14 20 06:45 09.09.2022
285 Clear 35 1006 20 10000 5.66 20 03:24 09.09.2022
286 Clear 34 1007 27 10000 3.6 340 21:57 08.09.2022
287 Clear 34 1007 27 10000 3.6 340 21:36 08.09.2022
288 Clear 33 1007 27 9000 3.6 330 20:38 08.09.2022
289 Clear 33 1007 27 9000 3.6 330 20:19 08.09.2022
290 Clear 38 1005 22 10000 1.03 360 18:26 08.09.2022
291 Clear 43 1004 15 10000 2.57 340 16:27 08.09.2022
292 Clear 43 1005 17 9000 2.06 350 14:41 08.09.2022
293 Clear 43 1005 13 7000 4.12 340 13:27 08.09.2022
294 Clear 43 1005 15 6000 3.6 20 12:33 08.09.2022
295 Clear 41 1006 16 7000 3.6 40 10:58 08.09.2022
296 Clear 41 1006 16 7000 3.6 40 10:58 08.09.2022
297 Clear 37 1006 19 7000 6.17 10 08:59 08.09.2022
298 Clear 33 1005 24 8000 5.14 10 06:43 08.09.2022
299 Clear 29 1004 34 10000 3.09 340 02:37 08.09.2022
300 Clear 29 1004 34 10000 3.09 340 02:19 08.09.2022
301 Clear 28 1004 34 10000 4.12 320 01:38 08.09.2022
302 Clear 32 1004 27 10000 2.57 330 22:55 07.09.2022
303 Clear 32 1004 29 10000 3.09 330 21:43 07.09.2022
304 Clear 34 1004 26 10000 4.12 230 20:56 07.09.2022
305 Clear 35 1003 23 10000 3.09 300 19:54 07.09.2022
306 Clear 39 1002 21 10000 3.6 300 18:39 07.09.2022
307 Clear 44 1001 15 10000 2.06 10 14:56 07.09.2022
308 Clear 41 1003 18 7000 3.09 40 10:50 07.09.2022
309 Clear 41 1003 18 7000 3.09 40 10:24 07.09.2022
310 Clear 32 1002 29 6000 4.12 310 07:36 07.09.2022
311 Clear 28 1001 32 10000 3.09 310 04:39 07.09.2022
312 Clear 29 1001 32 9000 2.57 310 00:25 07.09.2022
313 Clear 36 1001 23 7000 1.03 360 21:45 06.09.2022
314 Clear 36 1001 23 7000 1.03 360 21:24 06.09.2022
315 Clear 38 1000 20 8000 2.57 340 18:53 06.09.2022
316 Clear 38 1000 20 8000 2.57 340 18:27 06.09.2022
317 Clear 42 1000 15 8000 4.63 290 17:23 06.09.2022
318 Clear 44 1000 14 10000 4.12 270 16:40 06.09.2022
319 Clear 44 1000 14 9000 3.6 290 15:23 06.09.2022
320 Clear 45 1001 13 7000 3.09 250 13:46 06.09.2022
321 Clear 45 1001 13 7000 3.09 250 13:25 06.09.2022
322 Clear 45 1002 13 6000 2.57 310 12:37 06.09.2022
323 Dust 42 1003 17 3000 2.06 340 10:46 06.09.2022
324 Dust 35 1003 24 4000 2.57 350 08:53 06.09.2022
325 Clear 32 1003 25 5000 2.57 330 07:51 06.09.2022
326 Clear 27 1002 32 10000 3.09 310 04:48 06.09.2022
327 Clear 31 1002 25 10000 3.09 330 23:42 05.09.2022
328 Clear 32 1002 25 10000 3.09 330 22:31 05.09.2022
329 Clear 37 1002 16 10000 3.6 300 20:58 05.09.2022
330 Clear 39 1002 16 10000 5.14 290 19:50 05.09.2022
331 Clear 41 1001 14 10000 4.63 280 18:49 05.09.2022
332 Clear 41 1001 14 10000 4.63 280 18:22 05.09.2022
333 Clear 43 1001 12 10000 4.12 280 17:31 05.09.2022
334 Clear 45 1001 11 10000 6.69 270 15:52 05.09.2022
335 Clear 46 1002 11 10000 4.63 340 13:39 05.09.2022
336 Clear 45 1002 11 10000 5.66 340 12:29 05.09.2022
337 Clear 42 1003 16 8000 6.17 320 10:34 05.09.2022
338 Clear 34 1003 26 9000 5.66 290 07:43 05.09.2022
339 Clear 33 1001 17 10000 4.63 320 02:58 05.09.2022
340 Clear 33 1002 18 10000 3.6 310 23:48 04.09.2022
341 Clear 35 1002 14 10000 4.63 300 22:28 04.09.2022
342 Clear 37 1002 12 10000 4.12 290 21:45 04.09.2022
343 Clear 39 1001 13 10000 4.12 270 19:44 04.09.2022
344 Clear 41 1001 12 10000 3.6 280 18:21 04.09.2022
345 Clear 44 1001 10 10000 5.14 270 17:24 04.09.2022
346 Clear 47 1001 8 10000 4.63 340 14:59 04.09.2022
347 Clear 47 1001 8 10000 4.63 340 14:22 04.09.2022
348 Clear 46 1002 9 10000 6.17 310 12:24 04.09.2022
349 Clear 42 1003 12 10000 3.6 290 10:58 04.09.2022
350 Clear 40 1004 14 10000 4.63 300 09:24 04.09.2022
351 Clear 29 1004 30 10000 2.06 290 06:27 04.09.2022
352 Clear 30 1003 25 10000 2.06 290 02:31 04.09.2022
353 Clear 35 1003 17 10000 2.06 280 22:26 03.09.2022
354 Clear 35 1003 17 10000 2.06 280 22:26 03.09.2022
355 Clear 36 1004 16 10000 2.06 280 21:24 03.09.2022
356 Clear 38 1004 15 10000 3.6 250 20:51 03.09.2022
357 Clear 44 1003 14 10000 2.57 250 17:37 03.09.2022
358 Clear 46 1003 10 10000 4.12 240 16:49 03.09.2022
359 Clear 47 1003 10 10000 4.63 270 14:48 03.09.2022
360 Clear 47 1003 10 10000 4.63 270 14:30 03.09.2022
361 Clear 46 1004 9 10000 4.63 270 13:44 03.09.2022
362 Clear 45 1005 9 7000 4.12 250 11:31 03.09.2022
363 Clear 36 1006 24 8000 2.57 200 08:57 03.09.2022
364 Clear 31 1007 27 8000 3.09 200 07:45 03.09.2022
365 Clear 27 1005 29 10000 3.6 320 04:48 03.09.2022
366 Clear 31 1005 23 10000 2.06 310 02:35 03.09.2022
367 Clear 30 1005 25 9000 1.03 210 23:35 02.09.2022
368 Clear 33 1005 21 10000 2.06 160 21:46 02.09.2022
369 Clear 36 1005 15 10000 1.03 0 20:40 02.09.2022
370 Clear 37 1005 15 9000 1.54 270 19:47 02.09.2022
371 Clear 37 1005 15 9000 1.54 270 19:47 02.09.2022
372 Clear 39 1004 15 10000 1.54 270 18:50 02.09.2022
373 Clear 39 1004 15 10000 1.54 270 18:24 02.09.2022
374 Clear 43 1003 6 10000 1.96 309 17:23 02.09.2022
375 Clear 45 1004 9 10000 3.09 280 16:22 02.09.2022
376 Clear 45 1005 10 10000 3.09 250 13:25 02.09.2022
377 Clear 42 1006 14 8000 2.06 220 10:39 02.09.2022
378 Clear 39 1007 18 9000 3.09 210 09:42 02.09.2022
379 Clear 37 1006 19 7000 2.57 210 08:43 02.09.2022
380 Smoke 28 1005 34 3000 0.51 0 06:44 02.09.2022
381 Clear 36 1005 12 10000 0.74 106 05:32 02.09.2022
382 Clear 32 1004 20 9000 2.57 330 23:19 01.09.2022
383 Clear 33 1004 22 10000 0.51 0 21:47 01.09.2022
384 Clear 33 1004 22 10000 0.51 0 21:27 01.09.2022
385 Clear 36 1004 19 10000 2.06 10 20:52 01.09.2022
386 Clear 35 1003 20 10000 1.54 340 19:25 01.09.2022
387 Clear 38 1003 14 10000 2.06 190 18:18 01.09.2022
388 Clear 45 1002 10 10000 4.12 200 16:47 01.09.2022
389 Clear 46 1003 10 10000 5.66 200 14:41 01.09.2022
390 Clear 45 1003 10 10000 3.6 160 13:21 01.09.2022
391 Clear 45 1003 11 10000 4.63 160 12:42 01.09.2022
392 Clear 44 1004 12 9000 3.09 140 11:50 01.09.2022
393 Clear 44 1004 12 9000 3.09 140 11:19 01.09.2022
394 Clear 42 1005 15 10000 4.12 140 09:31 01.09.2022
395 Smoke 28 1004 26 3000 1.54 150 06:31 01.09.2022
396 Clear 29 1003 24 10000 3.09 100 02:33 01.09.2022
397 Clear 32 1003 20 10000 2.06 150 01:29 01.09.2022
398 Clear 31 1004 27 10000 1.54 340 22:22 31.08.2022
399 Clear 35 1004 24 10000 0 0 20:35 31.08.2022
400 Clear 40 1003 15 10000 1.54 110 18:32 31.08.2022
401 Clear 45 1003 10 10000 4.63 280 16:35 31.08.2022
402 Clouds 45 1003 10 10000 4.63 250 15:18 31.08.2022
403 Clear 46 1005 10 10000 3.6 250 12:37 31.08.2022
404 Clear 44 1005 12 10000 2.06 270 11:48 31.08.2022
405 Clear 40 1006 17 5000 2.3 285 09:31 31.08.2022
406 Clear 34 1006 21 9000 2.06 270 07:28 31.08.2022
407 Clear 29 1005 24 10000 2.06 280 01:57 31.08.2022
408 Clear 31 1006 23 10000 0.51 0 22:18 30.08.2022
409 Clear 33 1006 21 10000 0 0 21:27 30.08.2022
410 Clear 37 1005 16 10000 2.57 240 19:26 30.08.2022
411 Clear 45 1005 8 10000 3.09 360 16:47 30.08.2022
412 Clear 45 1006 9 10000 5.66 340 13:37 30.08.2022
413 Clear 44 1007 10 10000 5.66 340 11:23 30.08.2022
414 Clear 42 1007 12 10000 5.66 350 10:57 30.08.2022
415 Clear 36 1007 16 10000 5.66 320 08:51 30.08.2022
416 Clear 27 1006 21 10000 3.09 330 03:57 30.08.2022
417 Clear 31 1005 16 10000 3.09 330 00:26 30.08.2022
418 Clear 32 1005 13 10000 5.14 300 22:36 29.08.2022
419 Clear 33 1005 16 10000 1.54 320 21:48 29.08.2022
420 Clear 35 1005 17 10000 0.51 0 20:34 29.08.2022
421 Clear 39 1003 14 10000 2.06 320 18:55 29.08.2022
422 Clear 42 1003 11 10000 2.57 330 17:26 29.08.2022
423 Clear 45 1003 9 10000 3.09 340 16:56 29.08.2022
424 Clear 45 1003 9 10000 4.12 340 15:18 29.08.2022
425 Clear 45 1004 9 10000 6.17 350 13:40 29.08.2022
426 Clear 43 1005 12 10000 4.63 340 11:44 29.08.2022
427 Clear 41 1005 13 10000 5.66 320 10:42 29.08.2022
428 Clear 35 1006 18 10000 6.69 300 08:40 29.08.2022
429 Clear 30 1005 21 10000 4.12 310 06:29 29.08.2022
430 Clear 31 1004 16 10000 4.12 310 01:58 29.08.2022
431 Clear 35 1004 13 7000 5.14 320 22:55 28.08.2022
432 Clear 35 1004 14 8000 4.63 320 21:46 28.08.2022
433 Clear 37 1004 12 7000 5.14 300 20:59 28.08.2022
434 Clear 37 1004 13 7000 5.14 300 19:59 28.08.2022
435 Clear 41 1002 10 8000 5.66 280 18:22 28.08.2022
436 Clear 43 1002 12 10000 2.57 290 17:45 28.08.2022
437 Clear 44 1002 10 10000 3.6 340 16:42 28.08.2022
438 Clear 45 1002 10 10000 6.17 330 14:46 28.08.2022
439 Clear 45 1002 10 10000 6.17 330 14:46 28.08.2022
440 Clear 43 1003 12 10000 5.66 360 12:56 28.08.2022
441 Clear 43 1004 12 10000 7.72 310 11:19 28.08.2022
442 Clear 41 1004 12 10000 7.72 310 10:19 28.08.2022
443 Clear 35 1005 18 10000 8.75 310 08:42 28.08.2022
444 Clear 34 1005 18 10000 8.23 300 07:50 28.08.2022
445 Clear 33 1004 15 9000 7.2 320 03:44 28.08.2022
446 Dust 34 1005 20 4000 6.69 300 00:34 28.08.2022
447 Dust 37 1005 18 1100 7.2 300 22:50 27.08.2022
448 Dust 37 1005 18 1100 7.2 300 22:19 27.08.2022
449 Clouds 40 1004 13 800 8.23 290 20:27 27.08.2022
450 Dust 41 1003 12 800 6.69 280 18:50 27.08.2022
451 Dust 43 1003 10 2500 6.17 310 16:26 27.08.2022
452 Dust 44 1003 10 3000 6.69 310 15:30 27.08.2022
453 Clear 43 1004 12 9000 7.72 310 12:55 27.08.2022
454 Clear 42 1004 12 9000 8.23 320 11:56 27.08.2022
455 Clear 38 1005 19 9000 8.23 310 09:52 27.08.2022
456 Clear 38 1005 19 9000 8.23 310 09:25 27.08.2022
457 Clear 29 1004 26 10000 5.14 310 05:24 27.08.2022
458 Clear 33 1003 21 8000 6.17 310 00:51 27.08.2022
459 Clear 34 1003 20 6000 6.69 310 23:35 26.08.2022
460 Clear 36 1002 20 6000 7.2 300 21:45 26.08.2022
461 Clear 38 1002 17 6000 7.2 300 19:40 26.08.2022
462 Dust 41 1001 14 2000 6.69 280 17:49 26.08.2022
463 Dust 42 1001 15 2000 9.26 280 15:40 26.08.2022
464 Dust 43 1001 13 2000 9.77 280 14:56 26.08.2022
465 Clear 43 1002 12 2500 10.29 290 12:54 26.08.2022
466 Dust 42 1002 13 2500 10.29 300 11:42 26.08.2022
467 Dust 42 1002 13 2500 10.29 300 11:21 26.08.2022
468 Clear 33 1003 21 6000 7.2 310 07:56 26.08.2022
469 Clear 32 1001 31 10000 5.66 300 02:43 26.08.2022
470 Clear 35 1002 24 10000 6.17 280 23:45 25.08.2022
471 Clear 35 1002 26 10000 4.12 260 21:55 25.08.2022
472 Clear 36 1001 24 10000 3.6 250 20:53 25.08.2022
473 Clear 37 1001 23 10000 3.09 240 19:27 25.08.2022
474 Clear 38 1001 22 9000 3.6 270 18:29 25.08.2022
475 Clear 40 1001 20 10000 4.63 270 17:31 25.08.2022
476 Clear 41 1001 17 10000 6.69 280 16:36 25.08.2022
477 Clear 42 1001 15 10000 6.69 290 15:28 25.08.2022
478 Clear 41 1002 18 10000 7.72 280 13:20 25.08.2022
479 Clear 40 1003 24 10000 6.69 300 10:49 25.08.2022
480 Clear 38 1004 30 10000 6.17 290 09:46 25.08.2022
481 Clear 39 1003 20 10000 6.18 325 07:31 25.08.2022
482 Clear 29 1003 37 10000 3.09 310 02:41 25.08.2022
483 Clear 33 1003 27 10000 3.6 290 23:30 24.08.2022
484 Clear 34 1003 24 10000 3.6 270 22:54 24.08.2022
485 Clear 35 1003 23 10000 4.63 270 21:39 24.08.2022
486 Clear 35 1003 23 10000 4.63 270 21:20 24.08.2022
487 Clear 37 1003 19 10000 3.6 270 19:52 24.08.2022
488 Clear 41 1002 16 10000 7.72 270 16:51 24.08.2022
489 Clear 42 1002 14 10000 7.72 280 15:53 24.08.2022
490 Clear 42 1002 16 10000 7.72 260 14:58 24.08.2022
491 Clear 42 1003 14 10000 8.23 290 12:28 24.08.2022
492 Clear 42 1003 16 10000 8.23 280 11:18 24.08.2022
493 Clear 35 1004 28 10000 6.69 300 08:38 24.08.2022
494 Clear 31 1002 30 10000 4.12 310 03:54 24.08.2022
495 Clear 33 1002 33 10000 5.66 300 00:41 24.08.2022
496 Clear 34 1003 26 10000 3.6 270 22:35 23.08.2022
497 Clear 35 1003 21 10000 3.6 260 21:49 23.08.2022
498 Clear 36 1002 19 10000 3.09 250 20:40 23.08.2022
499 Clear 39 1001 17 10000 3.6 260 18:58 23.08.2022
500 Clear 41 1001 14 10000 6.17 270 17:56 23.08.2022
501 Clear 41 1001 14 10000 6.17 270 17:21 23.08.2022
502 Clear 42 1001 14 10000 4.12 240 15:54 23.08.2022
503 Clear 43 1002 14 10000 5.14 310 13:54 23.08.2022
504 Clear 43 1002 13 10000 3.6 330 12:46 23.08.2022
505 Clear 41 1003 21 10000 1.54 320 10:57 23.08.2022
506 Clear 41 1003 21 10000 1.54 320 10:33 23.08.2022
507 Clear 35 1003 29 9000 3.09 290 08:58 23.08.2022
508 Clear 35 1003 29 9000 3.09 290 08:38 23.08.2022
509 Clear 35 1003 29 9000 3.09 290 08:18 23.08.2022
510 Clear 34 1002 26 8000 2.57 360 07:25 23.08.2022
511 Clear 29 1002 32 10000 2.06 330 06:22 23.08.2022
512 Clear 33 1001 25 10000 4.63 250 01:44 23.08.2022
513 Clear 32 1001 27 10000 3.6 250 00:26 23.08.2022
514 Clear 32 1001 29 10000 3.6 240 23:32 22.08.2022
515 Clear 33 1001 25 10000 4.12 240 22:24 22.08.2022
516 Clear 38 1001 17 10000 4.12 290 20:29 22.08.2022
517 Clear 38 1001 19 10000 3.09 260 19:41 22.08.2022
518 Clear 39 1001 19 10000 4.12 280 18:37 22.08.2022
519 Clear 43 1000 15 10000 4.12 290 15:46 22.08.2022
520 Clear 43 1000 15 10000 4.12 290 15:18 22.08.2022
521 Dust 40 1001 27 1500 8.23 280 11:45 22.08.2022
522 Dust 37 1000 28 3000 5.66 280 09:24 22.08.2022
523 Clear 26 999 36 10000 2.57 240 05:51 22.08.2022
524 Clear 30 997 28 10000 2.57 110 00:57 22.08.2022
525 Clear 30 997 28 10000 2.57 110 00:36 22.08.2022
526 Clear 31 998 23 10000 1.54 140 23:32 21.08.2022
527 Clear 36 998 16 10000 1.54 270 21:55 21.08.2022
528 Clear 36 998 16 10000 1.54 270 21:19 21.08.2022
529 Clear 38 997 17 10000 3.6 210 19:58 21.08.2022
530 Clear 40 997 15 10000 3.6 220 18:36 21.08.2022
531 Clear 45 997 12 10000 3.09 240 16:50 21.08.2022
532 Clear 45 997 13 10000 3.6 240 15:52 21.08.2022
533 Clear 45 997 13 10000 3.09 250 14:51 21.08.2022
534 Clear 45 997 14 10000 3.6 270 13:50 21.08.2022
535 Clear 44 998 14 8000 3.6 240 12:56 21.08.2022
536 Clear 41 998 21 7000 4.12 350 10:40 21.08.2022
537 Clear 37 999 26 7000 5.14 280 08:57 21.08.2022
538 Clear 37 999 26 7000 5.14 280 08:39 21.08.2022
539 Clear 37 999 26 7000 5.14 280 08:18 21.08.2022
540 Clear 31 999 40 10000 5.14 250 06:33 21.08.2022
541 Clear 32 997 25 10000 2.57 330 01:50 21.08.2022
542 Clear 36 998 21 10000 2.57 300 23:34 20.08.2022
543 Clouds 35 998 28 7000 1.54 310 21:55 20.08.2022
544 Clouds 37 998 26 8000 2.06 340 20:51 20.08.2022
545 Clouds 38 998 25 8000 1.54 350 19:44 20.08.2022
546 Clouds 39 998 21 9000 1.54 350 18:50 20.08.2022
547 Clouds 39 998 21 9000 1.54 350 18:26 20.08.2022
548 Clouds 44 997 15 9000 3.6 280 17:21 20.08.2022
549 Clear 46 997 15 8000 3.09 270 15:57 20.08.2022
550 Clouds 46 998 13 8000 3.09 360 14:26 20.08.2022
551 Dust 45 999 13 3800 4.12 290 11:58 20.08.2022
552 Dust 45 999 13 3800 4.12 290 11:37 20.08.2022
553 Clouds 43 1000 11 10000 5.73 348 09:20 20.08.2022
554 Dust 34 999 29 5000 2.57 340 07:30 20.08.2022
555 Clear 30 998 32 10000 1.03 0 04:50 20.08.2022
556 Clear 35 999 23 10000 2.06 320 00:58 20.08.2022
557 Clouds 36 998 21 10000 4.12 320 23:45 19.08.2022
558 Clouds 36 999 21 10000 4.12 300 22:45 19.08.2022
559 Clear 35 999 21 10000 2.06 280 21:20 19.08.2022
560 Clear 41 997 16 10000 3.09 260 18:59 19.08.2022
561 Clear 41 997 16 10000 3.09 260 18:59 19.08.2022
562 Clear 46 997 12 10000 5.66 290 16:23 19.08.2022
563 Clear 46 998 14 10000 5.66 270 13:56 19.08.2022
564 Clear 43 999 14 10000 4.63 290 11:51 19.08.2022
565 Clear 42 999 16 10000 5.14 330 10:33 19.08.2022
566 Clear 36 999 20 10000 3.6 340 08:43 19.08.2022
567 Clear 26 998 31 10000 3.6 320 04:39 19.08.2022
568 Clear 31 997 30 10000 2.06 340 00:42 19.08.2022
569 Clear 31 997 30 10000 2.06 340 00:19 19.08.2022
570 Clear 35 997 23 10000 3.6 290 22:57 18.08.2022
571 Clear 35 997 23 10000 3.6 290 22:23 18.08.2022
572 Clear 37 997 19 10000 5.66 290 21:49 18.08.2022
573 Clear 39 998 17 10000 5.66 290 20:55 18.08.2022
574 Clear 40 997 17 10000 5.66 290 19:39 18.08.2022
575 Clear 40 997 17 10000 5.66 290 19:20 18.08.2022
576 Clear 45 997 13 10000 6.69 290 17:32 18.08.2022
577 Clear 47 997 11 10000 9.77 310 15:53 18.08.2022
578 Clear 47 997 11 10000 9.26 310 14:21 18.08.2022
579 Clear 47 998 10 10000 9.26 310 13:44 18.08.2022
580 Clear 45 998 11 10000 7.72 320 12:28 18.08.2022
581 Clear 44 999 11 10000 7.2 320 11:20 18.08.2022
582 Clear 39 1000 16 10000 8.75 310 09:43 18.08.2022
583 Clear 31 999 22 10000 7.2 300 07:27 18.08.2022
584 Clear 28 999 26 10000 3.6 330 06:30 18.08.2022
585 Clear 30 998 32 10000 4.12 320 01:44 18.08.2022
586 Clear 36 998 23 7000 6.17 300 22:45 17.08.2022
587 Clear 38 999 17 6000 5.66 290 20:21 17.08.2022
588 Dust 39 999 17 5000 6.17 290 19:58 17.08.2022
589 Dust 41 998 16 2500 6.69 290 18:33 17.08.2022
590 Dust 42 998 14 4000 8.23 290 17:21 17.08.2022
591 Dust 44 998 10 3000 10.8 300 15:46 17.08.2022
592 Dust 44 999 13 3000 10.8 290 14:41 17.08.2022
593 Dust 43 999 15 2000 10.8 290 12:30 17.08.2022
594 Dust 43 1000 15 2000 10.29 290 11:23 17.08.2022
595 Clear 40 1001 16 5000 7.72 320 09:22 17.08.2022
596 Clear 30 1001 26 10000 4.63 320 06:34 17.08.2022
597 Clear 31 1000 19 10000 5.66 320 01:22 17.08.2022
598 Clear 34 1000 22 9000 8.23 300 23:27 16.08.2022
599 Dust 37 1001 19 4300 6.17 300 21:32 16.08.2022
600 Dust 38 1001 17 3500 8.23 300 20:22 16.08.2022
601 Dust 39 1001 15 3000 8.23 300 19:27 16.08.2022
602 Dust 42 1001 13 1300 8.23 290 17:56 16.08.2022
603 Dust 43 1001 14 1300 9.77 300 16:55 16.08.2022
604 Clear 44 1000 7 10000 10.62 318 15:45 16.08.2022
605 Dust 43 1001 12 1000 10.8 320 14:54 16.08.2022
606 Dust 43 1001 12 1000 10.8 320 14:36 16.08.2022
607 Dust 43 1002 11 1200 11.83 310 12:39 16.08.2022
608 Clear 40 1003 18 7000 8.75 310 10:23 16.08.2022
609 Clear 34 1004 26 9000 5.66 320 08:55 16.08.2022
610 Clear 34 1004 26 9000 5.66 320 08:26 16.08.2022
611 Clear 30 1003 28 10000 4.63 320 06:48 16.08.2022
612 Clear 31 1002 29 10000 5.14 320 01:20 16.08.2022
613 Clear 34 1002 31 10000 6.17 300 22:26 15.08.2022
614 Clear 36 1002 24 10000 6.17 290 21:51 15.08.2022
615 Clear 37 1002 22 10000 6.69 300 20:35 15.08.2022
616 Clear 38 1002 20 10000 6.69 290 19:59 15.08.2022
617 Clear 40 1000 12 10000 7.17 316 18:00 15.08.2022
618 Clear 44 1001 13 10000 8.23 310 16:25 15.08.2022
619 Clear 44 1001 13 10000 8.75 310 15:54 15.08.2022
620 Clear 43 1002 17 10000 7.2 330 13:54 15.08.2022
621 Clear 42 1002 20 9000 6.69 350 11:25 15.08.2022
622 Clear 38 1003 25 5000 5.14 330 09:53 15.08.2022
623 Clear 31 1002 30 10000 5.14 320 07:49 15.08.2022
624 Clear 25 1000 33 10000 4.12 310 04:35 15.08.2022
625 Clear 29 999 32 10000 2.57 320 00:54 15.08.2022
626 Clear 30 999 28 10000 3.6 320 22:38 14.08.2022
627 Clear 32 999 25 10000 3.6 320 21:38 14.08.2022
628 Clear 36 998 20 10000 3.09 300 19:54 14.08.2022
629 Clear 39 998 18 10000 3.6 290 18:58 14.08.2022
630 Clear 39 998 18 10000 3.6 290 18:19 14.08.2022
631 Clear 42 998 16 10000 7.2 270 16:53 14.08.2022
632 Clear 43 998 17 8000 6.17 270 15:49 14.08.2022
633 Dust 43 998 18 3000 7.2 290 14:33 14.08.2022
634 Dust 43 999 18 3000 6.69 280 13:50 14.08.2022
635 Dust 43 999 18 3000 6.69 280 13:20 14.08.2022
636 Dust 42 999 19 3000 5.66 310 12:28 14.08.2022
637 Dust 39 1000 24 1000 6.17 330 10:50 14.08.2022
638 Dust 35 1000 31 1000 8.75 310 08:51 14.08.2022
639 Clear 32 1000 37 9000 6.17 310 06:22 14.08.2022
640 Clear 32 997 23 10000 3.6 290 02:49 14.08.2022
641 Clear 31 997 23 10000 2.57 300 00:19 14.08.2022
642 Clear 34 997 20 10000 2.57 270 22:56 13.08.2022
643 Clear 33 997 22 10000 2.06 260 21:19 13.08.2022
644 Clear 36 997 19 10000 3.09 260 20:43 13.08.2022
645 Clear 37 996 18 10000 3.09 260 19:44 13.08.2022
646 Clear 42 996 13 10000 6.69 290 17:59 13.08.2022
647 Clear 43 996 15 8000 7.72 280 15:32 13.08.2022
648 Clear 44 997 16 6000 7.72 290 14:28 13.08.2022
649 Dust 43 997 18 5000 8.75 290 13:41 13.08.2022
650 Dust 42 998 21 4000 8.23 290 11:53 13.08.2022
651 Dust 40 998 27 2500 9.77 300 10:31 13.08.2022
652 Clear 38 999 32 6000 8.23 300 09:18 13.08.2022
653 Clear 29 998 45 10000 5.66 280 05:57 13.08.2022
654 Clear 34 998 26 10000 5.66 280 00:29 13.08.2022
655 Clear 35 998 26 10000 6.17 280 22:23 12.08.2022
656 Clear 36 999 21 10000 6.17 290 20:58 12.08.2022
657 Clear 37 999 20 10000 5.66 290 19:43 12.08.2022
658 Clear 38 998 20 10000 6.17 290 18:52 12.08.2022
659 Clear 40 998 17 10000 7.72 280 17:57 12.08.2022
660 Clear 42 998 14 10000 7.72 290 16:24 12.08.2022
661 Clear 43 999 14 9000 10.29 300 14:47 12.08.2022
662 Dust 42 1000 17 3100 11.32 310 12:57 12.08.2022
663 Dust 42 1000 17 5000 10.29 320 11:19 12.08.2022
664 Clear 35 1001 34 8000 7.72 310 08:47 12.08.2022
665 Dust 32 1001 40 4500 8.75 310 07:44 12.08.2022
666 Clear 30 1000 42 10000 4.12 320 03:41 12.08.2022
667 Clear 33 999 31 10000 6.17 300 00:31 12.08.2022
668 Clear 34 1000 29 10000 6.17 290 23:40 11.08.2022
669 Clear 35 1000 28 10000 6.17 290 22:35 11.08.2022
670 Clear 35 1000 26 10000 5.66 290 21:43 11.08.2022
671 Clear 35 1000 26 10000 5.66 290 21:22 11.08.2022
672 Clear 36 1000 24 10000 5.66 290 20:29 11.08.2022
673 Clear 37 1000 23 10000 6.17 290 19:33 11.08.2022
674 Clear 38 999 22 10000 6.69 290 18:39 11.08.2022
675 Clear 42 999 16 10000 7.2 290 16:38 11.08.2022
676 Clear 42 999 19 10000 8.75 300 15:37 11.08.2022
677 Dust 42 1000 21 4000 9.26 300 13:51 11.08.2022
678 Clear 41 1001 24 9000 9.26 300 11:26 11.08.2022
679 Clear 33 1001 35 7000 7.72 310 07:56 11.08.2022
680 Clear 29 999 37 10000 4.63 320 04:53 11.08.2022
681 Clear 31 998 35 10000 4.12 310 01:55 11.08.2022
682 Clear 34 999 31 10000 6.17 290 22:54 10.08.2022
683 Clear 35 999 28 10000 6.17 290 21:44 10.08.2022
684 Dust 36 999 24 7000 6.17 290 20:56 10.08.2022
685 Clear 37 998 25 7000 6.69 290 19:58 10.08.2022
686 Clear 38 998 22 6000 6.69 280 18:45 10.08.2022
687 Clear 40 998 21 10000 8.23 290 17:20 10.08.2022
688 Clouds 43 999 20 900 10.29 300 13:49 10.08.2022
689 Clouds 42 999 20 300 9.26 290 12:50 10.08.2022
690 Clear 43 999 14 10000 10.48 317 10:31 10.08.2022
691 Dust 35 1000 29 2000 11.32 300 08:37 10.08.2022
692 Clear 33 1000 33 7000 10.29 300 07:22 10.08.2022
693 Clear 33 999 25 10000 7.59 327 04:50 10.08.2022
694 Clear 33 998 29 10000 4.63 300 00:50 10.08.2022
695 Clear 34 999 27 10000 5.66 290 23:27 09.08.2022
696 Clear 37 1000 22 10000 6.69 280 21:41 09.08.2022
697 Clear 37 1000 22 10000 6.69 280 21:22 09.08.2022
698 Clear 39 999 14 10000 7.72 302 18:56 09.08.2022
699 Clear 42 999 14 10000 6.69 280 17:31 09.08.2022
700 Clear 43 998 10 10000 8.78 310 16:46 09.08.2022
701 Clear 44 998 9 10000 9.63 313 16:22 09.08.2022
702 Clear 45 998 9 10000 9.68 314 14:50 09.08.2022
703 Clear 42 1001 16 10000 8.75 310 11:29 09.08.2022
704 Clear 36 1002 21 9000 6.69 320 08:53 09.08.2022
705 Clear 39 1001 12 10000 8.25 327 07:58 09.08.2022
706 Clear 28 1001 26 10000 3.6 310 05:24 09.08.2022
707 Clear 31 1000 25 10000 3.6 320 00:59 09.08.2022
708 Clear 31 1000 25 10000 3.6 320 00:59 09.08.2022
709 Clear 34 1000 21 10000 4.63 320 23:25 08.08.2022
710 Clear 37 1000 17 10000 5.4 341 22:42 08.08.2022
711 Clear 34 1001 15 10000 3.09 310 21:44 08.08.2022
712 Clear 38 1001 14 10000 5.73 324 20:39 08.08.2022
713 Clear 39 1001 13 10000 5.14 290 19:35 08.08.2022
714 Clear 41 1000 14 10000 5.14 280 18:18 08.08.2022
715 Clear 45 1000 15 9000 7.2 290 15:54 08.08.2022
716 Clear 45 1000 15 9000 7.2 290 15:36 08.08.2022
717 Clear 44 1001 14 8000 5.14 320 12:30 08.08.2022
718 Dust 41 1002 20 2500 5.66 340 10:33 08.08.2022
719 Dust 35 1001 24 5000 4.12 300 07:59 08.08.2022
720 Clear 30 999 35 10000 3.09 320 04:31 08.08.2022
721 Clear 33 998 29 10000 1.54 320 00:33 08.08.2022
722 Clear 37 998 20 10000 3.6 310 21:42 07.08.2022
723 Clear 37 998 20 10000 3.6 310 21:24 07.08.2022
724 Clear 39 998 18 10000 4.12 300 20:24 07.08.2022
725 Clear 41 998 18 10000 4.63 280 19:52 07.08.2022
726 Clear 41 998 18 10000 4.63 280 19:22 07.08.2022
727 Clear 43 997 18 6000 6.17 280 17:45 07.08.2022
728 Dust 45 997 15 4000 6.69 280 16:52 07.08.2022
729 Dust 46 997 13 3000 6.17 300 15:40 07.08.2022
730 Dust 46 997 12 3100 5.14 330 14:27 07.08.2022
731 Dust 46 998 9 5000 7.2 310 12:41 07.08.2022
732 Dust 42 999 14 2000 8.23 310 10:53 07.08.2022
733 Dust 42 999 14 2000 8.23 310 10:21 07.08.2022
734 Dust 33 996 27 5000 3.6 310 04:41 07.08.2022
735 Clear 35 996 29 6000 3.6 300 02:35 07.08.2022
736 Clear 40 996 22 10000 4.63 300 22:40 06.08.2022
737 Clear 40 996 22 10000 4.63 300 22:18 06.08.2022
738 Clear 41 996 22 8000 3.09 270 20:19 06.08.2022
739 Clear 43 996 19 10000 4.12 280 19:37 06.08.2022
740 Clear 45 995 13 10000 6.16 306 17:52 06.08.2022
741 Clear 47 996 15 9000 6.17 270 16:30 06.08.2022
742 Clear 47 997 15 10000 4.63 280 13:52 06.08.2022
743 Clear 47 998 16 10000 5.14 310 12:50 06.08.2022
744 Clouds 45 998 16 7000 4.63 300 11:21 06.08.2022
745 Clouds 41 999 21 6000 4.63 300 09:50 06.08.2022
746 Clear 38 999 25 6000 3.09 340 07:36 06.08.2022
747 Clear 35 998 24 10000 3.6 310 02:22 06.08.2022
748 Clear 37 998 23 10000 2.06 310 22:40 05.08.2022
749 Clear 38 998 20 8000 3.09 300 21:36 05.08.2022
750 Clear 42 998 20 8000 3.09 300 19:22 05.08.2022
751 Clear 43 998 18 8000 3.6 310 18:44 05.08.2022
752 Clear 43 998 18 8000 3.6 310 18:44 05.08.2022
753 Clear 46 998 17 8000 3.6 340 17:26 05.08.2022
754 Clear 47 998 15 8000 5.14 340 16:43 05.08.2022
755 Clear 49 997 9 10000 8.7 321 15:21 05.08.2022
756 Clear 48 999 14 10000 6.17 340 13:43 05.08.2022
757 Clear 48 999 14 10000 6.17 340 13:22 05.08.2022
758 Clear 49 1000 11 10000 7.72 320 12:24 05.08.2022
759 Clouds 47 1000 10 10000 7.8 327 10:30 05.08.2022
760 Clear 37 1001 20 10000 4.63 310 07:58 05.08.2022
761 Clear 39 1000 16 10000 4.88 352 05:30 05.08.2022
762 Clear 34 1000 24 10000 3.09 330 00:30 05.08.2022
763 Clear 35 1001 21 10000 4.12 310 22:25 04.08.2022
764 Clear 36 1001 21 10000 2.57 300 21:25 04.08.2022
765 Clear 39 1001 19 10000 2.57 310 20:42 04.08.2022
766 Clear 41 1001 17 10000 2.57 300 19:23 04.08.2022
767 Clear 43 1001 17 10000 2.57 320 18:35 04.08.2022
768 Clear 46 1000 16 10000 3.6 340 17:37 04.08.2022
769 Clear 48 1002 12 10000 3.6 10 13:57 04.08.2022
770 Clear 48 1002 12 10000 4.12 330 12:43 04.08.2022
771 Clear 46 1002 14 10000 4.12 340 10:50 04.08.2022
772 Clear 36 1002 24 7000 3.09 310 07:52 04.08.2022
773 Clear 31 1001 27 10000 2.57 320 04:30 04.08.2022
774 Clear 32 1000 25 10000 2.57 320 02:27 04.08.2022
775 Clear 34 1001 24 10000 2.57 320 23:44 03.08.2022
776 Clear 35 1000 24 10000 2.06 290 22:29 03.08.2022
777 Clear 41 1000 20 10000 2.57 270 20:45 03.08.2022
778 Clear 41 1000 17 9000 1.54 280 19:35 03.08.2022
779 Clear 43 999 18 9000 2.06 350 18:23 03.08.2022
780 Clear 48 999 13 10000 2.57 270 16:24 03.08.2022
781 Clear 48 999 14 8000 3.6 250 14:45 03.08.2022
782 Dust 47 1000 15 3500 3.6 250 12:30 03.08.2022
783 Dust 43 1000 15 3000 2.57 120 08:26 03.08.2022
784 Clear 31 999 27 8000 0.51 0 04:47 03.08.2022
785 Clear 30 999 32 10000 3.09 320 03:30 03.08.2022
786 Clear 32 998 27 7000 1.03 0 01:35 03.08.2022
787 Clear 35 998 21 8000 2.06 150 23:23 02.08.2022
788 Clear 36 998 26 10000 1.54 150 21:55 02.08.2022
789 Clear 36 998 26 10000 1.54 150 21:30 02.08.2022
790 Clear 39 998 18 9000 3.6 150 19:19 02.08.2022
791 Clear 48 997 11 10000 3.6 150 16:38 02.08.2022
792 Clear 47 999 11 10000 4.63 170 12:55 02.08.2022
793 Clear 41 1000 21 7000 3.6 80 09:42 02.08.2022
794 Clear 39 999 22 6000 3.09 80 08:26 02.08.2022
795 Clear 37 999 20 6000 3.6 100 07:50 02.08.2022
796 Clear 31 998 27 10000 3.09 90 04:55 02.08.2022
797 Clear 31 997 29 10000 1.54 150 01:26 02.08.2022
798 Clear 35 998 21 10000 1.03 170 22:57 01.08.2022
799 Clear 38 997 23 10000 2.06 100 20:57 01.08.2022
800 Clear 41 997 15 10000 1.54 120 19:44 01.08.2022
801 Clear 42 997 15 10000 2.06 340 18:53 01.08.2022
802 Clear 48 996 8 10000 2.57 220 16:54 01.08.2022
803 Clear 48 996 8 10000 2.57 220 16:29 01.08.2022
804 Clear 48 997 7 10000 5.14 190 15:33 01.08.2022
805 Clear 48 997 8 10000 4.63 210 14:43 01.08.2022
806 Clear 47 998 8 10000 5.14 190 12:57 01.08.2022
807 Clear 45 998 10 10000 4.63 170 10:47 01.08.2022
808 Clear 40 998 16 6000 3.6 90 08:45 01.08.2022
809 Clear 33 998 24 8000 2.06 170 06:50 01.08.2022
810 Clear 29 997 30 10000 1.54 270 04:29 01.08.2022
811 Clear 30 996 26 10000 1.03 120 00:56 01.08.2022
812 Clear 34 997 22 10000 1.03 0 22:42 31.07.2022
813 Clear 36 997 19 10000 1.54 140 21:46 31.07.2022
814 Clear 35 997 28 10000 1.03 0 20:21 31.07.2022
815 Clear 42 996 12 10000 1.54 10 18:38 31.07.2022
816 Clear 47 996 8 10000 3.6 270 16:22 31.07.2022
817 Clear 46 998 10 10000 4.63 260 13:59 31.07.2022
818 Clear 46 998 9 10000 2.57 280 12:43 31.07.2022
819 Clear 43 999 13 10000 2.06 320 10:22 31.07.2022
820 Clear 39 1000 13 10000 3.09 320 08:29 31.07.2022
821 Clear 29 999 24 10000 2.57 290 04:46 31.07.2022
822 Clear 36 998 11 10000 3.65 351 00:56 31.07.2022
823 Clear 36 1000 15 10000 2.06 250 22:40 30.07.2022
824 Clear 36 1000 15 10000 1.03 0 21:50 30.07.2022
825 Clear 39 999 8 10000 4.67 304 21:24 30.07.2022
826 Clear 38 1000 13 10000 2.57 260 20:28 30.07.2022
827 Clear 41 1000 11 10000 4.63 280 19:42 30.07.2022
828 Clear 45 999 8 10000 6.17 300 17:52 30.07.2022
829 Clear 46 999 7 10000 8.75 290 16:37 30.07.2022
830 Clear 46 1000 8 10000 7.2 270 15:29 30.07.2022
831 Clear 46 1001 8 10000 5.66 280 13:23 30.07.2022
832 Clear 45 1002 9 10000 4.12 260 12:22 30.07.2022
833 Clear 42 1003 12 10000 2.57 280 10:45 30.07.2022
834 Clear 42 1003 12 10000 2.57 280 10:19 30.07.2022
835 Clear 37 1003 18 8000 2.57 280 08:54 30.07.2022
836 Clear 32 1003 27 10000 1.03 0 06:58 30.07.2022
837 Clear 28 1001 24 10000 1.54 290 02:33 30.07.2022
838 Clear 32 1002 17 10000 1.03 280 23:57 29.07.2022
839 Clear 35 1002 14 10000 3.6 300 21:37 29.07.2022
840 Clear 39 1002 12 10000 5.14 280 20:50 29.07.2022
841 Clear 40 1001 11 10000 5.14 280 19:46 29.07.2022
842 Clear 44 1000 9 10000 6.69 290 17:25 29.07.2022
843 Clear 46 1001 8 10000 7.2 280 14:48 29.07.2022
844 Clear 45 1002 11 10000 4.12 300 12:42 29.07.2022
845 Clear 37 1003 16 10000 3.09 310 08:52 29.07.2022
846 Clear 37 1003 16 10000 3.09 310 08:23 29.07.2022
847 Clear 29 1002 24 8000 3.09 260 05:22 29.07.2022
848 Clear 31 1001 19 10000 2.06 310 01:19 29.07.2022
849 Clear 33 1002 16 10000 3.6 310 21:41 28.07.2022
850 Clear 38 1002 12 10000 5.14 290 20:54 28.07.2022
851 Clear 38 1002 12 10000 5.14 290 20:18 28.07.2022
852 Clear 40 1001 11 10000 4.63 280 19:40 28.07.2022
853 Clear 42 1000 6 10000 5.85 305 18:20 28.07.2022
854 Clear 42 1000 6 10000 5.85 305 17:36 28.07.2022
855 Clear 44 1000 9 10000 8.75 300 16:41 28.07.2022
856 Clear 46 1001 8 10000 6.69 280 14:28 28.07.2022
857 Clear 45 1002 9 10000 5.66 320 12:41 28.07.2022
858 Clear 40 1003 13 9000 3.6 340 09:25 28.07.2022
859 Clear 26 1001 27 10000 2.06 300 05:45 28.07.2022
860 Clear 26 1001 27 10000 2.06 300 05:21 28.07.2022
861 Clear 34 999 18 10000 4.12 340 00:28 28.07.2022
862 Clear 34 1000 16 10000 3.6 300 21:58 27.07.2022
863 Clear 35 1000 16 10000 2.57 300 20:20 27.07.2022
864 Clear 38 999 13 10000 4.12 290 19:30 27.07.2022
865 Clear 44 998 10 10000 7.2 300 16:33 27.07.2022
866 Clear 44 999 10 10000 7.2 290 15:51 27.07.2022
867 Clear 45 999 9 10000 6.17 310 14:42 27.07.2022
868 Clear 45 999 10 10000 5.66 280 13:58 27.07.2022
869 Clear 43 1000 12 10000 4.12 270 11:49 27.07.2022
870 Clear 33 1000 21 10000 2.06 290 07:53 27.07.2022
871 Clear 25 999 36 10000 2.57 310 05:23 27.07.2022
872 Clear 31 998 18 10000 1.03 320 23:41 26.07.2022
873 Clear 32 998 19 10000 2.06 330 22:24 26.07.2022
874 Clear 32 999 20 10000 1.54 330 21:19 26.07.2022
875 Clear 35 998 18 10000 2.57 320 19:39 26.07.2022
876 Clear 39 998 12 10000 3.6 300 18:41 26.07.2022
877 Clear 42 998 12 10000 4.63 280 17:57 26.07.2022
878 Clear 43 999 10 10000 5.66 300 15:47 26.07.2022
879 Clear 43 999 10 10000 6.17 280 14:44 26.07.2022
880 Clear 42 1000 12 10000 5.14 270 12:41 26.07.2022
881 Clear 40 1000 17 10000 4.63 300 10:57 26.07.2022
882 Clear 34 1001 22 10000 4.12 270 08:31 26.07.2022
883 Clear 26 999 31 10000 3.6 230 03:58 26.07.2022
884 Clear 29 998 23 10000 1.54 360 00:24 26.07.2022
885 Clear 30 999 19 10000 3.09 320 22:43 25.07.2022
886 Clear 30 999 19 10000 3.09 320 22:21 25.07.2022
887 Clear 32 999 17 10000 3.09 300 21:38 25.07.2022
888 Clear 32 999 17 10000 2.06 320 20:39 25.07.2022
889 Clear 35 998 14 10000 2.57 320 19:26 25.07.2022
890 Clear 38 998 11 10000 3.6 320 18:18 25.07.2022
891 Clear 41 998 9 10000 7.2 290 17:24 25.07.2022
892 Clear 42 998 10 10000 7.2 270 14:23 25.07.2022
893 Clear 39 999 17 10000 5.14 290 11:39 25.07.2022
894 Clear 34 1000 21 10000 3.6 280 08:22 25.07.2022
895 Clear 31 997 16 9000 3.6 320 01:49 25.07.2022
896 Clear 34 997 20 10000 4.12 300 23:49 24.07.2022
897 Clear 35 997 17 9000 4.63 290 22:51 24.07.2022
898 Clear 35 997 17 9000 4.63 290 22:24 24.07.2022
899 Clear 35 997 16 8000 2.57 260 21:18 24.07.2022
900 Clear 36 997 19 8000 3.09 250 20:46 24.07.2022
901 Clear 38 996 17 10000 3.09 230 19:38 24.07.2022
902 Clear 39 996 15 8000 3.09 240 18:30 24.07.2022
903 Clear 42 996 10 10000 5.66 270 15:57 24.07.2022
904 Clear 43 996 10 10000 6.69 290 15:33 24.07.2022
905 Clear 42 996 12 10000 5.14 280 13:54 24.07.2022
906 Clear 41 997 13 10000 5.66 240 12:52 24.07.2022
907 Clear 40 997 15 10000 4.63 240 11:38 24.07.2022
908 Clear 39 998 16 10000 4.63 270 10:59 24.07.2022
909 Clear 35 998 20 10000 4.12 280 08:31 24.07.2022
910 Clear 32 998 27 10000 5.66 290 07:47 24.07.2022
911 Clear 27 998 32 10000 3.09 300 05:44 24.07.2022
912 Clear 30 997 19 10000 3.6 310 00:28 24.07.2022
913 Clear 37 999 13 10000 6.17 280 21:28 23.07.2022
914 Clear 38 999 12 10000 4.63 280 19:59 23.07.2022
915 Clear 39 999 11 9000 6.69 280 18:50 23.07.2022
916 Clear 41 999 10 10000 7.72 290 17:28 23.07.2022
917 Clear 42 999 8 10000 8.75 290 16:33 23.07.2022
918 Clear 43 999 6 10000 8.16 306 15:22 23.07.2022
919 Clouds 43 999 11 9000 9.77 280 14:58 23.07.2022
920 Clouds 43 999 11 9000 9.77 280 14:27 23.07.2022
921 Clear 42 1000 13 10000 7.72 280 13:26 23.07.2022
922 Clear 40 1001 15 10000 5.66 300 10:45 23.07.2022
923 Clear 40 1001 15 10000 5.66 300 10:21 23.07.2022
924 Clear 36 1002 17 9000 5.66 310 08:31 23.07.2022
925 Clear 27 1001 32 10000 3.09 320 03:39 23.07.2022
926 Clear 34 1001 16 10000 4.98 331 01:27 23.07.2022
927 Clear 34 1001 18 10000 4.63 320 22:42 22.07.2022
928 Clear 37 1001 15 10000 4.63 290 20:56 22.07.2022
929 Clear 37 1001 16 10000 4.12 310 19:41 22.07.2022
930 Clear 40 1000 11 10000 5.82 321 18:28 22.07.2022
931 Clear 44 1000 10 10000 8.23 290 16:55 22.07.2022
932 Clear 45 1000 9 10000 6.69 270 14:55 22.07.2022
933 Clear 43 1001 14 9000 5.14 340 11:36 22.07.2022
934 Dust 40 1002 17 5000 5.66 300 09:26 22.07.2022
935 Dust 36 1002 19 4000 5.66 310 08:37 22.07.2022
936 Dust 34 1001 21 3000 5.66 300 07:20 22.07.2022
937 Clear 34 1000 16 10000 4.82 352 03:43 22.07.2022
938 Clear 35 1000 23 10000 3.6 320 22:45 21.07.2022
939 Clear 37 1000 19 10000 3.6 300 21:34 21.07.2022
940 Clear 41 999 15 8000 4.63 270 19:30 21.07.2022
941 Clear 44 998 13 10000 4.63 270 17:45 21.07.2022
942 Clear 45 997 8 10000 6.91 302 17:19 21.07.2022
943 Dust 46 998 12 2000 5.66 290 15:22 21.07.2022
944 Clear 46 998 12 7000 4.63 290 14:39 21.07.2022
945 Clear 45 999 14 8000 5.66 310 12:46 21.07.2022
946 Clear 43 999 15 10000 5.14 310 11:19 21.07.2022
947 Clear 40 1000 18 10000 6.17 310 09:42 21.07.2022
948 Clear 37 999 18 9000 6.17 300 08:52 21.07.2022
949 Clear 34 999 20 9000 7.2 310 07:50 21.07.2022
950 Clear 31 999 22 10000 5.14 300 06:25 21.07.2022
951 Clear 32 997 25 10000 3.6 320 01:42 21.07.2022
952 Clear 40 997 12 10000 6.56 322 22:22 20.07.2022
953 Clear 40 997 12 10000 6.56 322 22:22 20.07.2022
954 Clear 39 998 16 10000 5.66 290 21:42 20.07.2022
955 Clear 41 998 15 10000 7.2 280 20:39 20.07.2022
956 Clear 41 997 10 10000 7.16 308 19:43 20.07.2022
957 Clear 43 997 14 10000 6.69 280 18:52 20.07.2022
958 Clear 43 997 14 10000 6.69 280 18:29 20.07.2022
959 Clear 47 997 10 10000 5.66 290 16:46 20.07.2022
960 Clear 47 997 9 10000 10.29 300 15:32 20.07.2022
961 Clear 47 998 10 10000 9.77 280 14:32 20.07.2022
962 Clear 48 998 9 9000 9.26 300 12:34 20.07.2022
963 Clear 45 1000 12 10000 5.66 320 10:28 20.07.2022
964 Clear 28 1000 24 10000 2.57 320 05:44 20.07.2022
965 Clear 30 999 21 10000 4.12 320 00:54 20.07.2022
966 Clear 30 999 21 10000 4.12 320 00:36 20.07.2022
967 Clear 34 999 20 10000 2.57 330 22:35 19.07.2022
968 Clear 35 999 16 10000 3.09 310 21:53 19.07.2022
969 Clear 39 999 14 10000 4.12 300 20:49 19.07.2022
970 Clear 41 999 13 10000 4.12 290 19:22 19.07.2022
971 Clear 43 999 13 10000 5.66 280 18:35 19.07.2022
972 Clear 45 998 11 10000 6.69 290 17:53 19.07.2022
973 Clear 47 998 10 10000 5.14 320 15:27 19.07.2022
974 Clear 47 999 11 10000 4.63 330 13:33 19.07.2022
975 Clear 46 1000 12 10000 5.14 360 11:32 19.07.2022
976 Clear 46 1001 7 10000 6.79 331 09:51 19.07.2022
977 Clear 40 1001 17 8000 5.14 340 08:46 19.07.2022
978 Clear 37 1001 19 8000 3.09 300 07:46 19.07.2022
979 Clear 37 1001 19 8000 3.09 300 07:18 19.07.2022
980 Clear 29 1000 28 10000 3.09 320 05:18 19.07.2022
981 Clear 29 999 28 10000 2.57 310 02:38 19.07.2022
982 Clear 34 999 22 10000 2.06 330 23:54 18.07.2022
983 Clear 34 999 22 10000 2.06 330 23:20 18.07.2022
984 Clear 34 999 21 10000 1.54 320 22:27 18.07.2022
985 Clear 35 1000 20 10000 1.54 270 21:24 18.07.2022
986 Clear 36 1000 19 10000 1.03 0 20:34 18.07.2022
987 Clear 42 999 14 10000 4.63 270 18:32 18.07.2022
988 Clear 45 998 11 10000 7.2 280 16:45 18.07.2022
989 Clear 46 998 12 10000 6.17 280 15:34 18.07.2022
990 Clear 46 999 10 10000 6.69 300 13:32 18.07.2022
991 Clear 45 1000 11 10000 4.12 340 11:44 18.07.2022
992 Clear 40 1000 18 10000 5.14 330 09:56 18.07.2022
993 Clear 37 1000 22 9000 5.14 310 08:19 18.07.2022
994 Clear 26 1000 34 10000 2.06 310 05:35 18.07.2022
995 Clear 33 999 18 10000 3.6 310 23:19 17.07.2022
996 Clear 35 999 17 10000 4.63 290 22:32 17.07.2022
997 Clear 36 1000 17 10000 3.6 280 21:40 17.07.2022
998 Clear 37 999 15 10000 3.6 260 20:46 17.07.2022
999 Clear 37 999 15 10000 3.6 260 20:18 17.07.2022
1000 Clear 39 999 14 10000 4.63 270 19:25 17.07.2022
1001 Clear 41 998 12 10000 5.14 270 18:22 17.07.2022
1002 Clear 41 998 9 10000 5.01 292 17:37 17.07.2022
1003 Clear 44 998 10 10000 8.23 280 16:49 17.07.2022
1004 Clear 44 998 10 10000 8.23 280 16:24 17.07.2022
1005 Clear 45 999 10 10000 8.23 280 14:20 17.07.2022
1006 Clear 44 999 12 9000 7.2 280 13:24 17.07.2022
1007 Clear 41 1000 17 9000 8.23 290 10:34 17.07.2022
1008 Clear 36 1000 24 9000 6.69 320 08:38 17.07.2022
1009 Clear 31 999 27 10000 4.63 310 02:43 17.07.2022
1010 Clear 31 999 25 10000 3.6 300 01:47 17.07.2022
1011 Clear 34 999 20 10000 4.63 290 23:19 16.07.2022
1012 Clear 38 999 17 10000 6.17 290 20:59 16.07.2022
1013 Clear 39 998 17 10000 5.66 280 19:25 16.07.2022
1014 Clear 42 998 15 8000 6.17 280 17:53 16.07.2022
1015 Clear 43 998 14 6000 7.72 280 16:24 16.07.2022
1016 Clear 44 999 13 800 9.26 280 13:47 16.07.2022
1017 Clear 40 1000 15 900 8.23 300 10:40 16.07.2022
1018 Dust 38 1000 18 1000 8.23 300 09:30 16.07.2022
1019 Clear 41 999 16 10000 8.71 320 08:42 16.07.2022
1020 Dust 34 1000 26 1200 10.29 300 07:51 16.07.2022
1021 Clear 27 998 28 10000 3.6 290 03:40 16.07.2022
1022 Clear 29 998 28 10000 3.09 340 02:35 16.07.2022
1023 Clear 30 998 26 10000 1.03 290 23:28 15.07.2022
1024 Clear 30 998 28 10000 1.03 280 22:38 15.07.2022
1025 Clear 31 998 23 10000 1.03 260 21:24 15.07.2022
1026 Clear 36 998 19 10000 2.57 300 19:59 15.07.2022
1027 Clear 40 997 12 10000 4.57 317 18:35 15.07.2022
1028 Clear 41 997 11 10000 4.86 315 17:36 15.07.2022
1029 Clear 44 998 15 10000 5.66 280 14:48 15.07.2022
1030 Clear 42 998 14 10000 8.23 280 12:49 15.07.2022
1031 Clear 40 999 17 10000 8.75 290 10:54 15.07.2022
1032 Clear 36 998 26 8000 8.75 290 08:49 15.07.2022
1033 Clear 30 997 28 10000 5.14 300 05:56 15.07.2022
1034 Clear 34 995 17 10000 3.6 260 00:52 15.07.2022
1035 Clear 35 995 15 10000 3.6 260 23:36 14.07.2022
1036 Clear 36 996 14 10000 4.63 270 22:45 14.07.2022
1037 Clear 36 995 15 10000 4.12 270 21:46 14.07.2022
1038 Clear 36 995 15 10000 4.12 270 21:28 14.07.2022
1039 Clear 36 995 16 10000 3.6 260 20:44 14.07.2022
1040 Clear 36 995 16 10000 3.6 260 20:20 14.07.2022
1041 Clear 40 995 13 10000 5.14 270 18:52 14.07.2022
1042 Clear 43 995 10 10000 7.72 280 16:22 14.07.2022
1043 Clear 44 995 9 7000 10.29 290 15:30 14.07.2022
1044 Clear 44 996 11 7000 8.75 280 13:53 14.07.2022
1045 Dust 44 997 12 5000 9.26 290 12:58 14.07.2022
1046 Dust 44 997 12 3500 10.29 290 11:47 14.07.2022
1047 Dust 44 997 12 3500 10.29 290 11:23 14.07.2022
1048 Mist 39 998 18 3700 9.26 300 09:54 14.07.2022
1049 Dust 34 999 22 2500 8.75 320 07:47 14.07.2022
1050 Clear 33 998 18 10000 5.14 290 01:26 14.07.2022
1051 Clear 34 998 18 10000 6.17 290 00:53 14.07.2022
1052 Clear 36 998 16 10000 5.66 280 22:33 13.07.2022
1053 Clear 37 998 16 10000 7.2 280 21:59 13.07.2022
1054 Clear 37 998 16 10000 7.2 280 21:18 13.07.2022
1055 Clear 39 998 15 10000 7.2 280 19:34 13.07.2022
1056 Clear 42 997 13 9000 8.23 280 17:52 13.07.2022
1057 Dust 44 997 14 5000 9.77 280 16:46 13.07.2022
1058 Dust 44 998 15 3000 8.75 280 15:26 13.07.2022
1059 Dust 44 999 16 1500 9.77 300 13:24 13.07.2022
1060 Dust 41 1000 18 4000 8.23 290 10:46 13.07.2022
1061 Dust 41 1000 18 4000 8.23 290 10:25 13.07.2022
1062 Clear 39 1001 21 6000 8.75 290 09:26 13.07.2022
1063 Clear 34 1001 31 10000 7.72 300 07:52 13.07.2022
1064 Clear 29 1000 24 10000 3.09 280 03:26 13.07.2022
1065 Clear 33 1000 21 10000 4.12 270 00:18 13.07.2022
1066 Clear 34 1001 20 10000 3.6 280 22:18 12.07.2022
1067 Clear 35 1001 18 10000 4.63 270 21:35 12.07.2022
1068 Clear 36 1001 19 10000 5.14 270 20:42 12.07.2022
1069 Clear 38 1001 17 10000 5.66 280 19:37 12.07.2022
1070 Clear 39 1001 13 10000 5.66 280 18:21 12.07.2022
1071 Clear 42 1001 12 10000 8.23 280 16:20 12.07.2022
1072 Clear 42 1002 13 10000 8.75 300 14:31 12.07.2022
1073 Clear 42 1002 15 10000 8.23 300 13:24 12.07.2022
1074 Clear 40 1003 18 10000 8.75 290 11:46 12.07.2022
1075 Clear 39 1003 21 8000 9.26 300 10:25 12.07.2022
1076 Clear 35 1004 29 10000 7.2 310 08:40 12.07.2022
1077 Clear 33 1003 35 10000 8.75 310 07:47 12.07.2022
1078 Clear 28 1003 36 10000 3.09 290 05:45 12.07.2022
1079 Clear 28 1002 32 10000 4.63 300 04:18 12.07.2022
1080 Clear 31 1002 23 10000 4.12 280 00:20 12.07.2022
1081 Clear 33 1002 22 10000 4.63 280 22:39 11.07.2022
1082 Clear 35 1001 20 10000 5.14 290 20:56 11.07.2022
1083 Clear 35 1001 20 10000 5.14 290 20:32 11.07.2022
1084 Clear 37 1001 18 10000 5.66 310 18:48 11.07.2022
1085 Clear 37 1001 18 10000 5.66 310 18:23 11.07.2022
1086 Clear 37 1001 18 10000 5.66 310 18:23 11.07.2022
1087 Clear 40 1000 16 10000 9.26 290 16:26 11.07.2022
1088 Clear 41 1000 15 8000 8.75 280 15:23 11.07.2022
1089 Clear 41 1001 16 800 9.77 300 12:42 11.07.2022
1090 Clear 39 1001 19 500 8.23 290 11:23 11.07.2022
1091 Dust 37 1001 23 1400 8.75 290 09:55 11.07.2022
1092 Dust 36 1001 23 2500 8.23 290 09:25 11.07.2022
1093 Dust 34 1001 22 3500 10.29 300 08:31 11.07.2022
1094 Clear 32 998 25 8000 5.66 300 00:59 11.07.2022
1095 Clear 33 998 24 8000 6.17 300 23:54 10.07.2022
1096 Clear 34 998 21 9000 5.66 290 22:45 10.07.2022
1097 Clear 38 997 17 8000 8.23 280 20:55 10.07.2022
1098 Clear 38 997 17 8000 8.23 280 20:36 10.07.2022
1099 Clear 39 994 12 10000 9.73 302 19:29 10.07.2022
1100 Clear 40 995 17 700 9.26 280 18:25 10.07.2022
1101 Clear 40 994 11 10000 9.56 298 17:33 10.07.2022
1102 Dust 42 995 13 1500 8.75 280 16:21 10.07.2022
1103 Clear 43 995 14 800 9.26 280 14:47 10.07.2022
1104 Clear 43 995 14 600 9.26 280 13:30 10.07.2022
1105 Clear 42 996 16 900 10.29 290 11:44 10.07.2022
1106 Dust 37 996 30 900 8.23 290 09:46 10.07.2022
1107 Dust 35 996 28 2000 8.23 290 08:44 10.07.2022
1108 Dust 33 996 25 4000 7.72 300 07:20 10.07.2022
1109 Clear 35 995 15 10000 5.14 290 23:53 09.07.2022
1110 Clear 36 995 15 10000 5.14 280 22:26 09.07.2022
1111 Clear 38 995 12 10000 9.31 306 21:47 09.07.2022
1112 Clear 40 995 14 10000 6.69 280 19:57 09.07.2022
1113 Clear 41 995 13 10000 6.17 280 18:32 09.07.2022
1114 Clear 42 995 14 10000 7.2 280 17:32 09.07.2022
1115 Clear 43 995 12 8000 8.75 280 16:39 09.07.2022
1116 Clear 44 993 9 10000 10.86 299 15:39 09.07.2022
1117 Dust 44 996 12 5000 9.77 270 14:24 09.07.2022
1118 Dust 44 996 13 2000 9.77 270 13:48 09.07.2022
1119 Dust 44 997 12 1500 10.8 280 12:43 09.07.2022
1120 Dust 43 997 13 2000 11.32 290 11:19 09.07.2022
1121 Clear 43 998 14 7000 10.8 300 10:22 09.07.2022
1122 Clear 35 999 23 8000 6.69 300 07:45 09.07.2022
1123 Dust 32 998 25 5000 4.63 320 04:53 09.07.2022
1124 Clear 34 997 19 10000 5.73 304 00:59 09.07.2022
1125 Clear 35 998 21 6000 3.6 260 22:42 08.07.2022
1126 Clear 36 998 19 10000 4.12 240 21:34 08.07.2022
1127 Clear 38 999 17 10000 3.6 240 20:40 08.07.2022
1128 Clouds 39 998 17 10000 3.6 270 19:48 08.07.2022
1129 Clouds 40 998 17 10000 5.14 290 18:20 08.07.2022
1130 Clear 42 998 15 10000 4.63 290 16:40 08.07.2022
1131 Clear 43 999 12 10000 7.2 300 14:51 08.07.2022
1132 Clear 44 999 9 10000 7.1 297 13:26 08.07.2022
1133 Clear 41 1001 16 10000 3.6 0 11:28 08.07.2022
1134 Clear 43 1000 8 10000 5.54 318 10:28 08.07.2022
1135 Clear 37 1001 18 10000 3.6 290 08:27 08.07.2022
1136 Clear 32 1001 22 10000 4.63 290 06:49 08.07.2022
1137 Clear 30 999 25 10000 3.09 320 01:23 08.07.2022
1138 Clear 33 999 21 10000 2.57 280 22:59 07.07.2022
1139 Clear 33 999 21 10000 2.57 280 22:29 07.07.2022
1140 Clear 35 999 20 10000 2.57 320 20:22 07.07.2022
1141 Clear 41 998 12 10000 3.6 300 18:20 07.07.2022
1142 Clear 43 997 8 10000 7.56 312 16:51 07.07.2022
1143 Clear 44 998 12 10000 1.54 270 14:34 07.07.2022
1144 Clear 45 999 11 10000 2.57 0 13:18 07.07.2022
1145 Clear 44 999 10 10000 2.06 60 12:24 07.07.2022
1146 Clear 44 999 10 10000 2.06 60 12:24 07.07.2022
1147 Clear 43 999 14 10000 4.63 350 11:44 07.07.2022
1148 Clear 43 999 14 10000 4.63 350 11:24 07.07.2022
1149 Clear 42 1000 15 10000 5.14 340 10:40 07.07.2022
1150 Clear 42 1000 15 10000 5.14 340 10:22 07.07.2022
1151 Clear 33 999 19 10000 5.66 340 06:48 07.07.2022
1152 Clear 32 997 19 10000 3.6 300 01:43 07.07.2022
1153 Clear 36 997 13 10000 5.74 303 23:36 06.07.2022
1154 Clear 36 997 13 10000 5.65 296 23:18 06.07.2022
1155 Clear 35 998 18 9000 3.6 250 22:52 06.07.2022
1156 Clear 35 998 18 9000 3.6 250 22:34 06.07.2022
1157 Clear 36 997 21 10000 3.09 220 20:33 06.07.2022
1158 Clear 38 997 19 8000 2.57 220 19:34 06.07.2022
1159 Clear 43 996 10 9000 5.66 260 17:22 06.07.2022
1160 Clear 43 996 10 9000 5.66 260 17:22 06.07.2022
1161 Clear 43 996 10 10000 3.09 260 15:58 06.07.2022
1162 Dust 43 997 14 3000 6.17 270 13:56 06.07.2022
1163 Dust 42 997 16 3000 6.17 270 12:30 06.07.2022
1164 Dust 42 997 16 3000 6.17 270 12:30 06.07.2022
1165 Dust 41 997 18 3000 5.66 270 11:44 06.07.2022
1166 Dust 41 997 15 3500 5.14 300 10:18 06.07.2022
1167 Clear 39 997 13 10000 6.11 317 07:44 06.07.2022
1168 Clear 37 996 14 10000 7.02 320 07:19 06.07.2022
1169 Clear 32 996 20 10000 4.12 290 01:20 06.07.2022
1170 Clear 36 997 15 10000 5.14 280 22:44 05.07.2022
1171 Clear 36 997 16 10000 4.12 270 21:29 05.07.2022
1172 Clear 37 996 16 10000 4.12 270 20:35 05.07.2022
1173 Clear 39 996 15 10000 4.12 270 19:40 05.07.2022
1174 Clear 41 996 14 10000 5.66 280 18:26 05.07.2022
1175 Clear 43 995 12 10000 7.2 270 17:41 05.07.2022
1176 Clear 44 995 12 10000 7.72 280 16:39 05.07.2022
1177 Clear 44 996 13 10000 7.72 270 15:23 05.07.2022
1178 Clear 44 996 12 9000 9.26 280 13:47 05.07.2022
1179 Clear 45 995 9 10000 7.56 315 12:41 05.07.2022
1180 Clear 43 996 10 10000 7.07 302 10:46 05.07.2022
1181 Clear 42 997 11 10000 7.04 301 10:25 05.07.2022
1182 Clear 36 998 21 8000 5.66 300 08:24 05.07.2022
1183 Clear 33 998 27 6000 5.66 300 07:21 05.07.2022
1184 Clear 29 997 30 10000 4.12 300 04:46 05.07.2022
1185 Clear 31 996 23 10000 5.14 300 02:48 05.07.2022
1186 Clear 35 996 13 10000 5.66 280 23:42 04.07.2022
1187 Clear 36 997 14 10000 6.69 280 22:59 04.07.2022
1188 Clear 36 997 14 10000 6.69 280 22:20 04.07.2022
1189 Clear 37 997 14 10000 7.2 280 21:18 04.07.2022
1190 Clear 38 996 8 10000 9.45 294 20:50 04.07.2022
1191 Clear 38 996 8 10000 9.45 294 20:32 04.07.2022
1192 Clear 38 996 19 10000 3.6 250 19:44 04.07.2022
1193 Clear 38 996 19 10000 3.6 250 19:25 04.07.2022
1194 Clear 43 995 13 10000 4.63 270 17:40 04.07.2022
1195 Clear 44 995 13 10000 6.17 260 15:42 04.07.2022
1196 Clear 44 995 14 10000 6.69 270 14:39 04.07.2022
1197 Clear 44 996 16 10000 6.17 280 13:27 04.07.2022
1198 Clear 41 996 20 10000 5.66 260 11:43 04.07.2022
1199 Clear 40 996 20 8000 5.14 310 10:33 04.07.2022
1200 Clear 38 996 23 8000 4.63 280 09:36 04.07.2022
1201 Clear 32 996 27 10000 6.17 280 06:50 04.07.2022
1202 Clear 32 995 22 8000 6.69 290 03:23 04.07.2022
1203 Dust 36 995 15 3700 9.77 290 00:27 04.07.2022
1204 Dust 36 995 21 4000 8.75 290 22:55 03.07.2022
1205 Clear 38 994 17 6000 6.69 280 20:47 03.07.2022
1206 Clear 38 994 17 6000 6.69 280 20:21 03.07.2022
1207 Clear 39 993 16 6000 6.69 280 19:26 03.07.2022
1208 Clear 40 993 15 10000 5.66 270 18:32 03.07.2022
1209 Clear 42 993 13 10000 5.14 270 17:42 03.07.2022
1210 Dust 42 993 15 600 3.09 250 15:28 03.07.2022
1211 Dust 41 993 16 600 4.12 300 14:57 03.07.2022
1212 Dust 41 994 17 500 4.12 310 13:50 03.07.2022
1213 Dust 40 994 21 400 3.6 310 13:27 03.07.2022
1214 Dust 38 995 25 300 6.17 280 12:22 03.07.2022
1215 Dust 35 996 31 300 5.66 280 10:55 03.07.2022
1216 Dust 35 996 31 300 5.66 280 10:36 03.07.2022
1217 Dust 34 996 36 650 6.17 280 08:48 03.07.2022
1218 Dust 32 996 37 2300 7.2 280 07:34 03.07.2022
1219 Clear 31 996 27 10000 4.63 250 01:39 03.07.2022
1220 Clear 32 996 25 10000 3.09 250 23:50 02.07.2022
1221 Clear 33 997 22 10000 2.57 250 22:32 02.07.2022
1222 Clear 33 997 24 10000 2.06 300 20:37 02.07.2022
1223 Clear 34 997 21 10000 3.09 320 19:50 02.07.2022
1224 Clear 34 997 21 10000 3.09 320 19:19 02.07.2022
1225 Clear 40 997 15 10000 7.2 290 17:40 02.07.2022
1226 Clear 40 997 16 10000 7.2 250 16:38 02.07.2022
1227 Clear 41 997 13 10000 8.65 304 13:51 02.07.2022
1228 Clear 41 999 14 7000 8.75 300 11:52 02.07.2022
1229 Clear 40 999 17 8000 6.69 340 10:53 02.07.2022
1230 Clear 40 999 17 8000 6.69 340 10:33 02.07.2022
1231 Dust 35 1000 28 2000 6.69 290 08:54 02.07.2022
1232 Dust 35 1000 28 2000 7.72 300 08:19 02.07.2022
1233 Clear 30 999 26 6000 6.17 330 06:51 02.07.2022
1234 Clear 33 998 24 10000 5.14 300 00:55 02.07.2022
1235 Clear 35 998 19 10000 7.15 314 23:37 01.07.2022
1236 Clear 36 998 19 10000 6.17 290 22:40 01.07.2022
1237 Clear 37 998 16 10000 6.17 290 21:40 01.07.2022
1238 Clear 38 998 17 10000 6.17 290 20:59 01.07.2022
1239 Clear 38 998 17 10000 6.17 290 20:37 01.07.2022
1240 Clear 39 998 14 10000 6.69 290 19:41 01.07.2022
1241 Clear 43 997 11 8000 8.75 290 17:53 01.07.2022
1242 Clear 44 997 10 6000 8.75 270 15:50 01.07.2022
1243 Clear 45 998 9 6000 10.29 300 13:54 01.07.2022
1244 Clear 42 999 15 6000 6.69 300 11:50 01.07.2022
1245 Clear 41 999 15 10000 6.69 310 10:20 01.07.2022
1246 Clear 39 999 22 9000 7.2 290 09:31 01.07.2022
1247 Clear 28 997 23 10000 3.09 300 03:42 01.07.2022
1248 Clear 32 997 19 10000 3.6 320 00:26 01.07.2022
1249 Clear 34 998 17 8000 2.57 320 22:58 30.06.2022
1250 Clear 34 998 17 8000 2.57 320 22:33 30.06.2022
1251 Clear 33 998 18 8000 3.09 300 21:59 30.06.2022
1252 Clear 33 998 18 8000 3.09 300 21:41 30.06.2022
1253 Clear 38 998 14 7000 3.6 290 20:30 30.06.2022
1254 Clear 38 997 14 8000 4.12 310 19:54 30.06.2022
1255 Clear 38 997 14 8000 4.12 310 19:24 30.06.2022
1256 Clear 40 997 13 7000 3.09 320 18:42 30.06.2022
1257 Clear 43 997 11 6000 4.63 330 17:43 30.06.2022
1258 Clear 44 996 7 10000 8.07 324 16:55 30.06.2022
1259 Clear 45 997 9 10000 7.72 320 15:39 30.06.2022
1260 Dust 45 998 10 5000 6.69 340 13:34 30.06.2022
1261 Clear 44 998 12 9000 7.72 330 12:35 30.06.2022
1262 Clear 44 999 12 8000 7.2 320 11:37 30.06.2022
1263 Clear 40 999 14 8000 7.72 350 09:55 30.06.2022
1264 Clear 40 999 14 8000 7.72 350 09:34 30.06.2022
1265 Clear 38 999 16 8000 6.69 340 08:18 30.06.2022
1266 Clear 35 999 18 10000 6.17 330 07:18 30.06.2022
1267 Clear 29 999 26 10000 3.6 290 01:42 30.06.2022
1268 Clear 31 999 25 10000 2.06 330 23:34 29.06.2022
1269 Clear 30 1000 25 10000 2.57 320 22:40 29.06.2022
1270 Clear 35 1000 18 10000 3.09 290 21:39 29.06.2022
1271 Clear 37 1000 16 10000 4.12 280 20:34 29.06.2022
1272 Clear 38 999 18 10000 4.63 340 19:39 29.06.2022
1273 Clear 41 1000 14 10000 5.66 330 17:54 29.06.2022
1274 Clear 42 1000 13 10000 7.72 350 16:47 29.06.2022
1275 Clear 43 1000 12 10000 6.69 340 15:32 29.06.2022
1276 Clear 42 1001 13 10000 6.69 340 12:49 29.06.2022
1277 Clear 41 1002 13 10000 7.72 320 11:47 29.06.2022
1278 Clear 39 1003 16 10000 5.66 320 09:34 29.06.2022
1279 Clear 36 1002 20 10000 4.12 330 08:45 29.06.2022
1280 Clear 25 1002 33 10000 2.57 330 05:42 29.06.2022
1281 Clear 26 1002 31 10000 3.6 330 02:21 29.06.2022
1282 Clear 27 1002 29 10000 2.06 320 00:38 29.06.2022
1283 Clear 31 1002 23 10000 1.54 330 23:55 28.06.2022
1284 Clear 31 1003 25 10000 2.57 360 22:48 28.06.2022
1285 Clear 34 1003 15 10000 4.45 357 21:55 28.06.2022
1286 Clear 34 1003 15 10000 4.45 357 21:33 28.06.2022
1287 Clear 32 1003 22 10000 2.57 330 20:55 28.06.2022
1288 Clear 33 1003 21 10000 3.09 320 19:48 28.06.2022
1289 Clear 33 1003 21 10000 3.09 320 19:24 28.06.2022
1290 Clear 38 1002 14 10000 4.63 300 18:37 28.06.2022
1291 Clear 40 1002 12 10000 7.72 300 16:35 28.06.2022
1292 Clear 40 1002 12 9000 8.23 300 15:54 28.06.2022
1293 Clear 41 1002 12 8000 8.75 300 14:22 28.06.2022
1294 Clear 40 1003 12 6000 9.77 300 13:55 28.06.2022
1295 Clear 40 1003 12 6000 9.77 300 13:32 28.06.2022
1296 Clear 39 1003 14 8000 8.23 300 11:57 28.06.2022
1297 Clear 36 1004 19 9000 6.69 340 09:46 28.06.2022
1298 Clear 34 1004 21 9000 6.17 330 08:46 28.06.2022
1299 Clear 31 1004 27 10000 4.63 330 07:58 28.06.2022
1300 Clear 31 1004 27 10000 4.63 330 07:19 28.06.2022
1301 Clear 26 1003 34 10000 3.6 310 02:25 28.06.2022
1302 Clear 30 1004 26 10000 3.6 320 23:47 27.06.2022
1303 Clear 30 1004 26 10000 3.6 320 22:56 27.06.2022
1304 Clear 31 1004 25 10000 3.6 310 21:39 27.06.2022
1305 Clear 31 1004 25 10000 3.6 310 21:18 27.06.2022
1306 Clear 34 1003 22 10000 3.6 320 19:48 27.06.2022
1307 Clear 37 1003 18 6000 3.6 290 18:40 27.06.2022
1308 Clear 38 1002 17 9000 4.12 290 17:26 27.06.2022
1309 Clear 39 1003 17 6000 5.14 280 15:43 27.06.2022
1310 Clear 40 1002 12 10000 5.65 297 13:51 27.06.2022
1311 Dust 38 1004 18 5000 4.12 230 12:57 27.06.2022
1312 Dust 37 1005 19 2000 3.09 290 10:51 27.06.2022
1313 Dust 36 1004 19 2000 3.6 320 09:43 27.06.2022
1314 Dust 34 1004 24 2500 3.6 330 08:40 27.06.2022
1315 Dust 32 1004 27 2000 2.57 330 07:39 27.06.2022
1316 Dust 28 1004 30 1800 1.54 290 05:19 27.06.2022
1317 Clear 30 1003 28 6000 3.09 350 01:21 27.06.2022
1318 Clear 32 1004 27 6000 2.06 270 22:58 26.06.2022
1319 Dust 33 1004 24 5000 2.57 260 21:37 26.06.2022
1320 Clear 34 1003 18 10000 4.68 297 20:28 26.06.2022
1321 Dust 35 1002 23 5000 3.6 270 18:33 26.06.2022
1322 Clear 36 1002 21 9000 6.69 290 17:40 26.06.2022
1323 Clear 37 1002 23 8000 4.12 290 15:36 26.06.2022
1324 Clear 36 1002 26 8000 2.57 0 14:22 26.06.2022
1325 Clear 36 1003 26 10000 4.63 280 13:24 26.06.2022
1326 Dust 35 1003 26 10000 6.69 220 11:39 26.06.2022
1327 Clear 34 1003 27 9000 6.17 290 10:42 26.06.2022
1328 Clear 33 1003 31 8000 6.17 270 09:58 26.06.2022
1329 Clear 30 1002 39 6000 6.69 290 07:47 26.06.2022
1330 Clear 30 1002 39 6000 6.69 290 07:47 26.06.2022
1331 Dust 29 1002 45 1500 6.69 280 06:19 26.06.2022
1332 Clouds 30 999 31 10000 6.46 339 00:37 26.06.2022
1333 Clouds 34 998 27 300 9.77 300 00:18 26.06.2022
1334 Clouds 36 998 23 350 10.8 300 23:31 25.06.2022
1335 Clouds 36 998 21 500 11.83 300 22:46 25.06.2022
1336 Clouds 36 998 23 650 9.77 300 22:24 25.06.2022
1337 Dust 36 997 21 5000 3.09 300 21:21 25.06.2022
1338 Dust 37 996 20 5000 3.6 300 20:39 25.06.2022
1339 Clear 38 995 19 7000 3.6 320 19:59 25.06.2022
1340 Dust 41 994 17 4800 3.09 140 18:23 25.06.2022
1341 Clouds 42 994 17 6000 4.12 110 17:27 25.06.2022
1342 Clouds 44 995 13 8000 5.66 130 16:27 25.06.2022
1343 Clear 44 997 14 9000 6.17 140 14:31 25.06.2022
1344 Clear 43 999 14 7000 9.26 170 12:46 25.06.2022
1345 Clear 43 999 14 7000 9.26 170 12:27 25.06.2022
1346 Clear 40 1001 16 9000 6.17 180 09:35 25.06.2022
1347 Clear 39 1001 17 10000 5.66 170 08:54 25.06.2022
1348 Clear 39 1001 17 10000 5.66 170 08:20 25.06.2022
1349 Clear 38 1001 13 10000 6.02 171 06:35 25.06.2022
1350 Clear 34 1001 22 10000 3.6 60 00:50 25.06.2022
1351 Clear 35 1001 21 10000 3.6 70 23:57 24.06.2022
1352 Clear 36 1001 20 10000 3.6 80 22:28 24.06.2022
1353 Clear 36 1002 21 9000 2.57 60 21:26 24.06.2022
1354 Clear 36 1002 23 9000 2.06 60 20:23 24.06.2022
1355 Clear 35 1001 21 10000 3.09 100 19:37 24.06.2022
1356 Clear 35 1001 21 10000 3.09 100 19:18 24.06.2022
1357 Clear 39 1001 16 10000 3.09 110 18:31 24.06.2022
1358 Clear 40 1001 9 10000 2.33 310 17:57 24.06.2022
1359 Clear 41 1001 15 10000 2.06 0 16:46 24.06.2022
1360 Clear 43 1001 9 10000 3.34 264 14:32 24.06.2022
1361 Clouds 42 1003 13 10000 3.09 0 13:59 24.06.2022
1362 Clouds 42 1003 13 10000 3.09 0 13:35 24.06.2022
1363 Clear 40 1004 15 10000 3.6 0 11:41 24.06.2022
1364 Clear 40 1004 12 10000 1.82 251 10:36 24.06.2022
1365 Clear 39 1005 16 6000 2.57 70 09:42 24.06.2022
1366 Smoke 37 1005 19 4000 2.57 80 08:53 24.06.2022
1367 Clear 37 1005 14 10000 0.52 228 07:57 24.06.2022
1368 Clear 31 1005 30 10000 0 0 06:44 24.06.2022
1369 Clear 31 1005 30 10000 0 0 06:22 24.06.2022
1370 Clear 25 1004 41 8000 1.03 0 04:46 24.06.2022
1371 Clear 29 1004 34 10000 0 0 23:32 23.06.2022
1372 Clear 31 1004 27 10000 1.03 0 22:43 23.06.2022
1373 Clear 34 1003 24 10000 2.57 330 20:59 23.06.2022
1374 Clear 34 1003 24 10000 2.57 330 20:36 23.06.2022
1375 Clear 36 1002 21 10000 0 0 19:48 23.06.2022
1376 Clouds 37 1002 22 10000 1.03 0 18:26 23.06.2022
1377 Clouds 39 1001 18 10000 2.57 290 17:34 23.06.2022
1378 Clouds 39 1001 17 10000 3.09 250 16:26 23.06.2022
1379 Clouds 39 1001 18 10000 3.6 270 15:26 23.06.2022
1380 Clouds 40 1002 17 10000 5.14 250 14:18 23.06.2022
1381 Clear 39 1002 19 8000 2.57 0 11:33 23.06.2022
1382 Clear 37 1002 22 8000 2.06 260 10:40 23.06.2022
1383 Clear 36 1002 24 7000 2.57 0 09:19 23.06.2022
1384 Clear 25 1000 38 10000 1.03 0 04:43 23.06.2022
1385 Clear 31 999 28 10000 1.52 194 00:27 23.06.2022
1386 Clear 31 999 28 10000 1.52 194 23:49 22.06.2022
1387 Clear 31 1000 28 10000 0.3 171 22:53 22.06.2022
1388 Clear 32 1000 26 10000 1.82 4 21:28 22.06.2022
1389 Clear 32 1000 26 10000 1.82 4 20:48 22.06.2022
1390 Clear 32 1000 25 10000 2.83 354 20:18 22.06.2022
1391 Clear 33 998 22 10000 3.84 333 19:27 22.06.2022
1392 Clear 35 998 18 10000 4.94 315 17:31 22.06.2022
1393 Clear 36 997 14 10000 6.3 299 16:40 22.06.2022
1394 Clear 38 997 12 10000 7.11 288 15:28 22.06.2022
1395 Dust 36 998 16 9000 6.69 250 14:41 22.06.2022
1396 Clear 35 998 20 8000 6.69 290 13:46 22.06.2022
1397 Clear 35 998 20 8000 6.69 290 13:24 22.06.2022
1398 Clear 34 998 27 6000 7.72 270 11:50 22.06.2022
1399 Clear 34 998 27 6000 7.72 270 11:50 22.06.2022
1400 Dust 33 998 27 2000 8.75 290 10:58 22.06.2022
1401 Dust 33 998 27 2000 8.75 290 10:26 22.06.2022
1402 Clear 30 998 32 600 10.29 300 08:48 22.06.2022
1403 Clear 29 997 32 800 9.26 300 06:39 22.06.2022
1404 Clear 28 995 28 10000 3.09 330 01:52 22.06.2022
1405 Clear 28 995 30 10000 3.6 320 00:56 22.06.2022
1406 Clear 31 996 29 6000 3.6 320 22:40 21.06.2022
1407 Dust 33 996 25 4500 3.09 320 20:40 21.06.2022
1408 Dust 38 996 19 4200 3.6 290 19:18 21.06.2022
1409 Dust 40 996 17 2600 6.69 270 17:44 21.06.2022
1410 Dust 42 996 12 3100 6.69 270 16:34 21.06.2022
1411 Clear 43 998 8 10000 8.64 311 11:56 21.06.2022
1412 Clear 40 999 15 10000 5.66 310 10:33 21.06.2022
1413 Clear 37 999 16 10000 6.17 310 08:54 21.06.2022
1414 Clear 34 1000 20 8000 6.69 310 07:40 21.06.2022
1415 Clear 28 999 26 9000 3.6 330 04:42 21.06.2022
1416 Clear 34 1000 22 6000 4.63 310 23:45 20.06.2022
1417 Clear 36 1000 19 7000 5.14 300 22:21 20.06.2022
1418 Clear 36 1000 19 7000 5.14 300 22:21 20.06.2022
1419 Clear 38 1000 15 10000 6.71 313 21:36 20.06.2022
1420 Clear 39 1000 15 9000 5.66 300 20:27 20.06.2022
1421 Clear 41 1000 14 9000 5.14 290 19:23 20.06.2022
1422 Clear 44 999 13 8000 6.69 280 18:25 20.06.2022
1423 Clear 45 999 12 6000 7.72 280 17:45 20.06.2022
1424 Clear 47 999 7 10000 8.77 304 16:24 20.06.2022
1425 Clear 47 1000 11 10000 4.12 330 14:41 20.06.2022
1426 Clear 48 1000 7 10000 6.56 324 12:18 20.06.2022
1427 Clear 46 1001 7 10000 7.28 336 09:57 20.06.2022
1428 Clear 39 1002 17 7000 6.17 330 08:46 20.06.2022
1429 Clear 36 1002 21 7000 4.12 340 07:51 20.06.2022
1430 Clear 31 1001 27 10000 3.6 350 05:18 20.06.2022
1431 Clear 34 1000 21 8000 4.63 300 01:32 20.06.2022
1432 Clear 34 1000 22 10000 3.09 310 23:49 19.06.2022
1433 Clear 34 1001 22 10000 1.54 320 22:25 19.06.2022
1434 Clear 35 1001 26 10000 1.03 10 21:43 19.06.2022
1435 Clear 36 1001 20 10000 0 0 20:55 19.06.2022
1436 Clear 36 1001 20 10000 0 0 20:25 19.06.2022
1437 Clear 42 1000 8 10000 4.68 323 19:46 19.06.2022
1438 Clear 44 1000 13 10000 1.54 280 18:41 19.06.2022
1439 Clear 47 1000 10 10000 3.6 290 17:48 19.06.2022
1440 Clear 47 1000 10 10000 3.6 290 17:21 19.06.2022
1441 Clear 48 1000 10 10000 5.66 280 16:34 19.06.2022
1442 Clear 48 999 6 10000 6.63 310 15:38 19.06.2022
1443 Clear 48 1000 11 10000 6.17 270 14:55 19.06.2022
1444 Clear 49 1001 9 10000 4.63 310 13:58 19.06.2022
1445 Clear 48 1001 10 10000 3.6 330 12:56 19.06.2022
1446 Clear 45 1002 15 7000 4.12 340 10:54 19.06.2022
1447 Clear 43 1002 15 7000 3.6 340 09:40 19.06.2022
1448 Clear 45 1001 9 10000 6.05 325 08:47 19.06.2022
1449 Clear 45 1001 9 10000 6.05 325 08:47 19.06.2022
1450 Clear 37 1002 19 6000 2.57 310 07:48 19.06.2022
1451 Clear 27 1000 29 10000 3.09 320 04:45 19.06.2022
1452 Clear 32 999 23 10000 2.57 310 01:29 19.06.2022
1453 Clear 30 999 23 10000 2.06 310 00:24 19.06.2022
1454 Clear 30 999 26 10000 2.57 310 23:35 18.06.2022
1455 Clear 38 1000 13 10000 4.13 340 22:36 18.06.2022
1456 Clear 35 1000 20 8000 2.57 320 20:56 18.06.2022
1457 Clear 35 1000 20 8000 2.57 320 20:28 18.06.2022
1458 Clear 38 999 18 10000 2.06 310 19:38 18.06.2022
1459 Clear 41 999 15 10000 3.09 330 18:45 18.06.2022
1460 Clear 44 999 13 10000 4.63 340 17:34 18.06.2022
1461 Clear 46 999 12 10000 7.2 340 16:47 18.06.2022
1462 Clear 47 999 11 8000 8.23 340 15:31 18.06.2022
1463 Clear 46 999 11 9000 8.75 340 14:44 18.06.2022
1464 Clear 46 1000 12 6000 8.75 340 13:22 18.06.2022
1465 Dust 45 1001 11 7000 9.26 340 11:39 18.06.2022
1466 Dust 45 1001 9 2700 9.77 330 10:47 18.06.2022
1467 Clear 42 1001 11 10000 7.2 330 09:23 18.06.2022
1468 Clear 39 1002 15 8000 7.2 310 08:30 18.06.2022
1469 Clear 39 1002 15 8000 7.2 310 08:30 18.06.2022
1470 Clear 31 1001 22 10000 5.66 290 06:49 18.06.2022
1471 Clear 27 1000 28 9000 4.12 320 03:45 18.06.2022
1472 Clear 28 1001 24 10000 4.63 320 01:26 18.06.2022
1473 Clear 28 1001 24 10000 4.63 320 01:26 18.06.2022
1474 Clear 28 1001 24 10000 4.63 320 01:26 18.06.2022
1475 Clear 30 1001 21 10000 4.63 320 00:48 18.06.2022
1476 Clear 34 1001 18 6000 4.63 320 23:58 17.06.2022
1477 Clear 34 1001 18 6000 4.63 320 23:24 17.06.2022
1478 Clear 38 1002 16 6000 7.2 310 21:18 17.06.2022
1479 Clear 38 1002 11 10000 6.38 323 20:00 17.06.2022
1480 Dust 39 1002 14 3200 3.09 330 18:49 17.06.2022
1481 Dust 42 1002 10 3900 7.72 310 17:44 17.06.2022
1482 Clear 43 1001 7 10000 9.8 324 16:43 17.06.2022
1483 Clear 44 1001 7 10000 10.69 325 16:18 17.06.2022
1484 Dust 44 1002 10 4200 11.83 310 15:34 17.06.2022
1485 Dust 45 1003 10 5000 10.29 310 14:20 17.06.2022
1486 Dust 45 1003 10 5000 10.29 310 13:48 17.06.2022
1487 Clear 44 1003 10 6000 9.77 320 13:26 17.06.2022
1488 Clear 43 1004 12 10000 7.72 330 11:58 17.06.2022
1489 Clear 43 1004 12 10000 7.72 330 11:39 17.06.2022
1490 Clear 43 1004 12 10000 7.72 330 11:21 17.06.2022
1491 Clear 36 1005 20 10000 6.17 310 08:30 17.06.2022
1492 Clear 33 1005 22 10000 7.2 310 07:51 17.06.2022
1493 Clear 30 1005 26 10000 6.17 300 06:32 17.06.2022
1494 Clear 25 1005 33 10000 3.09 310 03:20 17.06.2022
1495 Clear 29 1005 30 10000 3.6 320 00:43 17.06.2022
1496 Clear 31 1005 25 10000 4.63 310 23:25 16.06.2022
1497 Clear 31 1006 23 10000 4.63 300 22:31 16.06.2022
1498 Clear 35 1006 16 10000 6.87 309 21:19 16.06.2022
1499 Clear 34 1006 20 10000 5.66 310 20:50 16.06.2022
1500 Clear 36 1006 14 10000 7.36 310 19:59 16.06.2022
1501 Clear 38 1005 16 10000 6.17 280 18:44 16.06.2022
1502 Clear 40 1005 14 10000 9.26 290 17:44 16.06.2022
1503 Clear 40 1005 14 10000 9.26 290 17:22 16.06.2022
1504 Clear 41 1006 14 10000 9.77 290 15:58 16.06.2022
1505 Clear 41 1006 14 10000 9.77 290 15:21 16.06.2022
1506 Clear 41 1006 15 9000 7.2 310 13:55 16.06.2022
1507 Clear 41 1006 15 9000 7.2 330 12:53 16.06.2022
1508 Clear 41 1006 15 9000 7.2 330 12:34 16.06.2022
1509 Clear 40 1007 14 10000 7.72 300 11:21 16.06.2022
1510 Clear 40 1007 15 10000 5.66 310 10:35 16.06.2022
1511 Clear 38 1007 19 10000 5.66 340 09:43 16.06.2022
1512 Clear 36 1007 21 10000 5.66 340 08:56 16.06.2022
1513 Clear 33 1007 25 10000 5.14 330 07:41 16.06.2022
1514 Clear 27 1006 29 10000 3.6 320 05:51 16.06.2022
1515 Clear 27 1006 32 10000 3.09 310 03:56 16.06.2022
1516 Clear 27 1006 32 10000 3.09 330 01:52 16.06.2022
1517 Clear 27 1006 32 10000 3.09 330 01:22 16.06.2022
1518 Clear 29 1006 30 10000 3.09 320 00:22 16.06.2022
1519 Clear 30 1007 26 10000 2.57 330 22:54 15.06.2022
1520 Clear 31 1007 22 10000 3.6 320 21:48 15.06.2022
1521 Clear 31 1007 22 10000 3.6 320 21:19 15.06.2022
1522 Clear 34 1006 18 10000 4.12 310 20:37 15.06.2022
1523 Clear 34 1006 18 10000 4.12 310 20:18 15.06.2022
1524 Clear 38 1006 15 10000 4.63 320 18:47 15.06.2022
1525 Clear 39 1005 13 10000 7.2 300 17:54 15.06.2022
1526 Clear 40 1005 11 10000 7.2 290 16:35 15.06.2022
1527 Clear 41 1005 12 10000 7.72 280 15:23 15.06.2022
1528 Clear 40 1006 17 10000 5.14 350 13:37 15.06.2022
1529 Clear 40 1007 17 10000 4.63 290 12:51 15.06.2022
1530 Clear 40 1007 17 10000 4.63 330 11:37 15.06.2022
1531 Clear 39 1007 17 10000 4.63 350 10:23 15.06.2022
1532 Clear 38 1007 18 10000 5.14 360 09:37 15.06.2022
1533 Clear 36 1007 20 8000 3.6 20 08:27 15.06.2022
1534 Clear 30 1007 32 7000 3.09 320 06:33 15.06.2022
1535 Clear 27 1005 34 10000 2.06 330 03:28 15.06.2022
1536 Clear 31 1005 27 10000 3.09 10 01:38 15.06.2022
1537 Clear 29 1005 32 10000 2.57 340 00:50 15.06.2022
1538 Clear 30 1005 28 10000 2.06 20 23:39 14.06.2022
1539 Clear 32 1006 27 10000 2.57 20 22:52 14.06.2022
1540 Clear 32 1006 29 9000 3.09 350 21:53 14.06.2022
1541 Clear 32 1006 29 9000 3.09 350 21:27 14.06.2022
1542 Clear 32 1005 27 10000 1.54 350 20:48 14.06.2022
1543 Clear 33 1005 24 10000 0.51 0 19:59 14.06.2022
1544 Clear 37 1005 19 10000 3.09 280 18:45 14.06.2022
1545 Clear 39 1004 18 10000 4.63 280 17:29 14.06.2022
1546 Clear 39 1004 16 10000 3.6 310 16:43 14.06.2022
1547 Clear 40 1005 15 10000 2.57 290 15:49 14.06.2022
1548 Clear 40 1005 16 10000 3.09 290 14:57 14.06.2022
1549 Clear 40 1005 16 10000 3.09 290 14:23 14.06.2022
1550 Dust 39 1005 16 10000 3.6 250 13:39 14.06.2022
1551 Clear 40 1006 16 10000 2.06 0 12:27 14.06.2022
1552 Clear 39 1006 17 10000 1.54 0 11:27 14.06.2022
1553 Clear 38 1006 18 10000 3.09 320 10:35 14.06.2022
1554 Clear 36 1006 20 8000 2.06 360 09:45 14.06.2022
1555 Clear 34 1006 26 7000 2.57 310 08:41 14.06.2022
1556 Clear 30 1006 35 9000 3.09 280 07:26 14.06.2022
1557 Clear 23 1004 43 10000 1.03 0 04:35 14.06.2022
1558 Clear 29 1004 26 10000 3.78 24 02:43 14.06.2022
1559 Clear 29 1004 30 10000 3.6 360 00:27 14.06.2022
1560 Clear 31 1004 22 10000 4.38 11 23:18 13.06.2022
1561 Clear 27 1004 34 9000 3.09 350 22:25 13.06.2022
1562 Clear 29 1004 32 9000 1.54 10 21:43 13.06.2022
1563 Clear 30 1003 32 10000 3.09 350 20:19 13.06.2022
1564 Clear 32 1003 27 10000 1.54 340 19:34 13.06.2022
1565 Clear 37 1002 19 10000 4.12 290 17:57 13.06.2022
1566 Clear 37 1002 19 10000 4.12 290 17:36 13.06.2022
1567 Clear 37 1002 22 7000 4.12 310 16:39 13.06.2022
1568 Dust 36 1002 23 4700 4.12 280 15:37 13.06.2022
1569 Dust 36 1002 23 3500 5.14 290 14:42 13.06.2022
1570 Dust 36 1003 23 600 6.69 280 13:46 13.06.2022
1571 Dust 36 1003 24 400 7.2 270 12:31 13.06.2022
1572 Clear 35 1003 24 300 7.72 290 11:26 13.06.2022
1573 Clear 34 1003 29 300 7.72 290 10:26 13.06.2022
1574 Clouds 32 1003 31 300 8.23 300 09:31 13.06.2022
1575 Clouds 31 1002 35 100 8.23 290 07:38 13.06.2022
1576 Dust 30 1001 32 200 7.72 310 05:42 13.06.2022
1577 Clear 29 998 24 10000 2.06 220 02:50 13.06.2022
1578 Clear 29 998 28 10000 2.06 200 01:37 13.06.2022
1579 Clear 28 998 24 10000 1.03 0 00:21 13.06.2022
1580 Clear 29 998 24 10000 1.03 210 23:25 12.06.2022
1581 Clear 31 998 22 10000 0.51 250 22:22 12.06.2022
1582 Clear 34 999 18 10000 3.09 240 21:22 12.06.2022
1583 Clear 35 998 16 10000 2.06 240 20:33 12.06.2022
1584 Clear 37 998 13 10000 3.09 240 19:30 12.06.2022
1585 Clear 42 997 11 10000 5.14 270 17:54 12.06.2022
1586 Clear 42 997 11 10000 7.2 300 16:34 12.06.2022
1587 Clear 43 997 10 10000 6.69 280 15:18 12.06.2022
1588 Clear 42 998 10 10000 6.69 290 14:29 12.06.2022
1589 Clear 41 999 10 10000 6.17 290 13:55 12.06.2022
1590 Clear 41 999 11 10000 7.2 270 12:43 12.06.2022
1591 Clear 39 1000 15 10000 7.2 270 11:40 12.06.2022
1592 Clear 39 1000 17 10000 6.17 280 10:45 12.06.2022
1593 Clear 37 1001 19 10000 6.17 300 09:25 12.06.2022
1594 Clear 34 1001 20 10000 5.14 300 08:46 12.06.2022
1595 Clear 31 1001 27 10000 5.66 290 07:38 12.06.2022
1596 Clear 25 1001 36 10000 2.57 270 05:29 12.06.2022
1597 Clear 23 1001 33 10000 1.54 280 03:29 12.06.2022
1598 Clear 25 1001 27 10000 1.54 270 01:43 12.06.2022
1599 Clear 29 1002 20 10000 2.06 260 00:58 12.06.2022
1600 Clear 29 1002 20 10000 2.06 260 00:25 12.06.2022
1601 Clear 28 1002 26 10000 2.06 300 23:48 11.06.2022
1602 Clear 28 1002 26 10000 2.06 300 23:48 11.06.2022
1603 Clear 29 1003 18 10000 1.54 290 22:39 11.06.2022
1604 Clear 29 1003 18 10000 1.54 290 22:18 11.06.2022
1605 Clear 33 1003 14 10000 3.6 290 20:50 11.06.2022
1606 Clear 33 1003 14 10000 3.6 290 20:21 11.06.2022
1607 Clear 36 1002 10 10000 6.04 300 19:26 11.06.2022
1608 Clear 38 1003 12 10000 5.14 290 18:34 11.06.2022
1609 Clear 39 1003 10 10000 7.2 280 17:51 11.06.2022
1610 Clear 39 1003 10 10000 7.2 280 17:29 11.06.2022
1611 Clear 39 1002 9 10000 8.1 300 16:58 11.06.2022
1612 Clear 39 1002 9 10000 8.1 300 16:30 11.06.2022
1613 Clear 40 1003 11 10000 9.26 300 15:43 11.06.2022
1614 Clear 40 1004 12 10000 7.2 300 13:53 11.06.2022
1615 Clear 40 1004 12 10000 7.2 300 13:24 11.06.2022
1616 Clear 38 1006 19 10000 6.17 310 10:55 11.06.2022
1617 Clear 38 1006 19 10000 6.17 310 10:19 11.06.2022
1618 Clear 36 1006 21 10000 5.66 300 09:29 11.06.2022
1619 Clear 31 1006 25 9000 5.14 290 07:46 11.06.2022
1620 Clear 29 1006 21 10000 5.14 290 06:30 11.06.2022
1621 Clear 26 1006 29 10000 5.66 300 05:19 11.06.2022
1622 Clear 25 1005 25 10000 1.03 230 01:53 11.06.2022
1623 Clear 25 1005 25 10000 1.03 230 01:33 11.06.2022
1624 Clear 27 1006 24 10000 1.03 0 00:22 11.06.2022
1625 Clear 29 1006 21 10000 1.54 300 22:33 10.06.2022
1626 Clear 29 1006 21 10000 1.54 300 21:53 10.06.2022
1627 Clear 31 1006 18 10000 3.6 320 20:43 10.06.2022
1628 Clear 31 1006 18 10000 3.6 320 20:23 10.06.2022
1629 Clear 32 1006 20 10000 3.09 330 19:48 10.06.2022
1630 Clear 32 1006 20 10000 3.09 330 19:18 10.06.2022
1631 Clear 36 1005 16 10000 2.57 330 18:19 10.06.2022
1632 Clear 38 1005 16 10000 4.63 290 17:36 10.06.2022
1633 Clear 39 1005 16 10000 5.14 300 16:56 10.06.2022
1634 Clear 39 1006 13 10000 6.69 290 15:48 10.06.2022
1635 Clear 39 1006 13 10000 6.69 290 15:19 10.06.2022
1636 Clear 39 1006 16 10000 4.12 300 13:49 10.06.2022
1637 Clear 39 1007 15 10000 5.66 300 12:35 10.06.2022
1638 Clear 38 1007 17 10000 5.14 300 11:40 10.06.2022
1639 Dust 36 1008 21 2400 5.14 300 10:40 10.06.2022
1640 Dust 35 1008 21 2600 4.63 300 09:44 10.06.2022
1641 Dust 33 1008 24 2500 5.66 310 08:28 10.06.2022
1642 Dust 30 1008 23 3000 4.12 300 06:53 10.06.2022
1643 Dust 30 1008 23 3000 4.12 300 06:32 10.06.2022
1644 Dust 27 1007 26 3200 2.57 310 05:48 10.06.2022
1645 Clear 28 1006 24 6000 2.06 350 03:41 10.06.2022
1646 Clear 27 1005 29 10000 3.09 340 01:38 10.06.2022
1647 Clear 28 1005 26 10000 2.57 330 00:27 10.06.2022
1648 Clear 29 1005 24 10000 3.6 320 23:28 09.06.2022
1649 Clear 32 1005 19 10000 3.6 320 21:48 09.06.2022
1650 Clear 32 1005 19 10000 3.6 320 21:29 09.06.2022
1651 Clear 32 1005 19 10000 3.6 320 20:54 09.06.2022
1652 Clear 32 1005 19 10000 3.6 320 20:54 09.06.2022
1653 Clear 37 1004 16 10000 5.66 300 19:59 09.06.2022
1654 Clear 39 1004 14 10000 5.66 280 18:54 09.06.2022
1655 Clear 39 1004 14 10000 5.66 280 18:21 09.06.2022
1656 Clear 42 1003 11 10000 4.12 290 16:48 09.06.2022
1657 Clear 43 1003 10 10000 4.63 290 15:48 09.06.2022
1658 Clear 42 1004 12 10000 3.6 250 14:35 09.06.2022
1659 Clear 42 1004 11 10000 3.6 270 13:48 09.06.2022
1660 Clear 42 1004 11 10000 3.6 270 13:27 09.06.2022
1661 Clear 41 1005 11 10000 2.57 290 11:54 09.06.2022
1662 Clear 39 1005 16 10000 4.63 270 10:53 09.06.2022
1663 Clear 39 1005 18 6000 4.63 270 09:43 09.06.2022
1664 Clear 39 1005 18 6000 4.63 270 09:23 09.06.2022
1665 Clear 33 1005 21 7000 2.57 320 07:44 09.06.2022
1666 Clear 26 1004 36 8000 2.57 320 05:48 09.06.2022
1667 Clear 28 1003 30 7000 1.03 330 02:20 09.06.2022
1668 Clear 31 1004 25 9000 1.03 50 23:36 08.06.2022
1669 Clear 31 1004 25 9000 1.54 80 22:58 08.06.2022
1670 Clear 31 1004 25 9000 1.54 80 22:26 08.06.2022
1671 Clear 32 1005 22 10000 1.54 20 21:52 08.06.2022
1672 Clear 33 1005 21 10000 1.54 20 20:59 08.06.2022
1673 Clear 35 1004 17 10000 3.09 340 19:55 08.06.2022
1674 Clear 35 1004 17 10000 3.09 340 19:27 08.06.2022
1675 Clear 38 1004 15 10000 3.6 320 18:42 08.06.2022
1676 Clear 42 1003 10 10000 4.12 350 16:39 08.06.2022
1677 Clear 42 1003 9 10000 4.63 360 15:44 08.06.2022
1678 Clear 43 1004 10 10000 4.12 320 13:44 08.06.2022
1679 Clear 42 1005 11 10000 3.09 340 11:52 08.06.2022
1680 Clear 42 1005 11 10000 3.09 340 11:29 08.06.2022
1681 Clear 40 1005 11 10000 4.63 340 09:55 08.06.2022
1682 Clear 40 1005 11 10000 4.63 340 09:21 08.06.2022
1683 Clear 37 1005 16 7000 4.12 340 08:22 08.06.2022
1684 Clear 27 1004 32 10000 2.06 290 05:51 08.06.2022
1685 Clear 26 1003 29 10000 3.6 320 03:52 08.06.2022
1686 Clear 30 1002 25 10000 2.57 330 00:29 08.06.2022
1687 Clear 31 1002 22 10000 3.6 330 23:27 07.06.2022
1688 Clear 32 1002 19 10000 4.12 320 22:44 07.06.2022
1689 Clear 32 1002 19 10000 4.12 320 22:22 07.06.2022
1690 Clear 35 1002 16 10000 4.12 300 21:33 07.06.2022
1691 Clear 36 1002 16 10000 4.12 280 20:58 07.06.2022
1692 Clear 36 1002 16 10000 4.12 280 20:32 07.06.2022
1693 Clear 37 1001 13 10000 4.63 280 19:38 07.06.2022
1694 Clear 40 1001 11 10000 5.14 280 18:22 07.06.2022
1695 Clear 41 1000 10 10000 5.66 270 17:25 07.06.2022
1696 Clouds 42 1000 10 8000 6.17 270 16:42 07.06.2022
1697 Clouds 43 1000 10 7000 6.17 270 15:47 07.06.2022
1698 Clouds 43 1000 10 7000 6.17 270 15:26 07.06.2022
1699 Clouds 43 1000 10 7000 6.17 270 15:26 07.06.2022
1700 Clouds 43 1000 10 7000 6.69 260 14:47 07.06.2022
1701 Clouds 43 1000 10 7000 6.69 260 14:29 07.06.2022
1702 Clouds 43 1001 10 7000 5.66 290 13:30 07.06.2022
1703 Dust 43 1001 11 3000 7.2 290 12:45 07.06.2022
1704 Dust 43 1001 9 7000 5.14 330 11:47 07.06.2022
1705 Clouds 42 1001 8 10000 5.89 318 10:26 07.06.2022
1706 Dust 35 1001 20 4000 4.12 310 08:49 07.06.2022
1707 Dust 34 1001 18 4600 4.12 310 07:34 07.06.2022
1708 Dust 35 1001 16 5000 3.09 340 06:18 07.06.2022
1709 Clouds 33 1000 17 6000 5.66 360 03:31 07.06.2022
1710 Clouds 35 1001 14 6000 5.14 320 00:45 07.06.2022
1711 Clouds 36 1001 14 7000 7.72 320 23:41 06.06.2022
1712 Clouds 36 1001 12 10000 8.3 329 22:53 06.06.2022
1713 Clouds 37 1001 14 7000 6.17 300 21:57 06.06.2022
1714 Clouds 38 1001 13 8000 5.66 300 20:42 06.06.2022
1715 Clouds 40 1000 11 7000 7.2 290 19:24 06.06.2022
1716 Clouds 40 1000 11 7000 7.2 290 19:24 06.06.2022
1717 Dust 41 1000 13 5000 2.57 300 18:48 06.06.2022
1718 Clouds 44 1000 10 9000 2.06 210 17:57 06.06.2022
1719 Clouds 46 1000 7 9000 1.54 0 16:57 06.06.2022
1720 Clouds 46 1000 8 9000 3.6 190 15:52 06.06.2022
1721 Clouds 46 1000 8 6000 3.6 210 14:59 06.06.2022
1722 Clouds 46 1000 8 6000 3.6 210 14:59 06.06.2022
1723 Clouds 46 1000 8 6000 3.6 210 14:18 06.06.2022
1724 Clouds 46 1000 7 10000 3.72 306 13:20 06.06.2022
1725 Clouds 45 1002 11 3900 3.6 360 12:34 06.06.2022
1726 Dust 44 1002 10 3000 3.6 340 11:47 06.06.2022
1727 Dust 42 1003 12 3000 6.17 310 09:53 06.06.2022
1728 Dust 42 1003 12 3000 6.17 310 09:18 06.06.2022
1729 Dust 40 1003 20 2200 4.12 260 08:31 06.06.2022
1730 Dust 40 1002 11 3800 1.54 30 07:20 06.06.2022
1731 Dust 31 1002 23 3300 2.06 20 04:42 06.06.2022
1732 Dust 33 1002 21 5000 2.57 360 02:19 06.06.2022
1733 Dust 32 1003 23 4200 2.57 320 00:57 06.06.2022
1734 Dust 32 1003 23 4200 2.57 320 00:35 06.06.2022
1735 Dust 35 1003 18 3900 3.09 330 23:25 05.06.2022
1736 Dust 35 1003 18 3700 2.57 340 22:27 05.06.2022
1737 Dust 37 1003 15 4000 2.06 340 20:34 05.06.2022
1738 Dust 40 1003 12 4400 3.09 10 19:26 05.06.2022
1739 Dust 41 1003 11 4400 3.09 350 18:26 05.06.2022
1740 Clouds 43 1003 9 7000 4.63 340 17:46 05.06.2022
1741 Clouds 43 1003 9 7000 4.63 340 17:22 05.06.2022
1742 Dust 45 1003 8 4000 6.69 330 16:48 05.06.2022
1743 Clouds 46 1003 7 8000 5.14 310 15:47 05.06.2022
1744 Clouds 46 1003 8 7000 3.6 270 14:21 05.06.2022
1745 Clouds 46 1003 7 8000 4.12 260 12:34 05.06.2022
1746 Clouds 45 1004 8 6000 2.57 230 11:30 05.06.2022
1747 Dust 43 1004 13 3000 2.57 250 10:25 05.06.2022
1748 Dust 42 1004 12 3000 4.12 260 09:58 05.06.2022
1749 Dust 40 1004 12 3900 1.54 0 08:26 05.06.2022
1750 Dust 35 1004 17 3400 2.57 330 06:54 05.06.2022
1751 Dust 29 1004 28 4000 3.09 310 05:20 05.06.2022
1752 Clouds 31 1003 22 6000 1.03 230 03:38 05.06.2022
1753 Clouds 32 1003 20 8000 2.06 30 01:31 05.06.2022
1754 Clear 32 1004 20 10000 3.6 330 23:58 04.06.2022
1755 Clear 33 1004 24 10000 1.03 0 21:49 04.06.2022
1756 Clear 37 1004 18 10000 1.54 310 20:21 04.06.2022
1757 Clouds 40 1004 15 8000 2.06 340 18:18 04.06.2022
1758 Clear 44 1004 7 10000 3.09 340 16:42 04.06.2022
1759 Clear 44 1004 7 10000 3.09 340 16:18 04.06.2022
1760 Clear 44 1004 7 10000 3.09 340 16:18 04.06.2022
1761 Clear 45 1005 6 10000 2.57 270 14:37 04.06.2022
1762 Clear 45 1005 7 10000 2.06 250 12:27 04.06.2022
1763 Clear 44 1006 6 10000 3.09 200 10:58 04.06.2022
1764 Clear 44 1006 6 10000 3.09 200 10:26 04.06.2022
1765 Clouds 42 1006 5 9000 3.09 200 09:42 04.06.2022
1766 Clear 40 1006 8 10000 3.09 210 08:40 04.06.2022
1767 Clouds 38 1005 11 6000 3.09 180 07:40 04.06.2022
1768 Clouds 31 1005 22 6000 2.06 220 04:38 04.06.2022
1769 Clear 30 1004 20 10000 1.54 140 01:25 04.06.2022
1770 Clear 32 1004 18 10000 1.54 160 23:53 03.06.2022
1771 Clear 33 1005 18 10000 1.54 130 22:30 03.06.2022
1772 Clouds 39 1005 6 10000 1.82 305 21:24 03.06.2022
1773 Clear 36 1005 14 10000 1.54 120 20:33 03.06.2022
1774 Clear 40 1004 10 10000 2.57 120 18:23 03.06.2022
1775 Clear 45 1004 5 10000 2.06 160 16:47 03.06.2022
1776 Clear 45 1004 4 10000 2.06 140 15:18 03.06.2022
1777 Clear 46 1005 4 10000 3.09 160 13:20 03.06.2022
1778 Clear 45 1006 6 10000 3.6 150 11:40 03.06.2022
1779 Clouds 41 1006 10 9000 4.12 140 09:38 03.06.2022
1780 Clear 39 1006 11 10000 3.09 100 08:58 03.06.2022
1781 Clouds 36 1006 16 6000 2.06 90 07:26 03.06.2022
1782 Clouds 36 1006 16 6000 2.06 90 07:26 03.06.2022
1783 Smoke 33 1006 22 3200 1.54 90 06:34 03.06.2022
1784 Dust 30 1005 26 1600 1.03 0 05:36 03.06.2022
1785 Clear 29 1005 23 10000 0 0 00:30 03.06.2022
1786 Clear 31 1005 20 10000 0 0 22:45 02.06.2022
1787 Clear 31 1005 30 10000 0 0 21:40 02.06.2022
1788 Clear 33 1005 18 10000 1.03 0 20:22 02.06.2022
1789 Clear 33 1005 18 10000 1.03 0 20:22 02.06.2022
1790 Clear 36 1004 14 10000 1.54 180 19:50 02.06.2022
1791 Clear 36 1004 14 10000 1.54 180 19:31 02.06.2022
1792 Clear 43 1004 8 10000 3.6 190 17:32 02.06.2022
1793 Clear 44 1004 6 10000 3.6 10 16:27 02.06.2022
1794 Dust 45 1005 6 10000 2.57 0 14:20 02.06.2022
1795 Clear 45 1005 6 10000 3.09 260 13:29 02.06.2022
1796 Clear 45 1004 5 10000 1.99 335 11:36 02.06.2022
1797 Clear 43 1006 10 6000 2.57 280 10:20 02.06.2022
1798 Clear 40 1006 12 8000 2.57 280 09:28 02.06.2022
1799 Clear 37 1006 13 7000 3.6 300 08:27 02.06.2022
1800 Clear 35 1006 15 9000 3.6 300 07:25 02.06.2022
1801 Clear 24 1005 35 8000 1.54 250 04:54 02.06.2022
1802 Clear 25 1004 36 9000 0.51 0 02:48 02.06.2022
1803 Clear 28 1004 21 10000 1.03 230 23:50 01.06.2022
1804 Clear 30 1004 23 10000 1.03 10 22:51 01.06.2022
1805 Clear 32 1004 18 10000 0 0 21:37 01.06.2022
1806 Clear 34 1004 12 10000 1.03 280 20:59 01.06.2022
1807 Clear 34 1004 12 10000 1.03 280 20:37 01.06.2022
1808 Clear 35 1004 16 10000 1.54 360 19:28 01.06.2022
1809 Clear 40 1003 8 10000 3.09 310 17:46 01.06.2022
1810 Clear 44 1003 7 10000 4.63 270 16:38 01.06.2022
1811 Clear 44 1003 7 10000 2.06 260 14:59 01.06.2022
1812 Clear 44 1002 5 10000 5.9 306 13:53 01.06.2022
1813 Clear 43 1004 6 8000 4.12 280 12:28 01.06.2022
1814 Clear 37 1004 11 8000 4.12 270 09:48 01.06.2022
1815 Clear 37 1004 11 8000 4.12 270 09:24 01.06.2022
1816 Clear 36 1004 9 10000 3.77 299 07:25 01.06.2022
1817 Clear 29 1004 30 7000 3.6 270 06:30 01.06.2022
1818 Clear 33 1002 12 10000 3.76 331 00:48 01.06.2022
1819 Clear 31 1002 20 9000 1.54 350 23:41 31.05.2022
1820 Clear 31 1003 18 8000 2.57 290 22:37 31.05.2022
1821 Clear 33 1003 15 6000 2.06 280 21:46 31.05.2022
1822 Dust 36 1003 10 5000 2.06 280 20:46 31.05.2022
1823 Dust 36 1003 10 5000 2.06 280 20:23 31.05.2022
1824 Dust 38 1003 9 4600 2.57 340 18:53 31.05.2022
1825 Dust 41 1002 9 5000 5.14 290 17:51 31.05.2022
1826 Dust 41 1002 9 5000 5.14 290 17:18 31.05.2022
1827 Clear 43 1003 8 8000 8.23 290 15:41 31.05.2022
1828 Clear 43 1003 8 8000 8.23 290 15:41 31.05.2022
1829 Clear 43 1003 7 8000 9.26 300 14:18 31.05.2022
1830 Clear 44 1004 6 8000 8.75 310 12:21 31.05.2022
1831 Clear 43 1005 7 8000 8.23 320 11:23 31.05.2022
1832 Clear 39 1005 14 8000 5.14 300 09:31 31.05.2022
1833 Clear 33 1006 21 9000 4.63 310 07:28 31.05.2022
1834 Clear 24 1005 29 10000 2.06 320 05:24 31.05.2022
1835 Clear 28 1004 21 10000 2.57 330 01:42 31.05.2022
1836 Clear 30 1005 21 10000 4.12 340 23:29 30.05.2022
1837 Clear 32 1006 19 10000 3.09 280 22:57 30.05.2022
1838 Clear 32 1006 19 10000 3.09 280 22:24 30.05.2022
1839 Clear 32 1006 17 8000 2.06 280 21:35 30.05.2022
1840 Clear 34 1006 14 8000 2.57 280 20:22 30.05.2022
1841 Clear 37 1005 12 6000 2.57 320 18:58 30.05.2022
1842 Clear 40 1005 10 10000 6.17 280 17:41 30.05.2022
1843 Clear 41 1005 9 10000 7.72 280 16:45 30.05.2022
1844 Clear 42 1005 8 8000 8.23 300 15:22 30.05.2022
1845 Clear 42 1007 9 10000 6.69 280 12:37 30.05.2022
1846 Clear 40 1008 10 8000 4.12 310 10:47 30.05.2022
1847 Clear 38 1008 14 6000 3.09 320 09:39 30.05.2022
1848 Clear 32 1008 23 7000 3.09 340 07:24 30.05.2022
1849 Clear 25 1007 22 10000 2.06 320 05:50 30.05.2022
1850 Clear 24 1007 27 10000 1.54 300 02:33 30.05.2022
1851 Clear 27 1007 28 9000 2.06 310 23:28 29.05.2022
1852 Clear 29 1007 18 10000 1.54 280 22:39 29.05.2022
1853 Clear 30 1007 17 10000 1.54 270 21:31 29.05.2022
1854 Clear 35 1007 13 10000 3.6 270 19:48 29.05.2022
1855 Clear 35 1007 13 10000 3.6 270 19:27 29.05.2022
1856 Clear 39 1006 9 10000 5.66 290 17:41 29.05.2022
1857 Clear 41 1006 8 10000 4.63 340 15:49 29.05.2022
1858 Clear 41 1006 8 10000 4.63 340 15:28 29.05.2022
1859 Dust 41 1007 7 10000 6.17 310 14:31 29.05.2022
1860 Clear 39 1008 7 10000 4.12 300 11:55 29.05.2022
1861 Clear 39 1009 8 10000 2.57 290 10:44 29.05.2022
1862 Clear 36 1009 14 10000 3.09 260 09:52 29.05.2022
1863 Clear 30 1009 20 10000 3.6 280 07:28 29.05.2022
1864 Clear 23 1007 27 10000 2.57 260 04:50 29.05.2022
1865 Clear 23 1007 27 10000 2.57 260 04:31 29.05.2022
1866 Clear 23 1007 27 10000 0.51 0 00:35 29.05.2022
1867 Clear 24 1007 25 10000 0.51 0 23:42 28.05.2022
1868 Clear 25 1007 25 9000 1.03 240 22:46 28.05.2022
1869 Clear 25 1007 25 9000 0.51 0 21:45 28.05.2022
1870 Clear 30 1006 15 10000 1.54 270 20:30 28.05.2022
1871 Clear 34 1006 12 10000 2.57 270 19:18 28.05.2022
1872 Clear 36 1005 8 10000 4.12 310 17:48 28.05.2022
1873 Clear 39 1005 8 10000 7.72 290 16:57 28.05.2022
1874 Clear 39 1005 7 9000 9.26 300 15:45 28.05.2022
1875 Clear 39 1005 7 9000 9.26 300 15:19 28.05.2022
1876 Clear 38 1006 7 10000 6.17 290 13:27 28.05.2022
1877 Clear 38 1007 6 10000 6.69 270 12:42 28.05.2022
1878 Clear 37 1007 8 10000 4.63 260 11:28 28.05.2022
1879 Clear 35 1007 11 10000 4.12 270 10:32 28.05.2022
1880 Clear 33 1007 15 10000 3.6 250 09:39 28.05.2022
1881 Clear 29 1007 23 10000 2.57 280 07:56 28.05.2022
1882 Clear 24 1007 27 10000 2.57 200 06:32 28.05.2022
1883 Clear 20 1006 30 10000 1.03 0 04:39 28.05.2022
1884 Clear 21 1006 28 10000 1.03 260 01:30 28.05.2022
1885 Clear 23 1007 23 10000 0.51 260 23:53 27.05.2022
1886 Clear 24 1007 20 10000 1.03 0 22:32 27.05.2022
1887 Clear 25 1007 19 10000 2.06 260 21:22 27.05.2022
1888 Clear 29 1007 14 10000 3.09 280 20:42 27.05.2022
1889 Clear 29 1007 14 10000 3.09 280 20:18 27.05.2022
1890 Clear 31 1007 13 10000 3.09 280 19:34 27.05.2022
1891 Clear 32 1007 12 10000 3.6 310 18:41 27.05.2022
1892 Clear 35 1007 10 10000 6.69 300 16:43 27.05.2022
1893 Clear 36 1006 7 10000 6.85 300 15:47 27.05.2022
1894 Clear 36 1007 10 10000 8.75 310 14:46 27.05.2022
1895 Clear 36 1008 10 10000 8.23 280 13:40 27.05.2022
1896 Clear 37 1009 10 9000 6.69 290 11:53 27.05.2022
1897 Clear 37 1009 10 9000 6.69 290 11:27 27.05.2022
1898 Clear 35 1009 10 10000 5.66 270 10:37 27.05.2022
1899 Clear 34 1010 10 10000 5.66 310 09:52 27.05.2022
1900 Clear 34 1010 10 10000 5.66 310 09:28 27.05.2022
1901 Clear 24 1009 19 10000 4.12 300 06:58 27.05.2022
1902 Clear 24 1009 25 10000 4.63 300 02:59 27.05.2022
1903 Clear 24 1010 25 7000 3.09 300 00:57 27.05.2022
1904 Clear 26 1010 24 6000 3.6 280 23:23 26.05.2022
1905 Dust 28 1011 15 3000 3.09 280 21:48 26.05.2022
1906 Dust 30 1010 10 3000 2.06 290 20:59 26.05.2022
1907 Dust 30 1010 10 3000 3.09 310 19:34 26.05.2022
1908 Dust 33 1010 9 1000 4.63 290 18:31 26.05.2022
1909 Dust 33 1010 8 1000 6.17 280 17:34 26.05.2022
1910 Dust 34 1010 7 1000 8.75 290 15:58 26.05.2022
1911 Dust 34 1010 7 1000 8.75 290 15:18 26.05.2022
1912 Clear 34 1010 7 700 7.72 280 13:56 26.05.2022
1913 Dust 33 1012 8 4000 8.23 320 11:49 26.05.2022
1914 Dust 33 1013 8 2500 8.23 310 10:39 26.05.2022
1915 Clear 31 1013 11 10000 5.66 300 09:38 26.05.2022
1916 Clear 29 1013 13 8000 5.66 310 08:38 26.05.2022
1917 Dust 20 1013 26 5000 3.09 310 05:26 26.05.2022
1918 Clear 22 1012 21 6000 3.6 320 02:19 26.05.2022
1919 Clear 26 1012 18 6000 4.63 320 23:50 25.05.2022
1920 Clear 27 1012 19 7000 5.66 310 22:51 25.05.2022
1921 Clear 28 1012 21 9000 6.69 310 21:41 25.05.2022
1922 Clear 30 1012 19 10000 6.69 300 20:47 25.05.2022
1923 Clear 31 1011 18 10000 5.14 300 19:32 25.05.2022
1924 Clear 32 1010 17 10000 6.17 300 18:36 25.05.2022
1925 Clouds 35 1009 16 6000 4.12 280 16:58 25.05.2022
1926 Clouds 35 1009 16 6000 4.12 280 16:27 25.05.2022
1927 Clear 35 1009 17 10000 4.12 250 15:36 25.05.2022
1928 Clear 36 1009 15 10000 4.12 280 14:50 25.05.2022
1929 Clear 36 1009 15 10000 4.12 280 14:31 25.05.2022
1930 Clear 35 1010 17 10000 2.06 0 13:23 25.05.2022
1931 Clear 35 1010 14 10000 3.23 281 11:49 25.05.2022
1932 Clear 34 1011 17 10000 2.06 0 10:24 25.05.2022
1933 Clear 32 1012 18 10000 2.06 0 09:38 25.05.2022
1934 Clear 31 1011 20 10000 2.87 324 07:36 25.05.2022
1935 Clear 21 1010 43 10000 1.03 360 05:41 25.05.2022
1936 Clear 26 1009 25 10000 0.97 9 02:41 25.05.2022
1937 Clear 22 1009 35 10000 1.54 180 23:48 24.05.2022
1938 Clear 23 1009 35 10000 0.51 0 22:59 24.05.2022
1939 Clear 23 1009 35 10000 0.51 0 22:59 24.05.2022
1940 Clear 25 1009 29 10000 0 0 21:57 24.05.2022
1941 Clear 25 1009 29 10000 0 0 21:37 24.05.2022
1942 Clear 25 1009 29 10000 0 0 21:18 24.05.2022
1943 Clear 28 1008 28 10000 2.06 350 19:27 24.05.2022
1944 Clear 31 1007 20 10000 3.6 320 18:29 24.05.2022
1945 Clear 33 1007 17 10000 4.12 250 16:39 24.05.2022
1946 Clear 33 1007 17 10000 5.14 290 15:52 24.05.2022
1947 Clear 33 1007 19 10000 5.14 240 14:41 24.05.2022
1948 Clear 32 1007 22 10000 4.63 250 13:47 24.05.2022
1949 Clear 32 1008 23 9000 5.14 250 12:31 24.05.2022
1950 Clear 30 1009 32 7000 5.14 260 09:52 24.05.2022
1951 Dust 29 1008 34 5000 4.12 270 08:57 24.05.2022
1952 Dust 27 1008 39 5000 4.12 290 08:38 24.05.2022
1953 Dust 25 1007 41 3500 7.2 310 06:41 24.05.2022
1954 Dust 25 1006 36 800 2.57 250 03:41 24.05.2022
1955 Dust 25 1005 38 800 1.03 0 01:47 24.05.2022
1956 Dust 25 1005 38 700 1.54 220 00:53 24.05.2022
1957 Dust 27 1005 32 700 1.03 210 22:25 23.05.2022
1958 Dust 28 1005 30 3000 1.03 350 21:53 23.05.2022
1959 Dust 27 1005 32 3500 1.54 340 20:53 23.05.2022
1960 Dust 28 1004 28 3500 2.06 330 19:56 23.05.2022
1961 Dust 28 1004 28 3500 2.06 330 19:30 23.05.2022
1962 Dust 28 1004 26 3000 2.06 350 18:41 23.05.2022
1963 Dust 28 1004 26 3000 2.06 350 18:22 23.05.2022
1964 Dust 31 1003 20 3000 3.6 280 16:46 23.05.2022
1965 Dust 30 1003 21 2000 6.69 280 14:44 23.05.2022
1966 Clouds 26 1004 34 300 8.75 290 11:58 23.05.2022
1967 Clouds 26 1004 34 300 8.75 290 11:25 23.05.2022
1968 Clouds 26 1004 31 200 9.77 290 09:49 23.05.2022
1969 Fog 25 1003 33 250 10.29 290 08:51 23.05.2022
1970 Clouds 25 1003 31 200 9.26 290 07:46 23.05.2022
1971 Clouds 26 1002 27 100 10.8 290 06:43 23.05.2022
1972 Dust 29 1001 21 2500 6.69 270 04:43 23.05.2022
1973 Clear 25 999 47 10000 1.03 0 02:19 23.05.2022
1974 Clouds 27 1000 28 8000 1.54 120 01:35 23.05.2022
1975 Clear 27 1001 26 8000 0.51 60 23:42 22.05.2022
1976 Clear 27 1002 26 10000 0.51 360 22:35 22.05.2022
1977 Clear 27 1002 22 10000 0.51 0 21:54 22.05.2022
1978 Clear 30 1002 16 10000 0.51 0 20:51 22.05.2022
1979 Clear 30 1002 16 10000 0.51 0 20:25 22.05.2022
1980 Clear 33 1002 14 10000 1.54 230 19:54 22.05.2022
1981 Clear 35 1002 11 10000 2.06 360 18:55 22.05.2022
1982 Clear 35 1002 11 10000 2.06 360 18:24 22.05.2022
1983 Clear 37 1002 10 10000 3.09 20 17:32 22.05.2022
1984 Clear 38 1003 8 10000 3.09 340 16:25 22.05.2022
1985 Clear 38 1004 8 10000 3.6 350 14:48 22.05.2022
1986 Clear 38 1005 8 10000 4.12 360 13:38 22.05.2022
1987 Clear 37 1006 5 10000 3.09 360 12:50 22.05.2022
1988 Clear 36 1007 7 10000 4.12 350 11:42 22.05.2022
1989 Dust 33 1008 11 4000 3.6 310 09:43 22.05.2022
1990 Dust 30 1008 15 5000 3.09 300 08:34 22.05.2022
1991 Dust 27 1009 19 5000 3.6 300 07:21 22.05.2022
1992 Dust 27 1009 19 5000 3.6 300 07:21 22.05.2022
1993 Dust 22 1008 28 4000 3.09 320 05:31 22.05.2022
1994 Dust 23 1009 17 4000 2.06 280 01:43 22.05.2022
1995 Dust 24 1009 15 4000 2.57 290 00:43 22.05.2022
1996 Dust 24 1010 19 4000 1.54 280 23:54 21.05.2022
1997 Dust 25 1010 18 5000 1.54 290 22:57 21.05.2022
1998 Clouds 26 1011 14 6000 1.54 270 21:42 21.05.2022
1999 Clouds 26 1011 14 6000 1.54 270 21:23 21.05.2022
2000 Clouds 27 1010 12 6000 2.06 300 20:24 21.05.2022
2001 Clouds 27 1010 14 7000 3.6 300 19:30 21.05.2022
2002 Clouds 33 1010 8 8000 3.6 340 17:51 21.05.2022
2003 Dust 34 1010 5 5000 4.12 290 16:46 21.05.2022
2004 Dust 34 1011 5 5000 7.2 310 14:38 21.05.2022
2005 Dust 33 1011 8 5000 6.17 310 13:52 21.05.2022
2006 Clouds 34 1010 6 10000 8.3 315 12:50 21.05.2022
2007 Clouds 34 1011 7 10000 8.05 315 12:26 21.05.2022
2008 Clouds 30 1012 15 8000 6.69 290 10:44 21.05.2022
2009 Clouds 28 1013 17 7000 6.17 300 09:48 21.05.2022
2010 Dust 27 1013 16 4000 6.69 300 08:58 21.05.2022
2011 Dust 27 1013 16 4000 6.69 300 08:33 21.05.2022
2012 Clouds 25 1011 23 10000 7.9 335 04:33 21.05.2022
2013 Clouds 28 1010 16 10000 6.62 342 00:38 21.05.2022
2014 Dust 30 1010 16 2800 8.23 310 23:22 20.05.2022
2015 Dust 31 1010 15 3300 8.75 310 22:24 20.05.2022
2016 Clouds 31 1010 16 10000 7.32 321 21:49 20.05.2022
2017 Dust 32 1010 13 4300 7.72 300 20:58 20.05.2022
2018 Clouds 32 1009 13 9000 7.72 290 20:29 20.05.2022
2019 Clear 32 1009 12 10000 6.69 300 19:29 20.05.2022
2020 Clouds 33 1008 10 8000 7.72 300 18:47 20.05.2022
2021 Dust 36 1007 8 3000 7.72 300 17:43 20.05.2022
2022 Clouds 37 1007 9 10000 8.78 309 16:21 20.05.2022
2023 Dust 38 1007 5 3000 9.77 290 15:53 20.05.2022
2024 Dust 39 1007 4 3000 7.72 310 14:31 20.05.2022
2025 Dust 40 1007 4 3000 7.2 320 13:56 20.05.2022
2026 Clouds 38 1008 9 5000 5.66 280 11:49 20.05.2022
2027 Dust 36 1009 11 5000 5.66 290 10:24 20.05.2022
2028 Dust 33 1008 19 5000 2.57 350 08:50 20.05.2022
2029 Dust 32 1008 18 4500 2.57 310 07:25 20.05.2022
2030 Clouds 33 1008 14 10000 4.32 326 06:36 20.05.2022
2031 Clouds 26 1008 27 6000 1.03 320 05:28 20.05.2022
2032 Clouds 30 1006 17 7000 3.09 90 00:54 20.05.2022
2033 Clouds 32 1006 18 7000 2.57 70 23:25 19.05.2022
2034 Clouds 32 1007 18 6000 3.09 60 22:26 19.05.2022
2035 Clouds 33 1007 13 10000 4.63 121 21:49 19.05.2022
2036 Clouds 34 1007 13 10000 4.4 117 21:23 19.05.2022
2037 Clouds 33 1007 21 6000 2.57 70 20:40 19.05.2022
2038 Clouds 33 1008 18 8000 2.06 100 19:54 19.05.2022
2039 Clouds 35 1007 13 9000 2.06 100 18:45 19.05.2022
2040 Clear 38 1007 7 10000 2.57 120 17:31 19.05.2022
2041 Clear 39 1008 15 10000 1.54 0 15:33 19.05.2022
2042 Clear 39 1009 4 10000 2.57 220 14:30 19.05.2022
2043 Clear 38 1009 5 10000 3.09 210 13:53 19.05.2022
2044 Clear 38 1011 5 10000 2.06 0 11:46 19.05.2022
2045 Clear 36 1011 9 10000 3.09 70 09:47 19.05.2022
2046 Clear 34 1011 11 9000 2.06 80 08:31 19.05.2022
2047 Clear 26 1011 31 7000 1.54 320 06:39 19.05.2022
2048 Clear 24 1009 35 10000 1.54 50 02:59 19.05.2022
2049 Clear 29 1008 17 10000 3.37 46 00:56 19.05.2022
2050 Clear 30 1009 16 10000 3.46 46 23:00 18.05.2022
2051 Clear 30 1009 16 10000 3.46 46 22:40 18.05.2022
2052 Clear 27 1010 28 10000 1.03 20 21:32 18.05.2022
2053 Clear 28 1010 24 10000 1.54 10 20:55 18.05.2022
2054 Clear 28 1010 24 10000 1.54 10 20:19 18.05.2022
2055 Clear 32 1009 17 10000 2.57 360 18:46 18.05.2022
2056 Clear 34 1008 12 10000 6.37 321 17:41 18.05.2022
2057 Clear 36 1008 11 10000 6.57 317 17:23 18.05.2022
2058 Clear 36 1008 10 10000 2.57 350 16:36 18.05.2022
2059 Clear 36 1009 10 10000 2.06 360 15:42 18.05.2022
2060 Clear 36 1009 10 10000 2.06 360 15:19 18.05.2022
2061 Clear 36 1009 9 10000 3.09 0 13:53 18.05.2022
2062 Clear 36 1010 10 10000 4.63 30 12:53 18.05.2022
2063 Clouds 35 1010 10 10000 3.6 20 11:47 18.05.2022
2064 Clouds 35 1010 10 10000 3.6 20 11:29 18.05.2022
2065 Clear 33 1011 13 8000 2.57 10 09:59 18.05.2022
2066 Clear 28 1011 23 8000 3.09 330 07:56 18.05.2022
2067 Clear 30 1010 17 10000 3.57 8 06:52 18.05.2022
2068 Clear 22 1008 46 10000 1.54 330 02:47 18.05.2022
2069 Clear 23 1009 38 6000 1.03 300 00:41 18.05.2022
2070 Clear 25 1009 33 8000 1.03 0 22:59 17.05.2022
2071 Clear 30 1009 20 10000 3.2 13 21:21 17.05.2022
2072 Clear 30 1009 20 10000 3.2 13 21:21 17.05.2022
2073 Clear 26 1009 31 10000 2.06 10 20:38 17.05.2022
2074 Clear 28 1009 28 10000 2.06 330 19:30 17.05.2022
2075 Clear 31 1008 23 10000 3.09 340 18:43 17.05.2022
2076 Clear 33 1008 21 10000 4.12 330 17:31 17.05.2022
2077 Clear 34 1009 21 10000 3.6 270 16:53 17.05.2022
2078 Clear 34 1009 21 10000 3.09 290 15:49 17.05.2022
2079 Clear 33 1009 21 10000 5.14 280 14:52 17.05.2022
2080 Clear 33 1009 21 10000 5.14 280 14:28 17.05.2022
2081 Dust 33 1010 24 8000 4.12 250 12:37 17.05.2022
2082 Dust 31 1011 27 5000 5.14 260 10:23 17.05.2022
2083 Dust 28 1012 34 800 4.63 250 08:51 17.05.2022
2084 Dust 26 1011 36 700 3.09 280 07:41 17.05.2022
2085 Dust 25 1011 36 500 2.57 300 06:21 17.05.2022
2086 Dust 26 1011 36 600 2.06 250 00:47 17.05.2022
2087 Clouds 26 1011 32 10000 3.82 320 23:35 16.05.2022
2088 Dust 28 1011 30 500 1.54 280 22:33 16.05.2022
2089 Dust 27 1011 34 600 2.06 330 20:56 16.05.2022
2090 Dust 27 1011 34 600 2.06 330 20:37 16.05.2022
2091 Dust 28 1010 30 500 2.06 330 18:46 16.05.2022
2092 Dust 30 1010 26 400 6.69 310 16:42 16.05.2022
2093 Dust 31 1010 23 600 6.17 280 15:29 16.05.2022
2094 Dust 31 1011 22 700 7.72 290 13:45 16.05.2022
2095 Clear 30 1011 25 750 7.2 290 12:37 16.05.2022
2096 Clear 29 1012 30 550 9.26 290 10:36 16.05.2022
2097 Clouds 25 1011 36 30 10.8 300 07:59 16.05.2022
2098 Clouds 25 1010 38 30 11.83 300 05:46 16.05.2022
2099 Clear 28 1007 34 10000 2.06 180 00:49 16.05.2022
2100 Clear 29 1007 30 10000 1.03 0 22:44 15.05.2022
2101 Clear 30 1008 28 10000 2.06 180 21:59 15.05.2022
2102 Clear 30 1008 28 10000 2.06 180 21:36 15.05.2022
2103 Clear 30 1008 25 9000 1.54 270 20:47 15.05.2022
2104 Clear 36 1007 19 10000 1.03 230 18:46 15.05.2022
2105 Clear 40 1007 11 10000 1.03 0 16:54 15.05.2022
2106 Clear 38 1009 15 10000 2.06 20 14:34 15.05.2022
2107 Clear 38 1009 3 10000 3.6 20 13:46 15.05.2022
2108 Clear 37 1010 5 10000 5.14 350 12:19 15.05.2022
2109 Clear 35 1011 7 10000 5.14 350 11:27 15.05.2022
2110 Clear 33 1012 8 10000 6.69 340 09:57 15.05.2022
2111 Clear 26 1012 21 10000 6.69 320 07:24 15.05.2022
2112 Clear 31 1012 18 10000 7.06 360 06:56 15.05.2022
2113 Clear 21 1011 24 10000 4.12 320 03:38 15.05.2022
2114 Clear 23 1012 21 10000 4.12 310 00:42 15.05.2022
2115 Clouds 30 1012 12 8000 6.69 330 23:37 14.05.2022
2116 Clear 26 1012 17 10000 5.14 310 22:39 14.05.2022
2117 Clear 27 1012 16 10000 5.14 310 21:26 14.05.2022
2118 Clear 29 1012 14 10000 5.14 300 20:28 14.05.2022
2119 Clear 30 1011 12 8000 5.66 290 19:21 14.05.2022
2120 Clear 32 1011 10 8000 5.14 300 18:59 14.05.2022
2121 Clear 34 1010 5 10000 4.63 330 17:53 14.05.2022
2122 Clear 35 1010 4 10000 5.14 340 16:23 14.05.2022
2123 Clear 35 1011 5 10000 5.66 340 14:41 14.05.2022
2124 Clear 35 1011 5 10000 5.66 340 14:22 14.05.2022
2125 Clear 32 1014 9 10000 6.69 340 11:51 14.05.2022
2126 Clear 32 1014 8 10000 8.23 320 10:45 14.05.2022
2127 Clear 32 1014 8 10000 8.23 320 10:19 14.05.2022
2128 Clear 32 1013 12 10000 8.59 345 09:34 14.05.2022
2129 Clear 25 1014 27 10000 4.63 330 07:43 14.05.2022
2130 Clear 17 1013 39 10000 4.12 310 04:49 14.05.2022
2131 Clear 23 1013 27 10000 6.42 334 01:42 14.05.2022
2132 Dust 24 1013 15 5000 4.63 290 23:28 13.05.2022
2133 Dust 24 1013 15 5000 4.63 290 23:28 13.05.2022
2134 Dust 25 1014 14 4000 4.63 290 22:56 13.05.2022
2135 Dust 26 1014 13 3000 4.63 290 22:22 13.05.2022
2136 Dust 28 1014 12 2200 3.6 300 21:19 13.05.2022
2137 Dust 29 1013 11 2500 3.09 320 20:40 13.05.2022
2138 Dust 29 1013 11 2500 3.09 320 20:21 13.05.2022
2139 Dust 29 1013 11 5000 5.66 290 19:18 13.05.2022
2140 Clear 31 1012 11 8000 8.23 280 17:47 13.05.2022
2141 Clear 31 1012 11 8000 8.23 280 17:23 13.05.2022
2142 Clear 32 1012 10 8000 9.26 290 15:48 13.05.2022
2143 Clear 32 1012 15 10000 9.25 304 14:45 13.05.2022
2144 Dust 32 1014 11 3000 7.72 290 12:54 13.05.2022
2145 Dust 32 1014 11 3000 7.72 290 12:25 13.05.2022
2146 Clear 31 1014 9 10000 8.23 310 10:23 13.05.2022
2147 Clear 30 1015 12 10000 5.66 310 09:29 13.05.2022
2148 Clear 26 1014 24 10000 6.17 310 07:59 13.05.2022
2149 Clear 26 1014 24 10000 6.17 310 07:30 13.05.2022
2150 Clear 21 1013 40 8000 4.12 280 05:46 13.05.2022
2151 Clear 21 1013 35 10000 3.09 310 01:37 13.05.2022
2152 Clear 24 1013 23 8000 4.12 310 23:43 12.05.2022
2153 Clear 26 1013 19 10000 6.17 300 22:42 12.05.2022
2154 Clear 27 1013 19 10000 7.2 290 21:36 12.05.2022
2155 Clear 28 1012 14 10000 5.14 300 20:22 12.05.2022
2156 Clear 31 1011 10 7000 5.66 300 18:30 12.05.2022
2157 Clear 34 1010 4 10000 5.66 270 16:52 12.05.2022
2158 Clear 34 1009 4 10000 4.12 280 15:49 12.05.2022
2159 Clear 34 1010 4 10000 4.12 250 13:59 12.05.2022
2160 Clear 34 1010 4 10000 4.12 250 13:21 12.05.2022
2161 Clear 33 1012 11 10000 2.54 272 10:35 12.05.2022
2162 Clear 28 1013 15 9000 2.06 220 08:58 12.05.2022
2163 Clear 28 1013 15 9000 2.06 220 08:39 12.05.2022
2164 Clear 26 1013 21 8000 2.57 220 07:37 12.05.2022
2165 Dust 18 1012 39 4000 2.06 310 05:30 12.05.2022
2166 Clouds 24 1012 18 10000 2.67 64 02:21 12.05.2022
2167 Clouds 26 1011 18 8000 2.06 50 23:56 11.05.2022
2168 Clouds 26 1012 18 9000 1.54 40 22:31 11.05.2022
2169 Clear 26 1012 21 10000 1.54 40 21:32 11.05.2022
2170 Clear 26 1012 21 10000 2.57 360 20:52 11.05.2022
2171 Clear 31 1011 10 10000 5.66 320 17:56 11.05.2022
2172 Clear 32 1011 9 10000 7.2 320 16:49 11.05.2022
2173 Clear 33 1011 5 10000 7.72 280 14:50 11.05.2022
2174 Clear 33 1011 5 10000 7.72 280 14:26 11.05.2022
2175 Clear 33 1011 4 10000 4.63 280 13:44 11.05.2022
2176 Clear 32 1013 12 10000 4.63 290 11:51 11.05.2022
2177 Clear 30 1013 19 8000 4.12 260 09:54 11.05.2022
2178 Clear 25 1013 27 5000 3.09 300 07:53 11.05.2022
2179 Clear 17 1010 48 9000 2.06 340 04:44 11.05.2022
2180 Clear 20 1009 37 10000 3.6 330 00:41 11.05.2022
2181 Clear 22 1009 28 10000 2.57 330 22:30 10.05.2022
2182 Clear 24 1009 25 10000 3.6 310 21:47 10.05.2022
2183 Clear 26 1008 22 10000 4.12 300 20:52 10.05.2022
2184 Clear 28 1008 18 10000 4.12 310 19:25 10.05.2022
2185 Clear 30 1006 18 10000 9.4 356 17:47 10.05.2022
2186 Dust 32 1004 11 1200 8.75 360 16:49 10.05.2022
2187 Dust 35 1004 5 2500 4.63 60 14:33 10.05.2022
2188 Dust 33 1006 8 3000 7.2 90 12:37 10.05.2022
2189 Dust 32 1007 10 2500 8.23 100 11:49 10.05.2022
2190 Dust 32 1007 10 2500 8.23 100 11:18 10.05.2022
2191 Dust 31 1008 13 1200 7.72 100 09:59 10.05.2022
2192 Dust 30 1009 14 3000 7.72 80 09:25 10.05.2022
2193 Clouds 25 1009 22 9000 5.66 120 06:44 10.05.2022
2194 Clear 21 1009 32 10000 3.6 90 03:29 10.05.2022
2195 Clear 22 1009 23 10000 3.6 100 00:33 10.05.2022
2196 Clear 25 1010 20 10000 3.6 70 22:44 09.05.2022
2197 Clear 26 1010 19 10000 2.57 70 21:48 09.05.2022
2198 Clear 26 1011 21 10000 3.09 50 20:30 09.05.2022
2199 Clear 28 1011 17 10000 2.06 360 18:43 09.05.2022
2200 Clear 28 1011 17 10000 2.78 357 17:40 09.05.2022
2201 Clouds 30 1011 11 10000 5.66 290 16:30 09.05.2022
2202 Clouds 30 1011 11 10000 5.66 290 16:30 09.05.2022
2203 Clouds 30 1011 11 10000 6.69 280 15:51 09.05.2022
2204 Clear 30 1012 10 9000 6.69 260 14:54 09.05.2022
2205 Clear 30 1012 10 9000 6.69 260 14:22 09.05.2022
2206 Clouds 31 1012 10 10000 6.17 250 13:40 09.05.2022
2207 Clear 31 1013 11 10000 6.17 260 12:18 09.05.2022
2208 Clear 29 1013 16 10000 3.56 288 11:18 09.05.2022
2209 Clear 29 1014 13 10000 5.14 270 10:42 09.05.2022
2210 Clear 28 1015 18 10000 1.03 0 08:36 09.05.2022
2211 Clear 26 1014 21 10000 1.76 326 07:53 09.05.2022
2212 Clear 17 1013 42 10000 3.09 310 03:19 09.05.2022
2213 Clear 20 1013 40 10000 2.06 360 23:34 08.05.2022
2214 Clear 20 1013 34 10000 2.57 300 22:55 08.05.2022
2215 Clear 22 1013 35 10000 2.06 330 21:55 08.05.2022
2216 Clear 22 1013 35 10000 2.06 330 21:55 08.05.2022
2217 Mist 22 1013 30 10000 3.09 330 20:35 08.05.2022
2218 Clear 25 1012 27 10000 2.57 350 19:44 08.05.2022
2219 Clouds 27 1012 19 10000 4.63 350 18:54 08.05.2022
2220 Clouds 29 1011 15 10000 4.12 340 17:59 08.05.2022
2221 Clouds 29 1011 13 10000 3.6 330 16:43 08.05.2022
2222 Clouds 30 1011 13 10000 4.12 330 15:31 08.05.2022
2223 Clouds 30 1011 13 10000 3.6 310 14:45 08.05.2022
2224 Clouds 30 1012 13 10000 2.06 0 12:27 08.05.2022
2225 Clear 28 1014 18 10000 2.57 300 10:32 08.05.2022
2226 Clear 27 1013 19 10000 2.2 291 09:57 08.05.2022
2227 Clear 25 1014 23 10000 4.12 260 08:56 08.05.2022
2228 Clear 24 1013 22 10000 0.5 71 07:25 08.05.2022
2229 Clear 15 1012 51 10000 1.54 160 03:40 08.05.2022
2230 Clear 17 1012 45 10000 1.54 160 02:47 08.05.2022
2231 Clear 18 1012 42 10000 1.54 140 00:28 08.05.2022
2232 Clear 18 1012 36 10000 1.54 130 23:50 07.05.2022
2233 Clear 20 1012 37 10000 2.06 130 22:46 07.05.2022
2234 Clear 22 1012 29 10000 2.05 3 21:59 07.05.2022
2235 Clear 22 1012 29 10000 2.05 3 21:34 07.05.2022
2236 Clear 22 1012 35 10000 1.54 120 20:34 07.05.2022
2237 Clouds 22 1011 33 9000 2.06 10 19:57 07.05.2022
2238 Clouds 26 1010 22 7000 2.57 280 17:43 07.05.2022
2239 Clouds 27 1009 15 10000 6.72 274 15:47 07.05.2022
2240 Dust 26 1010 27 3500 4.63 260 13:58 07.05.2022
2241 Dust 25 1010 29 700 5.14 340 10:56 07.05.2022
2242 Clear 25 1009 30 10000 8.35 294 09:20 07.05.2022
2243 Dust 21 1008 37 300 6.69 360 07:51 07.05.2022
2244 Dust 20 1008 42 50 3.6 340 06:43 07.05.2022
2245 Clear 22 1007 26 10000 3.33 144 04:56 07.05.2022
2246 Clear 17 1006 39 8000 1.03 130 01:24 07.05.2022
2247 Clear 18 1007 36 8000 0.51 0 23:38 06.05.2022
2248 Clear 20 1007 34 7000 0 0 22:28 06.05.2022
2249 Smoke 22 1007 26 4700 0 0 21:43 06.05.2022
2250 Clear 25 1007 19 10000 3.65 239 20:34 06.05.2022
2251 Clear 25 1006 23 8000 1.54 230 19:30 06.05.2022
2252 Dust 27 1006 18 5000 2.06 240 18:59 06.05.2022
2253 Clear 26 1006 16 10000 5.3 240 18:18 06.05.2022
2254 Dust 29 1005 12 5000 5.14 230 16:39 06.05.2022
2255 Dust 29 1005 12 4000 5.66 230 15:39 06.05.2022
2256 Dust 29 1006 15 3000 5.14 240 14:50 06.05.2022
2257 Dust 27 1007 22 5000 6.17 230 12:55 06.05.2022
2258 Dust 27 1007 22 5000 6.17 230 12:36 06.05.2022
2259 Dust 27 1007 22 4000 6.17 240 11:42 06.05.2022
2260 Clear 29 1006 20 10000 7.09 245 10:29 06.05.2022
2261 Dust 25 1007 31 1000 6.69 250 09:45 06.05.2022
2262 Dust 24 1006 35 700 5.14 250 08:27 06.05.2022
2263 Dust 21 1006 43 650 7.2 270 06:46 06.05.2022
2264 Dust 21 1005 43 1100 3.6 200 05:23 06.05.2022
2265 Dust 23 1004 43 3900 0 0 02:47 06.05.2022
2266 Dust 23 1004 38 4000 3.09 140 00:19 06.05.2022
2267 Dust 26 1005 34 4500 2.06 80 21:56 05.05.2022
2268 Dust 26 1005 34 4500 2.06 80 21:22 05.05.2022
2269 Dust 28 1006 28 4800 4.12 310 19:54 05.05.2022
2270 Dust 29 1006 26 1700 4.63 290 18:31 05.05.2022
2271 Dust 31 1005 23 800 4.63 270 16:33 05.05.2022
2272 Dust 31 1006 20 1500 4.63 300 14:50 05.05.2022
2273 Dust 32 1007 19 400 4.12 310 13:22 05.05.2022
2274 Dust 32 1007 19 400 4.12 310 12:49 05.05.2022
2275 Dust 28 1008 30 1500 6.17 300 10:48 05.05.2022
2276 Dust 27 1009 32 500 7.2 310 09:39 05.05.2022
2277 Clouds 25 1009 33 450 5.66 290 07:35 05.05.2022
2278 Clouds 25 1007 31 250 8.75 310 04:42 05.05.2022
2279 Clouds 28 1004 26 200 7.2 310 01:56 05.05.2022
2280 Clouds 28 1004 26 200 7.2 310 01:27 05.05.2022
2281 Clear 26 1003 19 7000 2.57 200 23:50 04.05.2022
2282 Clear 28 1003 15 7000 2.57 200 22:42 04.05.2022
2283 Clear 29 1002 16 6000 3.09 200 21:50 04.05.2022
2284 Clear 28 1002 20 6000 3.6 220 21:26 04.05.2022
2285 Clear 30 1002 16 8000 4.63 180 20:25 04.05.2022
2286 Clear 30 1001 16 9000 4.63 160 19:53 04.05.2022
2287 Clear 31 1001 15 8000 4.63 140 18:56 04.05.2022
2288 Dust 33 1001 12 5000 4.63 150 18:22 04.05.2022
2289 Clear 34 1001 10 6000 3.6 170 17:42 04.05.2022
2290 Clear 37 1001 6 9000 7.2 210 15:42 04.05.2022
2291 Clear 37 1001 6 9000 7.2 210 15:23 04.05.2022
2292 Clouds 37 1002 8 9000 7.72 200 14:21 04.05.2022
2293 Clear 37 1002 7 9000 8.75 190 13:35 04.05.2022
2294 Clear 36 1003 12 9000 8.23 180 12:33 04.05.2022
2295 Dust 35 1004 17 4100 9.26 180 10:41 04.05.2022
2296 Dust 34 1004 12 4500 12.86 160 09:44 04.05.2022
2297 Dust 32 1005 18 3900 9.77 140 08:47 04.05.2022
2298 Dust 32 1005 18 3900 9.77 140 08:47 04.05.2022
2299 Clear 28 1005 26 10000 6.17 110 06:47 04.05.2022
2300 Clear 27 1006 29 10000 4.63 90 02:59 04.05.2022
2301 Clear 28 1006 28 10000 4.63 100 00:47 04.05.2022
2302 Clear 29 1007 24 10000 3.6 90 22:40 03.05.2022
2303 Clear 30 1007 23 10000 3.6 90 21:46 03.05.2022
2304 Clouds 30 1007 22 10000 4.69 71 20:54 03.05.2022
2305 Clouds 30 1007 22 10000 4.69 71 20:30 03.05.2022
2306 Clear 31 1007 20 10000 3.09 120 18:54 03.05.2022
2307 Clear 31 1007 20 10000 3.09 120 18:21 03.05.2022
2308 Clear 33 1007 15 10000 2.57 120 17:19 03.05.2022
2309 Clouds 34 1007 12 10000 2.57 0 15:43 03.05.2022
2310 Clear 35 1007 16 10000 5.35 261 13:28 03.05.2022
2311 Clear 32 1009 17 10000 2.06 0 12:27 03.05.2022
2312 Clear 31 1010 18 10000 1.54 0 10:58 03.05.2022
2313 Clear 30 1011 21 10000 2.57 220 09:46 03.05.2022
2314 Clear 26 1011 31 10000 1.54 240 07:59 03.05.2022
2315 Clouds 23 1010 38 7000 1.54 300 06:45 03.05.2022
2316 Clouds 21 1009 43 10000 1.03 0 01:53 03.05.2022
2317 Clear 22 1010 43 10000 1.54 330 22:45 02.05.2022
2318 Clear 22 1010 43 10000 1.54 330 22:25 02.05.2022
2319 Clear 25 1010 33 10000 1.54 290 21:24 02.05.2022
2320 Clear 28 1008 24 10000 3.6 290 18:57 02.05.2022
2321 Clear 28 1008 24 10000 3.6 290 18:25 02.05.2022
2322 Clear 30 1008 21 10000 6.17 300 17:38 02.05.2022
2323 Clear 30 1008 19 10000 6.69 300 16:25 02.05.2022
2324 Clear 31 1008 19 10000 7.72 300 15:40 02.05.2022
2325 Clear 30 1008 20 10000 7.2 290 14:19 02.05.2022
2326 Clear 30 1009 21 10000 8.23 280 12:52 02.05.2022
2327 Clear 28 1009 28 10000 7.2 290 11:24 02.05.2022
2328 Clear 28 1009 35 10000 6.94 291 09:32 02.05.2022
2329 Clear 22 1009 53 10000 7.72 280 07:57 02.05.2022
2330 Clear 19 1007 63 2500 2.57 240 05:59 02.05.2022
2331 Dust 23 1006 46 2500 4.12 240 00:40 02.05.2022
2332 Dust 23 1006 46 2500 4.12 240 00:21 02.05.2022
2333 Dust 25 1006 38 1700 6.17 270 22:49 01.05.2022
2334 Dust 26 1005 38 700 4.12 260 21:41 01.05.2022
2335 Clouds 27 1004 36 600 4.63 320 20:29 01.05.2022
2336 Clear 30 1002 25 10000 8.88 276 19:20 01.05.2022
2337 Clouds 27 1004 32 200 8.75 300 18:52 01.05.2022
2338 Clouds 28 1003 26 100 9.77 290 17:47 01.05.2022
2339 Clouds 29 1002 24 200 11.32 280 16:26 01.05.2022
2340 Clear 33 1000 19 10000 11.18 282 15:45 01.05.2022
2341 Clouds 31 1001 22 400 10.29 270 14:45 01.05.2022
2342 Clouds 33 1001 21 400 8.23 250 12:23 01.05.2022
2343 Clouds 33 1002 21 10000 6.5 153 09:34 01.05.2022
2344 Clouds 32 1003 23 10000 6.96 145 08:49 01.05.2022
2345 Clear 26 1003 38 10000 6.17 130 06:31 01.05.2022
2346 Clouds 25 1004 36 10000 3.47 135 01:56 01.05.2022
2347 Clouds 29 1006 26 10000 3.94 123 22:18 30.04.2022
2348 Clouds 29 1006 26 10000 3.94 123 21:32 30.04.2022
2349 Clear 28 1006 32 10000 3.6 100 19:53 30.04.2022
2350 Clear 31 1006 21 10000 3.34 102 18:53 30.04.2022
2351 Clear 33 1007 19 9000 2.06 80 17:26 30.04.2022
2352 Clear 34 1008 17 10000 3.09 280 15:51 30.04.2022
2353 Clear 34 1008 17 10000 3.09 280 15:18 30.04.2022
2354 Clear 33 1010 21 9000 2.57 230 13:52 30.04.2022
2355 Clear 31 1011 27 7000 3.09 210 11:48 30.04.2022
2356 Clear 31 1011 27 7000 3.09 210 11:26 30.04.2022
2357 Clear 28 1013 39 9000 3.09 180 09:57 30.04.2022
2358 Clear 24 1014 53 9000 2.06 140 07:47 30.04.2022
2359 Clear 22 1012 60 10000 5.14 180 03:58 30.04.2022
2360 Clouds 26 1012 41 9000 2.57 80 23:57 29.04.2022
2361 Clear 24 1012 50 10000 1.54 120 22:51 29.04.2022
2362 Clouds 24 1012 43 9000 2.57 160 21:56 29.04.2022
2363 Clouds 24 1012 43 9000 2.57 160 21:25 29.04.2022
2364 Clouds 26 1012 41 9000 4.12 170 20:18 29.04.2022
2365 Clouds 26 1012 38 8000 2.57 160 19:27 29.04.2022
2366 Clouds 30 1011 23 10000 1.54 200 17:34 29.04.2022
2367 Clouds 31 1011 22 10000 2.57 240 16:38 29.04.2022
2368 Clouds 31 1012 23 9000 3.09 210 14:36 29.04.2022
2369 Clouds 30 1012 25 6000 4.12 200 13:36 29.04.2022
2370 Dust 30 1013 30 5000 4.12 200 12:37 29.04.2022
2371 Dust 28 1014 30 4500 3.09 190 10:32 29.04.2022
2372 Dust 25 1014 47 3000 2.57 220 07:55 29.04.2022
2373 Dust 25 1014 47 3000 2.57 220 07:25 29.04.2022
2374 Dust 24 1013 46 3000 2.57 200 06:32 29.04.2022
2375 Dust 24 1011 50 2500 4.12 260 02:23 29.04.2022
2376 Dust 25 1012 44 3000 1.54 170 23:58 28.04.2022
2377 Dust 25 1012 44 3000 1.54 170 23:25 28.04.2022
2378 Dust 26 1012 41 5000 2.57 150 22:33 28.04.2022
2379 Dust 27 1012 36 5000 4.63 190 21:43 28.04.2022
2380 Dust 27 1011 36 3200 5.66 260 20:48 28.04.2022
2381 Dust 27 1011 36 1200 6.17 260 19:55 28.04.2022
2382 Clouds 27 1011 36 500 8.75 250 19:24 28.04.2022
2383 Clouds 28 1011 32 200 10.29 240 18:52 28.04.2022
2384 Clouds 33 1009 15 10000 1.03 0 17:55 28.04.2022
2385 Clouds 33 1008 16 10000 1.54 0 16:58 28.04.2022
2386 Clouds 33 1008 16 10000 1.54 0 16:21 28.04.2022
2387 Clouds 34 1008 17 10000 1.03 0 15:49 28.04.2022
2388 Clouds 34 1008 17 10000 1.03 0 15:18 28.04.2022
2389 Clouds 33 1009 21 10000 1.54 0 13:42 28.04.2022
2390 Clouds 34 1010 21 10000 2.06 0 12:30 28.04.2022
2391 Clouds 32 1011 22 10000 2.57 70 11:38 28.04.2022
2392 Clouds 31 1011 23 10000 1.54 0 10:27 28.04.2022
2393 Clouds 30 1011 26 10000 2.06 0 09:50 28.04.2022
2394 Clouds 26 1010 36 7000 1.03 0 07:43 28.04.2022
2395 Dust 23 1010 40 5000 1.54 310 06:53 28.04.2022
2396 Dust 21 1010 43 5000 1.54 260 05:53 28.04.2022
2397 Clear 21 1009 43 7000 1.54 0 04:43 28.04.2022
2398 Clear 23 1009 40 7000 2.06 270 02:45 28.04.2022
2399 Clear 24 1010 38 7000 3.09 240 23:43 27.04.2022
2400 Clear 25 1010 33 6000 2.57 220 22:25 27.04.2022
2401 Dust 26 1010 31 5000 3.09 210 21:47 27.04.2022
2402 Dust 28 1010 26 5000 2.06 270 20:47 27.04.2022
2403 Dust 28 1010 26 5000 2.06 270 20:47 27.04.2022
2404 Dust 28 1010 26 5000 2.06 270 20:29 27.04.2022
2405 Dust 28 1009 26 3000 2.06 320 19:36 27.04.2022
2406 Dust 29 1008 28 4000 2.06 340 18:45 27.04.2022
2407 Dust 29 1008 28 4000 2.06 340 18:21 27.04.2022
2408 Clouds 32 1008 20 10000 5.66 300 16:21 27.04.2022
2409 Clear 32 1009 23 10000 5.66 280 13:29 27.04.2022
2410 Clear 30 1010 30 10000 3.6 290 11:37 27.04.2022
2411 Clear 29 1011 37 10000 3.6 310 10:51 27.04.2022
2412 Clear 26 1011 47 10000 4.12 310 08:53 27.04.2022
2413 Clear 23 1010 56 10000 3.6 310 06:45 27.04.2022
2414 Clear 21 1008 64 10000 3.09 300 03:30 27.04.2022
2415 Rain 23 1008 60 10000 4.63 340 01:27 27.04.2022
2416 Rain 22 1009 64 10000 3.6 320 00:35 27.04.2022
2417 Clear 24 1009 53 10000 4.12 10 23:24 26.04.2022
2418 Clear 25 1009 50 10000 3.6 340 22:52 26.04.2022
2419 Clear 25 1009 50 10000 3.6 340 22:34 26.04.2022
2420 Clear 25 1009 50 10000 4.12 350 21:26 26.04.2022
2421 Clear 26 1009 47 10000 5.66 350 20:40 26.04.2022
2422 Clear 26 1009 47 10000 5.66 350 20:40 26.04.2022
2423 Clear 28 1008 39 10000 5.66 360 19:48 26.04.2022
2424 Clear 28 1008 39 10000 5.66 360 19:26 26.04.2022
2425 Clear 29 1007 32 10000 4.12 350 18:42 26.04.2022
2426 Clear 30 1007 28 10000 2.57 30 17:50 26.04.2022
2427 Clear 31 1007 27 10000 3.09 340 16:19 26.04.2022
2428 Clear 31 1008 25 10000 2.57 210 13:58 26.04.2022
2429 Clouds 30 1007 29 10000 1.79 79 13:29 26.04.2022
2430 Clear 29 1010 37 10000 5.14 110 11:32 26.04.2022
2431 Clouds 28 1010 39 9000 6.17 120 10:31 26.04.2022
2432 Clouds 25 1010 50 8000 7.2 110 08:47 26.04.2022
2433 Clouds 22 1010 60 9000 4.63 100 06:57 26.04.2022
2434 Clouds 21 1009 64 10000 4.12 100 04:23 26.04.2022
2435 Clouds 24 1009 53 10000 5.66 90 00:53 26.04.2022
2436 Rain 24 1009 53 10000 5.66 90 00:20 26.04.2022
2437 Rain 22 1009 56 9000 1.54 120 22:19 25.04.2022
2438 Rain 24 1009 46 9000 3.09 150 21:33 25.04.2022
2439 Rain 23 1009 49 9000 1.54 120 20:34 25.04.2022
2440 Clouds 26 1008 41 8000 4.12 100 18:54 25.04.2022
2441 Rain 27 1008 36 7000 7.2 110 17:41 25.04.2022
2442 Rain 29 1007 34 9000 6.17 110 16:51 25.04.2022
2443 Clouds 29 1008 32 10000 6.17 130 15:23 25.04.2022
2444 Clouds 30 1008 28 10000 2.57 210 14:34 25.04.2022
2445 Clouds 30 1008 26 10000 1.54 0 13:29 25.04.2022
2446 Clear 25 1010 47 10000 4.63 250 10:58 25.04.2022
2447 Clouds 25 1010 44 8000 3.6 240 09:55 25.04.2022
2448 Dust 24 1010 46 8000 3.09 330 08:23 25.04.2022
2449 Clear 18 1010 68 10000 2.57 330 06:27 25.04.2022
2450 Clear 17 1009 67 10000 1.03 360 02:20 25.04.2022
2451 Clear 17 1009 67 10000 2.06 340 23:58 24.04.2022
2452 Clear 17 1009 67 10000 2.06 340 23:30 24.04.2022
2453 Clouds 18 1009 63 10000 1.54 360 22:40 24.04.2022
2454 Clouds 19 1010 55 10000 2.06 340 21:58 24.04.2022
2455 Clouds 19 1010 55 10000 2.06 340 21:23 24.04.2022
2456 Clouds 21 1009 49 10000 3.6 20 20:47 24.04.2022
2457 Clouds 21 1009 49 10000 3.6 20 20:21 24.04.2022
2458 Rain 23 1009 49 10000 6.17 360 18:58 24.04.2022
2459 Rain 23 1009 49 10000 5.14 340 17:55 24.04.2022
2460 Rain 23 1009 49 10000 5.14 340 17:22 24.04.2022
2461 Rain 24 1009 43 10000 5.66 10 16:58 24.04.2022
2462 Rain 24 1009 43 10000 5.66 10 16:30 24.04.2022
2463 Clouds 24 1009 46 10000 6.17 360 15:53 24.04.2022
2464 Rain 22 1009 56 10000 6.17 360 14:55 24.04.2022
2465 Clouds 20 1010 64 10000 5.14 350 13:45 24.04.2022
2466 Clouds 20 1010 64 10000 5.14 350 13:45 24.04.2022
2467 Clouds 20 1010 64 10000 5.14 350 13:23 24.04.2022
2468 Rain 18 1012 94 4000 4.63 320 11:53 24.04.2022
2469 Rain 19 1013 72 3500 3.6 50 11:22 24.04.2022
2470 Rain 26 1012 31 2000 8.75 150 09:47 24.04.2022
2471 Dust 26 1012 27 3000 6.17 150 08:31 24.04.2022
2472 Clouds 25 1009 23 10000 5.66 80 05:46 24.04.2022
2473 Clear 26 1008 15 10000 5.66 240 02:59 24.04.2022
2474 Clear 22 1008 26 10000 0.51 0 00:55 24.04.2022
2475 Clear 23 1008 23 10000 2.06 200 23:55 23.04.2022
2476 Clear 23 1008 23 10000 2.06 200 23:25 23.04.2022
2477 Clear 23 1008 23 10000 1.54 190 22:40 23.04.2022
2478 Clear 23 1008 23 10000 1.54 200 21:48 23.04.2022
2479 Clear 23 1008 23 10000 1.54 200 21:30 23.04.2022
2480 Clear 25 1008 22 10000 2.06 230 20:27 23.04.2022
2481 Clear 26 1008 18 10000 2.06 220 19:21 23.04.2022
2482 Clear 28 1008 14 10000 1.54 210 18:54 23.04.2022
2483 Clear 28 1008 14 10000 1.54 210 18:32 23.04.2022
2484 Clear 30 1008 11 10000 0.51 350 17:47 23.04.2022
2485 Clouds 32 1008 8 10000 2.57 340 16:46 23.04.2022
2486 Clouds 33 1008 7 10000 3.6 360 15:53 23.04.2022
2487 Clouds 33 1008 7 10000 3.6 360 15:52 23.04.2022
2488 Clear 32 1010 10 10000 3.6 310 13:33 23.04.2022
2489 Clear 31 1011 8 10000 5.14 310 11:57 23.04.2022
2490 Clouds 31 1011 8 10000 3.6 320 10:37 23.04.2022
2491 Clouds 26 1012 13 7000 4.12 300 08:27 23.04.2022
2492 Clear 16 1010 31 10000 3.6 280 04:18 23.04.2022
2493 Clear 17 1010 25 10000 2.57 270 03:27 23.04.2022
2494 Clear 19 1010 26 10000 1.54 330 23:38 22.04.2022
2495 Clear 19 1010 26 10000 1.54 330 23:20 22.04.2022
2496 Clear 20 1011 24 10000 1.03 0 21:58 22.04.2022
2497 Clear 20 1011 24 10000 1.03 0 21:39 22.04.2022
2498 Clear 22 1011 18 10000 3.09 300 20:34 22.04.2022
2499 Clear 24 1011 16 10000 3.6 310 19:27 22.04.2022
2500 Clear 26 1010 15 10000 3.09 300 18:57 22.04.2022
2501 Clear 26 1010 15 10000 3.09 300 18:26 22.04.2022
2502 Clear 31 1010 9 10000 7.72 280 16:57 22.04.2022
2503 Clear 32 1010 6 10000 8.75 290 15:59 22.04.2022
2504 Clear 32 1010 6 10000 8.75 290 15:30 22.04.2022
2505 Clear 32 1011 7 10000 7.72 290 14:38 22.04.2022
2506 Clear 32 1012 6 10000 8.23 310 13:41 22.04.2022
2507 Clear 32 1012 7 10000 8.23 300 12:48 22.04.2022
2508 Clear 31 1013 11 10000 7.72 290 11:23 22.04.2022
2509 Clear 29 1014 18 10000 5.66 290 10:57 22.04.2022
2510 Clear 29 1014 18 10000 5.66 290 10:34 22.04.2022
2511 Clear 27 1014 21 10000 5.14 290 09:59 22.04.2022
2512 Clear 27 1014 21 10000 5.14 290 09:22 22.04.2022
2513 Clear 24 1014 25 10000 5.14 300 08:48 22.04.2022
2514 Clear 18 1013 29 10000 4.63 300 06:42 22.04.2022
2515 Clear 17 1011 36 10000 3.6 310 01:24 22.04.2022
2516 Clear 21 1011 26 10000 4.12 280 23:35 21.04.2022
2517 Clear 23 1011 21 10000 5.03 310 22:47 21.04.2022
2518 Clear 24 1012 19 10000 5.66 280 21:42 21.04.2022
2519 Clear 24 1011 15 10000 4.12 270 20:32 21.04.2022
2520 Clear 25 1011 13 10000 4.63 280 19:24 21.04.2022
2521 Clear 27 1010 11 10000 5.66 280 18:32 21.04.2022
2522 Clear 29 1010 9 10000 7.2 290 17:20 21.04.2022
2523 Clear 30 1010 10 9000 8.23 290 16:21 21.04.2022
2524 Clear 31 1010 8 8000 8.75 290 15:19 21.04.2022
2525 Clear 31 1010 7 7000 8.75 290 14:29 21.04.2022
2526 Clear 30 1011 10 10000 6.17 310 13:22 21.04.2022
2527 Clear 30 1011 10 10000 7.2 300 12:29 21.04.2022
2528 Clear 26 1013 22 9000 8.75 310 09:58 21.04.2022
2529 Clear 23 1012 31 10000 6.69 310 08:47 21.04.2022
2530 Clear 23 1012 28 10000 8.15 328 06:46 21.04.2022
2531 Clear 17 1011 39 10000 5.14 310 04:21 21.04.2022
2532 Clear 19 1011 34 10000 5.14 320 03:23 21.04.2022
2533 Clear 20 1011 32 10000 4.12 330 02:45 21.04.2022
2534 Clear 20 1011 32 10000 4.12 330 02:45 21.04.2022
2535 Clear 22 1010 26 10000 6.69 310 00:35 21.04.2022
2536 Clouds 23 1011 25 8000 4.12 290 23:46 20.04.2022
2537 Clouds 23 1011 25 8000 4.12 290 23:21 20.04.2022
2538 Clouds 24 1010 23 7000 5.14 290 22:41 20.04.2022
2539 Clouds 25 1010 20 6000 5.14 300 21:57 20.04.2022
2540 Clouds 25 1010 20 6000 5.14 300 21:23 20.04.2022
2541 Clouds 26 1009 17 6000 5.66 290 20:22 20.04.2022
2542 Clouds 27 1009 19 10000 7.54 306 19:51 20.04.2022
2543 Dust 28 1008 15 2000 5.66 280 18:52 20.04.2022
2544 Dust 29 1008 16 1200 7.72 290 17:53 20.04.2022
2545 Dust 30 1007 16 1000 8.75 290 16:40 20.04.2022
2546 Clouds 30 1007 19 900 7.72 290 15:39 20.04.2022
2547 Clouds 29 1008 20 600 7.2 290 13:41 20.04.2022
2548 Clouds 24 1009 35 300 7.72 290 11:43 20.04.2022
2549 Clouds 25 1009 31 200 6.17 290 10:53 20.04.2022
2550 Clouds 24 1009 29 300 8.23 310 09:45 20.04.2022
2551 Dust 24 1009 31 200 7.72 310 08:54 20.04.2022
2552 Dust 24 1009 31 200 7.72 310 08:20 20.04.2022
2553 Dust 24 1009 31 200 7.72 310 08:20 20.04.2022
2554 Dust 23 1008 31 400 5.14 320 06:49 20.04.2022
2555 Clear 25 1007 18 10000 6.69 290 03:33 20.04.2022
2556 Clear 26 1006 18 10000 6.69 140 00:22 20.04.2022
2557 Clear 25 1006 22 10000 4.63 130 23:35 19.04.2022
2558 Clear 28 1007 18 10000 4.12 130 22:24 19.04.2022
2559 Clear 28 1007 18 10000 3.6 110 21:55 19.04.2022
2560 Clear 28 1007 18 10000 3.6 110 21:19 19.04.2022
2561 Clear 28 1008 18 10000 3.6 110 20:37 19.04.2022
2562 Clear 29 1007 18 10000 3.6 100 19:43 19.04.2022
2563 Clear 30 1008 16 10000 2.57 140 18:46 19.04.2022
2564 Clear 30 1008 16 10000 2.57 140 18:46 19.04.2022
2565 Clear 32 1007 12 10000 3.09 140 17:28 19.04.2022
2566 Clear 34 1008 8 10000 3.6 120 16:43 19.04.2022
2567 Clear 34 1008 8 10000 3.6 120 16:21 19.04.2022
2568 Clear 35 1008 6 10000 2.57 160 14:48 19.04.2022
2569 Clear 33 1009 7 10000 2.57 160 13:35 19.04.2022
2570 Clear 34 1010 5 10000 3.09 180 12:50 19.04.2022
2571 Clear 33 1010 9 10000 2.57 160 11:55 19.04.2022
2572 Clear 31 1011 11 10000 3.6 160 10:23 19.04.2022
2573 Clouds 30 1011 16 8000 2.06 200 09:18 19.04.2022
2574 Clear 16 1010 39 10000 1.54 250 04:42 19.04.2022
2575 Clear 16 1009 44 10000 1.03 360 03:25 19.04.2022
2576 Clear 18 1010 29 10000 1.03 300 00:54 19.04.2022
2577 Clear 21 1011 24 10000 2.06 300 23:29 18.04.2022
2578 Clear 22 1011 24 10000 1.54 280 21:30 18.04.2022
2579 Clear 22 1011 24 10000 1.54 280 21:30 18.04.2022
2580 Clear 24 1012 22 10000 1.54 270 20:54 18.04.2022
2581 Clear 24 1012 22 10000 1.54 270 20:30 18.04.2022
2582 Clear 24 1011 20 10000 1.03 280 19:49 18.04.2022
2583 Clear 27 1011 16 10000 2.57 310 18:56 18.04.2022
2584 Clear 31 1010 10 10000 4.12 310 17:57 18.04.2022
2585 Clear 31 1010 10 10000 4.12 310 17:33 18.04.2022
2586 Clear 32 1010 8 10000 4.12 330 16:50 18.04.2022
2587 Clear 32 1010 8 10000 4.12 330 16:31 18.04.2022
2588 Clear 32 1011 7 10000 5.14 330 14:45 18.04.2022
2589 Clear 32 1011 7 10000 6.17 330 13:35 18.04.2022
2590 Clouds 32 1011 9 10000 4.39 333 12:29 18.04.2022
2591 Clear 32 1013 8 10000 5.14 340 11:34 18.04.2022
2592 Clear 31 1013 9 10000 4.12 330 10:31 18.04.2022
2593 Clear 28 1014 17 10000 3.09 340 09:31 18.04.2022
2594 Clear 20 1013 30 10000 3.09 310 07:42 18.04.2022
2595 Clouds 18 1012 34 10000 3.6 280 05:37 18.04.2022
2596 Clouds 19 1012 24 10000 2.57 310 00:47 18.04.2022
2597 Clouds 22 1013 21 10000 2.57 270 22:41 17.04.2022
2598 Clouds 22 1013 20 10000 2.57 270 21:46 17.04.2022
2599 Clouds 22 1013 20 10000 2.57 270 21:24 17.04.2022
2600 Clouds 24 1013 17 10000 3.09 270 20:36 17.04.2022
2601 Clouds 24 1013 17 10000 3.09 270 20:36 17.04.2022
2602 Clear 25 1012 14 10000 3.09 280 19:38 17.04.2022
2603 Clear 28 1012 12 10000 5.14 280 17:48 17.04.2022
2604 Clear 30 1011 10 10000 5.14 280 15:40 17.04.2022
2605 Clear 30 1012 10 10000 5.66 310 14:55 17.04.2022
2606 Clear 30 1012 10 10000 5.66 310 14:19 17.04.2022
2607 Clear 29 1013 10 10000 2.06 290 12:59 17.04.2022
2608 Clear 29 1013 10 10000 2.06 290 12:27 17.04.2022
2609 Clear 28 1014 14 10000 4.63 300 10:46 17.04.2022
2610 Clear 28 1014 14 10000 4.63 300 10:28 17.04.2022
2611 Clear 26 1014 18 10000 3.6 300 09:34 17.04.2022
2612 Clear 22 1014 28 10000 3.6 290 08:51 17.04.2022
2613 Clear 20 1013 30 10000 4.63 310 07:37 17.04.2022
2614 Clear 14 1012 41 10000 1.54 280 04:30 17.04.2022
2615 Clear 16 1011 31 10000 2.06 270 01:27 17.04.2022
2616 Clear 17 1011 27 10000 1.03 280 23:52 16.04.2022
2617 Clear 18 1011 24 10000 1.54 280 22:35 16.04.2022
2618 Clear 19 1011 24 10000 2.06 290 21:39 16.04.2022
2619 Clear 21 1011 19 10000 2.57 300 20:32 16.04.2022
2620 Clear 26 1010 12 10000 4.63 290 18:59 16.04.2022
2621 Clear 28 1010 10 10000 6.69 300 17:52 16.04.2022
2622 Clear 29 1010 9 10000 6.17 290 16:40 16.04.2022
2623 Clear 30 1010 8 10000 6.69 310 15:45 16.04.2022
2624 Clear 30 1010 8 10000 6.69 310 15:45 16.04.2022
2625 Clear 29 1010 9 10000 5.66 330 14:56 16.04.2022
2626 Clear 29 1010 9 10000 5.66 310 13:58 16.04.2022
2627 Clear 29 1010 9 10000 5.66 310 13:37 16.04.2022
2628 Clear 28 1011 13 10000 6.17 310 12:26 16.04.2022
2629 Clear 26 1012 18 10000 5.66 320 10:50 16.04.2022
2630 Clear 24 1013 23 10000 4.12 310 09:56 16.04.2022
2631 Clear 22 1013 26 10000 4.12 310 08:59 16.04.2022
2632 Clear 19 1012 27 7000 3.6 290 07:57 16.04.2022
2633 Clear 17 1012 31 7000 2.57 290 06:58 16.04.2022
2634 Clear 16 1010 33 10000 1.54 290 02:52 16.04.2022
2635 Clear 17 1010 27 10000 2.06 290 00:30 16.04.2022
2636 Clear 19 1011 24 10000 2.06 260 23:23 15.04.2022
2637 Clear 19 1012 22 10000 2.57 280 22:36 15.04.2022
2638 Clear 19 1011 20 10000 1.03 280 21:55 15.04.2022
2639 Clear 19 1011 20 10000 1.03 280 21:18 15.04.2022
2640 Clear 21 1011 19 10000 3.09 280 20:24 15.04.2022
2641 Clear 22 1011 18 10000 3.09 270 19:40 15.04.2022
2642 Clear 24 1010 12 10000 3.09 270 18:54 15.04.2022
2643 Clear 24 1010 12 10000 3.09 270 18:25 15.04.2022
2644 Clear 26 1009 10 10000 4.12 340 17:35 15.04.2022
2645 Clear 27 1010 6 10000 7.2 320 16:53 15.04.2022
2646 Clear 27 1010 6 10000 7.2 320 16:19 15.04.2022
2647 Clear 28 1010 7 10000 6.69 320 15:24 15.04.2022
2648 Clear 28 1011 6 10000 8.75 300 13:41 15.04.2022
2649 Clear 27 1012 6 10000 8.23 310 12:42 15.04.2022
2650 Clear 27 1012 9 10000 7.72 340 11:57 15.04.2022
2651 Clear 27 1012 9 10000 7.72 340 11:57 15.04.2022
2652 Clear 27 1012 9 10000 7.72 340 11:34 15.04.2022
2653 Clear 26 1012 9 10000 8.23 340 10:43 15.04.2022
2654 Clear 23 1013 15 10000 7.2 320 09:46 15.04.2022
2655 Clear 23 1013 15 10000 7.2 320 09:21 15.04.2022
2656 Clear 18 1013 20 10000 6.17 300 07:44 15.04.2022
2657 Clear 16 1013 23 10000 6.69 310 06:36 15.04.2022
2658 Clear 16 1012 23 10000 5.14 320 03:21 15.04.2022
2659 Clear 19 1012 20 10000 6.69 320 23:32 14.04.2022
2660 Clear 21 1012 21 10000 5.66 320 22:49 14.04.2022
2661 Clear 21 1012 21 10000 5.66 320 22:30 14.04.2022
2662 Clear 21 1011 23 10000 6.69 330 21:59 14.04.2022
2663 Clear 21 1011 26 10000 4.63 320 20:57 14.04.2022
2664 Clear 22 1011 24 10000 6.17 320 19:23 14.04.2022
2665 Clear 23 1010 23 10000 6.17 320 18:30 14.04.2022
2666 Clear 25 1010 19 10000 6.69 320 17:44 14.04.2022
2667 Clear 25 1010 19 10000 6.69 320 17:44 14.04.2022
2668 Clear 27 1010 16 10000 7.2 330 16:46 14.04.2022
2669 Clear 28 1010 13 10000 7.72 330 15:28 14.04.2022
2670 Clear 28 1011 12 10000 6.17 320 13:47 14.04.2022
2671 Clear 28 1012 11 10000 6.17 340 12:58 14.04.2022
2672 Clear 28 1012 11 10000 6.17 340 12:31 14.04.2022
2673 Clouds 27 1011 12 9000 8.75 340 11:36 14.04.2022
2674 Clear 26 1012 13 10000 7.72 340 10:56 14.04.2022
2675 Clear 26 1012 13 10000 7.72 340 10:27 14.04.2022
2676 Clouds 24 1013 17 9000 8.75 350 09:26 14.04.2022
2677 Clear 20 1013 21 10000 6.17 350 07:36 14.04.2022
2678 Clear 16 1013 23 10000 5.66 350 05:23 14.04.2022
2679 Clear 18 1013 32 10000 5.66 320 23:50 13.04.2022
2680 Clear 19 1013 32 10000 5.14 290 22:29 13.04.2022
2681 Clear 21 1013 24 10000 5.66 290 21:42 13.04.2022
2682 Clear 22 1012 23 10000 5.14 280 20:27 13.04.2022
2683 Clouds 22 1012 23 9000 5.14 280 19:46 13.04.2022
2684 Clear 23 1011 21 8000 5.66 300 18:36 13.04.2022
2685 Clear 25 1010 18 6000 7.2 290 17:24 13.04.2022
2686 Dust 27 1010 16 5000 6.17 300 16:44 13.04.2022
2687 Dust 27 1010 17 5000 5.14 310 15:44 13.04.2022
2688 Dust 27 1010 17 5000 5.14 310 15:21 13.04.2022
2689 Dust 28 1011 16 5000 4.63 270 14:34 13.04.2022
2690 Dust 27 1011 17 4000 4.12 280 13:37 13.04.2022
2691 Dust 27 1011 17 4000 3.6 0 12:41 13.04.2022
2692 Dust 25 1012 22 1100 4.12 310 11:25 13.04.2022
2693 Dust 24 1012 23 800 5.14 320 09:53 13.04.2022
2694 Dust 22 1012 28 800 6.69 300 08:44 13.04.2022
2695 Dust 19 1011 34 2100 4.63 310 07:44 13.04.2022
2696 Dust 15 1011 47 2100 3.6 300 06:47 13.04.2022
2697 Dust 15 1011 47 2100 3.6 300 06:23 13.04.2022
2698 Clear 16 1009 41 7000 1.54 340 00:52 13.04.2022
2699 Clear 16 1009 41 7000 1.54 340 00:19 13.04.2022
2700 Clear 15 1010 38 10000 2.57 320 22:33 12.04.2022
2701 Clear 17 1010 31 10000 4.12 310 21:47 12.04.2022
2702 Clear 19 1009 26 10000 3.6 310 20:44 12.04.2022
2703 Clear 19 1009 26 10000 3.6 310 20:19 12.04.2022
2704 Clear 21 1009 18 10000 4.63 300 19:40 12.04.2022
2705 Clouds 23 1009 17 9000 5.14 280 18:53 12.04.2022
2706 Dust 25 1008 18 3500 7.2 290 17:38 12.04.2022
2707 Dust 26 1008 17 2500 7.72 300 16:38 12.04.2022
2708 Dust 26 1008 17 1500 7.2 290 15:34 12.04.2022
2709 Dust 26 1008 17 1500 7.72 300 14:41 12.04.2022
2710 Dust 26 1009 17 1200 7.2 300 13:45 12.04.2022
2711 Clouds 26 1009 17 700 7.72 300 13:24 12.04.2022
2712 Clouds 24 1010 23 300 8.23 310 11:57 12.04.2022
2713 Clouds 24 1010 23 300 8.23 310 11:32 12.04.2022
2714 Clouds 21 1011 30 100 9.26 320 09:47 12.04.2022
2715 Clouds 21 1011 32 300 8.75 310 08:38 12.04.2022
2716 Clouds 21 1009 30 200 7.72 310 06:46 12.04.2022
2717 Clouds 21 1008 32 200 9.26 300 05:38 12.04.2022
2718 Clear 24 1004 27 10000 6.17 140 01:48 12.04.2022
2719 Clear 26 1005 22 10000 5.66 140 23:20 11.04.2022
2720 Clear 26 1005 22 10000 6.17 140 21:59 11.04.2022
2721 Clear 26 1005 22 10000 6.17 140 21:18 11.04.2022
2722 Clear 27 1006 22 10000 5.66 140 20:34 11.04.2022
2723 Clear 28 1005 23 10000 4.63 120 19:58 11.04.2022
2724 Clear 28 1005 23 10000 4.63 120 19:26 11.04.2022
2725 Clear 29 1005 23 10000 4.63 130 18:53 11.04.2022
2726 Clear 32 1005 17 10000 5.66 140 17:58 11.04.2022
2727 Clear 32 1005 17 10000 5.66 140 17:33 11.04.2022
2728 Clear 33 1006 16 10000 5.66 130 16:26 11.04.2022
2729 Clear 34 1007 15 10000 4.12 140 14:42 11.04.2022
2730 Clear 34 1008 15 10000 5.66 160 13:34 11.04.2022
2731 Clear 33 1009 14 10000 4.12 170 12:38 11.04.2022
2732 Clear 32 1010 17 10000 7.2 170 11:54 11.04.2022
2733 Clear 31 1011 19 8000 4.63 150 10:36 11.04.2022
2734 Clouds 29 1011 20 8000 5.66 130 09:41 11.04.2022
2735 Dust 25 1012 31 5000 2.57 130 07:54 11.04.2022
2736 Clear 18 1010 45 7000 1.03 110 03:19 11.04.2022
2737 Clear 19 1011 37 10000 2.06 140 23:27 10.04.2022
2738 Clear 20 1011 34 10000 1.54 80 22:26 10.04.2022
2739 Clear 22 1012 28 10000 2.57 350 21:43 10.04.2022
2740 Clear 23 1012 28 10000 2.57 360 20:50 10.04.2022
2741 Clouds 22 1012 30 9000 2.57 320 19:54 10.04.2022
2742 Clouds 22 1012 30 9000 2.57 320 19:33 10.04.2022
2743 Clear 27 1011 21 10000 2.06 260 18:46 10.04.2022
2744 Clear 28 1011 21 10000 2.06 210 18:20 10.04.2022
2745 Clear 30 1010 17 10000 1.54 220 17:41 10.04.2022
2746 Clear 30 1011 17 10000 2.57 230 16:47 10.04.2022
2747 Clear 31 1011 16 10000 2.57 230 15:37 10.04.2022
2748 Clear 31 1011 18 10000 2.06 0 14:34 10.04.2022
2749 Clear 31 1013 18 10000 3.6 240 12:50 10.04.2022
2750 Clear 31 1013 18 10000 3.6 240 12:26 10.04.2022
2751 Clouds 30 1014 19 9000 4.12 250 11:29 10.04.2022
2752 Clouds 28 1014 24 9000 3.09 270 10:57 10.04.2022
2753 Clouds 28 1014 24 9000 3.09 270 10:20 10.04.2022
2754 Clouds 26 1014 27 9000 2.06 260 09:39 10.04.2022
2755 Clear 23 1014 31 8000 2.06 290 08:24 10.04.2022
2756 Clear 21 1014 35 10000 3.6 290 07:42 10.04.2022
2757 Clear 18 1013 45 10000 1.54 290 06:19 10.04.2022
2758 Clear 17 1012 39 10000 0 0 02:37 10.04.2022
2759 Clear 19 1012 39 8000 1.03 0 00:34 10.04.2022
2760 Clear 21 1012 35 6000 1.54 260 23:49 09.04.2022
2761 Dust 20 1011 34 5000 1.03 260 22:50 09.04.2022
2762 Dust 21 1011 32 4600 0.51 0 21:46 09.04.2022
2763 Dust 22 1011 30 4100 1.54 200 20:57 09.04.2022
2764 Dust 22 1011 30 4100 1.54 200 20:26 09.04.2022
2765 Dust 26 1010 24 3600 2.57 270 19:42 09.04.2022
2766 Dust 26 1010 24 3600 2.57 270 19:18 09.04.2022
2767 Dust 26 1010 24 2700 3.6 290 18:21 09.04.2022
2768 Dust 28 1009 23 1900 5.14 290 17:39 09.04.2022
2769 Dust 28 1009 23 2700 6.17 280 16:53 09.04.2022
2770 Dust 28 1009 23 3500 8.23 310 15:59 09.04.2022
2771 Dust 28 1009 23 3500 8.23 310 15:41 09.04.2022
2772 Dust 28 1009 24 2500 7.2 290 14:44 09.04.2022
2773 Dust 28 1009 24 2500 7.2 290 14:23 09.04.2022
2774 Dust 27 1009 28 1100 7.2 280 13:20 09.04.2022
2775 Dust 26 1010 31 1300 6.17 270 12:50 09.04.2022
2776 Dust 26 1010 29 2300 6.69 270 11:38 09.04.2022
2777 Dust 25 1010 33 4000 3.6 280 10:21 09.04.2022
2778 Dust 23 1010 38 4000 7.2 300 09:47 09.04.2022
2779 Dust 21 1009 43 5000 8.75 290 08:56 09.04.2022
2780 Clouds 20 1009 45 5000 10.8 290 07:29 09.04.2022
2781 Clouds 29 1006 18 10000 1.54 0 02:53 09.04.2022
2782 Clouds 27 1005 26 10000 3.09 90 00:25 09.04.2022
2783 Clouds 27 1006 22 10000 3.6 150 22:57 08.04.2022
2784 Clear 29 1006 20 10000 4.12 130 21:32 08.04.2022
2785 Clear 29 1006 20 10000 3.6 100 20:40 08.04.2022
2786 Clear 30 1006 21 10000 2.57 120 19:32 08.04.2022
2787 Clear 31 1006 20 10000 6.17 140 18:31 08.04.2022
2788 Clouds 32 1006 19 9000 5.14 150 17:53 08.04.2022
2789 Clouds 32 1006 19 9000 5.14 150 17:26 08.04.2022
2790 Clouds 33 1007 17 9000 5.66 140 16:51 08.04.2022
2791 Clouds 33 1007 17 9000 5.66 140 16:20 08.04.2022
2792 Clear 34 1007 15 10000 7.72 160 15:27 08.04.2022
2793 Clouds 34 1008 14 8000 8.23 160 14:40 08.04.2022
2794 Clouds 33 1009 17 6000 9.77 150 13:55 08.04.2022
2795 Clouds 33 1009 17 6000 9.77 150 13:30 08.04.2022
2796 Dust 32 1010 18 5000 7.72 150 12:42 08.04.2022
2797 Clouds 29 1012 23 6000 6.69 130 10:55 08.04.2022
2798 Clouds 29 1012 21 6000 5.14 130 09:41 08.04.2022
2799 Clouds 26 1012 24 6000 4.12 120 08:58 08.04.2022
2800 Clouds 23 1012 31 6000 2.57 140 07:42 08.04.2022
2801 Clouds 19 1012 42 6000 1.54 110 06:44 08.04.2022
2802 Clouds 20 1012 40 9000 1.03 180 02:29 08.04.2022
2803 Clouds 21 1011 35 8000 1.03 150 00:28 08.04.2022
2804 Clouds 21 1012 32 8000 1.03 150 23:41 07.04.2022
2805 Clouds 21 1011 35 8000 1.03 180 22:41 07.04.2022
2806 Clouds 21 1011 35 8000 1.03 180 22:22 07.04.2022
2807 Dust 23 1011 25 8000 1.54 160 21:56 07.04.2022
2808 Dust 23 1011 25 8000 1.54 160 21:23 07.04.2022
2809 Clouds 25 1011 22 8000 0.51 280 20:42 07.04.2022
2810 Clouds 29 1009 17 8000 3.09 270 18:58 07.04.2022
2811 Clouds 31 1008 14 7000 4.63 260 17:28 07.04.2022
2812 Clouds 33 1007 13 7000 7.2 260 16:51 07.04.2022
2813 Clouds 33 1007 13 7000 7.2 260 16:33 07.04.2022
2814 Clouds 33 1007 14 6000 6.17 230 15:39 07.04.2022
2815 Clear 32 1007 15 6000 7.72 240 13:52 07.04.2022
2816 Clear 32 1007 15 6000 7.72 240 13:23 07.04.2022
2817 Dust 29 1008 24 3500 3.6 260 11:49 07.04.2022
2818 Dust 27 1008 26 2000 5.66 270 10:40 07.04.2022
2819 Dust 25 1007 25 4300 6.69 290 08:43 07.04.2022
2820 Dust 23 1006 27 5000 4.12 250 06:59 07.04.2022
2821 Dust 23 1004 23 5000 4.12 220 04:36 07.04.2022
2822 Clear 25 1004 22 10000 4.63 180 02:32 07.04.2022
2823 Clear 26 1003 21 10000 8.75 140 00:43 07.04.2022
2824 Clear 27 1004 21 10000 8.23 140 23:28 06.04.2022
2825 Clear 27 1004 24 10000 8.75 140 22:44 06.04.2022
2826 Clear 27 1004 24 10000 8.75 140 22:19 06.04.2022
2827 Clear 27 1006 26 10000 7.72 130 20:47 06.04.2022
2828 Clear 27 1006 28 10000 6.69 130 19:59 06.04.2022
2829 Clear 29 1006 24 10000 7.2 130 19:24 06.04.2022
2830 Clear 30 1006 23 10000 5.66 120 18:48 06.04.2022
2831 Clear 32 1006 19 10000 5.66 120 17:36 06.04.2022
2832 Clear 34 1007 16 10000 6.69 140 16:56 06.04.2022
2833 Clear 34 1007 16 10000 6.69 140 16:32 06.04.2022
2834 Clear 34 1008 13 10000 7.72 170 15:43 06.04.2022
2835 Clear 34 1010 13 10000 6.69 160 13:48 06.04.2022
2836 Clear 33 1012 13 10000 6.69 160 12:30 06.04.2022
2837 Clear 33 1012 14 10000 6.69 150 11:44 06.04.2022
2838 Clear 31 1013 16 10000 6.17 150 10:33 06.04.2022
2839 Clear 29 1014 20 10000 4.12 140 09:59 06.04.2022
2840 Clear 29 1014 20 10000 4.12 140 09:25 06.04.2022
2841 Clouds 26 1014 24 9000 4.12 150 08:18 06.04.2022
2842 Clear 18 1013 39 10000 1.54 130 06:40 06.04.2022
2843 Clear 19 1013 37 10000 2.06 200 01:26 06.04.2022
2844 Clear 17 1014 39 10000 1.03 150 23:50 05.04.2022
2845 Clear 20 1014 30 10000 0.51 0 21:58 05.04.2022
2846 Clear 20 1014 30 10000 0.51 0 21:18 05.04.2022
2847 Clear 22 1014 24 10000 0.51 0 20:24 05.04.2022
2848 Clouds 27 1013 17 10000 2.06 300 18:45 05.04.2022
2849 Clear 30 1013 14 10000 4.63 300 17:22 05.04.2022
2850 Clear 31 1013 11 10000 7.72 300 16:44 05.04.2022
2851 Clear 32 1014 12 10000 7.2 310 15:52 05.04.2022
2852 Clear 32 1014 12 10000 7.2 310 15:31 05.04.2022
2853 Clear 32 1015 14 10000 7.72 310 13:59 05.04.2022
2854 Clouds 31 1015 18 9000 6.17 300 12:41 05.04.2022
2855 Clouds 30 1016 20 8000 7.2 300 11:43 05.04.2022
2856 Clouds 30 1016 20 8000 7.2 300 11:25 05.04.2022
2857 Clear 26 1017 31 7000 4.63 320 09:41 05.04.2022
2858 Clear 24 1017 33 6000 5.14 310 08:51 05.04.2022
2859 Clear 17 1015 31 9000 3.6 310 04:25 05.04.2022
2860 Clouds 21 1014 23 8000 4.12 310 23:51 04.04.2022
2861 Clouds 23 1014 20 7000 3.6 300 22:41 04.04.2022
2862 Clear 23 1014 18 10000 3.6 290 21:52 04.04.2022
2863 Clear 23 1014 18 10000 3.6 290 21:21 04.04.2022
2864 Clear 24 1014 17 10000 3.6 300 20:48 04.04.2022
2865 Clear 27 1013 14 10000 4.12 290 19:39 04.04.2022
2866 Clear 29 1012 14 10000 4.63 280 18:59 04.04.2022
2867 Clear 31 1012 12 10000 5.14 290 17:39 04.04.2022
2868 Clear 33 1012 11 6000 6.69 310 16:36 04.04.2022
2869 Clear 33 1012 11 6000 6.69 310 16:36 04.04.2022
2870 Clear 34 1011 9 7000 6.69 310 15:34 04.04.2022
2871 Clear 34 1012 9 10000 7.2 330 14:49 04.04.2022
2872 Clear 34 1012 9 10000 7.2 330 14:31 04.04.2022
2873 Clear 33 1012 11 10000 7.72 300 13:21 04.04.2022
2874 Clear 31 1014 16 10000 7.2 320 11:48 04.04.2022
2875 Clear 31 1014 16 10000 7.2 320 11:27 04.04.2022
2876 Clear 22 1013 26 10000 7.2 310 07:46 04.04.2022
2877 Clear 22 1013 26 10000 7.2 310 07:46 04.04.2022
2878 Clear 20 1011 28 10000 3.6 320 03:52 04.04.2022
2879 Clear 22 1010 26 10000 2.57 280 00:25 04.04.2022
2880 Clouds 22 1010 26 6000 0.51 0 22:33 03.04.2022
2881 Clouds 23 1010 27 8000 1.03 280 21:38 03.04.2022
2882 Clear 26 1009 27 10000 1.54 40 20:41 03.04.2022
2883 Clear 27 1009 21 10000 1.03 10 19:45 03.04.2022
2884 Clear 30 1009 16 10000 2.06 360 18:31 03.04.2022
2885 Clear 33 1009 12 10000 2.06 300 17:46 03.04.2022
2886 Clear 34 1009 12 10000 1.54 260 16:50 03.04.2022
2887 Clear 34 1009 12 10000 1.54 260 16:31 03.04.2022
2888 Clear 36 1010 11 10000 1.54 260 14:38 03.04.2022
2889 Clear 36 1011 11 10000 2.06 260 13:47 03.04.2022
2890 Clear 35 1012 10 10000 1.54 280 12:41 03.04.2022
2891 Clear 31 1013 18 10000 2.06 220 10:58 03.04.2022
2892 Dust 28 1013 24 5000 2.06 240 09:36 03.04.2022
2893 Dust 26 1013 25 10000 2.57 250 08:33 03.04.2022
2894 Clouds 15 1012 38 9000 1.54 330 04:42 03.04.2022
2895 Clouds 18 1012 32 7000 0 0 01:53 03.04.2022
2896 Clear 19 1013 32 10000 1.03 340 23:21 02.04.2022
2897 Clear 20 1013 28 10000 0 0 22:18 02.04.2022
2898 Clear 21 1014 24 10000 1.54 270 21:46 02.04.2022
2899 Clear 21 1014 24 10000 1.54 270 21:18 02.04.2022
2900 Clear 25 1013 18 10000 1.54 260 19:54 02.04.2022
2901 Clear 28 1013 15 10000 2.57 250 18:23 02.04.2022
2902 Clear 31 1013 11 10000 3.09 280 17:53 02.04.2022
2903 Clear 32 1013 10 10000 4.12 300 16:27 02.04.2022
2904 Clear 33 1013 9 10000 6.17 320 15:22 02.04.2022
2905 Clear 33 1014 10 10000 6.69 290 14:51 02.04.2022
2906 Clear 33 1014 11 10000 4.63 270 13:51 02.04.2022
2907 Clear 33 1015 11 10000 5.14 290 13:19 02.04.2022
2908 Clouds 31 1016 11 10000 4.63 300 11:33 02.04.2022
2909 Clear 26 1017 19 10000 2.06 320 09:30 02.04.2022
2910 Clouds 15 1016 33 9000 1.54 270 06:56 02.04.2022
2911 Clear 14 1016 35 10000 3.09 330 03:55 02.04.2022
2912 Clear 17 1016 27 10000 2.57 320 00:25 02.04.2022
2913 Clear 17 1017 25 10000 3.6 320 23:45 01.04.2022
2914 Clear 21 1016 18 10000 1.54 280 21:55 01.04.2022
2915 Clear 24 1016 14 10000 3.6 290 20:54 01.04.2022
2916 Clear 24 1016 14 10000 3.6 290 20:31 01.04.2022
2917 Clear 25 1016 15 10000 4.12 300 19:38 01.04.2022
2918 Clear 27 1015 16 10000 3.09 290 18:52 01.04.2022
2919 Clear 27 1015 16 10000 3.09 290 18:23 01.04.2022
2920 Clear 31 1015 11 10000 4.63 300 17:35 01.04.2022
2921 Clear 31 1015 11 10000 4.63 300 17:35 01.04.2022
2922 Clear 33 1015 11 10000 4.12 320 15:43 01.04.2022
2923 Clear 33 1015 13 10000 4.63 330 14:39 01.04.2022
2924 Clear 32 1016 14 10000 5.14 350 13:36 01.04.2022
2925 Clear 32 1017 15 10000 6.69 340 12:33 01.04.2022
2926 Clear 31 1017 19 10000 6.69 330 11:45 01.04.2022
2927 Clear 29 1018 23 10000 5.14 330 10:34 01.04.2022
2928 Clear 26 1018 27 10000 4.63 300 09:30 01.04.2022
2929 Clear 15 1017 47 10000 3.09 300 06:55 01.04.2022
2930 Clear 13 1016 47 10000 3.09 300 04:56 01.04.2022
2931 Clear 13 1016 47 10000 3.09 300 04:37 01.04.2022
2932 Clear 15 1015 41 10000 2.57 300 02:19 01.04.2022
2933 Clear 18 1016 36 10000 2.57 310 00:46 01.04.2022
2934 Clear 19 1016 30 10000 2.57 310 22:20 31.03.2022
2935 Clear 22 1015 26 10000 2.06 340 21:37 31.03.2022
2936 Clear 23 1015 23 10000 2.57 340 20:43 31.03.2022
2937 Clear 23 1015 23 10000 2.57 340 20:25 31.03.2022
2938 Clear 26 1014 18 10000 2.57 330 18:57 31.03.2022
2939 Clear 30 1014 11 10000 1.03 20 17:55 31.03.2022
2940 Clear 31 1013 10 10000 1.54 90 16:46 31.03.2022
2941 Clear 32 1013 11 10000 1.03 0 15:54 31.03.2022
2942 Clear 32 1013 11 10000 1.03 0 15:23 31.03.2022
2943 Clear 32 1014 10 10000 1.54 0 14:44 31.03.2022
2944 Clear 32 1014 10 10000 1.54 0 13:28 31.03.2022
2945 Clear 30 1015 11 10000 4.12 140 11:30 31.03.2022
2946 Clear 29 1016 13 10000 4.12 150 10:19 31.03.2022
2947 Clear 28 1016 13 10000 4.12 130 09:19 31.03.2022
2948 Dust 21 1015 37 3500 2.06 320 07:31 31.03.2022
2949 Clear 21 1012 35 10000 4.12 110 01:27 31.03.2022
2950 Clear 22 1013 35 10000 4.12 80 23:23 30.03.2022
2951 Clear 22 1015 37 10000 4.63 70 21:54 30.03.2022
2952 Clear 22 1015 37 10000 4.63 70 21:27 30.03.2022
2953 Clouds 21 1016 40 10000 2.06 0 20:32 30.03.2022
2954 Clouds 23 1016 27 10000 5.66 300 19:46 30.03.2022
2955 Clouds 23 1014 31 10000 1.03 0 18:41 30.03.2022
2956 Clouds 25 1014 29 7000 2.06 170 17:50 30.03.2022
2957 Clouds 27 1013 12 10000 1.54 150 16:59 30.03.2022
2958 Clouds 27 1013 12 10000 1.54 150 16:39 30.03.2022
2959 Clouds 27 1013 12 10000 2.06 190 15:47 30.03.2022
2960 Clear 27 1014 12 10000 3.09 0 14:22 30.03.2022
2961 Clear 27 1015 16 10000 2.57 210 13:21 30.03.2022
2962 Clouds 26 1016 19 8000 4.12 210 12:19 30.03.2022
2963 Clouds 24 1017 19 8000 2.06 10 10:48 30.03.2022
2964 Clear 22 1018 23 10000 1.54 270 09:43 30.03.2022
2965 Clouds 19 1018 32 8000 1.03 0 08:20 30.03.2022
2966 Clear 11 1018 54 10000 2.06 290 06:32 30.03.2022
2967 Clear 9 1018 53 10000 2.06 340 05:38 30.03.2022
2968 Clear 10 1017 46 10000 1.54 310 01:45 30.03.2022
2969 Clear 13 1018 38 10000 2.06 280 22:39 29.03.2022
2970 Clear 13 1018 33 10000 2.06 270 21:48 29.03.2022
2971 Clear 14 1019 30 10000 2.06 270 21:20 29.03.2022
2972 Clear 16 1019 27 10000 1.03 0 20:25 29.03.2022
2973 Clear 19 1019 24 10000 2.57 260 19:31 29.03.2022
2974 Clear 20 1019 22 10000 3.09 270 18:53 29.03.2022
2975 Clear 24 1019 15 10000 6.17 290 17:48 29.03.2022
2976 Clear 24 1019 15 10000 6.17 290 17:18 29.03.2022
2977 Clear 25 1019 15 10000 7.72 310 16:52 29.03.2022
2978 Clear 26 1020 14 10000 6.69 310 15:20 29.03.2022
2979 Clear 25 1020 14 10000 7.2 300 14:43 29.03.2022
2980 Clear 24 1021 17 10000 7.2 300 13:33 29.03.2022
2981 Clear 23 1023 21 10000 6.69 310 11:58 29.03.2022
2982 Clear 22 1024 23 10000 7.2 320 10:59 29.03.2022
2983 Clear 20 1025 28 10000 4.63 300 09:50 29.03.2022
2984 Clear 17 1025 31 10000 4.63 320 08:32 29.03.2022
2985 Clear 10 1024 43 10000 2.06 310 06:21 29.03.2022
2986 Clear 10 1024 37 10000 2.06 270 02:19 29.03.2022
2987 Clear 12 1025 32 10000 3.09 290 23:26 28.03.2022
2988 Clear 12 1026 35 10000 2.06 290 22:56 28.03.2022
2989 Clear 12 1026 35 10000 2.06 290 22:31 28.03.2022
2990 Clear 15 1026 31 10000 2.57 270 21:38 28.03.2022
2991 Clear 14 1026 33 10000 3.6 310 20:32 28.03.2022
2992 Clear 15 1025 29 10000 2.57 300 19:47 28.03.2022
2993 Clear 15 1025 29 10000 2.57 300 19:29 28.03.2022
2994 Clear 17 1025 25 10000 2.57 320 18:44 28.03.2022
2995 Clear 20 1024 21 10000 5.66 320 17:41 28.03.2022
2996 Clear 21 1024 19 10000 8.23 310 16:47 28.03.2022
2997 Clear 21 1025 24 10000 6.17 320 14:53 28.03.2022
2998 Clear 21 1025 24 10000 6.17 320 14:23 28.03.2022
2999 Clear 20 1026 28 10000 6.17 320 12:51 28.03.2022
3000 Clear 19 1027 32 10000 7.2 320 11:42 28.03.2022
3001 Clear 16 1027 44 10000 5.66 300 09:55 28.03.2022
3002 Clear 16 1027 44 10000 5.66 300 09:20 28.03.2022
3003 Clear 15 1027 42 10000 6.25 335 08:23 28.03.2022
3004 Clear 11 1027 58 10000 5.14 300 07:56 28.03.2022
3005 Clear 8 1026 61 10000 2.57 260 05:55 28.03.2022
3006 Clear 11 1025 50 10000 1.54 270 00:19 28.03.2022
3007 Clear 11 1025 46 10000 3.09 320 22:34 27.03.2022
3008 Clear 11 1025 40 9000 1.03 290 21:42 27.03.2022
3009 Clear 14 1024 38 9000 2.06 320 20:58 27.03.2022
3010 Clear 14 1024 38 9000 2.06 320 20:18 27.03.2022
3011 Clear 14 1024 35 8000 3.09 320 19:36 27.03.2022
3012 Clear 17 1023 27 10000 7.2 310 18:30 27.03.2022
3013 Clear 19 1022 22 10000 7.72 300 17:55 27.03.2022
3014 Clear 19 1022 22 10000 7.72 300 17:35 27.03.2022
3015 Clouds 21 1021 23 10000 8.23 240 15:46 27.03.2022
3016 Clouds 22 1022 21 10000 6.69 260 13:57 27.03.2022
3017 Clear 22 1022 17 10000 8.23 240 12:58 27.03.2022
3018 Clear 20 1023 26 10000 4.63 230 11:30 27.03.2022
3019 Clear 19 1024 24 10000 4.12 220 09:37 27.03.2022
3020 Clear 8 1023 57 10000 0.51 0 06:54 27.03.2022
3021 Clear 7 1022 61 10000 1.54 170 03:39 27.03.2022
3022 Clear 9 1022 57 10000 1.54 210 00:25 27.03.2022
3023 Clear 11 1023 46 10000 2.06 230 22:45 26.03.2022
3024 Clear 13 1023 41 10000 2.57 230 21:50 26.03.2022
3025 Clear 13 1023 41 10000 2.57 230 21:28 26.03.2022
3026 Clear 14 1023 41 10000 2.57 220 19:32 26.03.2022
3027 Clear 15 1023 29 10000 3.59 312 18:40 26.03.2022
3028 Clouds 15 1022 36 10000 1.54 310 17:34 26.03.2022
3029 Clouds 18 1022 29 10000 3.6 290 16:30 26.03.2022
3030 Clouds 19 1021 30 10000 4.63 280 15:37 26.03.2022
3031 Clouds 19 1021 32 10000 4.63 240 13:55 26.03.2022
3032 Clouds 19 1021 32 10000 4.63 240 13:19 26.03.2022
3033 Clear 18 1023 34 10000 4.63 240 11:42 26.03.2022
3034 Clouds 17 1023 42 10000 5.14 240 10:44 26.03.2022
3035 Clear 15 1023 55 10000 3.6 280 08:46 26.03.2022
3036 Clear 10 1022 71 10000 3.09 240 06:37 26.03.2022
3037 Clear 9 1021 71 10000 2.06 230 05:29 26.03.2022
3038 Clear 11 1018 62 10000 2.06 240 00:54 26.03.2022
3039 Clouds 13 1017 54 7000 4.63 300 21:58 25.03.2022
3040 Clouds 14 1017 47 7000 4.63 300 20:47 25.03.2022
3041 Clouds 16 1016 36 7000 2.57 250 20:24 25.03.2022
3042 Clouds 16 1016 36 9000 2.06 230 18:59 25.03.2022
3043 Clouds 17 1015 31 9000 2.06 220 18:22 25.03.2022
3044 Clouds 18 1015 29 8000 6.69 210 17:28 25.03.2022
3045 Clouds 17 1014 36 6000 6.69 270 16:27 25.03.2022
3046 Clouds 20 1013 22 10000 7.72 220 15:26 25.03.2022
3047 Clouds 21 1013 24 10000 7.72 230 13:28 25.03.2022
3048 Clear 18 1015 34 10000 5.14 230 10:49 25.03.2022
3049 Clear 17 1016 39 10000 4.63 230 09:28 25.03.2022
3050 Clear 16 1016 41 10000 4.12 240 08:36 25.03.2022
3051 Clear 15 1015 41 10000 4.12 280 07:32 25.03.2022
3052 Clear 12 1015 43 10000 3.6 260 06:29 25.03.2022
3053 Clear 9 1013 46 10000 1.54 170 02:28 25.03.2022
3054 Clear 12 1014 37 10000 2.06 220 22:56 24.03.2022
3055 Clear 14 1014 30 10000 2.57 250 21:56 24.03.2022
3056 Clear 14 1014 28 10000 3.09 240 20:45 24.03.2022
3057 Clear 15 1013 29 10000 2.57 230 19:49 24.03.2022
3058 Clear 15 1013 29 10000 2.57 230 19:49 24.03.2022
3059 Clear 17 1013 25 10000 3.09 230 18:22 24.03.2022
3060 Clouds 18 1012 22 10000 5.66 250 17:32 24.03.2022
3061 Clouds 20 1011 18 10000 5.66 270 15:56 24.03.2022
3062 Clear 21 1011 19 10000 6.69 270 14:51 24.03.2022
3063 Clear 21 1011 19 10000 6.69 270 14:21 24.03.2022
3064 Clear 21 1011 21 10000 5.66 250 13:26 24.03.2022
3065 Clear 20 1011 26 10000 5.66 260 11:59 24.03.2022
3066 Clear 19 1012 37 10000 5.66 240 10:28 24.03.2022
3067 Clear 18 1012 39 10000 4.63 250 09:23 24.03.2022
3068 Clear 16 1013 51 7000 4.63 260 07:39 24.03.2022
3069 Dust 11 1012 66 2000 3.09 270 04:43 24.03.2022
3070 Dust 15 1010 51 2000 6.69 320 23:38 23.03.2022
3071 Dust 15 1010 55 1200 8.23 320 22:18 23.03.2022
3072 Clouds 16 1010 55 800 13.38 290 21:20 23.03.2022
3073 Clear 21 1008 35 10000 5.66 190 19:50 23.03.2022
3074 Clear 21 1008 35 10000 5.66 190 19:25 23.03.2022
3075 Clear 22 1007 30 10000 3.6 130 17:39 23.03.2022
3076 Clear 26 1007 22 10000 3.6 140 16:53 23.03.2022
3077 Clear 28 1008 17 10000 6.17 130 14:57 23.03.2022
3078 Clear 28 1008 17 10000 6.17 130 14:38 23.03.2022
3079 Clear 28 1008 17 10000 4.12 70 13:22 23.03.2022
3080 Clear 25 1012 25 10000 2.06 0 10:37 23.03.2022
3081 Clear 19 1014 42 10000 2.06 20 07:56 23.03.2022
3082 Smoke 9 1013 71 5000 1.54 320 05:40 23.03.2022
3083 Clear 10 1012 66 10000 2.57 320 01:41 23.03.2022
3084 Clear 11 1012 62 10000 2.57 330 00:24 23.03.2022
3085 Clear 13 1013 54 10000 3.09 300 21:32 22.03.2022
3086 Clear 15 1013 51 10000 3.09 290 20:55 22.03.2022
3087 Clear 15 1013 51 10000 4.12 300 19:56 22.03.2022
3088 Clear 15 1013 51 10000 4.12 300 19:25 22.03.2022
3089 Clear 17 1013 48 10000 4.63 300 18:45 22.03.2022
3090 Clear 18 1012 48 10000 6.17 310 17:42 22.03.2022
3091 Clear 20 1011 40 10000 4.12 320 16:35 22.03.2022
3092 Clear 21 1011 37 10000 6.17 330 15:37 22.03.2022
3093 Clear 21 1011 37 10000 6.17 330 15:18 22.03.2022
3094 Clear 22 1011 35 10000 4.63 330 14:41 22.03.2022
3095 Clear 22 1011 37 10000 4.63 310 13:37 22.03.2022
3096 Clear 20 1012 49 10000 4.63 300 11:52 22.03.2022
3097 Clear 20 1013 45 10000 4.12 340 10:51 22.03.2022
3098 Clouds 14 1014 67 8000 4.12 340 08:43 22.03.2022
3099 Clouds 13 1016 50 8000 3.09 290 07:21 22.03.2022
3100 Clouds 10 1015 46 10000 3.6 300 03:55 22.03.2022
3101 Clear 10 1014 37 10000 4.63 330 00:46 22.03.2022
3102 Clear 10 1015 37 10000 6.17 310 22:46 21.03.2022
3103 Clear 9 1015 43 10000 7.72 310 21:20 21.03.2022
3104 Clear 10 1015 46 10000 6.69 310 20:43 21.03.2022
3105 Clear 10 1015 46 10000 6.69 310 20:21 21.03.2022
3106 Clear 11 1015 50 10000 7.2 310 19:35 21.03.2022
3107 Clouds 13 1015 32 10000 6.85 328 18:47 21.03.2022
3108 Clouds 12 1014 37 10000 6.17 320 17:35 21.03.2022
3109 Clouds 14 1014 28 10000 8.75 300 16:58 21.03.2022
3110 Clouds 14 1014 28 10000 8.75 300 16:24 21.03.2022
3111 Clear 16 1013 25 10000 4.63 330 15:37 21.03.2022
3112 Clear 18 1014 22 10000 5.14 330 14:29 21.03.2022
3113 Clear 17 1015 19 10000 5.66 320 12:58 21.03.2022
3114 Clear 17 1016 20 10000 5.66 310 11:57 21.03.2022
3115 Clear 16 1016 18 10000 5.66 320 10:59 21.03.2022
3116 Clear 15 1017 20 10000 7.2 330 09:42 21.03.2022
3117 Clear 12 1017 22 10000 6.17 340 07:22 21.03.2022
3118 Clouds 9 1017 29 10000 4.63 340 05:42 21.03.2022
3119 Clouds 9 1018 25 10000 5.14 320 00:46 21.03.2022
3120 Clear 10 1018 27 10000 5.66 320 22:57 20.03.2022
3121 Clear 10 1018 27 10000 5.66 320 22:23 20.03.2022
3122 Clouds 11 1018 25 10000 5.14 320 21:31 20.03.2022
3123 Clouds 11 1018 28 10000 5.14 320 20:54 20.03.2022
3124 Clouds 11 1018 28 10000 5.14 320 20:27 20.03.2022
3125 Clear 11 1018 30 10000 7.2 320 19:48 20.03.2022
3126 Clear 11 1018 30 10000 7.2 320 19:19 20.03.2022
3127 Clear 13 1018 30 10000 7.72 300 17:43 20.03.2022
3128 Clear 13 1018 30 10000 7.72 300 17:24 20.03.2022
3129 Clouds 14 1017 26 10000 6.69 310 15:57 20.03.2022
3130 Clouds 15 1018 25 10000 6.17 320 14:38 20.03.2022
3131 Clouds 16 1018 25 10000 6.69 310 13:31 20.03.2022
3132 Clouds 15 1019 25 10000 7.2 320 11:58 20.03.2022
3133 Clear 14 1019 28 10000 8.23 330 09:58 20.03.2022
3134 Clear 13 1019 33 10000 7.72 320 08:19 20.03.2022
3135 Clear 8 1017 61 10000 6.69 310 05:49 20.03.2022
3136 Clear 9 1016 57 10000 7.2 310 03:18 20.03.2022
3137 Dust 11 1014 54 2100 7.72 300 00:53 20.03.2022
3138 Dust 12 1014 50 1900 8.23 300 23:37 19.03.2022
3139 Clear 11 1014 40 10000 1.03 0 21:58 19.03.2022
3140 Clear 11 1014 40 10000 1.03 0 21:25 19.03.2022
3141 Clear 16 1014 36 10000 1.54 150 19:22 19.03.2022
3142 Clear 18 1014 27 10000 1.54 170 18:38 19.03.2022
3143 Clouds 20 1013 26 10000 2.06 210 17:48 19.03.2022
3144 Clouds 22 1013 23 10000 3.6 240 16:46 19.03.2022
3145 Clouds 24 1013 20 10000 5.14 240 15:26 19.03.2022
3146 Clouds 23 1014 20 10000 6.17 210 13:45 19.03.2022
3147 Clouds 24 1015 20 10000 7.72 230 12:42 19.03.2022
3148 Clouds 24 1015 20 10000 7.72 230 12:20 19.03.2022
3149 Clouds 24 1015 20 10000 6.69 200 11:45 19.03.2022
3150 Clouds 22 1017 18 10000 5.66 150 09:22 19.03.2022
3151 Clouds 12 1017 30 10000 2.06 50 04:53 19.03.2022
3152 Clear 11 1017 35 10000 3.09 360 02:33 19.03.2022
3153 Clear 10 1018 37 10000 3.09 330 23:51 18.03.2022
3154 Clear 11 1018 35 10000 3.6 330 22:48 18.03.2022
3155 Clear 11 1018 35 10000 3.6 330 22:21 18.03.2022
3156 Clouds 12 1018 20 10000 0 0 20:25 18.03.2022
3157 Clear 12 1018 28 10000 0 0 19:24 18.03.2022
3158 Clear 15 1017 21 10000 1.03 0 18:43 18.03.2022
3159 Clear 18 1017 15 10000 3.6 130 16:54 18.03.2022
3160 Clear 18 1017 15 10000 3.6 130 16:23 18.03.2022
3161 Clouds 21 1017 9 10000 6.17 180 14:27 18.03.2022
3162 Clear 21 1017 9 10000 6.17 190 13:39 18.03.2022
3163 Clear 19 1019 13 10000 5.14 180 11:35 18.03.2022
3164 Clear 18 1020 15 10000 4.12 150 10:21 18.03.2022
3165 Clear 16 1021 18 10000 4.63 170 08:46 18.03.2022
3166 Clear 12 1021 26 10000 2.57 120 06:59 18.03.2022
3167 Clouds 10 1021 25 10000 2.17 123 04:55 18.03.2022
3168 Clear 6 1021 39 10000 1.54 200 01:38 18.03.2022
3169 Clear 8 1022 31 10000 1.03 0 23:59 17.03.2022
3170 Clear 7 1022 33 10000 2.06 150 22:45 17.03.2022
3171 Clear 7 1022 33 10000 2.06 150 22:19 17.03.2022
3172 Clear 9 1023 31 10000 0 0 21:30 17.03.2022
3173 Clear 9 1023 27 10000 1.54 300 20:53 17.03.2022
3174 Clear 9 1023 27 10000 1.54 300 20:20 17.03.2022
3175 Clear 10 1023 29 10000 1.03 300 19:38 17.03.2022
3176 Clear 12 1023 20 10000 2.57 250 18:53 17.03.2022
3177 Clear 13 1022 15 10000 3.09 290 17:40 17.03.2022
3178 Clear 15 1022 13 10000 5.14 290 16:20 17.03.2022
3179 Clear 16 1022 16 10000 4.12 300 15:43 17.03.2022
3180 Clear 16 1022 16 10000 4.12 300 15:18 17.03.2022
3181 Clear 16 1022 17 10000 2.57 320 13:47 17.03.2022
3182 Clear 16 1023 17 10000 3.6 250 12:47 17.03.2022
3183 Clear 16 1024 20 10000 4.12 250 11:36 17.03.2022
3184 Clear 15 1024 25 10000 2.06 0 10:44 17.03.2022
3185 Clear 14 1025 30 10000 3.09 260 09:40 17.03.2022
3186 Clear 12 1025 40 10000 3.09 300 08:20 17.03.2022
3187 Clear 3 1023 38 10000 1.54 270 05:53 17.03.2022
3188 Clear 3 1023 38 10000 1.54 270 05:23 17.03.2022
3189 Clear 7 1022 31 7000 4.12 250 00:27 17.03.2022
3190 Clear 8 1022 31 10000 2.57 260 22:57 16.03.2022
3191 Clear 8 1022 31 10000 2.57 260 22:36 16.03.2022
3192 Clear 8 1022 34 10000 3.09 260 21:56 16.03.2022
3193 Clear 8 1022 34 10000 2.06 270 20:40 16.03.2022
3194 Clear 10 1022 32 10000 2.57 260 19:23 16.03.2022
3195 Clear 11 1021 30 10000 2.57 270 18:43 16.03.2022
3196 Clear 11 1021 28 10000 2.57 290 17:50 16.03.2022
3197 Clear 11 1021 28 10000 2.57 290 17:31 16.03.2022
3198 Clouds 12 1020 26 10000 6.69 310 16:35 16.03.2022
3199 Clear 14 1019 23 10000 6.17 280 14:58 16.03.2022
3200 Clouds 13 1019 24 10000 6.69 290 13:41 16.03.2022
3201 Clouds 13 1020 26 10000 6.17 260 12:56 16.03.2022
3202 Clouds 12 1021 28 10000 7.2 270 11:24 16.03.2022
3203 Clouds 13 1021 26 10000 6.69 280 10:37 16.03.2022
3204 Clear 13 1020 24 10000 7.35 290 09:57 16.03.2022
3205 Clear 12 1021 26 10000 7.26 297 08:33 16.03.2022
3206 Clouds 7 1018 39 10000 7.2 300 02:46 16.03.2022
3207 Clear 7 1018 42 10000 3.6 320 22:58 15.03.2022
3208 Clear 7 1018 42 10000 3.6 320 22:36 15.03.2022
3209 Clear 10 1018 37 10000 4.63 300 21:19 15.03.2022
3210 Clear 12 1018 30 10000 5.14 300 19:47 15.03.2022
3211 Clear 13 1018 30 10000 4.63 290 18:35 15.03.2022
3212 Clouds 15 1017 26 10000 7.72 310 16:42 15.03.2022
3213 Clouds 16 1016 25 10000 7.72 300 15:42 15.03.2022
3214 Clouds 17 1016 23 10000 8.23 300 14:54 15.03.2022
3215 Clouds 16 1016 23 10000 6.69 310 13:57 15.03.2022
3216 Clouds 16 1016 23 10000 6.69 310 13:24 15.03.2022
3217 Clouds 16 1017 25 10000 8.75 310 11:34 15.03.2022
3218 Clear 16 1018 25 10000 8.23 300 10:55 15.03.2022
3219 Clear 15 1018 23 10000 8.23 320 09:29 15.03.2022
3220 Clouds 14 1018 28 10000 6.69 320 08:32 15.03.2022
3221 Clouds 12 1019 35 10000 6.17 310 07:39 15.03.2022
3222 Clear 12 1018 32 10000 5.14 330 06:32 15.03.2022
3223 Clear 11 1018 35 10000 3.6 340 01:57 15.03.2022
3224 Clear 11 1018 37 10000 5.14 330 23:31 14.03.2022
3225 Clear 11 1019 35 10000 6.17 330 22:52 14.03.2022
3226 Clear 12 1019 32 10000 6.17 320 21:55 14.03.2022
3227 Clear 12 1019 32 10000 6.17 320 21:18 14.03.2022
3228 Clear 13 1019 33 10000 7.2 310 20:30 14.03.2022
3229 Clear 15 1018 36 10000 6.17 300 19:33 14.03.2022
3230 Clear 17 1017 31 10000 6.17 300 17:59 14.03.2022
3231 Clear 17 1017 31 10000 6.17 300 17:41 14.03.2022
3232 Clear 19 1017 27 10000 4.63 290 16:33 14.03.2022
3233 Clear 20 1016 28 10000 4.12 290 14:58 14.03.2022
3234 Clear 20 1016 28 10000 4.63 270 13:58 14.03.2022
3235 Clear 19 1018 30 10000 4.12 300 11:27 14.03.2022
3236 Clear 18 1019 27 10000 3.09 260 09:58 14.03.2022
3237 Clear 18 1019 27 10000 3.09 260 09:38 14.03.2022
3238 Clear 17 1019 27 10000 2.57 260 08:58 14.03.2022
3239 Clear 17 1019 27 10000 2.57 260 08:30 14.03.2022
3240 Clear 14 1019 35 10000 1.54 0 07:19 14.03.2022
3241 Clear 10 1018 46 10000 1.54 50 03:36 14.03.2022
3242 Clear 7 1017 53 10000 1.03 130 01:42 14.03.2022
3243 Clear 9 1018 49 10000 0.51 80 00:29 14.03.2022
3244 Clear 12 1019 40 10000 1.54 360 21:55 13.03.2022
3245 Clear 12 1019 40 10000 1.54 360 21:26 13.03.2022
3246 Clear 13 1019 38 10000 2.57 10 20:46 13.03.2022
3247 Clear 13 1019 38 10000 2.57 10 20:23 13.03.2022
3248 Clear 12 1019 40 10000 1.54 310 19:42 13.03.2022
3249 Clear 12 1019 40 10000 1.54 310 19:22 13.03.2022
3250 Clear 13 1019 38 10000 1.54 310 18:45 13.03.2022
3251 Clear 14 1019 33 10000 2.06 300 18:26 13.03.2022
3252 Clear 14 1018 33 10000 2.06 290 17:39 13.03.2022
3253 Clear 17 1017 29 10000 3.09 270 16:46 13.03.2022
3254 Clear 17 1017 29 10000 3.09 270 16:25 13.03.2022
3255 Clear 18 1017 27 10000 3.6 260 15:42 13.03.2022
3256 Clear 19 1017 26 10000 4.12 280 14:41 13.03.2022
3257 Clouds 19 1017 26 10000 4.63 240 13:29 13.03.2022
3258 Clouds 18 1018 27 10000 4.12 250 12:25 13.03.2022
3259 Clouds 18 1018 27 10000 3.6 260 11:44 13.03.2022
3260 Clear 18 1019 27 10000 3.6 290 10:50 13.03.2022
3261 Clear 18 1019 27 10000 3.6 290 10:30 13.03.2022
3262 Clear 17 1019 31 10000 4.12 270 09:43 13.03.2022
3263 Clear 16 1020 33 10000 3.6 280 08:50 13.03.2022
3264 Clear 16 1020 33 10000 3.6 280 08:31 13.03.2022
3265 Clear 13 1019 41 10000 2.57 270 07:34 13.03.2022
3266 Clear 6 1018 61 10000 1.03 170 04:59 13.03.2022
3267 Clear 9 1017 49 10000 2.06 150 01:48 13.03.2022
3268 Clear 8 1018 53 10000 2.06 140 23:28 12.03.2022
3269 Clear 9 1018 46 10000 3.09 160 21:43 12.03.2022
3270 Clear 11 1018 40 10000 3.6 170 20:20 12.03.2022
3271 Clear 12 1018 40 10000 3.6 160 19:46 12.03.2022
3272 Clear 13 1017 35 10000 3.09 150 18:44 12.03.2022
3273 Clear 13 1017 35 10000 3.09 150 18:19 12.03.2022
3274 Clouds 15 1017 31 10000 1.54 340 16:32 12.03.2022
3275 Clouds 16 1017 29 10000 2.57 310 15:52 12.03.2022
3276 Clouds 16 1017 29 10000 2.57 310 15:22 12.03.2022
3277 Clouds 16 1017 29 10000 3.09 270 13:54 12.03.2022
3278 Clouds 15 1018 31 10000 4.12 210 12:33 12.03.2022
3279 Clouds 15 1018 31 10000 3.6 220 11:55 12.03.2022
3280 Clouds 15 1018 31 10000 3.6 220 11:34 12.03.2022
3281 Dust 15 1019 36 5000 3.6 230 10:32 12.03.2022
3282 Dust 14 1019 41 5000 4.63 230 09:43 12.03.2022
3283 Dust 14 1020 44 4600 5.14 240 08:24 12.03.2022
3284 Dust 13 1019 50 2200 3.09 260 06:44 12.03.2022
3285 Dust 14 1016 30 2800 6.17 270 00:55 12.03.2022
3286 Dust 15 1016 31 1700 7.72 290 23:43 11.03.2022
3287 Dust 16 1016 36 2200 6.17 290 22:32 11.03.2022
3288 Dust 17 1015 34 2700 5.14 290 21:24 11.03.2022
3289 Dust 17 1015 34 2700 5.14 290 21:24 11.03.2022
3290 Dust 17 1015 34 3200 8.23 280 20:47 11.03.2022
3291 Dust 17 1015 34 3200 8.23 280 20:26 11.03.2022
3292 Dust 18 1014 34 800 7.2 280 19:35 11.03.2022
3293 Clear 20 1012 26 700 5.14 270 18:33 11.03.2022
3294 Clear 20 1011 24 8000 2.06 230 17:26 11.03.2022
3295 Clear 21 1010 21 7000 3.6 230 16:25 11.03.2022
3296 Clear 21 1010 21 10000 6.17 220 15:36 11.03.2022
3297 Clear 22 1009 18 8000 7.2 240 13:42 11.03.2022
3298 Dust 21 1009 24 4000 6.17 250 12:39 11.03.2022
3299 Dust 21 1009 24 4000 6.17 250 12:19 11.03.2022
3300 Clouds 20 1010 26 7000 8.23 260 10:53 11.03.2022
3301 Clouds 20 1010 26 10000 7.72 240 09:35 11.03.2022
3302 Clouds 19 1010 32 10000 5.66 260 08:28 11.03.2022
3303 Clouds 17 1010 39 10000 6.69 300 07:48 11.03.2022
3304 Clouds 16 1009 44 10000 6.17 300 06:44 11.03.2022
3305 Clouds 14 1008 47 10000 4.12 310 04:40 11.03.2022
3306 Clear 17 1006 45 10000 4.12 290 01:48 11.03.2022
3307 Clouds 18 1005 42 10000 2.06 10 22:33 10.03.2022
3308 Clear 16 1005 48 10000 2.57 340 21:54 10.03.2022
3309 Clear 16 1005 48 10000 2.57 340 21:25 10.03.2022
3310 Clear 18 1006 42 10000 2.57 330 20:36 10.03.2022
3311 Clouds 18 1006 45 8000 3.09 320 19:22 10.03.2022
3312 Clear 21 1005 37 10000 3.09 310 17:55 10.03.2022
3313 Clear 23 1005 35 10000 1.54 270 16:53 10.03.2022
3314 Clouds 24 1005 33 9000 0.51 0 15:29 10.03.2022
3315 Clouds 24 1005 31 8000 2.06 0 13:51 10.03.2022
3316 Clouds 24 1006 33 8000 2.57 340 12:43 10.03.2022
3317 Clouds 23 1006 35 8000 2.57 330 11:29 10.03.2022
3318 Clouds 22 1008 43 8000 5.14 310 09:43 10.03.2022
3319 Dust 20 1008 52 5000 5.14 300 08:39 10.03.2022
3320 Clouds 14 1007 67 6000 4.12 310 05:33 10.03.2022
3321 Clear 16 1005 55 8000 4.63 320 02:39 10.03.2022
3322 Clear 19 1004 42 10000 3.09 10 23:37 09.03.2022
3323 Clear 19 1004 39 10000 4.12 350 22:28 09.03.2022
3324 Clear 22 1004 30 10000 2.57 360 21:47 09.03.2022
3325 Clear 23 1004 27 10000 2.57 50 20:50 09.03.2022
3326 Clear 25 1005 27 10000 2.57 60 18:58 09.03.2022
3327 Clouds 25 1004 29 8000 3.09 70 17:28 09.03.2022
3328 Clouds 25 1004 29 8000 4.12 110 16:45 09.03.2022
3329 Clouds 26 1004 27 9000 5.14 130 15:37 09.03.2022
3330 Clouds 26 1004 25 9000 7.2 150 14:23 09.03.2022
3331 Clouds 27 1004 24 9000 9.77 160 13:38 09.03.2022
3332 Clear 26 1005 25 10000 10.29 150 12:20 09.03.2022
3333 Clear 26 1006 25 10000 10.8 150 11:46 09.03.2022
3334 Clear 25 1007 25 10000 9.77 150 10:54 09.03.2022
3335 Clouds 23 1008 33 9000 8.75 140 09:28 09.03.2022
3336 Clouds 19 1009 39 10000 6.69 130 08:44 09.03.2022
3337 Clouds 16 1010 51 6000 3.09 90 05:56 09.03.2022
3338 Clouds 15 1011 51 9000 2.06 90 00:58 09.03.2022
3339 Clouds 14 1012 58 10000 2.06 60 23:46 08.03.2022
3340 Clear 14 1012 58 10000 0 0 22:45 08.03.2022
3341 Clear 13 1012 58 10000 1.03 40 21:47 08.03.2022
3342 Clear 13 1012 58 10000 1.03 40 21:19 08.03.2022
3343 Clear 14 1013 51 10000 1.03 10 20:19 08.03.2022
3344 Clear 16 1013 48 10000 2.06 330 18:57 08.03.2022
3345 Clear 16 1013 48 10000 2.06 330 18:21 08.03.2022
3346 Clear 20 1012 37 10000 3.09 330 16:40 08.03.2022
3347 Clear 22 1012 35 10000 3.09 290 14:36 08.03.2022
3348 Clear 22 1012 33 10000 4.12 310 13:23 08.03.2022
3349 Clear 22 1013 33 10000 4.63 330 12:20 08.03.2022
3350 Clear 21 1013 37 10000 3.6 320 11:42 08.03.2022
3351 Clear 20 1014 40 10000 4.12 310 10:28 08.03.2022
3352 Clear 18 1014 42 10000 5.66 330 08:55 08.03.2022
3353 Clear 9 1012 71 10000 2.57 320 05:49 08.03.2022
3354 Clear 10 1011 71 10000 3.09 310 01:53 08.03.2022
3355 Clear 14 1010 58 10000 4.12 310 22:41 07.03.2022
3356 Clear 15 1010 55 10000 4.63 310 21:36 07.03.2022
3357 Clear 16 1009 55 10000 5.14 310 20:55 07.03.2022
3358 Clear 16 1009 55 10000 5.14 310 20:29 07.03.2022
3359 Clear 17 1009 55 10000 5.14 320 19:48 07.03.2022
3360 Clear 18 1008 52 10000 5.14 320 18:50 07.03.2022
3361 Clear 18 1008 52 10000 5.14 320 18:28 07.03.2022
3362 Clear 19 1008 48 10000 6.69 320 17:24 07.03.2022
3363 Clear 21 1007 46 10000 7.72 320 16:41 07.03.2022
3364 Clouds 24 1006 41 9000 8.75 320 14:49 07.03.2022
3365 Clouds 24 1005 33 8000 5.14 10 12:34 07.03.2022
3366 Clouds 24 1006 35 7000 4.12 50 11:21 07.03.2022
3367 Clear 23 1007 40 7000 4.63 60 10:26 07.03.2022
3368 Clouds 19 1008 52 8000 5.14 10 08:19 07.03.2022
3369 Clouds 17 1005 45 10000 4.63 20 01:23 07.03.2022
3370 Clear 18 1005 39 10000 5.14 80 00:20 07.03.2022
3371 Clouds 18 1006 45 10000 6.17 70 23:22 06.03.2022
3372 Clear 18 1008 42 10000 4.12 50 22:26 06.03.2022
3373 Clouds 19 1009 37 10000 4.12 360 21:24 06.03.2022
3374 Clouds 18 1009 39 10000 4.12 20 20:29 06.03.2022
3375 Clouds 18 1010 36 8000 2.06 310 19:39 06.03.2022
3376 Clouds 19 1009 37 9000 2.06 320 18:49 06.03.2022
3377 Clouds 20 1008 32 9000 4.12 50 17:46 06.03.2022
3378 Clouds 20 1008 32 9000 4.12 50 17:19 06.03.2022
3379 Clouds 20 1010 34 7000 2.57 360 16:26 06.03.2022
3380 Clouds 21 1010 32 8000 2.57 350 15:25 06.03.2022
3381 Clouds 22 1010 30 8000 3.6 320 14:42 06.03.2022
3382 Clouds 22 1011 30 8000 2.57 260 13:48 06.03.2022
3383 Clouds 23 1011 27 8000 3.09 210 12:39 06.03.2022
3384 Clouds 23 1011 25 9000 4.63 130 11:45 06.03.2022
3385 Clouds 21 1013 30 8000 5.66 120 10:39 06.03.2022
3386 Clear 20 1014 28 6000 4.12 70 09:18 06.03.2022
3387 Clear 18 1015 32 6000 3.6 70 08:27 06.03.2022
3388 Dust 17 1016 34 5000 3.6 40 07:23 06.03.2022
3389 Clear 10 1015 53 10000 2.06 350 01:54 06.03.2022
3390 Smoke 10 1015 50 7000 3.09 310 00:34 06.03.2022
3391 Clouds 11 1015 50 5000 3.09 330 23:59 05.03.2022
3392 Clouds 11 1015 50 5000 3.09 330 23:19 05.03.2022
3393 Clear 13 1015 47 10000 2.06 130 22:32 05.03.2022
3394 Clouds 14 1015 44 10000 3.6 120 21:29 05.03.2022
3395 Clear 16 1015 36 10000 3.09 120 20:27 05.03.2022
3396 Clear 17 1015 36 10000 3.6 120 19:18 05.03.2022
3397 Clouds 17 1015 36 10000 3.09 110 18:37 05.03.2022
3398 Clear 19 1015 32 10000 3.6 120 17:34 05.03.2022
3399 Clear 20 1015 28 10000 3.6 120 16:18 05.03.2022
3400 Clear 22 1015 23 10000 4.63 150 14:54 05.03.2022
3401 Clear 22 1015 23 10000 4.63 150 14:36 05.03.2022
3402 Clear 22 1015 24 10000 3.6 190 13:39 05.03.2022
3403 Clear 22 1016 24 10000 4.12 140 12:35 05.03.2022
3404 Clear 20 1017 28 10000 4.63 140 11:20 05.03.2022
3405 Clear 20 1018 28 10000 6.17 170 10:52 05.03.2022
3406 Clear 19 1019 27 10000 5.14 130 09:30 05.03.2022
3407 Clear 18 1019 27 10000 5.66 140 08:24 05.03.2022
3408 Dust 13 1019 38 5000 3.09 110 06:33 05.03.2022
3409 Dust 8 1019 57 5000 1.54 110 05:22 05.03.2022
3410 Clear 10 1017 43 9000 1.54 120 00:30 05.03.2022
3411 Clear 12 1018 37 8000 1.54 20 22:45 04.03.2022
3412 Clear 12 1018 37 8000 1.54 20 22:24 04.03.2022
3413 Clear 13 1018 35 9000 1.54 10 21:42 04.03.2022
3414 Clear 14 1019 30 8000 2.06 360 20:39 04.03.2022
3415 Clear 14 1019 30 9000 2.57 360 19:37 04.03.2022
3416 Clear 15 1018 33 10000 3.09 350 18:54 04.03.2022
3417 Clear 15 1018 33 10000 3.09 350 18:33 04.03.2022
3418 Clear 16 1017 33 10000 3.6 340 17:29 04.03.2022
3419 Clouds 19 1016 27 10000 4.63 300 15:48 04.03.2022
3420 Clouds 19 1016 27 10000 4.63 300 15:24 04.03.2022
3421 Clouds 19 1015 27 10000 4.63 290 13:35 04.03.2022
3422 Clouds 19 1016 27 10000 5.66 220 12:38 04.03.2022
3423 Clear 19 1016 27 10000 6.17 290 11:37 04.03.2022
3424 Clear 18 1017 29 10000 5.66 280 10:25 04.03.2022
3425 Clear 18 1017 32 9000 5.66 270 09:27 04.03.2022
3426 Clear 14 1016 47 8000 5.66 260 07:48 04.03.2022
3427 Dust 12 1016 50 4000 4.12 250 06:21 04.03.2022
3428 Clouds 16 1013 31 700 6.69 270 01:46 04.03.2022
3429 Clouds 18 1012 29 200 7.72 290 23:35 03.03.2022
3430 Clouds 19 1011 26 200 10.29 280 22:18 03.03.2022
3431 Clouds 21 1010 23 200 8.23 270 21:36 03.03.2022
3432 Clouds 21 1009 32 100 10.29 290 20:45 03.03.2022
3433 Clouds 23 1007 35 800 10.29 280 19:22 03.03.2022
3434 Dust 23 1006 40 3500 2.06 270 18:26 03.03.2022
3435 Dust 22 1005 43 3500 2.06 130 17:31 03.03.2022
3436 Dust 23 1003 40 1500 4.12 130 16:41 03.03.2022
3437 Dust 25 1003 33 1500 4.63 140 15:44 03.03.2022
3438 Dust 25 1003 31 2000 7.2 150 14:44 03.03.2022
3439 Dust 25 1003 31 2000 7.2 150 14:26 03.03.2022
3440 Clouds 26 1004 27 900 11.83 150 12:35 03.03.2022
3441 Dust 25 1004 29 2000 11.32 140 11:31 03.03.2022
3442 Dust 23 1005 31 2500 12.86 140 10:38 03.03.2022
3443 Dust 22 1007 28 4000 12.35 140 08:43 03.03.2022
3444 Clouds 20 1007 34 7000 11.32 110 06:58 03.03.2022
3445 Clouds 20 1008 32 10000 9.26 110 05:44 03.03.2022
3446 Clear 20 1011 30 10000 5.66 110 00:40 03.03.2022
3447 Clear 20 1012 30 10000 4.63 110 23:28 02.03.2022
3448 Clear 20 1013 32 10000 5.14 110 22:44 02.03.2022
3449 Clear 20 1013 34 10000 4.63 120 21:23 02.03.2022
3450 Clear 20 1014 40 10000 4.63 100 20:30 02.03.2022
3451 Clear 20 1014 40 10000 3.6 110 19:45 02.03.2022
3452 Clear 20 1014 40 10000 3.6 110 19:26 02.03.2022
3453 Clear 21 1014 37 10000 3.09 120 18:39 02.03.2022
3454 Clear 21 1014 37 10000 3.09 120 18:39 02.03.2022
3455 Clear 21 1014 37 10000 3.09 120 18:39 02.03.2022
3456 Clear 23 1014 35 10000 3.09 110 17:45 02.03.2022
3457 Clouds 24 1014 33 9000 3.09 130 16:54 02.03.2022
3458 Clouds 24 1014 33 9000 3.09 130 16:36 02.03.2022
3459 Clear 27 1014 26 10000 5.14 150 14:42 02.03.2022
3460 Clear 26 1014 24 10000 5.14 170 13:23 02.03.2022
3461 Clouds 26 1015 24 10000 5.14 170 12:40 02.03.2022
3462 Clear 26 1016 22 10000 6.69 170 11:39 02.03.2022
3463 Clear 26 1016 22 10000 6.69 170 11:18 02.03.2022
3464 Clouds 24 1018 29 9000 8.23 170 09:41 02.03.2022
3465 Clouds 21 1018 37 10000 6.69 160 08:51 02.03.2022
3466 Clouds 18 1019 42 10000 5.14 150 07:28 02.03.2022
3467 Clouds 15 1018 51 10000 3.09 140 05:44 02.03.2022
3468 Clouds 15 1018 51 10000 3.09 140 05:44 02.03.2022
3469 Clouds 14 1017 51 10000 4.12 140 00:58 02.03.2022
3470 Clouds 14 1017 51 10000 4.12 140 00:58 02.03.2022
3471 Clear 14 1017 51 10000 4.12 140 23:46 01.03.2022
3472 Clear 15 1017 47 10000 4.12 130 22:45 01.03.2022
3473 Clouds 16 1018 48 10000 4.12 130 21:57 01.03.2022
3474 Clouds 16 1018 48 10000 4.12 130 21:23 01.03.2022
3475 Clear 17 1018 45 10000 3.6 130 20:29 01.03.2022
3476 Clouds 18 1018 42 10000 3.6 130 19:24 01.03.2022
3477 Clouds 19 1018 39 10000 3.09 120 18:49 01.03.2022
3478 Clouds 19 1018 39 10000 3.09 120 18:19 01.03.2022
3479 Clouds 20 1018 37 10000 3.09 120 17:19 01.03.2022
3480 Clouds 22 1018 30 10000 3.09 110 16:31 01.03.2022
3481 Clouds 23 1017 28 10000 3.09 110 15:38 01.03.2022
3482 Clouds 24 1018 27 10000 2.57 140 14:34 01.03.2022
3483 Clouds 23 1019 28 10000 2.06 150 13:52 01.03.2022
3484 Clouds 23 1019 28 10000 2.06 150 13:24 01.03.2022
3485 Clouds 23 1019 28 10000 3.09 160 12:30 01.03.2022
3486 Clouds 22 1021 35 10000 3.6 160 10:34 01.03.2022
3487 Clouds 18 1022 39 10000 2.06 170 08:41 01.03.2022
3488 Clouds 16 1022 44 10000 1.03 0 07:44 01.03.2022
3489 Clouds 10 1020 62 10000 1.03 170 05:54 01.03.2022
3490 Clear 11 1019 58 10000 1.03 190 02:33 01.03.2022
3491 Clear 10 1020 62 10000 0 0 00:34 01.03.2022
3492 Clear 12 1020 58 10000 0.51 190 23:29 28.02.2022
3493 Clear 13 1020 50 10000 0 0 21:59 28.02.2022
3494 Clear 13 1020 50 10000 0 0 21:25 28.02.2022
3495 Clear 16 1020 39 10000 0.51 0 19:55 28.02.2022
3496 Clear 16 1020 39 10000 0.51 0 19:33 28.02.2022
3497 Clear 17 1020 42 10000 1.03 330 18:40 28.02.2022
3498 Clear 19 1019 34 10000 2.57 330 17:30 28.02.2022
3499 Clear 21 1019 30 10000 4.12 310 16:33 28.02.2022
3500 Clear 23 1019 25 10000 6.17 310 15:23 28.02.2022
3501 Clouds 24 1019 25 10000 6.69 300 14:31 28.02.2022
3502 Clouds 24 1019 25 10000 5.66 300 13:47 28.02.2022
3503 Clouds 24 1019 25 10000 6.69 310 12:47 28.02.2022
3504 Clear 23 1020 27 10000 6.69 300 11:57 28.02.2022
3505 Clear 22 1020 30 10000 4.63 310 10:48 28.02.2022
3506 Clear 22 1020 30 10000 4.63 310 10:20 28.02.2022
3507 Clear 21 1021 35 10000 4.12 330 09:33 28.02.2022
3508 Clear 19 1021 39 10000 3.09 340 08:32 28.02.2022
3509 Clear 16 1021 48 10000 2.57 320 07:35 28.02.2022
3510 Clouds 14 1020 49 10000 3.54 328 05:21 28.02.2022
3511 Clear 9 1020 66 10000 1.54 290 04:27 28.02.2022
3512 Clear 12 1020 54 10000 2.57 290 23:44 27.02.2022
3513 Clear 13 1020 54 10000 2.57 300 22:35 27.02.2022
3514 Clear 14 1021 47 10000 3.6 300 21:51 27.02.2022
3515 Clear 14 1021 47 10000 3.6 300 21:21 27.02.2022
3516 Clear 16 1021 41 10000 2.57 290 20:32 27.02.2022
3517 Clear 17 1021 42 10000 3.09 280 19:58 27.02.2022
3518 Clear 17 1021 42 10000 3.09 280 19:27 27.02.2022
3519 Clear 17 1021 42 10000 3.09 300 18:47 27.02.2022
3520 Clear 19 1020 39 10000 3.6 290 17:56 27.02.2022
3521 Clear 19 1020 39 10000 3.6 290 17:18 27.02.2022
3522 Clear 21 1020 37 10000 4.63 280 16:21 27.02.2022
3523 Clouds 22 1020 33 10000 5.66 300 13:34 27.02.2022
3524 Clouds 22 1020 35 10000 4.63 290 12:33 27.02.2022
3525 Clouds 21 1021 37 10000 3.6 320 11:27 27.02.2022
3526 Clouds 20 1022 42 10000 5.14 290 10:20 27.02.2022
3527 Clear 19 1022 45 10000 4.12 290 09:50 27.02.2022
3528 Clear 19 1022 45 10000 4.12 290 09:20 27.02.2022
3529 Clear 17 1022 51 10000 3.6 290 08:20 27.02.2022
3530 Clear 17 1022 51 10000 3.6 290 08:20 27.02.2022
3531 Clouds 9 1021 76 10000 2.06 300 05:39 27.02.2022
3532 Clear 10 1019 66 10000 2.06 300 02:35 27.02.2022
3533 Clear 12 1019 62 10000 0.51 270 23:34 26.02.2022
3534 Clear 12 1019 62 10000 2.57 300 22:31 26.02.2022
3535 Clear 14 1019 54 10000 2.57 310 21:19 26.02.2022
3536 Clear 14 1018 54 10000 1.54 310 20:33 26.02.2022
3537 Clear 16 1018 48 10000 1.54 350 19:52 26.02.2022
3538 Clear 16 1018 48 10000 1.54 350 19:31 26.02.2022
3539 Clear 17 1017 42 10000 1.54 320 17:55 26.02.2022
3540 Clear 17 1017 42 10000 1.54 320 17:29 26.02.2022
3541 Clouds 19 1016 37 10000 3.6 300 16:33 26.02.2022
3542 Clouds 21 1016 32 10000 4.12 260 15:26 26.02.2022
3543 Clouds 21 1016 35 10000 5.14 270 14:57 26.02.2022
3544 Clouds 21 1016 35 10000 5.14 270 14:38 26.02.2022
3545 Clear 21 1016 35 10000 3.09 260 13:40 26.02.2022
3546 Clear 20 1016 37 10000 5.14 240 12:52 26.02.2022
3547 Clear 20 1016 37 10000 5.66 230 11:38 26.02.2022
3548 Clear 19 1017 39 10000 4.63 230 10:56 26.02.2022
3549 Clouds 17 1017 48 8000 4.63 250 09:22 26.02.2022
3550 Dust 16 1017 48 5000 3.6 270 07:57 26.02.2022
3551 Dust 12 1015 58 4000 2.06 330 04:21 26.02.2022
3552 Clear 15 1014 41 10000 4.12 230 23:35 25.02.2022
3553 Clear 14 1014 47 10000 1.54 160 22:18 25.02.2022
3554 Clear 13 1013 47 10000 2.06 140 21:29 25.02.2022
3555 Clear 15 1014 41 10000 1.54 130 20:34 25.02.2022
3556 Clear 16 1013 39 10000 0 0 19:56 25.02.2022
3557 Clear 20 1012 30 10000 2.06 270 17:54 25.02.2022
3558 Clear 21 1011 28 10000 2.57 270 16:47 25.02.2022
3559 Clear 22 1011 26 10000 3.09 240 15:49 25.02.2022
3560 Clear 22 1011 26 10000 3.09 240 15:23 25.02.2022
3561 Clear 22 1011 26 10000 3.09 240 15:23 25.02.2022
3562 Clear 23 1011 25 10000 4.63 230 14:50 25.02.2022
3563 Clear 23 1011 25 10000 4.63 230 14:18 25.02.2022
3564 Clear 24 1011 22 10000 4.12 250 13:23 25.02.2022
3565 Clouds 23 1012 35 10000 4.12 300 11:56 25.02.2022
3566 Clouds 23 1012 35 10000 4.12 300 11:20 25.02.2022
3567 Clouds 22 1013 40 9000 4.12 270 10:23 25.02.2022
3568 Clouds 21 1013 43 9000 5.66 280 09:42 25.02.2022
3569 Clouds 21 1013 43 9000 5.66 280 09:42 25.02.2022
3570 Clouds 21 1013 43 9000 5.66 280 09:42 25.02.2022
3571 Dust 19 1013 42 4000 2.57 280 07:53 25.02.2022
3572 Dust 19 1013 39 2800 5.66 160 06:54 25.02.2022
3573 Clear 17 1010 42 6000 6.17 140 05:40 25.02.2022
3574 Clouds 20 1008 32 10000 8.23 120 01:23 25.02.2022
3575 Clear 20 1010 37 9000 6.69 130 22:37 24.02.2022
3576 Clear 20 1011 37 9000 6.69 130 21:50 24.02.2022
3577 Clear 20 1011 37 9000 6.69 130 21:30 24.02.2022
3578 Clear 21 1011 35 9000 6.17 120 20:44 24.02.2022
3579 Clear 21 1012 35 9000 5.66 120 19:31 24.02.2022
3580 Clear 23 1012 31 9000 5.14 110 18:20 24.02.2022
3581 Clear 23 1012 31 9000 4.63 110 17:54 24.02.2022
3582 Clear 23 1012 31 9000 4.63 110 17:20 24.02.2022
3583 Clear 24 1012 27 10000 5.14 100 16:28 24.02.2022
3584 Clear 26 1012 25 10000 5.66 90 15:43 24.02.2022
3585 Clear 26 1013 24 10000 7.2 90 14:45 24.02.2022
3586 Clear 26 1013 24 10000 6.17 100 13:59 24.02.2022
3587 Clear 26 1013 24 10000 6.17 100 13:37 24.02.2022
3588 Clear 25 1015 25 10000 7.2 100 11:38 24.02.2022
3589 Clear 25 1016 27 9000 6.17 120 10:32 24.02.2022
3590 Clear 21 1018 35 9000 3.6 90 08:43 24.02.2022
3591 Clear 18 1018 39 8000 4.12 100 07:22 24.02.2022
3592 Clear 12 1017 54 8000 2.06 90 05:40 24.02.2022
3593 Clouds 12 1017 66 6000 1.03 10 00:31 24.02.2022
3594 Clouds 13 1018 62 8000 0 0 22:22 23.02.2022
3595 Clouds 17 1018 45 8000 1.54 210 20:48 23.02.2022
3596 Clouds 17 1018 45 8000 1.54 210 20:28 23.02.2022
3597 Clouds 16 1017 48 9000 1.03 300 19:35 23.02.2022
3598 Clouds 19 1017 45 10000 1.54 110 18:27 23.02.2022
3599 Clouds 22 1016 37 10000 1.03 10 16:33 23.02.2022
3600 Clear 25 1016 29 10000 1.03 0 14:22 23.02.2022
3601 Clouds 25 1016 31 8000 2.06 0 12:37 23.02.2022
3602 Clouds 24 1017 33 8000 1.54 330 11:23 23.02.2022
3603 Clouds 23 1018 38 6000 1.03 0 10:24 23.02.2022
3604 Clouds 21 1019 43 5000 1.03 0 08:56 23.02.2022
3605 Haze 17 1019 55 4000 1.03 0 07:56 23.02.2022
3606 Clouds 10 1017 81 8000 0 0 03:47 23.02.2022
3607 Clouds 11 1017 71 10000 1.03 80 00:19 23.02.2022
3608 Clouds 12 1017 66 9000 0.51 0 23:34 22.02.2022
3609 Clear 12 1017 66 10000 0 0 22:28 22.02.2022
3610 Clear 13 1017 62 10000 0 0 21:48 22.02.2022
3611 Clear 13 1017 62 10000 0 0 21:25 22.02.2022
3612 Clear 15 1017 58 10000 0.51 360 20:49 22.02.2022
3613 Clear 15 1017 58 10000 0.51 360 20:29 22.02.2022
3614 Clear 16 1017 55 10000 1.03 350 19:34 22.02.2022
3615 Clear 17 1017 55 10000 1.54 20 18:58 22.02.2022
3616 Clear 17 1016 55 10000 2.06 330 17:36 22.02.2022
3617 Clear 17 1016 55 10000 2.06 330 17:18 22.02.2022
3618 Clear 19 1016 45 10000 2.06 340 16:36 22.02.2022
3619 Clouds 20 1015 38 10000 2.48 343 15:38 22.02.2022
3620 Clear 22 1016 40 10000 3.09 340 14:43 22.02.2022
3621 Clear 21 1017 43 10000 2.06 290 11:54 22.02.2022
3622 Clear 19 1018 52 10000 2.06 270 10:28 22.02.2022
3623 Clouds 16 1019 59 5000 1.54 240 07:48 22.02.2022
3624 Clouds 15 1019 67 5000 1.54 290 07:25 22.02.2022
3625 Clear 8 1017 81 10000 1.03 330 02:52 22.02.2022
3626 Clear 9 1017 76 10000 0.51 330 00:49 22.02.2022
3627 Clear 11 1017 66 10000 1.54 280 22:41 21.02.2022
3628 Clear 12 1018 58 10000 2.06 280 21:30 21.02.2022
3629 Clear 14 1017 58 10000 1.54 0 20:34 21.02.2022
3630 Clear 16 1017 48 10000 2.06 290 18:42 21.02.2022
3631 Clear 18 1017 42 10000 3.6 310 16:50 21.02.2022
3632 Clear 20 1016 42 10000 4.12 290 14:52 21.02.2022
3633 Clear 20 1016 42 10000 4.12 290 14:21 21.02.2022
3634 Clear 20 1016 45 10000 3.6 260 12:59 21.02.2022
3635 Clear 20 1016 45 10000 3.6 260 12:23 21.02.2022
3636 Clear 18 1017 55 10000 5.14 310 10:51 21.02.2022
3637 Clear 17 1018 59 8000 4.63 310 09:30 21.02.2022
3638 Clear 10 1016 93 10000 3.6 310 04:52 21.02.2022
3639 Clear 12 1014 76 10000 4.63 310 23:32 20.02.2022
3640 Clear 13 1013 76 10000 5.66 290 22:20 20.02.2022
3641 Clear 14 1013 72 10000 4.63 290 21:42 20.02.2022
3642 Clear 14 1013 72 10000 4.12 300 20:53 20.02.2022
3643 Clear 14 1013 72 10000 4.12 300 20:23 20.02.2022
3644 Clear 15 1012 67 10000 6.69 310 19:30 20.02.2022
3645 Clear 16 1012 67 10000 6.17 320 18:49 20.02.2022
3646 Clear 16 1012 67 10000 6.17 320 18:31 20.02.2022
3647 Clear 16 1011 63 10000 8.23 320 17:47 20.02.2022
3648 Clear 21 1009 37 10000 2.06 110 15:32 20.02.2022
3649 Clear 21 1009 35 10000 2.57 150 14:41 20.02.2022
3650 Clear 22 1008 33 10000 3.09 120 13:23 20.02.2022
3651 Clear 21 1008 35 10000 3.6 120 12:22 20.02.2022
3652 Clear 20 1009 37 10000 4.63 120 10:21 20.02.2022
3653 Clear 18 1009 42 10000 2.06 100 09:53 20.02.2022
3654 Clear 15 1008 51 10000 5.14 160 07:45 20.02.2022
3655 Clouds 16 1008 63 10000 3.09 80 00:54 20.02.2022
3656 Clouds 17 1008 51 10000 2.06 20 00:29 20.02.2022
3657 Clouds 17 1009 51 10000 1.54 20 22:44 19.02.2022
3658 Clouds 17 1009 51 10000 1.54 20 22:21 19.02.2022
3659 Clouds 18 1009 42 10000 1.03 0 20:51 19.02.2022
3660 Clouds 19 1009 39 10000 3.09 130 19:48 19.02.2022
3661 Clouds 19 1009 39 10000 3.09 130 19:25 19.02.2022
3662 Clouds 18 1008 42 10000 2.06 120 18:32 19.02.2022
3663 Clear 19 1007 37 10000 2.57 110 17:33 19.02.2022
3664 Clear 20 1007 34 10000 4.12 100 16:22 19.02.2022
3665 Clouds 22 1008 28 10000 9.77 110 14:56 19.02.2022
3666 Clouds 22 1008 28 10000 9.77 110 14:37 19.02.2022
3667 Clouds 23 1008 28 4000 9.26 110 12:50 19.02.2022
3668 Dust 22 1008 28 3000 10.29 100 11:36 19.02.2022
3669 Clouds 20 1010 28 8000 7.72 110 09:36 19.02.2022
3670 Clouds 16 1011 33 10000 4.63 80 06:53 19.02.2022
3671 Clouds 16 1011 39 10000 5.14 80 02:38 19.02.2022
3672 Clear 17 1012 36 10000 5.66 90 23:28 18.02.2022
3673 Clear 18 1012 32 10000 4.63 90 21:49 18.02.2022
3674 Clear 18 1013 34 10000 3.6 80 20:39 18.02.2022
3675 Clear 18 1012 34 10000 4.12 90 19:51 18.02.2022
3676 Clear 16 1012 41 10000 3.09 100 18:50 18.02.2022
3677 Clear 16 1012 41 10000 3.09 100 18:20 18.02.2022
3678 Clouds 18 1012 34 10000 3.09 100 17:25 18.02.2022
3679 Clouds 21 1012 24 10000 6.17 100 14:48 18.02.2022
3680 Clouds 21 1012 26 10000 5.66 120 13:54 18.02.2022
3681 Clouds 21 1012 24 10000 6.17 150 12:51 18.02.2022
3682 Clouds 21 1012 24 10000 5.66 130 11:58 18.02.2022
3683 Clouds 21 1012 24 10000 5.66 130 11:58 18.02.2022
3684 Clouds 21 1012 24 10000 5.66 130 11:58 18.02.2022
3685 Clouds 21 1012 24 10000 5.66 130 11:21 18.02.2022
3686 Clouds 18 1014 32 10000 4.63 130 09:33 18.02.2022
3687 Haze 13 1014 44 4400 2.06 130 06:52 18.02.2022
3688 Clouds 11 1014 50 6000 2.57 120 05:38 18.02.2022
3689 Clear 13 1013 41 10000 1.03 80 22:57 17.02.2022
3690 Clear 15 1014 33 10000 1.03 0 21:44 17.02.2022
3691 Clear 15 1014 36 10000 2.57 220 20:59 17.02.2022
3692 Clear 15 1014 36 10000 2.57 220 20:34 17.02.2022
3693 Clear 15 1014 33 10000 2.57 220 19:48 17.02.2022
3694 Clear 17 1014 29 10000 2.06 250 18:38 17.02.2022
3695 Clear 17 1013 27 10000 2.06 270 17:48 17.02.2022
3696 Clear 19 1013 24 10000 3.6 290 16:20 17.02.2022
3697 Clear 19 1013 24 10000 3.6 290 16:20 17.02.2022
3698 Clear 20 1013 21 10000 6.17 290 15:26 17.02.2022
3699 Clear 21 1013 21 10000 6.17 300 14:21 17.02.2022
3700 Clear 21 1014 23 10000 5.66 310 12:24 17.02.2022
3701 Clear 21 1015 26 10000 4.63 310 11:21 17.02.2022
3702 Clear 15 1017 38 10000 3.09 290 08:43 17.02.2022
3703 Clear 11 1015 50 10000 2.06 260 00:29 17.02.2022
3704 Clear 10 1015 53 10000 2.57 300 22:59 16.02.2022
3705 Clear 15 1016 40 10000 3.95 313 21:25 16.02.2022
3706 Clear 16 1016 33 10000 4.12 280 19:43 16.02.2022
3707 Clouds 16 1015 33 10000 2.57 260 18:36 16.02.2022
3708 -273 0 0 0 0 0 17:40 16.02.2022
3709 Clear 16 1016 35 10000 4.48 308 17:36 16.02.2022
3710 Clear 20 1015 26 10000 6.69 300 15:30 16.02.2022
3711 Clear 21 1015 26 10000 7.72 300 14:57 16.02.2022
3712 Clear 21 1016 24 10000 8.75 280 12:34 16.02.2022
3713 Clear 21 1016 28 10000 7.72 300 11:53 16.02.2022
3714 Clear 21 1016 28 10000 7.72 300 11:23 16.02.2022
3715 Clear 20 1017 28 10000 7.2 270 10:29 16.02.2022
3716 Clear 9 1018 61 10000 3.6 310 06:57 16.02.2022
3717 Clear 8 1017 61 10000 1.54 240 04:42 16.02.2022
3718 Clear 10 1018 53 10000 3.09 320 23:35 15.02.2022
3719 Clear 10 1018 53 10000 3.6 310 22:18 15.02.2022
3720 Clear 11 1018 54 10000 3.6 320 21:45 15.02.2022
3721 Clear 11 1018 54 10000 3.6 320 21:27 15.02.2022
3722 Clear 12 1018 50 10000 3.09 330 20:53 15.02.2022
3723 Clear 13 1018 44 10000 3.09 310 19:55 15.02.2022
3724 Clear 14 1018 41 10000 3.6 310 18:52 15.02.2022
3725 Clear 14 1018 41 10000 3.6 310 18:19 15.02.2022
3726 Clear 16 1017 39 10000 2.57 320 17:48 15.02.2022
3727 Clear 17 1017 35 10000 4.72 324 16:30 15.02.2022
3728 Clear 22 1017 24 10000 4.12 340 14:47 15.02.2022
3729 Clear 22 1017 24 10000 3.09 330 13:26 15.02.2022
3730 Clear 22 1018 26 10000 3.6 350 11:57 15.02.2022
3731 Clear 21 1019 30 10000 5.14 340 10:58 15.02.2022
3732 Clear 19 1019 37 10000 5.14 350 09:28 15.02.2022
3733 Clear 8 1019 57 7000 2.06 320 06:49 15.02.2022
3734 Clear 8 1017 53 10000 2.06 310 02:36 15.02.2022
3735 Clear 12 1017 40 6000 2.06 130 22:25 14.02.2022
3736 Smoke 12 1017 43 5000 1.54 110 21:27 14.02.2022
3737 Clear 13 1017 41 7000 2.57 120 20:30 14.02.2022
3738 Clear 13 1016 35 10000 1.03 0 19:32 14.02.2022
3739 Clear 15 1016 33 10000 0.51 70 18:30 14.02.2022
3740 Clear 17 1016 29 10000 0.51 0 17:58 14.02.2022
3741 Clear 17 1016 29 10000 0.51 0 17:24 14.02.2022
3742 Clear 22 1015 21 10000 4.12 330 15:59 14.02.2022
3743 Clear 23 1015 18 10000 3.6 290 13:44 14.02.2022
3744 Clear 23 1015 18 10000 3.6 290 13:23 14.02.2022
3745 Clear 23 1015 17 10000 4.12 280 12:32 14.02.2022
3746 Clear 22 1016 17 10000 5.14 290 11:54 14.02.2022
3747 Clear 21 1017 23 10000 4.63 280 10:37 14.02.2022
3748 Clear 15 1017 38 10000 4.12 270 08:43 14.02.2022
3749 Clear 11 1017 50 10000 3.6 280 07:30 14.02.2022
3750 Clear 8 1015 53 10000 3.6 300 23:45 13.02.2022
3751 Clear 9 1016 49 10000 2.57 290 22:42 13.02.2022
3752 Clear 9 1016 49 10000 2.57 290 22:23 13.02.2022
3753 Clear 11 1016 43 10000 3.6 290 21:30 13.02.2022
3754 Clear 11 1016 40 10000 3.6 300 20:33 13.02.2022
3755 Clear 14 1016 35 10000 4.12 290 19:30 13.02.2022
3756 Clear 14 1016 33 10000 4.12 300 18:46 13.02.2022
3757 Clear 14 1016 33 10000 4.12 300 18:26 13.02.2022
3758 Clear 22 1016 20 10000 7.72 310 15:54 13.02.2022
3759 Clear 22 1016 20 10000 7.72 310 15:24 13.02.2022
3760 Clear 22 1016 23 10000 8.23 310 14:22 13.02.2022
3761 Clear 22 1017 21 10000 7.72 310 12:51 13.02.2022
3762 Clear 21 1016 19 10000 7.13 319 11:44 13.02.2022
3763 Clear 21 1018 24 10000 7.72 300 10:33 13.02.2022
3764 Clear 18 1019 32 10000 6.69 300 09:45 13.02.2022
3765 Clear 12 1021 47 10000 5.66 300 07:49 13.02.2022
3766 Clear 10 1020 46 10000 4.63 310 00:35 13.02.2022
3767 Clear 9 1020 46 10000 4.12 310 23:42 12.02.2022
3768 Clear 10 1020 46 10000 3.09 310 22:33 12.02.2022
3769 Clear 12 1020 40 10000 4.63 310 21:30 12.02.2022
3770 Clear 12 1021 40 10000 4.12 310 20:45 12.02.2022
3771 Clear 13 1020 41 10000 4.12 310 19:35 12.02.2022
3772 Clear 14 1020 38 10000 4.12 300 18:53 12.02.2022
3773 Clear 14 1020 38 10000 4.12 300 18:35 12.02.2022
3774 Clear 15 1020 38 10000 3.6 300 17:20 12.02.2022
3775 Clear 18 1019 32 10000 4.63 310 16:29 12.02.2022
3776 Clear 20 1019 28 10000 6.17 330 15:51 12.02.2022
3777 Clear 20 1019 30 10000 7.2 320 14:44 12.02.2022
3778 Clear 20 1019 30 10000 7.2 320 14:24 12.02.2022
3779 Clear 19 1019 32 10000 7.2 310 11:18 12.02.2022
3780 Clear 15 1021 44 10000 6.69 310 09:51 12.02.2022
3781 Clear 15 1021 44 10000 6.69 310 09:27 12.02.2022
3782 Clear 13 1021 47 10000 6.69 310 08:45 12.02.2022
3783 Clear 8 1019 66 10000 4.63 300 05:40 12.02.2022
3784 Clear 8 1018 66 10000 4.63 310 04:33 12.02.2022
3785 Clear 8 1018 66 10000 4.12 310 02:18 12.02.2022
3786 Clear 11 1018 66 10000 5.14 300 22:55 11.02.2022
3787 Clear 11 1018 66 10000 5.14 300 22:20 11.02.2022
3788 Clouds 13 1017 58 10000 4.63 310 20:43 11.02.2022
3789 Clouds 15 1017 55 10000 4.63 20 19:50 11.02.2022
3790 Clouds 15 1017 55 10000 4.63 20 19:27 11.02.2022
3791 Clouds 15 1017 41 10000 3.6 350 18:28 11.02.2022
3792 Clouds 17 1016 36 10000 3.09 290 17:26 11.02.2022
3793 Clouds 18 1016 34 10000 3.09 280 16:26 11.02.2022
3794 Clouds 20 1015 30 10000 3.09 260 14:59 11.02.2022
3795 Clouds 20 1015 30 10000 3.09 260 14:37 11.02.2022
3796 Clouds 20 1015 30 10000 3.09 260 14:18 11.02.2022
3797 Clouds 20 1015 30 10000 3.6 220 13:40 11.02.2022
3798 Clouds 20 1015 32 10000 3.6 240 12:20 11.02.2022
3799 Clouds 19 1017 37 10000 0.51 0 10:30 11.02.2022
3800 Clear 17 1017 39 10000 1.54 330 09:22 11.02.2022
3801 Clear 15 1018 44 10000 2.06 330 08:28 11.02.2022
3802 Clear 13 1017 50 10000 1.54 300 07:39 11.02.2022
3803 Clear 8 1015 61 10000 2.57 120 02:40 11.02.2022
3804 Clear 8 1015 61 10000 2.57 120 02:20 11.02.2022
3805 Clear 10 1015 62 8000 1.03 0 23:40 10.02.2022
3806 Clear 9 1016 71 10000 1.54 20 21:55 10.02.2022
3807 Clear 9 1016 71 10000 1.54 20 21:26 10.02.2022
3808 Clear 11 1016 62 10000 1.54 40 20:48 10.02.2022
3809 Clear 14 1016 36 10000 2.14 8 19:49 10.02.2022
3810 Clear 15 1015 35 10000 2.4 351 19:20 10.02.2022
3811 Clear 15 1015 47 10000 2.06 270 17:43 10.02.2022
3812 Clear 15 1015 47 10000 2.06 270 17:20 10.02.2022
3813 Clear 18 1014 42 10000 1.54 250 16:30 10.02.2022
3814 Clear 20 1013 37 10000 2.57 240 15:37 10.02.2022
3815 Clear 20 1013 37 10000 2.57 240 15:18 10.02.2022
3816 Clouds 20 1013 37 10000 2.57 170 14:33 10.02.2022
3817 Clouds 20 1012 34 10000 2.06 200 13:33 10.02.2022
3818 Clouds 19 1012 37 8000 1.03 190 12:53 10.02.2022
3819 Clouds 18 1013 42 10000 6.17 150 11:48 10.02.2022
3820 Clouds 18 1013 42 10000 6.17 150 11:28 10.02.2022
3821 Clouds 16 1014 55 10000 4.12 140 10:21 10.02.2022
3822 Clouds 14 1014 62 10000 4.63 140 09:37 10.02.2022
3823 Clouds 14 1014 58 10000 7.2 140 08:21 10.02.2022
3824 Clouds 15 1012 47 10000 9.26 130 06:19 10.02.2022
3825 Clouds 16 1011 41 10000 9.26 130 02:28 10.02.2022
3826 Clouds 17 1012 36 10000 8.75 130 00:51 10.02.2022
3827 Clouds 17 1012 36 10000 8.75 130 00:30 10.02.2022
3828 Clouds 17 1011 34 10000 9.77 130 23:53 09.02.2022
3829 Clear 17 1012 36 10000 7.72 130 22:51 09.02.2022
3830 Clear 17 1012 36 10000 7.72 130 22:30 09.02.2022
3831 Clear 17 1013 36 10000 7.72 120 21:45 09.02.2022
3832 Clear 17 1013 36 10000 7.72 120 21:24 09.02.2022
3833 Clouds 17 1014 34 10000 8.56 127 20:41 09.02.2022
3834 Clouds 17 1015 36 10000 6.96 130 20:21 09.02.2022
3835 Clouds 17 1015 36 10000 6.96 130 20:21 09.02.2022
3836 Clear 18 1014 34 10000 7.2 120 19:39 09.02.2022
3837 Clear 18 1015 34 10000 5.66 120 17:50 09.02.2022
3838 Clear 19 1015 34 10000 5.14 120 16:54 09.02.2022
3839 Clear 21 1015 30 10000 6.69 130 15:56 09.02.2022
3840 Clear 21 1015 30 10000 6.69 130 15:22 09.02.2022
3841 Clear 22 1017 28 10000 6.17 150 12:42 09.02.2022
3842 Clear 22 1018 28 10000 4.12 140 11:20 09.02.2022
3843 Clear 20 1019 32 10000 4.12 170 10:32 09.02.2022
3844 Clear 19 1021 34 10000 3.6 150 09:45 09.02.2022
3845 Clear 19 1021 34 10000 3.6 150 09:20 09.02.2022
3846 Clear 16 1021 39 10000 3.6 130 08:43 09.02.2022
3847 Clear 5 1021 70 10000 2.57 170 05:37 09.02.2022
3848 Clouds 7 1020 61 8000 2.06 130 03:51 09.02.2022
3849 Dust 10 1021 53 4900 1.54 100 01:33 09.02.2022
3850 Clear 11 1021 54 10000 2.06 70 23:39 08.02.2022
3851 Clear 12 1021 47 10000 2.57 90 22:53 08.02.2022
3852 Clear 12 1021 47 10000 2.57 90 22:22 08.02.2022
3853 Clear 13 1021 47 10000 2.57 80 21:58 08.02.2022
3854 Clear 13 1021 47 10000 2.57 80 21:22 08.02.2022
3855 Clear 15 1022 41 10000 2.57 60 20:56 08.02.2022
3856 Clear 15 1022 41 10000 2.57 60 20:23 08.02.2022
3857 Clouds 15 1022 42 10000 3.44 60 18:55 08.02.2022
3858 Clear 17 1022 36 10000 2.57 60 17:50 08.02.2022
3859 Clear 18 1021 34 10000 0 0 16:42 08.02.2022
3860 Clear 20 1021 30 10000 1.54 250 15:39 08.02.2022
3861 Clear 20 1021 30 10000 1.54 230 14:57 08.02.2022
3862 Clear 20 1021 28 10000 1.03 0 13:30 08.02.2022
3863 Clear 20 1022 28 10000 2.57 180 12:21 08.02.2022
3864 Clear 19 1023 30 10000 1.54 0 10:47 08.02.2022
3865 Clear 18 1024 29 10000 1.54 0 09:46 08.02.2022
3866 Clear 16 1025 36 10000 1.54 90 08:34 08.02.2022
3867 Clear 6 1024 65 7000 1.03 0 05:46 08.02.2022
3868 Clear 6 1024 65 9000 1.03 0 04:40 08.02.2022
3869 Clear 6 1024 65 9000 1.03 0 04:22 08.02.2022
3870 Clear 5 1023 70 10000 0 0 03:36 08.02.2022
3871 Clear 5 1023 70 10000 0 0 03:18 08.02.2022
3872 Clear 7 1023 65 10000 0.51 40 02:59 08.02.2022
3873 Clear 7 1023 65 10000 0.51 40 02:36 08.02.2022
3874 Clear 7 1023 65 10000 0.51 40 02:18 08.02.2022
3875 Clouds 9 1023 57 10000 1.03 0 01:44 08.02.2022
3876 Clouds 9 1023 57 10000 1.03 0 01:24 08.02.2022
3877 Clear 9 1023 57 10000 1.03 350 00:55 08.02.2022
3878 Clear 9 1023 57 10000 1.03 350 00:19 08.02.2022
3879 Clear 10 1023 50 10000 1.03 350 23:43 07.02.2022
3880 Clear 10 1023 50 10000 1.03 350 23:18 07.02.2022
3881 Clear 10 1023 53 10000 1.03 340 22:59 07.02.2022
3882 Clear 10 1023 53 10000 1.03 340 22:18 07.02.2022
3883 Clear 11 1024 50 10000 1.03 330 21:49 07.02.2022
3884 Clear 11 1024 50 10000 1.03 330 21:27 07.02.2022
3885 Clear 13 1023 44 10000 2.57 20 20:41 07.02.2022
3886 Clear 13 1023 44 10000 2.57 20 20:18 07.02.2022
3887 Clear 13 1023 41 10000 2.57 20 19:46 07.02.2022
3888 Clear 13 1023 41 10000 2.06 20 18:24 07.02.2022
3889 Clear 15 1022 38 10000 2.06 350 16:53 07.02.2022
3890 Clear 15 1022 38 10000 2.06 350 16:21 07.02.2022
3891 Clear 17 1022 34 10000 1.54 40 15:48 07.02.2022
3892 Clear 18 1022 34 10000 3.09 300 13:39 07.02.2022
3893 Clear 18 1022 34 10000 3.09 300 13:21 07.02.2022
3894 Clear 17 1022 34 10000 2.57 260 11:58 07.02.2022
3895 Clear 17 1022 34 10000 2.57 260 11:38 07.02.2022
3896 Clear 16 1023 39 10000 2.57 280 10:53 07.02.2022
3897 Clear 16 1023 39 10000 2.57 280 10:33 07.02.2022
3898 Clear 15 1024 44 10000 1.54 0 09:53 07.02.2022
3899 Clear 15 1024 44 10000 1.54 0 09:18 07.02.2022
3900 Clear 12 1024 54 10000 2.06 260 08:44 07.02.2022
3901 Clouds 10 1024 53 10000 1.54 320 07:30 07.02.2022
3902 Clear 7 1023 61 10000 0.51 0 06:34 07.02.2022
3903 Clear 5 1022 75 10000 1.03 310 03:49 07.02.2022
3904 Clear 6 1022 70 10000 1.54 280 00:54 07.02.2022
3905 Clear 7 1022 61 10000 0.51 0 23:50 06.02.2022
3906 Clear 7 1022 61 10000 0.51 0 23:50 06.02.2022
3907 Clear 7 1022 61 10000 0.51 0 23:19 06.02.2022
3908 Clear 7 1023 57 10000 1.03 250 22:34 06.02.2022
3909 Clear 9 1023 49 10000 1.03 0 21:36 06.02.2022
3910 Clear 9 1023 53 10000 1.54 300 20:58 06.02.2022
3911 Clear 9 1023 53 10000 1.54 300 20:36 06.02.2022
3912 Clear 11 1023 46 10000 1.03 300 19:46 06.02.2022
3913 Clear 12 1023 43 10000 1.54 340 18:50 06.02.2022
3914 Clear 12 1023 43 10000 1.54 340 18:24 06.02.2022
3915 Clear 12 1022 40 10000 2.57 330 17:29 06.02.2022
3916 Clear 14 1022 35 10000 3.6 320 16:50 06.02.2022
3917 Clear 16 1022 29 10000 5.14 300 15:50 06.02.2022
3918 Clear 16 1022 29 10000 5.14 300 15:28 06.02.2022
3919 Clear 17 1021 27 10000 6.17 290 14:52 06.02.2022
3920 Clear 17 1021 25 10000 6.17 290 13:53 06.02.2022
3921 Clear 17 1021 25 10000 6.17 290 13:20 06.02.2022
3922 Clear 17 1022 31 10000 5.14 290 11:44 06.02.2022
3923 Clear 16 1023 29 10000 4.63 280 10:31 06.02.2022
3924 Clear 15 1023 38 10000 4.22 309 09:26 06.02.2022
3925 Clear 12 1023 54 10000 3.09 270 08:41 06.02.2022
3926 Clear 7 1022 70 10000 1.03 0 06:19 06.02.2022
3927 Clear 6 1021 81 10000 1.54 270 04:51 06.02.2022
3928 Clear 7 1020 76 10000 2.06 290 02:25 06.02.2022
3929 Clear 7 1020 81 10000 1.03 0 00:30 06.02.2022
3930 Clear 6 1019 87 10000 1.03 0 23:25 05.02.2022
3931 Clear 9 1019 71 10000 1.54 160 21:43 05.02.2022
3932 Clear 10 1019 66 10000 1.03 0 20:26 05.02.2022
3933 Clear 11 1018 62 10000 0.51 0 19:51 05.02.2022
3934 Clear 11 1018 62 10000 0.51 0 19:33 05.02.2022
3935 Clear 12 1018 58 10000 1.03 280 18:26 05.02.2022
3936 Clear 12 1017 58 10000 2.57 310 17:33 05.02.2022
3937 Clouds 16 1016 48 10000 3.09 310 15:43 05.02.2022
3938 Clouds 16 1016 48 10000 3.09 310 15:25 05.02.2022
3939 Clouds 16 1015 48 10000 2.57 320 13:24 05.02.2022
3940 Clouds 16 1015 44 10000 3.6 260 12:42 05.02.2022
3941 Clouds 15 1016 47 10000 4.12 310 11:18 05.02.2022
3942 Clear 14 1016 51 10000 3.09 290 10:43 05.02.2022
3943 Clear 13 1016 54 10000 3.6 240 09:49 05.02.2022
3944 Clear 11 1016 58 10000 3.09 260 08:21 05.02.2022
3945 Clear 11 1016 58 10000 3.09 260 08:21 05.02.2022
3946 Clear 7 1015 70 10000 2.06 250 06:58 05.02.2022
3947 Clear 5 1014 75 10000 2.57 230 05:38 05.02.2022
3948 Clear 8 1012 71 10000 1.54 250 01:40 05.02.2022
3949 Clear 8 1012 71 10000 1.54 250 01:18 05.02.2022
3950 Clear 10 1011 66 10000 2.06 250 23:59 04.02.2022
3951 Clear 10 1011 66 10000 2.06 250 23:33 04.02.2022
3952 Clear 11 1011 66 10000 3.09 230 22:18 04.02.2022
3953 Clouds 12 1012 62 10000 2.57 250 21:36 04.02.2022
3954 Clouds 12 1012 62 10000 2.57 250 21:18 04.02.2022
3955 Clouds 13 1011 58 10000 2.57 220 20:21 04.02.2022
3956 Clouds 15 1011 47 10000 8.23 280 18:27 04.02.2022
3957 Clouds 17 1008 42 10000 8.23 300 15:55 04.02.2022
3958 Dust 18 1007 42 4000 8.75 300 14:56 04.02.2022
3959 Dust 18 1007 42 4000 8.75 300 14:24 04.02.2022
3960 Clear 19 1007 37 9000 3.09 320 12:43 04.02.2022
3961 Clear 18 1007 45 10000 4.12 270 11:43 04.02.2022
3962 Clear 17 1008 45 10000 5.66 240 10:48 04.02.2022
3963 Clear 16 1009 51 10000 6.17 170 08:50 04.02.2022
3964 Clouds 13 1009 58 10000 3.09 160 06:58 04.02.2022
3965 Clouds 14 1009 54 10000 7.2 140 02:51 04.02.2022
3966 Clouds 13 1010 58 10000 6.17 130 01:56 04.02.2022
3967 Clear 13 1011 58 10000 5.66 130 23:31 03.02.2022
3968 Clouds 15 1012 47 10000 6.69 130 22:48 03.02.2022
3969 Clouds 15 1012 47 10000 6.17 130 21:50 03.02.2022
3970 Clouds 16 1012 44 10000 6.17 130 20:43 03.02.2022
3971 Clouds 16 1012 44 10000 6.17 130 20:20 03.02.2022
3972 Clouds 11 1016 54 8000 3.09 310 19:34 03.02.2022
3973 Clouds 18 1013 34 10000 7.2 140 18:44 03.02.2022
3974 Clouds 18 1013 34 10000 7.2 140 17:42 03.02.2022
3975 Clouds 18 1013 34 10000 6.17 130 16:35 03.02.2022
3976 Clouds 19 1014 32 10000 7.2 130 14:54 03.02.2022
3977 Clouds 18 1015 34 10000 8.23 130 13:18 03.02.2022
3978 Clouds 17 1017 42 10000 6.69 120 11:43 03.02.2022
3979 Clouds 13 1021 54 6000 3.09 70 08:38 03.02.2022
3980 Mist 10 1021 66 3600 3.09 90 07:20 03.02.2022
3981 Clear 6 1022 81 10000 0.51 0 00:33 03.02.2022
3982 Clear 6 1022 93 10000 1.03 330 23:45 02.02.2022
3983 Clear 7 1023 87 10000 1.03 300 22:35 02.02.2022
3984 Clear 8 1023 71 10000 1.54 310 21:37 02.02.2022
3985 Clear 8 1023 71 10000 1.54 310 21:37 02.02.2022
3986 Clear 9 1023 71 10000 2.06 320 20:53 02.02.2022
3987 Clear 9 1024 66 10000 1.54 280 19:59 02.02.2022
3988 Clear 9 1024 66 10000 1.54 280 19:32 02.02.2022
3989 Clear 12 1023 54 10000 2.06 260 18:50 02.02.2022
3990 Clear 12 1023 54 10000 2.06 260 18:22 02.02.2022
3991 Clear 12 1023 54 10000 1.03 310 17:20 02.02.2022
3992 Clear 14 1022 47 10000 2.06 320 16:46 02.02.2022
3993 Clear 17 1023 36 10000 3.09 290 13:57 02.02.2022
3994 Clear 17 1024 39 10000 4.63 300 12:25 02.02.2022
3995 Clear 16 1024 51 10000 4.12 310 11:34 02.02.2022
3996 Clear 15 1025 58 10000 4.63 300 10:38 02.02.2022
3997 Clouds 8 1026 100 7000 2.06 300 07:40 02.02.2022
3998 Clear 7 1024 100 10000 1.54 290 22:52 01.02.2022
3999 Clear 8 1024 87 10000 1.54 290 21:52 01.02.2022
4000 Clear 9 1024 76 10000 1.54 250 20:36 01.02.2022
4001 Clear 12 1023 66 10000 2.57 280 17:59 01.02.2022
4002 Clear 12 1022 66 10000 2.57 300 16:42 01.02.2022
4003 Clouds 15 1021 55 10000 5.14 340 14:49 01.02.2022
4004 Clouds 14 1020 58 10000 7.2 350 12:47 01.02.2022
4005 Clouds 14 1020 62 10000 6.17 340 11:34 01.02.2022
4006 Clouds 8 1018 100 10000 3.09 340 05:43 01.02.2022
4007 Clear 9 1014 93 10000 3.6 360 23:51 31.01.2022
4008 Clear 9 1014 93 10000 3.6 360 23:28 31.01.2022
4009 Clouds 9 1014 100 8000 4.63 350 22:26 31.01.2022
4010 Clouds 9 1015 93 10000 5.14 340 21:33 31.01.2022
4011 Clouds 10 1015 81 10000 5.14 20 20:33 31.01.2022
4012 Clouds 10 1016 87 10000 2.57 340 19:46 31.01.2022
4013 Clouds 11 1016 62 8000 1.54 250 18:29 31.01.2022
4014 Clouds 13 1015 44 10000 3.09 130 17:46 31.01.2022
4015 Clouds 15 1014 31 10000 1.54 0 16:48 31.01.2022
4016 Clouds 16 1014 25 10000 1.54 20 15:44 31.01.2022
4017 Clouds 15 1015 27 10000 3.53 46 14:25 31.01.2022
4018 Clouds 15 1016 27 10000 3.32 46 12:51 31.01.2022
4019 Clouds 15 1016 27 10000 2.8 48 11:59 31.01.2022
4020 Clouds 15 1017 29 10000 3.34 35 10:52 31.01.2022
4021 Clouds 15 1017 29 10000 3.34 35 10:34 31.01.2022
4022 Clear 16 1019 23 10000 4.12 70 09:34 31.01.2022
4023 Clouds 15 1020 29 9000 3.6 30 08:52 31.01.2022
4024 Clouds 15 1020 29 9000 3.6 30 08:20 31.01.2022
4025 Clear 4 1020 65 10000 0.51 160 06:36 31.01.2022
4026 Clear 4 1020 75 10000 1.03 50 05:24 31.01.2022
4027 Clear 7 1021 65 10000 1.54 10 23:30 30.01.2022
4028 Clear 7 1021 70 10000 1.54 20 22:30 30.01.2022
4029 Clear 7 1022 57 10000 1.03 350 21:44 30.01.2022
4030 Clear 7 1022 57 10000 1.03 350 21:21 30.01.2022
4031 Clear 8 1022 57 10000 1.54 350 20:50 30.01.2022
4032 Clear 8 1022 57 10000 1.54 350 20:30 30.01.2022
4033 Clear 11 1022 50 10000 2.06 360 19:54 30.01.2022
4034 Clear 11 1021 50 10000 2.06 340 18:51 30.01.2022
4035 Clear 11 1021 50 10000 2.06 340 18:21 30.01.2022
4036 Clear 12 1021 47 10000 2.57 340 17:30 30.01.2022
4037 Clouds 14 1021 41 10000 2.06 340 16:42 30.01.2022
4038 Clouds 14 1021 41 10000 2.06 340 16:22 30.01.2022
4039 Clouds 16 1020 31 10000 4.63 320 15:54 30.01.2022
4040 Clouds 16 1020 31 10000 4.63 320 15:32 30.01.2022
4041 Clouds 18 1021 27 10000 3.09 240 14:47 30.01.2022
4042 Clouds 18 1021 29 10000 4.12 250 13:37 30.01.2022
4043 Clear 18 1021 29 10000 2.06 270 12:41 30.01.2022
4044 Clear 17 1022 34 10000 2.06 110 10:39 30.01.2022
4045 Clear 15 1023 44 5000 0.51 0 09:58 30.01.2022
4046 Clear 15 1023 44 5000 0.51 0 09:21 30.01.2022
4047 Clear 9 1024 61 5000 1.03 0 07:57 30.01.2022
4048 Clear 4 1023 81 8000 2.06 270 02:44 30.01.2022
4049 Clear 5 1023 81 9000 0 0 01:52 30.01.2022
4050 Clear 4 1023 75 10000 1.03 290 23:46 29.01.2022
4051 Clear 6 1024 65 10000 2.06 140 22:50 29.01.2022
4052 Clear 7 1024 65 10000 1.54 330 21:29 29.01.2022
4053 Clear 8 1024 57 10000 1.03 330 20:53 29.01.2022
4054 Clear 7 1023 57 10000 1.03 330 19:51 29.01.2022
4055 Clear 7 1023 57 10000 1.03 330 19:30 29.01.2022
4056 Clear 10 1023 53 10000 1.54 330 18:43 29.01.2022
4057 Clear 12 1023 47 10000 2.06 280 17:46 29.01.2022
4058 Clouds 15 1023 38 10000 2.06 260 16:44 29.01.2022
4059 Clouds 16 1022 36 10000 2.57 290 15:25 29.01.2022
4060 Clouds 17 1022 34 10000 4.63 280 13:48 29.01.2022
4061 Clouds 17 1022 34 10000 4.63 280 13:26 29.01.2022
4062 Clouds 16 1022 36 10000 2.06 200 12:52 29.01.2022
4063 Clouds 15 1023 38 10000 4.12 190 11:39 29.01.2022
4064 Clouds 14 1023 47 10000 5.66 160 10:32 29.01.2022
4065 Clear 11 1024 54 10000 3.6 120 07:57 29.01.2022
4066 Clouds 6 1023 61 9000 0.51 70 01:38 29.01.2022
4067 Clouds 6 1023 70 9000 1.54 70 00:31 29.01.2022
4068 Clear 6 1023 61 10000 1.03 100 23:29 28.01.2022
4069 Clouds 10 1023 45 10000 1.48 38 22:46 28.01.2022
4070 Clouds 10 1023 44 10000 1.31 22 22:19 28.01.2022
4071 Clear 7 1024 57 10000 0.51 0 20:41 28.01.2022
4072 Clear 9 1024 49 10000 1.03 240 19:56 28.01.2022
4073 Clear 9 1024 49 10000 1.54 10 18:52 28.01.2022
4074 Clear 9 1024 46 10000 0 0 17:52 28.01.2022
4075 Clear 14 1023 35 10000 2.57 250 15:50 28.01.2022
4076 Clear 14 1023 35 10000 3.6 220 14:46 28.01.2022
4077 Clouds 14 1023 38 10000 3.6 240 12:41 28.01.2022
4078 Clear 14 1024 38 10000 3.6 260 11:43 28.01.2022
4079 Clear 13 1025 47 10000 1.54 0 10:26 28.01.2022
4080 Clear 12 1025 50 10000 1.54 230 09:46 28.01.2022
4081 Clear 8 1025 57 10000 3.09 250 07:41 28.01.2022
4082 Clear 2 1023 75 10000 1.03 230 05:31 28.01.2022
4083 Clear 3 1022 70 10000 1.54 270 03:50 28.01.2022
4084 Clear 5 1021 65 10000 2.06 290 02:24 28.01.2022
4085 Clear 7 1021 57 10000 2.57 280 01:35 28.01.2022
4086 Clear 7 1021 57 7000 2.06 260 00:39 28.01.2022
4087 Dust 9 1020 49 3800 3.6 240 22:18 27.01.2022
4088 Dust 9 1019 46 4000 2.57 230 21:34 27.01.2022
4089 Dust 11 1019 40 4400 2.06 230 20:58 27.01.2022
4090 Dust 12 1018 40 4800 2.57 240 19:37 27.01.2022
4091 Dust 11 1018 46 3500 2.57 200 18:18 27.01.2022
4092 Dust 14 1016 38 3500 2.57 200 16:45 27.01.2022
4093 Dust 15 1015 33 4000 6.17 240 13:48 27.01.2022
4094 Clouds 15 1014 33 6000 6.69 260 12:48 27.01.2022
4095 Clouds 15 1015 36 10000 6.69 250 11:24 27.01.2022
4096 Clouds 12 1016 47 10000 6.69 250 09:47 27.01.2022
4097 Clouds 10 1015 50 10000 5.66 220 08:39 27.01.2022
4098 Clouds 8 1015 49 10000 4.63 240 07:23 27.01.2022
4099 Clear 7 1011 57 10000 3.6 220 02:59 27.01.2022
4100 Clear 7 1010 57 10000 2.57 200 00:23 27.01.2022
4101 Clear 10 1011 37 7000 5.14 260 22:27 26.01.2022
4102 Clear 11 1010 46 10000 4.12 170 21:42 26.01.2022
4103 Clear 10 1010 46 10000 3.6 120 20:42 26.01.2022
4104 Clear 10 1010 46 10000 3.6 120 20:24 26.01.2022
4105 Clear 12 1010 50 10000 1.54 90 19:28 26.01.2022
4106 Clear 13 1010 41 10000 1.54 120 18:46 26.01.2022
4107 Clear 16 1010 36 10000 2.06 110 17:53 26.01.2022
4108 Clear 16 1010 36 10000 2.06 110 17:32 26.01.2022
4109 Clear 16 1010 36 10000 2.06 100 16:46 26.01.2022
4110 Clouds 18 1010 29 10000 3.09 110 15:50 26.01.2022
4111 Clear 20 1010 26 10000 4.12 110 14:30 26.01.2022
4112 Clear 19 1013 30 10000 4.63 120 11:59 26.01.2022
4113 Clear 18 1014 32 10000 3.6 80 10:49 26.01.2022
4114 Clouds 16 1016 36 9000 3.09 90 09:50 26.01.2022
4115 Haze 14 1017 44 4700 2.06 110 08:32 26.01.2022
4116 Clear 4 1018 65 10000 1.03 0 06:27 26.01.2022
4117 Clear 4 1018 65 10000 1.03 0 06:27 26.01.2022
4118 Clear 4 1018 65 10000 1.03 0 06:27 26.01.2022
4119 Clear 5 1018 75 9000 1.03 360 00:21 26.01.2022
4120 Clear 5 1019 70 10000 1.03 320 23:34 25.01.2022
4121 Clear 6 1019 65 10000 0 0 22:48 25.01.2022
4122 Clear 6 1019 65 10000 0 0 22:18 25.01.2022
4123 Clear 7 1019 57 10000 1.03 280 21:23 25.01.2022
4124 Clear 8 1020 57 8000 1.54 290 20:45 25.01.2022
4125 Clear 10 1020 50 10000 1.03 320 19:54 25.01.2022
4126 Clear 11 1020 46 10000 2.06 320 18:50 25.01.2022
4127 Clear 12 1020 40 10000 2.57 280 17:47 25.01.2022
4128 Clear 12 1020 40 10000 2.57 280 17:18 25.01.2022
4129 Clear 15 1020 33 10000 2.06 270 16:34 25.01.2022
4130 Clear 15 1020 32 10000 2.93 3 15:39 25.01.2022
4131 Clear 19 1019 26 10000 3.6 250 14:58 25.01.2022
4132 Clear 19 1019 26 10000 3.6 250 14:38 25.01.2022
4133 Clear 18 1020 32 10000 2.57 230 11:30 25.01.2022
4134 Clear 16 1022 33 10000 1.54 160 09:21 25.01.2022
4135 Clear 9 1022 46 9000 1.03 200 07:46 25.01.2022
4136 Haze 6 1022 56 3500 1.03 0 06:54 25.01.2022
4137 Smoke 4 1022 65 3800 1.03 130 05:23 25.01.2022
4138 Smoke 5 1022 60 5000 2.06 220 00:28 25.01.2022
4139 Smoke 5 1021 60 5000 1.03 10 23:36 24.01.2022
4140 Smoke 5 1021 60 5000 1.03 10 23:18 24.01.2022
4141 Smoke 5 1021 60 5000 1.03 10 23:18 24.01.2022
4142 Clear 6 1022 56 10000 0 0 22:42 24.01.2022
4143 Clear 7 1021 53 10000 1.03 0 21:57 24.01.2022
4144 Clear 7 1021 53 10000 1.03 0 21:32 24.01.2022
4145 Clear 8 1021 66 10000 1.54 100 20:34 24.01.2022
4146 Clear 9 1021 46 10000 1.03 150 19:58 24.01.2022
4147 Clear 9 1021 46 10000 1.03 150 19:37 24.01.2022
4148 Clear 10 1021 43 10000 0.51 0 18:37 24.01.2022
4149 Clear 11 1020 37 10000 0.51 0 17:24 24.01.2022
4150 Clear 13 1020 35 10000 1.03 220 16:58 24.01.2022
4151 Clear 13 1020 35 10000 1.03 220 16:58 24.01.2022
4152 Clear 13 1020 35 10000 1.03 220 16:58 24.01.2022
4153 Clear 13 1020 35 10000 1.03 220 16:30 24.01.2022
4154 Clear 18 1019 25 10000 2.06 180 14:54 24.01.2022
4155 Clear 18 1018 25 10000 2.57 220 13:38 24.01.2022
4156 Clear 18 1019 25 10000 2.57 220 12:32 24.01.2022
4157 Clear 16 1019 27 10000 3.09 180 11:21 24.01.2022
4158 Clear 15 1020 22 10000 1.91 160 09:50 24.01.2022
4159 Clear 13 1020 24 10000 2.01 156 09:25 24.01.2022
4160 Clear 8 1020 46 10000 3.6 110 07:28 24.01.2022
4161 Clear 6 1019 56 10000 2.06 70 01:34 24.01.2022
4162 Clouds 5 1019 52 7000 1.54 80 00:47 24.01.2022
4163 Clouds 5 1019 52 7000 1.54 80 00:28 24.01.2022
4164 Clouds 5 1019 56 7000 1.54 60 22:46 23.01.2022
4165 Clouds 5 1019 65 8000 1.54 80 21:51 23.01.2022
4166 Clear 5 1019 65 8000 1.54 80 21:27 23.01.2022
4167 Clear 6 1019 61 10000 1.54 70 20:54 23.01.2022
4168 Clear 6 1019 61 10000 1.54 70 20:21 23.01.2022
4169 Clear 7 1019 49 10000 1.54 150 18:53 23.01.2022
4170 Clear 9 1019 43 10000 1.03 160 17:56 23.01.2022
4171 Clear 11 1018 40 10000 2.57 110 16:55 23.01.2022
4172 Clear 13 1018 33 10000 3.6 110 15:45 23.01.2022
4173 Clear 14 1018 30 10000 4.12 100 14:48 23.01.2022
4174 Clear 14 1018 30 10000 4.12 100 14:18 23.01.2022
4175 Clear 14 1019 33 8000 2.06 0 12:44 23.01.2022
4176 Clear 14 1019 33 8000 2.06 0 12:19 23.01.2022
4177 Dust 13 1020 35 5000 3.09 80 11:25 23.01.2022
4178 Clear 12 1021 40 6000 1.54 0 10:57 23.01.2022
4179 Clear 12 1021 40 6000 1.54 0 10:24 23.01.2022
4180 Haze 11 1022 40 4000 1.54 70 09:26 23.01.2022
4181 Clear 9 1022 46 6000 1.03 0 08:33 23.01.2022
4182 Clear -1 1021 100 10000 0.51 320 03:34 23.01.2022
4183 Clear 0 1022 80 10000 1.03 0 01:37 23.01.2022
4184 Clear 0 1022 86 10000 0.51 290 00:47 23.01.2022
4185 Clear 2 1023 75 10000 1.03 290 23:59 22.01.2022
4186 Clear 1 1023 69 10000 1.03 270 22:53 22.01.2022
4187 Clear 1 1023 69 10000 1.03 270 22:19 22.01.2022
4188 Clear 2 1023 69 10000 2.06 310 20:33 22.01.2022
4189 Clear 7 1023 45 10000 2.57 3 19:46 22.01.2022
4190 Clear 8 1023 44 10000 2.79 3 18:38 22.01.2022
4191 Clear 8 1023 49 10000 2.06 320 17:47 22.01.2022
4192 Clear 8 1023 49 10000 2.06 320 17:25 22.01.2022
4193 Clear 9 1023 40 10000 3.37 360 16:54 22.01.2022
4194 Clear 11 1023 40 10000 4.63 330 15:45 22.01.2022
4195 Clear 12 1023 35 10000 5.14 320 14:55 22.01.2022
4196 Clear 12 1023 35 10000 5.14 320 13:31 22.01.2022
4197 Clear 12 1024 37 10000 5.14 300 12:40 22.01.2022
4198 Clear 12 1024 37 10000 5.14 300 12:20 22.01.2022
4199 Clear 9 1026 40 10000 5.14 300 10:54 22.01.2022
4200 Clear 9 1026 40 10000 5.14 300 10:25 22.01.2022
4201 Clear 8 1026 46 10000 3.6 330 09:25 22.01.2022
4202 Clear 6 1027 52 10000 3.09 330 08:50 22.01.2022
4203 Clear -1 1027 80 7000 2.06 300 06:56 22.01.2022
4204 Clear -1 1027 74 10000 2.06 310 03:26 22.01.2022
4205 Clear 0 1028 69 10000 2.57 310 00:31 22.01.2022
4206 Clear 0 1029 64 10000 2.06 290 23:21 21.01.2022
4207 Clear 1 1029 60 10000 2.06 290 22:19 21.01.2022
4208 Clear 2 1029 48 10000 1.03 280 19:52 21.01.2022
4209 Clear 4 1029 41 10000 2.57 300 18:21 21.01.2022
4210 Clear 6 1029 33 10000 3.6 300 16:58 21.01.2022
4211 Clear 9 1029 27 10000 5.14 310 15:26 21.01.2022
4212 Clear 10 1030 32 10000 5.66 290 12:53 21.01.2022
4213 Clear 9 1030 40 10000 4.63 270 11:42 21.01.2022
4214 Clear 9 1030 40 10000 4.63 270 11:23 21.01.2022
4215 Clear 7 1031 49 10000 4.12 290 09:34 21.01.2022
4216 Clear 5 1032 60 9000 3.09 280 08:21 21.01.2022
4217 Clear -1 1029 69 9000 2.57 280 04:37 21.01.2022
4218 Dust 3 1028 48 5000 3.09 250 23:19 20.01.2022
4219 Dust 5 1027 42 4100 3.6 260 21:50 20.01.2022
4220 Dust 5 1027 42 4100 3.6 260 21:31 20.01.2022
4221 Dust 6 1027 36 4400 3.6 260 20:21 20.01.2022
4222 Dust 6 1026 36 4300 4.63 260 19:19 20.01.2022
4223 Dust 7 1024 29 3500 6.17 260 17:46 20.01.2022
4224 Dust 8 1024 27 4000 6.17 270 16:35 20.01.2022
4225 Dust 8 1023 25 1800 8.75 280 15:40 20.01.2022
4226 Dust 9 1023 25 2600 7.72 280 14:40 20.01.2022
4227 Clear 9 1022 25 10000 8.75 280 13:32 20.01.2022
4228 Clouds 9 1022 27 10000 8.23 260 12:31 20.01.2022
4229 Clouds 9 1022 34 10000 7.2 250 11:36 20.01.2022
4230 Clouds 8 1022 46 10000 6.69 270 10:37 20.01.2022
4231 Clouds 8 1022 42 10000 7.72 270 09:29 20.01.2022
4232 Clouds 7 1021 61 10000 6.17 270 07:24 20.01.2022
4233 Clouds 8 1016 53 10000 6.69 150 00:41 20.01.2022
4234 Clouds 9 1016 37 10000 8.75 170 22:52 19.01.2022
4235 Clouds 8 1016 39 10000 8.23 150 21:45 19.01.2022
4236 Clouds 8 1016 39 10000 8.23 150 21:22 19.01.2022
4237 Clouds 10 1017 23 10000 8.67 150 20:46 19.01.2022
4238 Clouds 8 1017 42 10000 7.72 140 19:27 19.01.2022
4239 Clear 8 1018 42 10000 5.66 120 17:55 19.01.2022
4240 Clear 8 1018 42 10000 5.66 120 17:35 19.01.2022
4241 Clear 9 1017 40 10000 5.66 130 16:27 19.01.2022
4242 Clouds 13 1019 28 10000 7.72 150 13:42 19.01.2022
4243 Clouds 12 1019 32 10000 7.2 150 12:24 19.01.2022
4244 Clouds 12 1020 30 10000 6.69 150 11:39 19.01.2022
4245 Clouds 11 1022 37 10000 5.66 140 10:20 19.01.2022
4246 Clouds 9 1023 49 10000 5.66 150 09:33 19.01.2022
4247 Mist 1 1023 93 4000 3.09 100 06:35 19.01.2022
4248 Clear 0 1023 100 10000 1.54 50 01:55 19.01.2022
4249 Clear 1 1024 86 10000 0 0 23:19 18.01.2022
4250 Clear 1 1024 93 10000 1.03 280 22:18 18.01.2022
4251 Clear 3 1025 75 10000 1.03 270 20:55 18.01.2022
4252 Clear 4 1025 70 10000 2.06 260 19:54 18.01.2022
4253 Clear 4 1025 70 10000 2.06 260 19:36 18.01.2022
4254 Clear 5 1025 65 10000 2.06 300 18:38 18.01.2022
4255 Clear 6 1025 61 10000 2.57 300 17:57 18.01.2022
4256 Clear 7 1025 57 10000 2.57 300 16:38 18.01.2022
4257 Clouds 10 1025 43 10000 4.63 320 15:40 18.01.2022
4258 Clouds 10 1025 43 10000 4.63 320 15:20 18.01.2022
4259 Clear 10 1025 46 10000 4.12 310 12:30 18.01.2022
4260 Clear 9 1026 61 10000 3.6 310 10:46 18.01.2022
4261 Clear 5 1027 75 10000 3.6 300 08:49 18.01.2022
4262 Clear 3 1027 75 10000 2.06 280 07:46 18.01.2022
4263 Clear 1 1024 69 10000 2.57 260 02:32 18.01.2022
4264 Clear 3 1022 65 10000 3.6 230 23:22 17.01.2022
4265 Clear 3 1022 70 10000 3.6 220 22:23 17.01.2022
4266 Clear 3 1022 70 10000 2.57 220 21:33 17.01.2022
4267 Clear 5 1021 70 10000 2.57 200 19:57 17.01.2022
4268 Clear 5 1021 65 10000 1.03 0 18:29 17.01.2022
4269 Clear 6 1020 65 10000 1.03 320 17:25 17.01.2022
4270 Clouds 7 1019 57 10000 2.06 340 16:35 17.01.2022
4271 Clouds 9 1019 49 10000 3.6 290 14:59 17.01.2022
4272 Clouds 9 1019 49 10000 3.6 290 14:33 17.01.2022
4273 Clouds 9 1019 46 10000 4.12 290 13:20 17.01.2022
4274 Clouds 9 1018 46 10000 5.66 300 12:55 17.01.2022
4275 Clear 9 1018 49 10000 5.14 300 11:48 17.01.2022
4276 Clouds 8 1019 66 10000 4.12 260 10:21 17.01.2022
4277 Clouds 7 1019 70 10000 4.63 250 09:33 17.01.2022
4278 Clouds 8 1017 76 10000 3.09 260 07:22 17.01.2022
4279 Drizzle 8 1014 100 10000 1.54 320 02:54 17.01.2022
4280 Clouds 9 1014 100 10000 2.06 270 00:54 17.01.2022
4281 Clouds 9 1014 93 10000 2.06 290 22:18 16.01.2022
4282 Clouds 9 1013 93 10000 4.12 320 20:34 16.01.2022
4283 Clouds 10 1011 93 10000 5.66 350 18:51 16.01.2022
4284 Clouds 11 1011 93 10000 6.69 310 17:57 16.01.2022
4285 Clouds 14 1010 62 10000 5.66 280 16:59 16.01.2022
4286 Clouds 14 1010 62 10000 5.66 280 16:29 16.01.2022
4287 Clouds 17 1009 42 10000 5.66 190 14:30 16.01.2022
4288 Clouds 17 1009 42 10000 6.69 190 13:45 16.01.2022
4289 Clouds 17 1009 42 10000 5.14 190 12:44 16.01.2022
4290 Clouds 16 1009 44 10000 4.63 210 11:40 16.01.2022
4291 Clear 15 1011 51 10000 5.66 200 10:46 16.01.2022
4292 Clear 14 1011 51 10000 4.12 200 09:59 16.01.2022
4293 Clear 14 1011 51 10000 4.12 200 09:40 16.01.2022
4294 Clear 14 1011 51 10000 4.12 200 09:22 16.01.2022
4295 Clouds 10 1011 62 10000 4.63 230 07:25 16.01.2022
4296 Clear 8 1008 61 10000 3.09 150 00:38 16.01.2022
4297 Clear 8 1008 57 10000 2.57 150 23:34 15.01.2022
4298 Clear 10 1009 50 10000 1.54 130 21:23 15.01.2022
4299 Clear 10 1010 50 10000 1.54 0 20:56 15.01.2022
4300 Clear 10 1010 50 10000 1.54 0 20:36 15.01.2022
4301 Clouds 12 1009 43 10000 3.6 100 19:28 15.01.2022
4302 Clouds 11 1009 43 10000 2.57 120 18:31 15.01.2022
4303 Clouds 14 1009 35 10000 1.03 0 16:52 15.01.2022
4304 Clouds 16 1009 31 10000 2.06 210 15:39 15.01.2022
4305 Clear 16 1009 31 10000 2.57 220 13:39 15.01.2022
4306 Clear 16 1010 29 10000 1.54 0 11:46 15.01.2022
4307 Clouds 14 1011 44 10000 2.57 320 10:24 15.01.2022
4308 Clouds 8 1010 81 10000 3.09 290 05:27 15.01.2022
4309 Clear 10 1009 76 10000 1.03 0 23:44 14.01.2022
4310 Clear 8 1009 61 10000 0 0 21:37 14.01.2022
4311 Clear 10 1009 76 10000 0.51 0 20:37 14.01.2022
4312 Clear 12 1009 71 10000 1.03 340 19:57 14.01.2022
4313 Clear 14 1009 58 10000 3.6 300 18:46 14.01.2022
4314 Clear 15 1008 51 10000 2.06 240 17:54 14.01.2022
4315 Clouds 16 1008 48 10000 2.06 240 16:47 14.01.2022
4316 Clouds 18 1007 42 10000 2.06 270 15:33 14.01.2022
4317 Clouds 18 1007 42 10000 2.06 270 15:33 14.01.2022
4318 Clouds 19 1007 39 10000 3.6 300 14:30 14.01.2022
4319 Clouds 19 1007 42 10000 3.09 250 13:27 14.01.2022
4320 Clouds 17 1007 59 9000 3.6 250 12:20 14.01.2022
4321 Haze 16 1009 77 2500 3.09 240 10:46 14.01.2022
4322 Haze 15 1010 77 3100 4.12 230 08:54 14.01.2022
4323 Haze 14 1010 77 6000 3.6 180 07:56 14.01.2022
4324 Clear 13 1010 71 10000 2.06 150 03:50 14.01.2022
4325 Clouds 16 1010 63 10000 6.69 140 00:44 14.01.2022
4326 Clouds 16 1012 63 10000 5.66 140 21:57 13.01.2022
4327 Clouds 16 1012 63 10000 5.66 140 21:30 13.01.2022
4328 Clouds 16 1012 67 9000 5.14 130 20:54 13.01.2022
4329 Clouds 16 1012 72 8000 5.14 130 19:32 13.01.2022
4330 Clouds 17 1011 72 6000 6.69 120 18:51 13.01.2022
4331 Clouds 17 1012 72 7000 4.12 120 17:23 13.01.2022
4332 Clouds 19 1012 63 10000 5.66 140 16:18 13.01.2022
4333 Clouds 20 1011 60 10000 5.14 140 15:31 13.01.2022
4334 Clouds 22 1012 53 10000 3.6 190 13:47 13.01.2022
4335 Clouds 22 1012 53 10000 6.17 180 12:20 13.01.2022
4336 Clouds 20 1014 56 7000 7.72 150 09:38 13.01.2022
4337 Haze 19 1015 63 4000 7.72 150 08:54 13.01.2022
4338 Haze 19 1015 63 4000 7.72 150 08:24 13.01.2022
4339 Haze 16 1015 72 4400 4.12 140 07:21 13.01.2022
4340 Mist 14 1015 82 6000 5.14 110 05:57 13.01.2022
4341 Mist 14 1015 82 6000 5.14 110 05:18 13.01.2022
4342 Mist 13 1016 88 4800 3.09 110 01:49 13.01.2022
4343 Mist 15 1016 77 5000 4.12 100 23:54 12.01.2022
4344 Mist 15 1016 77 5000 4.12 100 23:35 12.01.2022
4345 Clouds 17 1017 59 10000 3.69 138 22:57 12.01.2022
4346 Mist 14 1017 82 3700 2.57 110 21:56 12.01.2022
4347 Mist 14 1017 82 3700 2.57 110 21:21 12.01.2022
4348 Mist 14 1018 94 3900 1.54 100 20:56 12.01.2022
4349 Mist 14 1018 94 4700 0 0 19:35 12.01.2022
4350 Mist 15 1018 82 4600 0 0 18:29 12.01.2022
4351 Mist 17 1018 67 7000 1.03 150 16:59 12.01.2022
4352 Mist 17 1018 67 7000 1.03 150 16:26 12.01.2022
4353 Clear 21 1018 52 6000 3.09 120 14:48 12.01.2022
4354 Haze 20 1018 60 4600 3.6 140 12:58 12.01.2022
4355 Mist 18 1019 72 2500 2.57 180 10:38 12.01.2022
4356 Mist 16 1021 77 2400 4.63 140 08:37 12.01.2022
4357 Mist 15 1021 82 2400 5.66 130 07:34 12.01.2022
4358 Mist 13 1021 94 1800 4.63 130 06:49 12.01.2022
4359 Clear 12 1020 71 10000 3.09 130 23:40 11.01.2022
4360 Clear 13 1020 67 10000 4.12 140 22:49 11.01.2022
4361 Clear 13 1020 67 10000 4.12 140 22:22 11.01.2022
4362 Clear 14 1019 58 10000 3.6 130 20:51 11.01.2022
4363 Clear 16 1019 55 10000 4.12 120 19:48 11.01.2022
4364 Clouds 16 1019 55 10000 3.6 130 18:31 11.01.2022
4365 Clouds 17 1019 55 10000 4.12 130 17:24 11.01.2022
4366 Clouds 17 1019 59 10000 3.65 126 16:37 11.01.2022
4367 Clouds 18 1018 63 10000 2.57 120 15:39 11.01.2022
4368 Clouds 19 1018 59 9000 4.63 150 14:42 11.01.2022
4369 Clouds 19 1018 59 6000 4.63 150 13:55 11.01.2022
4370 Clouds 19 1018 59 6000 4.63 150 13:35 11.01.2022
4371 Haze 18 1018 68 4000 6.17 150 12:43 11.01.2022
4372 Haze 17 1019 67 4000 5.14 150 11:43 11.01.2022
4373 Haze 17 1020 63 4000 7.72 140 09:39 11.01.2022
4374 Haze 15 1019 67 3000 6.17 130 07:18 11.01.2022
4375 Clouds 14 1017 72 6000 5.14 130 00:32 11.01.2022
4376 Clouds 14 1017 72 7000 5.14 130 23:43 10.01.2022
4377 Clouds 14 1017 72 7000 5.14 130 23:24 10.01.2022
4378 Clouds 14 1017 67 9000 4.63 130 22:19 10.01.2022
4379 Clouds 14 1017 67 10000 4.63 140 21:54 10.01.2022
4380 Clouds 14 1017 67 10000 4.63 140 21:21 10.01.2022
4381 Clouds 15 1017 58 10000 4.12 130 20:57 10.01.2022
4382 Clouds 15 1017 58 10000 4.12 130 20:28 10.01.2022
4383 Clouds 15 1017 58 10000 4.12 120 19:44 10.01.2022
4384 Clouds 15 1017 58 10000 4.12 120 19:21 10.01.2022
4385 Clouds 15 1016 58 10000 3.6 130 18:49 10.01.2022
4386 Clouds 15 1016 58 10000 3.6 140 17:42 10.01.2022
4387 Clouds 15 1015 58 10000 3.6 120 16:42 10.01.2022
4388 Clouds 16 1015 59 9000 3.09 160 15:49 10.01.2022
4389 Clouds 17 1014 51 8000 4.63 150 14:34 10.01.2022
4390 Clouds 17 1013 51 8000 9.26 110 12:18 10.01.2022
4391 Haze 15 1014 58 6000 6.69 110 11:25 10.01.2022
4392 Clouds 15 1017 55 5000 4.12 120 09:52 10.01.2022
4393 Clouds 14 1017 58 5000 6.17 120 08:22 10.01.2022
4394 Clear 11 1017 62 10000 4.63 100 05:49 10.01.2022
4395 Clear 11 1016 62 10000 4.12 100 01:33 10.01.2022
4396 Clear 10 1017 57 10000 3.6 120 00:29 10.01.2022
4397 Clear 11 1016 54 10000 3.6 100 23:43 09.01.2022
4398 Clear 12 1017 50 10000 4.12 100 22:40 09.01.2022
4399 Clear 12 1018 50 10000 2.06 110 21:47 09.01.2022
4400 Clear 12 1018 50 10000 2.06 110 21:24 09.01.2022
4401 Clear 12 1018 50 10000 2.06 110 21:24 09.01.2022
4402 Clear 13 1018 50 10000 3.09 110 20:53 09.01.2022
4403 Clear 13 1018 50 10000 3.09 110 20:34 09.01.2022
4404 Clear 13 1018 50 10000 2.57 70 19:45 09.01.2022
4405 Clear 13 1018 50 10000 2.57 70 19:23 09.01.2022
4406 Clear 14 1018 47 10000 1.54 110 18:56 09.01.2022
4407 Clear 14 1018 47 10000 1.54 110 18:35 09.01.2022
4408 Clear 15 1018 44 10000 2.06 90 17:48 09.01.2022
4409 Clear 15 1018 44 10000 2.06 90 17:25 09.01.2022
4410 Clear 17 1018 39 10000 2.06 110 16:34 09.01.2022
4411 Clear 18 1018 34 10000 2.57 120 15:37 09.01.2022
4412 Clear 20 1018 30 10000 2.06 70 14:41 09.01.2022
4413 Clear 20 1018 30 10000 2.57 70 13:56 09.01.2022
4414 Clear 20 1018 30 10000 3.09 70 13:36 09.01.2022
4415 Clear 19 1019 30 10000 4.12 70 11:56 09.01.2022
4416 Clear 19 1019 30 10000 4.12 70 11:24 09.01.2022
4417 Clear 18 1021 39 10000 3.09 70 09:53 09.01.2022
4418 Haze 16 1022 51 3700 2.06 70 08:54 09.01.2022
4419 Mist 5 1022 87 4300 1.03 300 05:54 09.01.2022
4420 Clear 6 1021 70 10000 1.54 300 01:26 09.01.2022
4421 Mist 7 1020 65 7000 0.51 350 00:37 09.01.2022
4422 Clear 7 1020 81 8000 1.03 320 23:30 08.01.2022
4423 Clear 7 1021 76 10000 1.54 260 22:35 08.01.2022
4424 Clear 7 1021 70 10000 1.03 0 21:27 08.01.2022
4425 Clear 10 1021 62 10000 1.54 270 20:43 08.01.2022
4426 Clear 10 1021 62 10000 1.54 270 20:21 08.01.2022
4427 Clear 11 1021 58 10000 1.54 300 19:22 08.01.2022
4428 Clear 14 1021 51 10000 1.54 290 17:25 08.01.2022
4429 Clear 14 1021 51 10000 2.57 310 16:42 08.01.2022
4430 Clear 18 1021 42 10000 3.09 320 15:28 08.01.2022
4431 Clear 20 1020 37 10000 2.57 320 13:57 08.01.2022
4432 Clear 19 1021 42 10000 2.57 300 11:30 08.01.2022
4433 Clear 19 1022 42 10000 2.06 330 10:33 08.01.2022
4434 Clear 17 1023 45 9000 2.06 350 09:57 08.01.2022
4435 Clear 17 1023 45 9000 2.06 350 09:33 08.01.2022
4436 Mist 5 1022 81 2000 1.03 250 05:51 08.01.2022
4437 Mist 7 1021 76 3300 1.03 260 01:24 08.01.2022
4438 Mist 7 1021 93 4000 0.51 0 23:31 07.01.2022
4439 Clouds 9 1021 71 8000 1.03 260 21:49 07.01.2022
4440 Clear 10 1021 71 10000 0 0 20:32 07.01.2022
4441 Clear 11 1021 62 10000 0 0 19:27 07.01.2022
4442 Clear 11 1021 62 10000 0 0 19:27 07.01.2022
4443 Clear 13 1021 58 10000 1.03 320 18:49 07.01.2022
4444 Clear 13 1021 58 10000 1.03 320 18:21 07.01.2022
4445 Clear 13 1021 58 10000 1.03 350 17:23 07.01.2022
4446 Clouds 19 1020 42 10000 2.57 330 14:56 07.01.2022
4447 Clouds 19 1020 42 10000 2.57 280 13:52 07.01.2022
4448 Clear 19 1021 45 10000 2.57 260 12:51 07.01.2022
4449 Clear 19 1021 45 10000 2.57 250 11:22 07.01.2022
4450 Clear 4 1022 87 9000 1.54 290 04:54 07.01.2022
4451 Clear 5 1022 75 10000 1.03 300 02:53 07.01.2022
4452 Clear 7 1022 70 10000 2.57 250 01:49 07.01.2022
4453 Clear 7 1022 70 10000 2.57 250 01:26 07.01.2022
4454 Clear 7 1022 76 10000 1.03 360 00:31 07.01.2022
4455 Clear 7 1022 76 10000 1.03 360 00:31 07.01.2022
4456 Clear 8 1022 66 10000 2.06 290 22:33 06.01.2022
4457 Clear 10 1021 62 10000 2.57 290 20:51 06.01.2022
4458 Clear 10 1021 62 10000 2.57 290 20:18 06.01.2022
4459 Clear 11 1021 58 10000 3.09 290 19:38 06.01.2022
4460 Clear 13 1022 58 10000 3.6 290 17:52 06.01.2022
4461 Clear 13 1022 58 10000 3.6 290 17:27 06.01.2022
4462 Clear 14 1021 51 10000 4.12 300 16:38 06.01.2022
4463 Clear 16 1021 44 10000 4.63 300 15:44 06.01.2022
4464 Clear 16 1021 44 10000 4.63 300 15:23 06.01.2022
4465 Clear 17 1021 42 10000 6.69 310 14:20 06.01.2022
4466 Clear 18 1021 39 10000 6.69 310 13:41 06.01.2022
4467 Clear 17 1022 39 10000 6.69 310 12:28 06.01.2022
4468 Clear 16 1023 48 10000 6.17 290 11:41 06.01.2022
4469 Clear 16 1023 48 10000 6.17 290 11:19 06.01.2022
4470 Clear 7 1025 87 6000 3.6 290 06:59 06.01.2022
4471 Mist 5 1024 87 8000 3.09 300 00:35 06.01.2022
4472 Clear 6 1024 93 8000 3.09 280 23:35 05.01.2022
4473 Clear 6 1024 93 8000 3.09 280 23:35 05.01.2022
4474 Clear 5 1024 87 7000 3.09 310 22:50 05.01.2022
4475 Clear 5 1024 87 7000 3.09 310 22:29 05.01.2022
4476 Clear 5 1024 100 8000 2.57 320 21:44 05.01.2022
4477 Clear 7 1024 81 8000 2.06 290 20:44 05.01.2022
4478 Clear 9 1024 76 7000 2.57 310 19:53 05.01.2022
4479 Clear 9 1023 71 8000 3.09 300 18:27 05.01.2022
4480 Clear 12 1023 66 10000 2.06 320 16:59 05.01.2022
4481 Clear 12 1023 66 10000 2.06 320 16:22 05.01.2022
4482 Clear 15 1022 55 10000 4.12 330 15:20 05.01.2022
4483 Clear 17 1021 45 10000 4.12 340 13:38 05.01.2022
4484 Clouds 16 1021 44 8000 3.6 350 12:49 05.01.2022
4485 Mist 11 1023 82 2000 2.57 110 08:57 05.01.2022
4486 Mist 9 1022 100 1200 2.06 90 07:34 05.01.2022
4487 Mist 3 1020 100 1700 1.03 90 01:59 05.01.2022
4488 Mist 5 1020 100 2500 1.03 170 00:33 05.01.2022
4489 Mist 4 1020 93 2400 1.03 140 23:26 04.01.2022
4490 Mist 4 1020 93 1700 2.06 130 22:27 04.01.2022
4491 Fog 5 1021 100 900 1.03 120 20:50 04.01.2022
4492 Clouds 11 1020 54 10000 1.25 307 19:19 04.01.2022
4493 Mist 9 1021 93 4500 2.06 180 17:38 04.01.2022
4494 Mist 9 1021 93 4900 3.09 100 16:41 04.01.2022
4495 Mist 9 1021 93 4900 3.09 100 16:22 04.01.2022
4496 Clear 12 1021 76 3700 1.03 0 14:52 04.01.2022
4497 Clear 12 1021 76 3700 1.03 0 14:33 04.01.2022
4498 Mist 11 1021 87 2600 2.06 320 13:26 04.01.2022
4499 Mist 7 1022 93 500 2.57 250 10:40 04.01.2022
4500 Fog 6 1022 100 350 2.06 230 09:20 04.01.2022
4501 Fog 5 1022 93 200 2.06 270 08:25 04.01.2022
4502 Clear 3 1019 100 8000 2.57 310 01:51 04.01.2022
4503 Clear 3 1018 87 10000 2.06 290 00:40 04.01.2022
4504 Clear 5 1018 75 10000 3.09 290 22:51 03.01.2022
4505 Clear 6 1018 93 6000 1.54 280 21:42 03.01.2022
4506 Clear 6 1018 93 6000 1.54 280 21:24 03.01.2022
4507 Mist 6 1017 100 3700 1.03 0 19:47 03.01.2022
4508 Mist 8 1017 93 4200 0 0 18:34 03.01.2022
4509 Mist 9 1016 93 4700 1.03 290 17:40 03.01.2022
4510 Clear 9 1016 87 8000 1.03 0 16:58 03.01.2022
4511 Clouds 12 1014 76 7000 2.06 270 14:55 03.01.2022
4512 Clouds 12 1014 76 7000 2.06 270 14:29 03.01.2022
4513 Clouds 11 1014 93 8000 3.09 270 12:39 03.01.2022
4514 Clouds 9 1014 93 5000 2.06 250 11:34 03.01.2022
4515 Clouds 10 1014 76 7000 4.12 260 10:25 03.01.2022
4516 Clouds 11 1015 54 10000 3.09 330 08:47 03.01.2022
4517 Clouds 10 1014 53 10000 2.06 240 07:32 03.01.2022
4518 Clear 6 1013 70 10000 2.06 310 23:54 02.01.2022
4519 Clear 6 1013 70 10000 2.06 310 23:20 02.01.2022
4520 Clear 8 1013 61 10000 2.06 260 22:43 02.01.2022
4521 Clear 9 1013 57 10000 2.57 300 21:39 02.01.2022
4522 Clear 10 1013 57 10000 3.09 300 20:33 02.01.2022
4523 Clear 9 1013 57 10000 1.54 290 19:54 02.01.2022
4524 Clear 9 1013 57 10000 1.54 290 19:29 02.01.2022
4525 Clear 10 1013 53 10000 1.54 310 18:39 02.01.2022
4526 Clear 9 1013 57 10000 2.06 310 17:43 02.01.2022
4527 Clear 9 1013 57 10000 2.06 310 17:22 02.01.2022
4528 Clear 12 1012 47 10000 3.09 320 16:59 02.01.2022
4529 Clear 12 1012 47 10000 3.09 320 16:24 02.01.2022
4530 Clear 16 1012 33 10000 7.72 300 14:21 02.01.2022
4531 Clear 16 1012 39 10000 6.69 310 12:49 02.01.2022
4532 Clear 15 1013 41 10000 6.17 300 11:57 02.01.2022
4533 Clear 15 1013 41 10000 6.17 300 11:23 02.01.2022
4534 Haze 14 1014 51 3700 4.63 300 10:44 02.01.2022
4535 Clouds 9 1015 71 5000 5.14 320 08:46 02.01.2022
4536 Clouds 7 1016 70 8000 3.09 310 03:49 02.01.2022
4537 Clear 7 1017 65 10000 3.09 300 00:58 02.01.2022
4538 Clear 8 1018 71 10000 1.03 290 23:39 01.01.2022
4539 Clear 8 1018 71 10000 1.03 290 23:39 01.01.2022
4540 Clear 8 1018 66 10000 2.57 310 22:55 01.01.2022
4541 Clear 8 1018 66 10000 2.57 310 22:21 01.01.2022
4542 Clouds 9 1018 66 9000 3.09 310 21:43 01.01.2022
4543 Clear 10 1018 66 10000 1.54 300 20:53 01.01.2022
4544 Clouds 11 1019 66 10000 1.54 330 19:57 01.01.2022
4545 Clouds 11 1019 62 10000 2.06 310 18:58 01.01.2022
4546 Clouds 11 1019 62 10000 1.54 310 17:58 01.01.2022
4547 Clouds 12 1019 62 10000 0.51 330 16:37 01.01.2022
4548 Clouds 12 1019 62 10000 0.51 330 16:19 01.01.2022
4549 Clouds 13 1019 58 10000 2.06 340 15:26 01.01.2022
4550 Clouds 13 1019 58 10000 2.06 350 13:46 01.01.2022
4551 Clouds 13 1019 58 10000 2.06 350 13:46 01.01.2022
4552 Clouds 13 1019 54 10000 3.09 330 12:49 01.01.2022
4553 Clear 13 1020 50 10000 3.09 310 11:56 01.01.2022
4554 Clear 13 1020 50 10000 3.09 310 11:22 01.01.2022
4555 Clear 13 1021 50 10000 2.06 290 10:27 01.01.2022
4556 Clouds 12 1022 50 9000 2.06 270 09:45 01.01.2022
4557 Clouds 10 1022 53 8000 1.54 290 08:25 01.01.2022
4558 Clouds 9 1022 57 8000 0.51 0 07:44 01.01.2022
4559 Clouds 7 1021 65 6000 0 0 06:47 01.01.2022
4560 Clouds 5 1021 70 8000 1.03 360 05:27 01.01.2022
4561 Clouds 5 1021 65 9000 0.51 280 04:38 01.01.2022
4562 Clouds 5 1022 70 8000 2.06 210 01:59 01.01.2022
4563 Clouds 6 1022 70 7000 1.03 0 23:36 31.12.2021
4564 Clouds 6 1022 65 8000 1.54 160 21:53 31.12.2021
4565 Clouds 6 1022 70 9000 0.51 280 20:38 31.12.2021
4566 Clouds 6 1022 65 9000 0.51 260 19:30 31.12.2021
4567 Clouds 9 1022 61 9000 1.03 290 18:37 31.12.2021
4568 Clear 10 1022 62 10000 1.54 300 17:43 31.12.2021
4569 Clear 10 1022 62 10000 1.54 300 17:19 31.12.2021
4570 Clear 12 1021 54 10000 2.57 260 16:38 31.12.2021
4571 Clear 14 1021 44 10000 2.57 260 15:57 31.12.2021
4572 Clear 14 1021 44 10000 2.57 260 15:29 31.12.2021
4573 Clear 15 1021 41 10000 4.12 290 14:57 31.12.2021
4574 Clear 15 1021 41 10000 4.12 290 14:30 31.12.2021
4575 Clear 15 1021 38 10000 4.12 270 13:37 31.12.2021
4576 Clear 16 1020 36 10000 4.12 290 12:49 31.12.2021
4577 Clear 15 1021 38 10000 4.63 270 11:52 31.12.2021
4578 Clear 15 1021 38 10000 4.63 270 11:33 31.12.2021
4579 Clear 15 1021 41 10000 3.6 310 10:38 31.12.2021
4580 Clear 15 1021 41 10000 3.6 310 10:38 31.12.2021
4581 Clear 15 1021 41 10000 3.6 310 10:38 31.12.2021
4582 Clear 15 1021 41 10000 3.6 310 10:20 31.12.2021
4583 Clear 13 1022 47 10000 4.12 310 09:33 31.12.2021
4584 Clear 10 1022 53 10000 3.6 300 08:43 31.12.2021
4585 Clear 7 1021 61 10000 3.09 310 07:32 31.12.2021
4586 Clear 5 1019 75 9000 1.54 300 23:36 30.12.2021
4587 Clear 7 1019 70 9000 1.54 280 22:38 30.12.2021
4588 Clear 7 1019 70 9000 1.54 280 22:20 30.12.2021
4589 Clear 8 1019 66 9000 1.54 260 21:37 30.12.2021
4590 Clear 9 1019 66 10000 1.54 300 20:48 30.12.2021
4591 Clear 9 1019 66 10000 1.54 300 20:28 30.12.2021
4592 Clear 11 1019 58 10000 2.06 260 19:48 30.12.2021
4593 Clear 11 1019 58 10000 2.06 260 19:18 30.12.2021
4594 Clouds 12 1019 54 10000 2.57 300 18:20 30.12.2021
4595 Clouds 13 1018 50 10000 3.6 310 16:34 30.12.2021
4596 Clouds 14 1018 51 8000 3.09 320 15:52 30.12.2021
4597 Clouds 15 1018 47 9000 4.12 320 14:49 30.12.2021
4598 Clouds 15 1018 47 9000 4.12 320 14:30 30.12.2021
4599 Clouds 15 1018 47 8000 3.6 320 13:24 30.12.2021
4600 Clouds 15 1018 47 8000 2.06 360 11:35 30.12.2021
4601 Clouds 13 1019 50 8000 3.09 350 10:27 30.12.2021
4602 Clouds 13 1020 54 6000 2.06 340 09:27 30.12.2021
4603 Clouds 5 1020 70 4200 0.51 0 06:56 30.12.2021
4604 Clouds 9 1019 69 10000 1.09 83 04:42 30.12.2021
4605 Clouds 6 1018 81 7000 1.03 310 03:40 30.12.2021
4606 Clouds 7 1019 76 8000 0.51 0 01:56 30.12.2021
4607 Clouds 7 1019 70 7000 1.03 0 23:36 29.12.2021
4608 Clouds 7 1019 76 9000 0 0 22:33 29.12.2021
4609 Clouds 8 1019 81 9000 0.51 0 21:54 29.12.2021
4610 Clear 8 1019 76 10000 1.03 160 20:56 29.12.2021
4611 Clear 8 1019 76 10000 1.03 160 20:25 29.12.2021
4612 Clouds 8 1019 71 10000 1.03 0 19:31 29.12.2021
4613 Clouds 9 1020 61 10000 1.03 150 18:35 29.12.2021
4614 Clouds 11 1019 58 10000 1.54 120 17:41 29.12.2021
4615 Clouds 11 1019 58 10000 1.54 120 17:20 29.12.2021
4616 Clouds 12 1019 50 10000 2.06 130 16:19 29.12.2021
4617 Clouds 14 1019 44 10000 2.06 280 14:59 29.12.2021
4618 Clouds 14 1019 41 10000 0.51 0 12:57 29.12.2021
4619 Clouds 14 1019 41 10000 0.51 0 12:30 29.12.2021
4620 Clouds 13 1019 44 10000 1.54 0 11:22 29.12.2021
4621 Clouds 12 1021 47 10000 1.54 290 09:24 29.12.2021
4622 Clouds 7 1021 65 10000 0.51 160 06:59 29.12.2021
4623 Clouds 7 1021 65 10000 0.51 160 06:30 29.12.2021
4624 Clouds 6 1020 65 10000 1.54 110 05:52 29.12.2021
4625 Clouds 7 1020 61 10000 2.57 130 04:57 29.12.2021
4626 Clear 6 1020 65 10000 0 0 00:32 29.12.2021
4627 Clear 6 1020 65 10000 0.51 250 23:58 28.12.2021
4628 Clear 6 1020 65 10000 1.03 0 22:57 28.12.2021
4629 Clear 8 1020 57 10000 2.06 310 22:25 28.12.2021
4630 Clear 8 1020 57 10000 2.06 310 22:25 28.12.2021
4631 Clear 8 1021 61 10000 2.06 270 21:54 28.12.2021
4632 Clear 8 1021 61 10000 2.06 270 21:54 28.12.2021
4633 Clear 8 1021 61 10000 2.06 270 21:34 28.12.2021
4634 Clear 9 1021 57 10000 2.06 330 19:53 28.12.2021
4635 Clear 9 1021 53 10000 2.57 300 18:54 28.12.2021
4636 Clear 9 1021 53 10000 2.57 300 18:27 28.12.2021
4637 Clear 10 1021 53 10000 2.57 320 17:34 28.12.2021
4638 Clear 12 1020 47 10000 3.09 320 16:20 28.12.2021
4639 Clear 14 1021 44 10000 2.57 290 15:41 28.12.2021
4640 Clouds 14 1021 47 10000 4.12 320 14:56 28.12.2021
4641 Clouds 14 1021 47 10000 4.12 320 14:38 28.12.2021
4642 Clouds 14 1021 47 10000 4.12 320 14:19 28.12.2021
4643 Clear 15 1021 41 10000 4.63 280 13:37 28.12.2021
4644 Clouds 15 1021 38 10000 4.12 290 12:56 28.12.2021
4645 Clouds 15 1021 38 10000 4.12 290 12:21 28.12.2021
4646 Clear 14 1022 38 10000 3.09 300 10:47 28.12.2021
4647 Clear 6 1023 56 10000 2.06 270 07:39 28.12.2021
4648 Clear 1 1022 64 10000 3.09 300 03:37 28.12.2021
4649 Clear 4 1022 60 10000 2.57 310 23:41 27.12.2021
4650 Clear 4 1022 60 10000 2.06 280 22:27 27.12.2021
4651 Clear 5 1022 60 10000 1.03 290 21:32 27.12.2021
4652 Clear 6 1023 52 10000 1.54 240 20:40 27.12.2021
4653 Clear 6 1023 56 10000 2.06 270 19:55 27.12.2021
4654 Clear 6 1023 56 10000 2.06 270 19:37 27.12.2021
4655 Clear 8 1022 49 10000 1.03 280 17:55 27.12.2021
4656 Clear 8 1022 49 10000 1.03 280 17:55 27.12.2021
4657 Clear 8 1022 49 10000 1.03 280 17:29 27.12.2021
4658 Clear 11 1023 43 10000 2.06 260 16:32 27.12.2021
4659 Clear 13 1022 35 10000 4.12 280 15:50 27.12.2021
4660 Clear 15 1022 33 10000 4.63 300 14:29 27.12.2021
4661 Clear 15 1022 33 10000 5.66 290 13:32 27.12.2021
4662 Clear 14 1023 35 10000 5.14 270 11:34 27.12.2021
4663 Clear 13 1023 44 10000 4.63 260 10:27 27.12.2021
4664 Clear 12 1024 37 10000 5.14 300 09:38 27.12.2021
4665 Clear 6 1025 52 10000 3.6 280 07:35 27.12.2021
4666 Clear 3 1025 65 10000 2.06 270 06:30 27.12.2021
4667 Clear 5 1024 52 10000 3.09 290 01:59 27.12.2021
4668 Clear 5 1024 52 10000 2.57 270 23:52 26.12.2021
4669 Clear 5 1024 52 10000 2.57 270 23:34 26.12.2021
4670 Clear 7 1025 49 10000 3.6 280 21:48 26.12.2021
4671 Clear 6 1025 52 10000 2.57 280 20:42 26.12.2021
4672 Clear 7 1024 53 10000 2.06 240 19:31 26.12.2021
4673 Clear 9 1024 46 10000 2.06 280 18:23 26.12.2021
4674 Clear 13 1024 33 10000 5.14 290 15:57 26.12.2021
4675 Clear 14 1023 30 10000 7.2 290 14:27 26.12.2021
4676 Clear 14 1023 30 10000 7.2 290 13:40 26.12.2021
4677 Clear 14 1023 30 10000 7.2 290 13:18 26.12.2021
4678 Clear 14 1023 33 10000 7.72 310 12:27 26.12.2021
4679 Clear 12 1025 47 10000 6.69 290 10:22 26.12.2021
4680 Clear 11 1026 46 10000 5.66 300 09:19 26.12.2021
4681 Clear 8 1026 57 10000 5.14 290 08:41 26.12.2021
4682 Clear 6 1026 61 10000 4.12 280 07:34 26.12.2021
4683 Clear 2 1025 55 10000 2.57 300 01:24 26.12.2021
4684 Clear 4 1025 48 10000 3.09 280 23:53 25.12.2021
4685 Clear 4 1025 48 10000 3.09 280 23:27 25.12.2021
4686 Clear 5 1025 52 10000 3.09 260 22:23 25.12.2021
4687 Clear 4 1025 60 10000 3.09 300 20:57 25.12.2021
4688 Clear 6 1025 52 10000 2.57 300 19:26 25.12.2021
4689 Clear 7 1025 53 10000 3.6 300 18:55 25.12.2021
4690 Clear 8 1025 46 10000 4.12 300 17:33 25.12.2021
4691 Clear 10 1025 43 10000 4.63 300 16:36 25.12.2021
4692 Clear 11 1024 40 10000 6.17 300 15:18 25.12.2021
4693 Clear 13 1024 47 10000 7.2 310 13:30 25.12.2021
4694 Clear 13 1024 47 10000 7.2 310 13:30 25.12.2021
4695 Clear 14 1024 41 10000 7.2 310 11:51 25.12.2021
4696 Clear 13 1025 47 10000 5.66 300 09:54 25.12.2021
4697 Clear 13 1025 47 10000 5.66 300 09:34 25.12.2021
4698 Clear 8 1022 81 10000 3.6 310 04:34 25.12.2021
4699 Mist 8 1021 93 5000 4.12 300 01:25 25.12.2021
4700 Clouds 9 1021 93 6000 2.57 310 23:42 24.12.2021
4701 Clouds 13 1020 71 10000 4.12 310 19:46 24.12.2021
4702 Clouds 13 1020 71 10000 4.12 310 19:23 24.12.2021
4703 Clouds 15 1018 55 10000 5.66 310 16:57 24.12.2021
4704 Clouds 15 1018 55 10000 5.66 310 16:22 24.12.2021
4705 Clouds 16 1017 51 10000 3.6 320 15:48 24.12.2021
4706 Clouds 16 1017 51 10000 3.6 320 15:18 24.12.2021
4707 Clouds 18 1017 48 10000 2.06 320 14:31 24.12.2021
4708 Clouds 18 1016 42 10000 2.06 250 13:42 24.12.2021
4709 Clouds 17 1016 48 9000 3.09 270 12:49 24.12.2021
4710 Clouds 17 1016 48 9000 3.09 270 12:23 24.12.2021
4711 Clouds 18 1016 48 7000 3.09 290 11:40 24.12.2021
4712 Clouds 18 1016 48 7000 3.09 290 11:18 24.12.2021
4713 Haze 18 1017 48 5000 0.51 0 10:33 24.12.2021
4714 Haze 15 1018 55 1600 2.06 80 08:36 24.12.2021
4715 Haze 12 1018 66 1000 1.54 130 07:58 24.12.2021
4716 Mist 10 1018 71 1300 1.54 140 06:18 24.12.2021
4717 Clear 9 1017 71 10000 0.51 120 00:20 24.12.2021
4718 Clear 8 1017 81 10000 1.54 340 23:33 23.12.2021
4719 Clear 9 1017 76 10000 0.51 360 22:50 23.12.2021
4720 Clear 9 1017 76 10000 0.51 360 22:22 23.12.2021
4721 Clear 10 1017 71 10000 1.03 330 21:39 23.12.2021
4722 Clear 10 1018 76 10000 1.54 330 20:27 23.12.2021
4723 Clear 11 1018 71 10000 1.54 340 19:28 23.12.2021
4724 Clear 12 1017 62 10000 3.6 320 17:58 23.12.2021
4725 Clear 12 1017 62 10000 3.6 320 17:29 23.12.2021
4726 Clear 14 1017 54 10000 1.54 310 16:26 23.12.2021
4727 Clouds 16 1016 51 10000 1.03 0 15:33 23.12.2021
4728 Clear 17 1016 48 10000 2.06 270 14:59 23.12.2021
4729 Clear 17 1016 48 10000 2.06 270 14:39 23.12.2021
4730 Clear 18 1016 45 10000 3.6 250 13:25 23.12.2021
4731 Clear 18 1017 42 10000 4.63 250 11:49 23.12.2021
4732 Mist 12 1018 58 10000 4.63 190 09:53 23.12.2021
4733 Mist 12 1018 58 10000 4.63 190 09:34 23.12.2021
4734 Mist 12 1019 58 10000 3.6 190 08:28 23.12.2021
4735 Clouds 10 1018 66 10000 4.12 130 05:39 23.12.2021
4736 Clouds 12 1019 51 10000 1.78 169 01:31 23.12.2021
4737 Clear 9 1020 66 10000 3.09 150 22:53 22.12.2021
4738 Clear 9 1020 66 10000 3.09 150 22:19 22.12.2021
4739 Clear 10 1020 71 10000 1.54 120 21:36 22.12.2021
4740 Clear 10 1020 71 10000 1.54 120 21:18 22.12.2021
4741 Clear 10 1020 66 10000 2.57 120 20:40 22.12.2021
4742 Clear 10 1020 71 10000 2.57 120 19:54 22.12.2021
4743 Clear 11 1020 66 10000 1.03 100 18:55 22.12.2021
4744 Clear 11 1020 66 10000 1.03 100 18:55 22.12.2021
4745 Clear 12 1020 66 10000 1.54 90 17:38 22.12.2021
4746 Clear 14 1020 51 10000 0 0 16:25 22.12.2021
4747 Clear 17 1020 45 10000 3.09 230 14:33 22.12.2021
4748 Clear 17 1020 48 10000 4.12 230 12:55 22.12.2021
4749 Clear 17 1020 51 10000 3.6 230 11:48 22.12.2021
4750 Clear 14 1022 62 10000 2.57 250 09:52 22.12.2021
4751 Clear 12 1023 62 10000 2.57 290 08:34 22.12.2021
4752 Clear 5 1022 81 10000 1.54 180 05:56 22.12.2021
4753 Clear 5 1022 81 10000 1.54 180 05:37 22.12.2021
4754 Clear 5 1022 81 10000 1.54 180 05:19 22.12.2021
4755 Clear 6 1021 75 10000 2.06 160 04:40 22.12.2021
4756 Clear 7 1021 76 10000 1.03 0 03:52 22.12.2021
4757 Clear 7 1021 76 10000 1.03 0 03:31 22.12.2021
4758 Clear 8 1021 66 10000 2.57 140 23:48 21.12.2021
4759 Clear 8 1021 66 10000 3.6 150 22:41 21.12.2021
4760 Clear 9 1021 61 10000 3.09 130 21:57 21.12.2021
4761 Clear 9 1021 61 10000 3.09 130 21:33 21.12.2021
4762 Clear 9 1021 61 10000 3.09 130 20:42 21.12.2021
4763 Clear 9 1021 61 10000 3.09 130 20:18 21.12.2021
4764 Clear 10 1021 57 10000 2.57 130 19:34 21.12.2021
4765 Clear 11 1021 58 10000 3.09 100 18:28 21.12.2021
4766 Clear 11 1021 54 10000 2.57 120 17:58 21.12.2021
4767 Clear 11 1021 54 10000 2.57 120 17:39 21.12.2021
4768 Clear 15 1020 44 10000 1.54 220 15:46 21.12.2021
4769 Clear 16 1020 44 10000 2.06 160 14:24 21.12.2021
4770 Clear 16 1019 44 10000 2.57 170 13:42 21.12.2021
4771 Clear 16 1019 44 10000 2.06 180 12:29 21.12.2021
4772 Clear 14 1020 47 9000 2.57 280 10:39 21.12.2021
4773 Clear 16 1019 42 10000 3.42 271 09:56 21.12.2021
4774 Clear 12 1021 54 6000 4.12 220 08:57 21.12.2021
4775 Dust 11 1021 54 4900 4.12 210 07:45 21.12.2021
4776 Dust 11 1021 54 4900 4.12 210 07:23 21.12.2021
4777 Dust 8 1019 66 800 2.06 190 04:26 21.12.2021
4778 Dust 9 1017 61 600 2.57 170 02:30 21.12.2021
4779 Dust 11 1017 58 800 3.09 170 23:55 20.12.2021
4780 Dust 14 1016 47 400 3.09 250 22:44 20.12.2021
4781 Dust 14 1016 47 400 3.09 250 22:25 20.12.2021
4782 Dust 15 1015 44 500 3.09 250 21:27 20.12.2021
4783 Fog 15 1015 47 800 3.6 260 20:55 20.12.2021
4784 Clear 15 1014 51 8000 5.66 260 20:24 20.12.2021
4785 Clear 15 1013 82 6000 5.14 190 19:38 20.12.2021
4786 Clouds 15 1013 82 6000 5.14 190 19:20 20.12.2021
4787 Clouds 15 1012 88 6000 6.69 160 18:33 20.12.2021
4788 Clouds 16 1011 82 6000 5.14 150 17:51 20.12.2021
4789 Clouds 15 1011 82 8000 4.12 160 16:47 20.12.2021
4790 Clouds 18 1010 71 10000 6.32 153 16:25 20.12.2021
4791 Clouds 17 1010 72 7000 4.12 140 15:40 20.12.2021
4792 Clouds 18 1010 68 7000 5.14 150 14:26 20.12.2021
4793 Clouds 16 1012 72 5000 2.57 150 12:40 20.12.2021
4794 Clouds 16 1014 72 8000 4.12 140 10:51 20.12.2021
4795 Clear 18 1015 39 10000 5.14 110 09:44 20.12.2021
4796 Clouds 16 1017 44 9000 1.54 60 08:56 20.12.2021
4797 Clouds 16 1017 44 9000 1.54 60 08:38 20.12.2021
4798 Clouds 13 1017 50 9000 2.06 90 07:44 20.12.2021
4799 Clouds 10 1018 62 6000 2.06 130 06:39 20.12.2021
4800 Clear 12 1018 58 10000 3.09 90 01:33 20.12.2021
4801 Clear 9 1019 71 10000 1.54 80 23:37 19.12.2021
4802 Clear 10 1020 62 10000 1.54 140 22:44 19.12.2021
4803 Clear 9 1020 71 10000 1.03 110 21:44 19.12.2021
4804 Clear 9 1020 71 10000 1.03 110 21:25 19.12.2021
4805 Clear 11 1020 58 10000 1.03 150 20:24 19.12.2021
4806 Clear 10 1020 57 10000 2.06 140 19:43 19.12.2021
4807 Clear 13 1020 47 10000 3.09 150 18:50 19.12.2021
4808 Clear 14 1019 47 10000 2.06 140 17:54 19.12.2021
4809 Clear 14 1019 47 10000 2.06 140 17:35 19.12.2021
4810 Clear 14 1019 44 10000 1.54 180 16:45 19.12.2021
4811 Clear 14 1019 44 10000 1.54 180 16:45 19.12.2021
4812 Clear 19 1018 34 10000 1.54 180 15:56 19.12.2021
4813 Clear 19 1018 34 10000 1.54 180 15:25 19.12.2021
4814 Clear 20 1018 32 10000 2.06 200 14:48 19.12.2021
4815 Clouds 20 1018 34 10000 3.09 190 13:38 19.12.2021
4816 Clear 20 1018 34 10000 4.12 190 12:59 19.12.2021
4817 Clear 20 1018 34 10000 4.12 190 12:32 19.12.2021
4818 Clear 20 1019 37 10000 3.6 170 11:38 19.12.2021
4819 Clear 19 1019 39 10000 3.6 180 10:50 19.12.2021
4820 Clear 19 1019 39 10000 3.6 180 10:22 19.12.2021
4821 Clear 16 1020 48 10000 3.09 130 08:55 19.12.2021
4822 Clear 8 1019 76 9000 1.03 0 06:54 19.12.2021
4823 Clear 8 1018 81 10000 1.54 130 02:30 19.12.2021
4824 Clear 9 1018 76 10000 1.03 90 00:55 19.12.2021
4825 Clear 9 1017 66 10000 2.06 170 23:21 18.12.2021
4826 Clear 10 1017 66 9000 1.03 130 22:29 18.12.2021
4827 Clear 10 1017 66 9000 1.54 160 21:44 18.12.2021
4828 Clear 10 1017 66 9000 1.54 160 21:26 18.12.2021
4829 Clear 10 1017 71 10000 1.03 80 20:43 18.12.2021
4830 Clear 11 1017 66 10000 1.03 0 19:40 18.12.2021
4831 Clear 13 1017 58 10000 1.54 320 18:26 18.12.2021
4832 Clear 14 1016 54 10000 1.54 350 17:49 18.12.2021
4833 Clear 16 1016 48 10000 2.06 250 16:55 18.12.2021
4834 Clear 16 1016 48 10000 2.06 250 16:21 18.12.2021
4835 Clear 19 1015 39 10000 1.54 270 15:25 18.12.2021
4836 Clear 20 1015 37 10000 3.6 240 14:19 18.12.2021
4837 Clear 20 1015 42 10000 3.09 240 12:21 18.12.2021
4838 Clear 18 1016 55 10000 2.57 230 10:42 18.12.2021
4839 Clear 16 1017 63 10000 2.57 260 09:32 18.12.2021
4840 Clear 13 1017 71 10000 3.09 260 08:37 18.12.2021
4841 Clear 11 1017 82 6000 2.57 240 07:42 18.12.2021
4842 Clear 11 1014 82 7000 2.06 260 01:48 18.12.2021
4843 Clear 12 1014 82 7000 3.09 250 00:23 18.12.2021
4844 Mist 14 1013 82 5000 2.06 250 23:35 17.12.2021
4845 Mist 15 1012 82 5000 2.57 290 21:50 17.12.2021
4846 Mist 16 1012 77 5000 4.63 290 20:49 17.12.2021
4847 Mist 16 1012 77 5000 4.63 290 20:21 17.12.2021
4848 Mist 18 1012 72 5000 3.6 300 18:50 17.12.2021
4849 Mist 18 1012 72 5000 3.6 300 18:19 17.12.2021
4850 Clouds 19 1012 68 9000 0 0 17:20 17.12.2021
4851 Clouds 19 1012 68 9000 1.54 170 16:29 17.12.2021
4852 Clouds 20 1012 64 8000 3.6 160 15:51 17.12.2021
4853 Clouds 21 1012 60 9000 5.14 170 14:43 17.12.2021
4854 Clouds 23 1011 53 6000 5.14 140 13:56 17.12.2021
4855 Clouds 22 1012 56 8000 6.17 130 12:38 17.12.2021
4856 Clouds 19 1014 72 6000 8.75 140 10:49 17.12.2021
4857 Clouds 19 1015 72 6000 8.75 140 09:51 17.12.2021
4858 Clouds 19 1015 68 6000 7.2 140 08:58 17.12.2021
4859 Clouds 19 1015 68 6000 7.2 140 08:18 17.12.2021
4860 Clouds 16 1015 77 8000 6.17 130 04:58 17.12.2021
4861 Clouds 18 1016 72 9000 5.66 130 00:58 17.12.2021
4862 Clouds 18 1016 72 10000 5.66 130 22:44 16.12.2021
4863 Clouds 18 1016 72 10000 5.66 130 22:22 16.12.2021
4864 Clouds 19 1016 63 10000 4.63 130 21:43 16.12.2021
4865 Clouds 19 1016 63 10000 5.14 140 20:42 16.12.2021
4866 Clouds 19 1016 63 10000 5.14 140 20:21 16.12.2021
4867 Clouds 19 1016 59 10000 4.63 130 19:30 16.12.2021
4868 Clouds 19 1016 63 10000 4.63 130 18:33 16.12.2021
4869 Clouds 20 1016 60 10000 4.63 130 17:46 16.12.2021
4870 Clouds 20 1016 60 10000 3.6 100 16:24 16.12.2021
4871 Clouds 21 1016 56 10000 2.06 130 15:38 16.12.2021
4872 Clouds 22 1015 56 9000 7.2 130 13:46 16.12.2021
4873 Clouds 20 1016 68 6000 4.12 130 12:26 16.12.2021
4874 Haze 20 1016 68 5000 5.66 130 11:19 16.12.2021
4875 Clouds 20 1017 64 5000 5.14 130 10:39 16.12.2021
4876 Haze 19 1018 68 5000 7.72 110 09:43 16.12.2021
4877 Mist 15 1018 77 4400 4.12 120 06:23 16.12.2021
4878 Clear 15 1017 72 10000 4.12 120 04:33 16.12.2021
4879 Clear 16 1017 59 10000 5.14 100 23:58 15.12.2021
4880 Clear 17 1017 45 10000 5.9 128 22:50 15.12.2021
4881 Clear 17 1017 41 10000 6.15 122 22:21 15.12.2021
4882 Clear 16 1017 59 10000 5.66 120 21:31 15.12.2021
4883 Clear 17 1017 59 10000 5.14 120 20:51 15.12.2021
4884 Clear 17 1017 59 10000 6.17 120 19:53 15.12.2021
4885 Clear 18 1017 26 10000 5.71 128 19:18 15.12.2021
4886 Clear 17 1017 59 10000 6.17 120 18:19 15.12.2021
4887 Clear 18 1016 48 10000 6.17 110 17:45 15.12.2021
4888 Clear 18 1016 48 10000 6.17 110 17:21 15.12.2021
4889 Clear 20 1015 37 10000 4.63 110 15:48 15.12.2021
4890 Clear 20 1015 37 10000 4.63 110 15:29 15.12.2021
4891 Clear 21 1015 16 10000 5.7 130 14:44 15.12.2021
4892 Clouds 24 1015 12 10000 8.19 139 13:28 15.12.2021
4893 Clear 22 1016 33 10000 7.72 130 11:41 15.12.2021
4894 Clear 20 1017 37 10000 7.72 130 10:18 15.12.2021
4895 Clouds 16 1018 51 10000 5.14 130 08:25 15.12.2021
4896 Clear 12 1017 62 10000 5.66 100 05:51 15.12.2021
4897 Clear 13 1017 54 10000 4.12 110 00:32 15.12.2021
4898 Clouds 16 1016 20 10000 4.87 127 23:21 14.12.2021
4899 Clear 13 1017 54 10000 4.12 100 22:42 14.12.2021
4900 Clear 13 1017 54 10000 4.63 110 21:40 14.12.2021
4901 Clouds 17 1017 18 10000 4.22 142 20:21 14.12.2021
4902 Clouds 13 1017 54 9000 3.09 110 19:26 14.12.2021
4903 Clouds 15 1017 47 9000 3.09 90 18:38 14.12.2021
4904 Clouds 15 1017 47 9000 3.09 90 17:53 14.12.2021
4905 Clear 16 1017 44 10000 2.57 120 16:43 14.12.2021
4906 Clear 16 1017 44 10000 2.57 120 16:21 14.12.2021
4907 Clear 19 1017 39 10000 3.09 120 13:59 14.12.2021
4908 Clear 19 1017 37 10000 3.6 140 12:50 14.12.2021
4909 Clouds 19 1017 34 7000 3.09 90 11:25 14.12.2021
4910 Clear 18 1018 39 10000 2.06 80 10:59 14.12.2021
4911 Clouds 16 1019 44 10000 1.54 80 09:54 14.12.2021
4912 Clouds 13 1020 62 9000 1.03 0 08:49 14.12.2021
4913 Clouds 13 1020 62 9000 1.03 0 08:21 14.12.2021
4914 Clouds 11 1020 66 9000 0.51 0 07:23 14.12.2021
4915 Clouds 10 1019 57 10000 1.54 270 23:52 13.12.2021
4916 Clear 9 1020 66 10000 1.03 200 22:26 13.12.2021
4917 Clear 10 1020 57 10000 1.03 0 21:39 13.12.2021
4918 Clear 11 1020 62 10000 0 0 20:54 13.12.2021
4919 Clear 11 1020 62 10000 0 0 20:22 13.12.2021
4920 Clear 11 1020 66 10000 1.03 40 19:49 13.12.2021
4921 Clear 15 1021 47 10000 2.06 270 17:39 13.12.2021
4922 Clear 15 1021 47 10000 2.06 270 17:18 13.12.2021
4923 Clear 19 1020 34 10000 2.57 270 15:43 13.12.2021
4924 Clear 21 1020 28 10000 3.6 300 14:43 13.12.2021
4925 Clear 22 1020 26 10000 4.12 320 13:37 13.12.2021
4926 Clear 21 1020 28 10000 4.63 280 12:40 13.12.2021
4927 Clear 21 1021 28 10000 5.14 300 11:53 13.12.2021
4928 Clear 21 1021 28 10000 5.14 300 11:34 13.12.2021
4929 Clear 20 1021 34 10000 4.63 300 10:37 13.12.2021
4930 Clear 15 1023 51 10000 5.14 290 08:44 13.12.2021
4931 Clear 9 1022 61 10000 3.09 270 06:55 13.12.2021
4932 Clear 8 1022 71 10000 3.6 280 05:19 13.12.2021
4933 Clear 11 1022 66 10000 3.6 290 00:41 13.12.2021
4934 Clear 13 1023 58 10000 4.12 280 21:59 12.12.2021
4935 Clear 13 1023 58 10000 4.12 280 21:29 12.12.2021
4936 Clear 13 1023 50 10000 3.6 270 19:36 12.12.2021
4937 Clear 15 1023 44 10000 4.12 290 18:23 12.12.2021
4938 Clear 17 1023 39 10000 4.12 280 16:47 12.12.2021
4939 Clear 17 1023 39 10000 4.12 280 16:22 12.12.2021
4940 Clear 18 1022 36 10000 4.12 300 15:28 12.12.2021
4941 Clear 20 1022 30 10000 6.69 310 14:54 12.12.2021
4942 Clear 20 1022 30 10000 6.69 310 14:19 12.12.2021
4943 Clear 21 1023 28 10000 7.72 300 12:51 12.12.2021
4944 Clear 21 1023 28 10000 7.72 300 12:23 12.12.2021
4945 Clear 21 1023 28 10000 7.72 300 12:23 12.12.2021
4946 Clear 20 1023 32 10000 7.2 300 11:43 12.12.2021
4947 Clear 18 1024 36 10000 6.69 310 10:44 12.12.2021
4948 Clear 18 1024 36 10000 6.69 310 10:44 12.12.2021
4949 Clear 18 1024 36 10000 6.69 310 10:21 12.12.2021
4950 Clear 14 1026 44 10000 5.14 310 08:50 12.12.2021
4951 Clear 11 1026 50 10000 3.09 290 07:30 12.12.2021
4952 Clear 6 1025 65 10000 3.6 300 05:56 12.12.2021
4953 Clear 4 1024 70 10000 3.09 310 04:53 12.12.2021
4954 Clear 12 1024 40 10000 4.12 323 01:26 12.12.2021
4955 Clear 8 1024 57 10000 3.09 290 23:28 11.12.2021
4956 Clear 7 1024 61 10000 2.06 290 22:21 11.12.2021
4957 Clear 8 1024 57 10000 3.09 290 21:47 11.12.2021
4958 Clear 9 1024 53 10000 3.09 300 20:20 11.12.2021
4959 Clear 10 1024 50 10000 3.6 310 19:21 11.12.2021
4960 Clear 13 1024 47 10000 3.09 280 18:49 11.12.2021
4961 Clear 13 1024 47 10000 3.09 290 17:56 11.12.2021
4962 Clear 16 1024 39 10000 3.6 290 16:39 11.12.2021
4963 Clear 17 1023 39 10000 4.12 320 15:46 11.12.2021
4964 Clear 19 1023 32 10000 5.66 310 14:54 11.12.2021
4965 Clear 20 1023 34 10000 7.2 310 12:41 11.12.2021
4966 Clear 19 1024 37 10000 6.17 290 11:18 11.12.2021
4967 Clear 17 1025 45 10000 4.63 300 09:45 11.12.2021
4968 Clear 16 1025 41 10000 4.83 316 07:30 11.12.2021
4969 Clear 8 1024 71 10000 2.57 290 00:50 11.12.2021
4970 Clear 8 1024 66 10000 1.54 280 23:45 10.12.2021
4971 Clear 8 1024 66 10000 1.54 280 23:18 10.12.2021
4972 Clear 9 1025 61 10000 3.6 320 21:52 10.12.2021
4973 Clear 10 1025 62 10000 3.6 310 20:56 10.12.2021
4974 Clear 11 1025 62 10000 3.6 300 19:20 10.12.2021
4975 Clear 13 1025 54 10000 3.09 300 17:54 10.12.2021
4976 Clear 16 1025 48 10000 3.6 290 16:55 10.12.2021
4977 Clear 18 1025 42 10000 4.63 290 15:47 10.12.2021
4978 Clear 18 1025 42 10000 4.63 290 15:29 10.12.2021
4979 Clear 19 1025 39 10000 6.69 300 14:57 10.12.2021
4980 Clear 20 1025 40 10000 7.2 310 13:50 10.12.2021
4981 Clear 20 1025 40 10000 7.2 310 13:25 10.12.2021
4982 Clear 20 1024 40 10000 6.17 320 12:23 10.12.2021
4983 Clear 19 1025 45 10000 6.69 310 11:28 10.12.2021
4984 Clear 16 1027 55 10000 5.14 300 09:54 10.12.2021
4985 Clear 14 1027 58 10000 5.14 300 08:30 10.12.2021
4986 Clear 6 1026 75 10000 3.6 310 05:56 10.12.2021
4987 Clear 8 1025 66 10000 2.57 320 02:48 10.12.2021
4988 Clear 10 1024 66 10000 2.57 340 23:46 09.12.2021
4989 Clear 10 1024 66 10000 2.57 340 23:20 09.12.2021
4990 Clear 9 1024 61 8000 1.54 340 22:24 09.12.2021
4991 Clear 10 1024 62 7000 2.57 310 21:49 09.12.2021
4992 Clear 11 1024 58 6000 1.54 310 20:41 09.12.2021
4993 Clear 16 1024 45 10000 3.58 326 20:20 09.12.2021
4994 Clear 11 1024 54 7000 3.09 290 19:21 09.12.2021
4995 Clear 12 1024 54 6000 1.03 270 18:36 09.12.2021
4996 Clear 14 1023 51 7000 1.54 330 17:51 09.12.2021
4997 Clear 14 1023 51 7000 1.54 330 17:25 09.12.2021
4998 Clear 15 1023 44 7000 2.57 310 16:53 09.12.2021
4999 Clear 17 1022 39 5000 2.06 300 15:32 09.12.2021
5000 Clear 19 1022 34 6000 2.06 280 14:46 09.12.2021
5001 Haze 19 1021 37 5000 3.6 310 13:20 09.12.2021
5002 Haze 20 1021 34 5000 5.14 290 12:37 09.12.2021
5003 Haze 20 1021 34 5000 4.12 300 11:21 09.12.2021
5004 Haze 17 1022 39 4800 4.12 270 08:54 09.12.2021
5005 Clouds 13 1020 50 7000 4.63 260 06:44 09.12.2021
5006 Clouds 12 1019 62 10000 1.03 0 03:40 09.12.2021
5007 Clear 15 1016 58 10000 4.63 130 23:43 08.12.2021
5008 Clear 15 1016 58 10000 4.63 130 23:21 08.12.2021
5009 Clear 15 1016 58 10000 4.63 120 22:47 08.12.2021
5010 Clear 13 1017 62 10000 3.09 140 21:42 08.12.2021
5011 Clear 13 1017 62 10000 3.09 140 21:24 08.12.2021
5012 Clear 18 1016 48 10000 5.66 140 19:58 08.12.2021
5013 Clear 18 1016 48 10000 5.66 140 19:34 08.12.2021
5014 Clear 18 1015 52 10000 5.14 140 18:45 08.12.2021
5015 Clouds 18 1016 52 10000 6.17 150 17:37 08.12.2021
5016 Clouds 20 1015 49 10000 6.69 140 15:51 08.12.2021
5017 Clouds 20 1015 49 10000 6.69 140 15:28 08.12.2021
5018 Clouds 20 1015 49 8000 6.69 120 14:31 08.12.2021
5019 Clouds 20 1016 45 8000 6.17 130 11:36 08.12.2021
5020 Clouds 19 1017 45 10000 6.17 120 10:31 08.12.2021
5021 Haze 16 1019 55 2500 5.14 130 08:56 08.12.2021
5022 Mist 15 1020 55 3800 3.6 110 07:26 08.12.2021
5023 Clear 12 1019 66 10000 2.06 80 04:57 08.12.2021
5024 Clear 11 1019 66 10000 1.03 130 23:34 07.12.2021
5025 Clouds 11 1020 71 9000 1.03 130 21:51 07.12.2021
5026 Clouds 11 1020 71 9000 1.03 130 21:23 07.12.2021
5027 Clouds 13 1020 67 9000 1.54 160 20:20 07.12.2021
5028 Clouds 15 1021 63 9000 2.06 160 18:47 07.12.2021
5029 Clear 15 1021 63 10000 1.03 0 17:53 07.12.2021
5030 Clear 15 1021 63 10000 1.03 0 17:20 07.12.2021
5031 Clear 17 1021 55 10000 1.03 0 16:31 07.12.2021
5032 Clouds 17 1021 55 9000 1.03 140 15:34 07.12.2021
5033 Clouds 19 1021 48 10000 1.54 200 14:23 07.12.2021
5034 Clear 19 1021 48 10000 2.06 230 12:56 07.12.2021
5035 Clear 19 1021 48 10000 2.06 230 12:56 07.12.2021
5036 Clouds 19 1021 48 8000 1.54 230 11:52 07.12.2021
5037 Clouds 17 1022 51 8000 2.06 240 10:36 07.12.2021
5038 Clouds 13 1023 58 10000 1.03 0 08:39 07.12.2021
5039 Clouds 7 1023 70 8000 2.06 290 06:20 07.12.2021
5040 Clear 8 1022 66 10000 2.06 310 05:37 07.12.2021
5041 Clear 10 1022 62 10000 2.57 290 23:49 06.12.2021
5042 Clouds 15 1022 42 10000 3.19 349 22:58 06.12.2021
5043 Clouds 15 1022 42 10000 3.19 349 22:37 06.12.2021
5044 Clear 10 1022 62 10000 2.57 320 21:52 06.12.2021
5045 Clear 10 1022 62 10000 2.57 300 20:40 06.12.2021
5046 Clear 10 1022 62 10000 2.57 300 20:22 06.12.2021
5047 Clear 17 1022 35 10000 2.73 337 19:22 06.12.2021
5048 Clear 17 1021 31 10000 2.74 337 18:29 06.12.2021
5049 Clear 15 1021 47 10000 1.54 300 17:41 06.12.2021
5050 Clear 16 1020 48 10000 1.54 340 16:49 06.12.2021
5051 Clear 18 1020 42 10000 2.57 340 15:41 06.12.2021
5052 Clear 20 1020 34 10000 4.63 310 13:46 06.12.2021
5053 Clear 20 1020 37 10000 3.6 310 12:40 06.12.2021
5054 Clear 19 1019 42 10000 4.12 310 11:48 06.12.2021
5055 Clear 18 1020 42 9000 5.14 320 09:20 06.12.2021
5056 Clear 9 1019 71 7000 2.57 320 06:43 06.12.2021
5057 Clouds 15 1014 44 10000 6.69 120 23:44 05.12.2021
5058 Clouds 14 1016 51 10000 6.17 120 21:52 05.12.2021
5059 Clouds 14 1016 51 10000 6.17 120 21:24 05.12.2021
5060 Clouds 14 1014 38 10000 2.06 140 20:19 05.12.2021
5061 Clear 15 1014 38 10000 2.57 100 19:36 05.12.2021
5062 Clear 15 1014 38 10000 2.57 100 19:18 05.12.2021
5063 Clear 15 1014 38 10000 2.06 130 18:20 05.12.2021
5064 Clear 12 1014 50 10000 2.06 90 17:49 05.12.2021
5065 Clear 14 1014 38 10000 1.03 0 16:52 05.12.2021
5066 Clear 14 1014 38 10000 1.03 0 16:27 05.12.2021
5067 Clear 16 1013 39 10000 4.12 120 15:58 05.12.2021
5068 Clouds 18 1012 34 10000 6.17 120 14:45 05.12.2021
5069 Clouds 18 1012 34 10000 6.17 120 14:26 05.12.2021
5070 Clouds 18 1013 34 10000 6.69 110 13:27 05.12.2021
5071 Clouds 18 1015 34 8000 5.66 110 12:40 05.12.2021
5072 Clouds 18 1015 34 8000 5.66 110 12:18 05.12.2021
5073 Clear 17 1016 36 10000 4.63 110 11:35 05.12.2021
5074 Clear 16 1017 39 10000 4.12 130 10:19 05.12.2021
5075 Haze 14 1019 47 4500 3.09 110 08:45 05.12.2021
5076 Clear 7 1019 61 10000 0.51 180 04:56 05.12.2021
5077 Clear 8 1020 61 10000 1.54 30 01:23 05.12.2021
5078 Clear 8 1020 53 10000 1.03 0 22:24 04.12.2021
5079 Clear 10 1020 50 10000 2.57 250 21:20 04.12.2021
5080 Clear 9 1020 53 10000 0.51 0 20:32 04.12.2021
5081 Clear 8 1020 53 10000 1.54 230 19:33 04.12.2021
5082 Clear 13 1020 38 10000 1.54 250 18:23 04.12.2021
5083 Clouds 12 1020 37 8000 1.03 340 17:45 04.12.2021
5084 Clouds 12 1020 37 8000 1.03 340 17:20 04.12.2021
5085 Clouds 13 1020 38 8000 1.03 300 16:42 04.12.2021
5086 Clouds 13 1020 38 8000 1.03 300 16:24 04.12.2021
5087 Clear 17 1021 39 10000 3.09 260 11:56 04.12.2021
5088 Clear 17 1021 39 10000 3.09 260 11:33 04.12.2021
5089 Clear 16 1022 41 10000 3.6 260 10:57 04.12.2021
5090 Clouds 13 1023 44 8000 2.06 270 08:53 04.12.2021
5091 Clouds 13 1023 44 8000 2.06 270 08:27 04.12.2021
5092 Clear 4 1023 70 10000 2.06 240 04:42 04.12.2021
5093 Clear 6 1022 65 10000 2.06 330 00:49 04.12.2021
5094 Clear 6 1023 61 10000 1.03 290 23:33 03.12.2021
5095 Clear 8 1023 53 10000 2.06 270 22:51 03.12.2021
5096 Clear 9 1023 49 10000 2.06 280 21:54 03.12.2021
5097 Clear 9 1023 49 10000 2.06 280 21:20 03.12.2021
5098 Clear 8 1023 49 10000 2.06 260 20:28 03.12.2021
5099 Clear 10 1023 43 10000 2.06 260 19:20 03.12.2021
5100 Clear 12 1023 40 10000 2.57 270 18:22 03.12.2021
5101 Clouds 15 1022 27 10000 3.59 314 17:30 03.12.2021
5102 Clear 18 1022 29 10000 5.66 300 13:35 03.12.2021
5103 Clear 19 1022 30 10000 5.66 290 12:21 03.12.2021
5104 Clear 18 1022 34 10000 6.17 300 11:19 03.12.2021
5105 Clear 15 1023 47 10000 5.14 290 09:21 03.12.2021
5106 Clear 10 1023 53 10000 4.12 290 07:44 03.12.2021
5107 Clear 8 1023 57 10000 3.6 290 06:41 03.12.2021
5108 Clear 7 1020 53 10000 2.57 300 00:49 03.12.2021
5109 Clear 8 1020 53 10000 3.09 290 23:54 02.12.2021
5110 Clear 8 1020 53 10000 3.09 290 23:33 02.12.2021
5111 Clear 10 1020 46 10000 3.6 320 21:41 02.12.2021
5112 Clear 11 1020 40 10000 4.12 310 20:46 02.12.2021
5113 Clear 11 1020 40 10000 4.12 310 20:23 02.12.2021
5114 Clear 12 1020 37 10000 3.6 310 19:22 02.12.2021
5115 Clear 15 1018 38 10000 5.66 300 17:21 02.12.2021
5116 Clear 18 1016 39 10000 6.69 290 15:41 02.12.2021
5117 Clear 19 1016 37 10000 8.75 290 14:57 02.12.2021
5118 Clear 20 1015 37 10000 9.26 290 13:44 02.12.2021
5119 Clear 20 1015 42 10000 8.75 280 12:50 02.12.2021
5120 Clouds 20 1015 45 10000 8.75 300 11:52 02.12.2021
5121 Clear 18 1016 59 10000 6.17 290 09:27 02.12.2021
5122 Clouds 18 1016 59 9000 4.12 280 08:20 02.12.2021
5123 Clear 15 1010 51 10000 2.06 200 01:58 02.12.2021
5124 Clear 12 1010 62 10000 0.51 0 00:50 02.12.2021
5125 Clouds 14 1011 54 9000 0.51 0 22:34 01.12.2021
5126 Clouds 16 1011 51 8000 2.06 280 21:55 01.12.2021
5127 Clouds 15 1011 55 9000 1.54 80 20:35 01.12.2021
5128 Clear 15 1012 55 10000 1.54 20 19:51 01.12.2021
5129 Clouds 16 1011 51 8000 1.54 320 18:57 01.12.2021
5130 Clear 17 1011 51 10000 2.57 90 17:39 01.12.2021
5131 Clear 19 1010 48 10000 1.03 0 16:38 01.12.2021
5132 Clear 23 1010 40 10000 3.6 170 14:48 01.12.2021
5133 Clear 24 1010 35 10000 5.14 170 13:38 01.12.2021
5134 Clouds 22 1010 40 10000 7.2 130 11:34 01.12.2021
5135 Clear 21 1011 40 10000 5.66 150 10:41 01.12.2021
5136 Clear 19 1013 45 10000 6.17 120 08:55 01.12.2021
5137 Clear 19 1013 45 10000 6.17 120 08:26 01.12.2021
5138 Clear 16 1013 55 10000 4.63 120 07:32 01.12.2021
5139 Clear 14 1013 58 10000 4.12 150 04:20 01.12.2021
5140 Clear 14 1013 62 10000 4.12 110 03:38 01.12.2021
5141 Clear 13 1014 62 10000 3.6 130 00:51 01.12.2021
5142 Clear 12 1014 66 10000 2.57 140 23:37 30.11.2021
5143 Clear 14 1014 67 10000 3.09 130 22:42 30.11.2021
5144 Clouds 15 1015 67 9000 2.06 130 20:59 30.11.2021
5145 Clouds 15 1015 67 9000 2.06 130 20:34 30.11.2021
5146 Clear 16 1016 63 10000 1.54 160 19:53 30.11.2021
5147 Clear 16 1016 63 10000 1.54 160 19:30 30.11.2021
5148 Clear 17 1016 63 10000 3.09 120 18:33 30.11.2021
5149 Clouds 21 1015 33 10000 0.92 168 16:34 30.11.2021
5150 Clear 24 1016 38 10000 1.54 290 14:35 30.11.2021
5151 Clear 24 1016 35 10000 3.6 290 13:52 30.11.2021
5152 Clear 24 1016 35 10000 3.6 290 13:25 30.11.2021
5153 Clear 24 1016 35 10000 3.6 300 12:45 30.11.2021
5154 Clear 23 1017 40 10000 4.12 300 11:27 30.11.2021
5155 Clear 21 1018 43 10000 3.6 290 10:53 30.11.2021
5156 Clear 21 1018 43 10000 3.6 290 10:30 30.11.2021
5157 Clear 18 1020 48 10000 4.12 300 08:51 30.11.2021
5158 Clear 18 1020 48 10000 4.12 300 08:20 30.11.2021
5159 Clear 15 1020 55 10000 4.63 310 07:40 30.11.2021
5160 Clear 11 1019 62 10000 3.09 300 02:29 30.11.2021
5161 Clear 13 1019 58 10000 2.57 280 01:40 30.11.2021
5162 Clear 12 1019 58 10000 3.09 300 23:57 29.11.2021
5163 Clear 12 1019 58 10000 3.09 300 23:23 29.11.2021
5164 Clear 14 1020 58 10000 2.06 320 22:52 29.11.2021
5165 Clear 14 1020 58 10000 2.06 320 22:32 29.11.2021
5166 Clear 14 1020 58 10000 3.09 310 21:23 29.11.2021
5167 Clear 15 1020 55 10000 3.09 310 20:57 29.11.2021
5168 Clear 15 1020 55 10000 3.09 310 20:29 29.11.2021
5169 Clear 16 1020 55 10000 3.6 300 19:55 29.11.2021
5170 Clear 16 1020 55 10000 3.6 300 19:34 29.11.2021
5171 Clear 17 1020 51 10000 3.09 300 18:51 29.11.2021
5172 Clouds 20 1019 34 10000 3.89 333 17:49 29.11.2021
5173 Clouds 21 1019 33 10000 4.07 336 17:18 29.11.2021
5174 Clouds 22 1019 31 10000 4.07 339 16:29 29.11.2021
5175 Clouds 22 1019 31 10000 4.07 339 15:45 29.11.2021
5176 Clear 23 1018 28 10000 4.18 340 14:42 29.11.2021
5177 Clear 25 1018 25 10000 4.76 336 13:32 29.11.2021
5178 Clear 25 1018 23 10000 4.11 324 12:28 29.11.2021
5179 Clear 25 1018 23 10000 4.11 324 11:36 29.11.2021
5180 Clear 25 1019 24 10000 3.57 324 10:41 29.11.2021
5181 Clear 23 1020 35 10000 1.03 0 09:34 29.11.2021
5182 Clear 12 1020 62 10000 0 0 06:20 29.11.2021
5183 Clear 11 1019 71 10000 1.03 280 01:43 29.11.2021
5184 Clear 12 1019 62 10000 1.03 0 00:40 29.11.2021
5185 Clear 14 1019 54 10000 2.06 230 23:44 28.11.2021
5186 Clear 14 1019 54 10000 2.06 230 23:23 28.11.2021
5187 Clear 14 1020 58 10000 1.03 0 21:49 28.11.2021
5188 Clear 14 1020 58 10000 1.03 0 21:23 28.11.2021
5189 Clear 13 1020 62 10000 1.03 0 20:33 28.11.2021
5190 Clear 16 1020 51 10000 2.06 310 18:53 28.11.2021
5191 Clear 16 1020 51 10000 2.06 310 18:32 28.11.2021
5192 Clear 17 1020 48 10000 1.54 310 17:55 28.11.2021
5193 Clear 17 1020 48 10000 1.54 310 17:31 28.11.2021
5194 Clear 19 1020 42 10000 3.09 320 16:40 28.11.2021
5195 Clear 19 1020 42 10000 3.09 320 16:18 28.11.2021
5196 Clear 22 1019 37 10000 3.6 300 15:31 28.11.2021
5197 Clouds 22 1018 27 10000 4.22 328 14:46 28.11.2021
5198 Clear 24 1019 35 10000 5.14 280 13:18 28.11.2021
5199 Clear 24 1020 38 10000 4.63 290 12:46 28.11.2021
5200 Clear 24 1020 35 10000 5.66 290 11:18 28.11.2021
5201 Clear 23 1021 35 10000 3.6 280 10:21 28.11.2021
5202 Clouds 21 1021 40 9000 2.57 290 09:37 28.11.2021
5203 Clear 16 1022 48 10000 3.09 300 07:49 28.11.2021
5204 Clear 12 1021 62 10000 1.54 330 23:58 27.11.2021
5205 Clear 15 1021 55 10000 1.54 280 21:20 27.11.2021
5206 Clear 17 1021 48 10000 2.57 280 19:47 27.11.2021
5207 Clear 17 1021 48 10000 3.09 300 17:27 27.11.2021
5208 Clear 22 1021 37 10000 3.09 290 15:58 27.11.2021
5209 Clear 24 1021 33 10000 4.63 320 13:58 27.11.2021
5210 Clear 25 1021 31 10000 5.14 300 12:57 27.11.2021
5211 Clear 24 1022 35 10000 5.66 310 10:52 27.11.2021
5212 Clear 22 1023 37 10000 4.63 300 09:53 27.11.2021
5213 Clear 19 1023 45 10000 4.12 300 08:44 27.11.2021
5214 Clear 13 1023 58 8000 2.06 280 06:34 27.11.2021
5215 Clear 11 1021 66 10000 2.57 320 01:59 27.11.2021
5216 Clear 13 1021 58 10000 2.06 300 23:39 26.11.2021
5217 Clear 12 1021 71 10000 1.54 310 22:25 26.11.2021
5218 Clear 15 1021 58 10000 2.57 310 21:38 26.11.2021
5219 Clear 15 1021 58 10000 2.57 310 21:18 26.11.2021
5220 Clear 15 1020 63 10000 1.54 300 20:30 26.11.2021
5221 Clear 15 1020 58 10000 3.09 300 19:54 26.11.2021
5222 Clear 17 1020 51 10000 3.6 300 18:43 26.11.2021
5223 Clear 17 1020 45 10000 2.06 290 17:24 26.11.2021
5224 Clear 17 1020 45 10000 2.06 290 17:24 26.11.2021
5225 Clear 20 1019 34 10000 2.06 290 16:29 26.11.2021
5226 Clear 24 1018 29 10000 3.09 320 14:25 26.11.2021
5227 Clear 25 1018 27 10000 3.6 300 13:31 26.11.2021
5228 Clear 23 1019 33 10000 2.57 350 10:43 26.11.2021
5229 Clear 22 1020 37 8000 2.57 330 09:41 26.11.2021
5230 Clear 20 1020 42 8000 2.06 340 08:50 26.11.2021
5231 Clear 20 1020 42 8000 2.06 340 08:19 26.11.2021
5232 Clear 13 1020 71 7000 2.57 320 06:30 26.11.2021
5233 Clear 12 1019 71 10000 1.54 330 04:52 26.11.2021
5234 Clear 15 1019 63 10000 2.06 320 03:34 26.11.2021
5235 Clear 15 1019 58 10000 2.06 300 23:30 25.11.2021
5236 Clouds 18 1019 52 8000 0 0 22:19 25.11.2021
5237 Clouds 18 1019 55 8000 1.03 0 20:43 25.11.2021
5238 Clouds 18 1019 52 8000 1.03 330 19:21 25.11.2021
5239 Clouds 21 1018 35 10000 1.47 77 18:25 25.11.2021
5240 Clear 19 1018 48 10000 1.03 340 17:27 25.11.2021
5241 Clouds 19 1018 48 10000 1.54 330 16:44 25.11.2021
5242 Clouds 20 1018 45 10000 2.06 310 15:59 25.11.2021
5243 Clouds 22 1018 40 10000 2.06 320 14:31 25.11.2021
5244 Clear 21 1017 40 10000 2.06 340 12:57 25.11.2021
5245 Clear 21 1018 40 10000 1.03 0 11:56 25.11.2021
5246 Clear 21 1019 40 10000 1.03 0 10:49 25.11.2021
5247 Clouds 17 1021 55 8000 1.54 290 08:28 25.11.2021
5248 Clear 9 1019 81 10000 1.03 0 03:18 25.11.2021
5249 Clear 11 1019 66 10000 1.03 0 01:26 25.11.2021
5250 Clear 12 1019 71 10000 1.03 0 22:33 24.11.2021
5251 Clouds 17 1018 45 10000 2.38 333 21:57 24.11.2021
5252 Clouds 18 1018 44 10000 2.51 324 21:22 24.11.2021
5253 Clear 12 1019 66 10000 1.54 220 20:28 24.11.2021
5254 Clear 14 1019 62 10000 0.51 0 19:40 24.11.2021
5255 Clear 15 1019 58 10000 1.03 0 18:29 24.11.2021
5256 Clear 18 1019 52 10000 1.54 320 16:48 24.11.2021
5257 Clear 20 1019 45 10000 2.06 320 15:22 24.11.2021
5258 Clear 22 1018 37 10000 3.09 290 14:30 24.11.2021
5259 Clear 23 1019 35 10000 3.09 290 13:43 24.11.2021
5260 Clear 22 1019 40 10000 4.12 290 11:49 24.11.2021
5261 Clear 22 1019 40 10000 4.12 290 11:19 24.11.2021
5262 Clear 22 1021 40 10000 2.06 280 10:38 24.11.2021
5263 Clear 21 1021 46 10000 2.06 280 09:40 24.11.2021
5264 Clouds 15 1022 58 8000 2.57 300 07:42 24.11.2021
5265 Clear 12 1021 71 8000 2.06 260 06:20 24.11.2021
5266 Clear 11 1020 76 10000 3.09 310 03:47 24.11.2021
5267 Clear 13 1021 71 10000 2.57 310 23:42 23.11.2021
5268 Clear 14 1021 72 10000 3.09 310 22:39 23.11.2021
5269 Clear 16 1021 63 10000 4.63 300 21:46 23.11.2021
5270 Clear 17 1021 55 10000 5.66 300 20:47 23.11.2021
5271 Clear 17 1021 51 10000 3.6 290 19:37 23.11.2021
5272 Clear 17 1021 51 10000 2.57 300 18:37 23.11.2021
5273 Clear 19 1021 45 10000 3.09 280 17:57 23.11.2021
5274 Clear 20 1020 45 10000 3.6 280 16:54 23.11.2021
5275 Clear 20 1020 45 10000 3.6 280 16:54 23.11.2021
5276 Clear 21 1020 40 10000 3.09 300 15:41 23.11.2021
5277 Clear 21 1020 40 10000 3.09 300 15:19 23.11.2021
5278 Clear 24 1020 35 10000 5.66 310 13:43 23.11.2021
5279 Clear 21 1021 43 10000 5.14 310 10:41 23.11.2021
5280 Clear 23 1021 31 10000 5.68 324 09:57 23.11.2021
5281 Clear 17 1022 55 10000 4.12 300 08:43 23.11.2021
5282 Clear 11 1022 71 7000 3.09 300 05:57 23.11.2021
5283 Clear 12 1021 71 10000 3.09 320 03:39 23.11.2021
5284 Clear 12 1021 71 10000 1.54 280 00:28 23.11.2021
5285 Clear 13 1021 62 10000 2.06 280 23:20 22.11.2021
5286 Clear 14 1021 62 10000 2.57 290 22:32 22.11.2021
5287 Clear 13 1021 67 8000 1.03 270 21:46 22.11.2021
5288 Clear 13 1021 67 8000 1.03 270 21:26 22.11.2021
5289 Clear 15 1021 63 8000 2.06 290 20:49 22.11.2021
5290 Clear 15 1021 63 8000 2.06 290 20:49 22.11.2021
5291 Clouds 15 1021 63 8000 1.54 290 19:26 22.11.2021
5292 Clear 16 1020 59 10000 2.57 330 18:50 22.11.2021
5293 Clear 16 1020 59 10000 2.57 330 18:31 22.11.2021
5294 Clear 19 1019 52 10000 3.09 290 16:56 22.11.2021
5295 Clouds 21 1019 46 10000 2.57 290 15:42 22.11.2021
5296 Clouds 21 1018 46 8000 4.12 310 12:56 22.11.2021
5297 Clouds 21 1019 46 8000 4.63 290 11:39 22.11.2021
5298 Clouds 20 1019 49 8000 3.6 290 10:38 22.11.2021
5299 Clouds 16 1020 55 8000 3.09 300 08:46 22.11.2021
5300 Clouds 16 1020 55 8000 3.09 300 08:25 22.11.2021
5301 Clear 11 1017 66 10000 3.09 290 04:32 22.11.2021
5302 Clear 14 1016 62 10000 1.54 280 23:23 21.11.2021
5303 Clear 14 1015 67 10000 2.06 310 22:46 21.11.2021
5304 Clear 16 1015 59 10000 2.57 270 21:40 21.11.2021
5305 Clear 15 1015 63 10000 2.06 270 20:41 21.11.2021
5306 Clear 15 1015 63 10000 1.54 270 19:46 21.11.2021
5307 Clear 19 1014 52 10000 3.09 280 17:59 21.11.2021
5308 Clear 19 1014 52 10000 3.09 280 17:37 21.11.2021
5309 Clear 22 1012 43 10000 3.09 330 15:25 21.11.2021
5310 Clear 24 1012 38 10000 4.63 310 14:44 21.11.2021
5311 Clear 24 1012 35 10000 1.54 340 13:40 21.11.2021
5312 Clear 24 1012 38 10000 1.54 0 12:35 21.11.2021
5313 Clear 23 1012 43 10000 3.09 340 11:42 21.11.2021
5314 Clear 22 1013 49 10000 3.6 350 10:55 21.11.2021
5315 Clear 22 1013 49 10000 3.6 350 10:18 21.11.2021
5316 Clouds 18 1014 68 9000 4.12 330 08:40 21.11.2021
5317 Clouds 18 1014 68 9000 4.12 330 08:20 21.11.2021
5318 Clouds 17 1013 72 8000 3.6 320 07:41 21.11.2021
5319 Mist 13 1012 76 5000 2.06 350 05:48 21.11.2021
5320 Mist 13 1012 76 5000 2.06 350 05:19 21.11.2021
5321 Clear 15 1011 63 10000 1.54 30 03:18 21.11.2021
5322 Clouds 15 1011 72 8000 4.12 360 02:50 21.11.2021
5323 Clouds 15 1012 72 7000 6.69 110 00:54 21.11.2021
5324 Clouds 15 1013 77 7000 5.14 140 23:41 20.11.2021
5325 Clouds 17 1013 63 8000 3.09 160 21:39 20.11.2021
5326 Clouds 18 1012 59 9000 1.54 180 20:54 20.11.2021
5327 Clouds 19 1011 48 10000 5.14 110 18:46 20.11.2021
5328 Clouds 19 1011 48 10000 5.14 110 18:46 20.11.2021
5329 Clouds 19 1011 48 10000 5.14 110 18:26 20.11.2021
5330 Clouds 19 1011 55 10000 2.06 310 17:26 20.11.2021
5331 Clear 19 1010 45 10000 1.54 130 16:42 20.11.2021
5332 Clouds 21 1010 40 10000 3.6 180 14:43 20.11.2021
5333 Clouds 21 1010 40 10000 3.6 180 14:23 20.11.2021
5334 Clear 23 1011 33 10000 1.54 220 11:57 20.11.2021
5335 Clear 22 1012 35 10000 1.54 0 10:35 20.11.2021
5336 Clear 20 1012 37 10000 3.09 120 09:39 20.11.2021
5337 Haze 15 1013 55 3800 3.09 130 07:28 20.11.2021
5338 Clouds 10 1012 57 7000 1.03 120 05:27 20.11.2021
5339 Clear 11 1011 58 9000 1.03 110 04:50 20.11.2021
5340 Clear 12 1011 62 10000 1.54 70 01:55 20.11.2021
5341 Clear 12 1012 62 10000 1.03 130 00:40 20.11.2021
5342 Clear 13 1012 58 10000 1.03 140 23:41 19.11.2021
5343 Clear 12 1012 58 10000 1.54 170 22:21 19.11.2021
5344 Clear 14 1012 58 10000 0 0 20:58 19.11.2021
5345 Clear 14 1012 58 10000 0 0 20:36 19.11.2021
5346 Clear 14 1013 54 10000 0.51 110 19:55 19.11.2021
5347 Clear 16 1013 44 10000 0 0 18:54 19.11.2021
5348 Clear 16 1013 44 10000 0 0 18:23 19.11.2021
5349 Clear 17 1012 45 10000 0 0 17:31 19.11.2021
5350 Clear 20 1012 37 10000 2.06 340 15:58 19.11.2021
5351 Clear 24 1013 29 10000 2.57 290 13:55 19.11.2021
5352 Clouds 21 1015 35 10000 2.57 260 10:28 19.11.2021
5353 Clouds 20 1016 40 10000 3.09 290 09:38 19.11.2021
5354 Clouds 19 1016 39 10000 2.57 280 08:24 19.11.2021
5355 Clear 9 1015 71 10000 1.03 0 04:53 19.11.2021
5356 Clear 10 1016 62 10000 1.54 260 02:35 19.11.2021
5357 Clear 12 1016 54 10000 2.57 320 23:51 18.11.2021
5358 Clear 13 1017 47 10000 1.03 310 22:21 18.11.2021
5359 Clear 13 1017 44 10000 2.06 270 20:50 18.11.2021
5360 Clear 13 1017 44 10000 2.06 270 20:31 18.11.2021
5361 Clear 15 1017 41 10000 1.54 290 19:55 18.11.2021
5362 Clear 15 1017 41 10000 1.54 290 19:34 18.11.2021
5363 Clear 16 1017 39 10000 3.09 300 18:34 18.11.2021
5364 Clear 17 1017 36 9000 3.09 290 17:51 18.11.2021
5365 Clear 20 1016 32 10000 2.06 310 16:45 18.11.2021
5366 Clear 22 1016 26 10000 3.09 300 15:49 18.11.2021
5367 Clear 25 1016 23 10000 5.66 320 13:59 18.11.2021
5368 Clear 25 1017 22 10000 6.69 300 12:34 18.11.2021
5369 Clear 25 1017 20 10000 6.69 310 11:43 18.11.2021
5370 Clear 25 1017 20 10000 6.69 310 11:25 18.11.2021
5371 Clear 24 1018 20 10000 4.63 310 10:19 18.11.2021
5372 Clear 15 1020 36 10000 4.63 300 07:38 18.11.2021
5373 Clear 9 1019 53 10000 3.09 290 05:59 18.11.2021
5374 Clear 9 1019 53 10000 3.09 290 05:39 18.11.2021
5375 Clear 10 1018 50 10000 3.6 290 01:24 18.11.2021
5376 Clouds 18 1018 28 10000 4.25 342 23:25 17.11.2021
5377 Clear 12 1018 50 10000 3.09 310 22:34 17.11.2021
5378 Clear 13 1018 47 10000 2.57 290 21:55 17.11.2021
5379 Clear 13 1018 47 10000 2.57 290 21:35 17.11.2021
5380 Clear 15 1018 44 10000 3.09 300 19:27 17.11.2021
5381 Clear 19 1018 37 10000 3.6 290 17:31 17.11.2021
5382 Clear 21 1017 30 10000 3.09 310 15:23 17.11.2021
5383 Clear 25 1017 25 10000 6.17 310 12:56 17.11.2021
5384 Clear 25 1017 25 10000 6.17 310 12:36 17.11.2021
5385 Clear 23 1017 35 10000 5.66 300 10:51 17.11.2021
5386 Clear 21 1018 37 10000 4.12 310 09:37 17.11.2021
5387 Clear 17 1018 48 10000 5.14 310 07:46 17.11.2021
5388 Clear 14 1017 62 8000 3.6 320 06:53 17.11.2021
5389 Clear 13 1016 67 10000 3.09 320 02:47 17.11.2021
5390 Clear 13 1017 67 10000 3.09 300 23:46 16.11.2021
5391 Clear 14 1016 67 10000 2.57 300 22:20 16.11.2021
5392 Clear 16 1016 59 10000 1.54 280 20:19 16.11.2021
5393 Clear 16 1016 59 10000 1.54 280 20:18 16.11.2021
5394 Clear 17 1015 55 10000 3.09 320 18:53 16.11.2021
5395 Clear 17 1015 55 10000 3.09 320 18:34 16.11.2021
5396 Clouds 19 1015 45 10000 2.57 310 17:38 16.11.2021
5397 Clouds 20 1015 45 10000 3.09 360 16:37 16.11.2021
5398 Clouds 21 1014 40 10000 4.63 340 15:50 16.11.2021
5399 Clouds 21 1014 40 10000 4.63 340 15:26 16.11.2021
5400 Clouds 23 1013 33 10000 5.66 310 11:50 16.11.2021
5401 Clear 22 1015 30 10000 2.57 350 09:49 16.11.2021
5402 Clouds 20 1015 32 8000 2.06 320 08:45 16.11.2021
5403 Clouds 18 1015 39 10000 2.57 310 07:32 16.11.2021
5404 Clouds 17 1014 42 10000 2.06 320 02:47 16.11.2021
5405 Clouds 18 1014 39 10000 3.6 260 23:23 15.11.2021
5406 Clouds 18 1014 42 10000 3.6 220 22:37 15.11.2021
5407 Clouds 19 1014 39 10000 3.6 220 21:53 15.11.2021
5408 Clouds 19 1014 39 10000 3.6 220 21:29 15.11.2021
5409 Clouds 19 1014 37 10000 2.57 240 19:49 15.11.2021
5410 Clouds 19 1015 39 10000 1.03 0 18:48 15.11.2021
5411 Clouds 20 1015 32 10000 1.54 330 16:55 15.11.2021
5412 Clouds 21 1015 28 10000 2.06 320 15:42 15.11.2021
5413 Clouds 21 1015 28 10000 2.06 320 15:24 15.11.2021
5414 Clouds 23 1015 25 10000 3.6 330 13:32 15.11.2021
5415 Clouds 22 1016 33 10000 3.6 310 11:53 15.11.2021
5416 Clouds 20 1017 40 10000 3.09 290 09:29 15.11.2021
5417 Clouds 17 1018 48 10000 3.09 290 07:57 15.11.2021
5418 Clouds 16 1018 39 10000 3.6 270 05:24 15.11.2021
5419 Clear 15 1018 51 10000 1.54 280 00:18 15.11.2021
5420 Clear 15 1018 47 10000 3.09 320 22:38 14.11.2021
5421 Clear 16 1019 39 10000 2.57 310 20:32 14.11.2021
5422 Clear 16 1019 41 10000 3.6 320 19:18 14.11.2021
5423 Clear 18 1020 34 10000 4.63 310 18:54 14.11.2021
5424 Clear 18 1020 34 10000 4.63 310 18:36 14.11.2021
5425 Clear 18 1020 34 10000 4.63 310 18:18 14.11.2021
5426 Clear 20 1020 30 10000 4.12 280 17:57 14.11.2021
5427 Clear 20 1020 30 10000 4.12 280 17:39 14.11.2021
5428 Clear 20 1020 30 10000 4.12 280 17:21 14.11.2021
5429 Clear 20 1019 30 10000 4.12 280 16:49 14.11.2021
5430 Clear 20 1019 30 10000 4.12 280 16:21 14.11.2021
5431 Clear 22 1019 28 10000 4.63 290 15:51 14.11.2021
5432 Clear 22 1019 28 10000 4.63 290 15:19 14.11.2021
5433 Clear 24 1019 25 10000 5.66 290 14:33 14.11.2021
5434 Clear 25 1019 20 10000 6.17 300 13:59 14.11.2021
5435 Clear 25 1019 20 10000 6.17 300 13:40 14.11.2021
5436 Clear 25 1020 22 10000 5.66 300 12:45 14.11.2021
5437 Clear 25 1020 22 10000 5.66 300 12:20 14.11.2021
5438 Clear 22 1021 30 10000 5.66 300 10:52 14.11.2021
5439 Clear 22 1021 30 10000 5.66 300 10:27 14.11.2021
5440 Clear 20 1022 32 10000 5.14 300 08:58 14.11.2021
5441 Clear 20 1022 32 10000 5.14 300 08:23 14.11.2021
5442 Clear 10 1021 57 10000 3.09 300 02:20 14.11.2021
5443 Clear 12 1022 71 10000 2.57 300 22:27 13.11.2021
5444 Clear 12 1022 66 10000 1.54 270 21:58 13.11.2021
5445 Clear 12 1022 66 10000 1.54 270 21:27 13.11.2021
5446 Clear 14 1022 58 10000 2.57 300 20:24 13.11.2021
5447 Clear 17 1021 48 10000 3.09 270 18:53 13.11.2021
5448 Clear 17 1021 48 10000 3.09 270 18:26 13.11.2021
5449 Clear 18 1021 45 10000 2.06 310 17:23 13.11.2021
5450 Clear 21 1021 40 10000 2.57 340 15:42 13.11.2021
5451 Clear 23 1021 35 10000 3.6 340 14:36 13.11.2021
5452 Clear 23 1021 35 10000 4.63 340 13:46 13.11.2021
5453 Clear 23 1021 35 10000 5.66 320 12:40 13.11.2021
5454 Clear 23 1022 35 10000 4.12 340 11:45 13.11.2021
5455 Clear 22 1023 37 10000 3.6 340 10:48 13.11.2021
5456 Clear 22 1023 37 10000 3.6 340 10:29 13.11.2021
5457 Clear 21 1024 40 10000 2.57 290 09:42 13.11.2021
5458 Clear 21 1024 40 10000 2.57 290 09:42 13.11.2021
5459 Clear 21 1024 40 10000 2.57 290 09:19 13.11.2021
5460 Clear 18 1024 48 10000 2.06 290 08:41 13.11.2021
5461 Clear 16 1024 51 10000 1.03 0 07:25 13.11.2021
5462 Clear 9 1022 61 10000 2.06 310 04:36 13.11.2021
5463 Clear 10 1021 62 10000 3.09 320 02:27 13.11.2021
5464 Clear 14 1020 58 10000 2.06 250 23:33 12.11.2021
5465 Clear 16 1020 39 10000 4 320 21:52 12.11.2021
5466 Clear 13 1020 54 10000 1.54 260 20:35 12.11.2021
5467 Clear 15 1019 47 10000 0.51 0 19:31 12.11.2021
5468 Clear 17 1019 42 10000 1.54 230 18:54 12.11.2021
5469 Clear 17 1019 42 10000 1.54 230 18:18 12.11.2021
5470 Clear 21 1016 35 10000 4.63 320 15:54 12.11.2021
5471 Clear 23 1015 33 10000 5.66 280 13:27 12.11.2021
5472 Clear 22 1015 43 10000 5.14 250 11:24 12.11.2021
5473 Clear 22 1015 43 10000 5.14 250 11:24 12.11.2021
5474 Clear 20 1015 49 10000 4.12 240 09:55 12.11.2021
5475 Clear 18 1015 55 10000 2.57 300 08:50 12.11.2021
5476 Clear 13 1014 67 10000 3.6 300 06:35 12.11.2021
5477 Clear 14 1011 62 10000 3.6 320 00:21 12.11.2021
5478 Clouds 18 1011 48 10000 3.6 350 22:49 11.11.2021
5479 Clouds 19 1012 45 10000 2.57 340 21:57 11.11.2021
5480 Clouds 20 1012 40 10000 7.72 360 20:52 11.11.2021
5481 Clouds 20 1012 42 10000 7.2 350 19:56 11.11.2021
5482 Clouds 20 1012 40 10000 9.26 340 18:27 11.11.2021
5483 Clouds 20 1012 40 10000 9.26 340 18:27 11.11.2021
5484 Clouds 20 1012 40 10000 7.72 350 17:41 11.11.2021
5485 Clouds 23 1011 28 10000 6.69 30 15:29 11.11.2021
5486 Clouds 25 1010 23 10000 6.69 80 14:39 11.11.2021
5487 Clouds 25 1010 23 10000 6.69 80 14:20 11.11.2021
5488 Clouds 26 1009 21 10000 6.17 80 13:35 11.11.2021
5489 Clouds 26 1009 15 10000 7.84 104 12:27 11.11.2021
5490 Clouds 21 1012 23 10000 2.57 100 09:58 11.11.2021
5491 Clouds 21 1012 23 10000 2.57 100 09:22 11.11.2021
5492 Clouds 18 1012 34 7000 4.63 80 06:55 11.11.2021
5493 Clear 13 1012 41 10000 2.57 130 00:40 11.11.2021
5494 Clear 14 1012 38 10000 3.09 130 22:46 10.11.2021
5495 Clear 14 1013 41 10000 1.54 130 21:54 10.11.2021
5496 Clear 15 1014 38 10000 0.51 0 20:56 10.11.2021
5497 Clear 15 1014 38 10000 0.51 0 20:25 10.11.2021
5498 Clear 17 1014 31 10000 2.06 190 19:45 10.11.2021
5499 Clear 21 1014 24 10000 2.57 160 17:28 10.11.2021
5500 Clear 24 1014 20 10000 2.06 160 15:47 10.11.2021
5501 Clear 26 1015 15 10000 3.09 200 14:25 10.11.2021
5502 Clear 26 1015 15 10000 3.09 200 14:25 10.11.2021
5503 Clear 26 1015 14 10000 3.6 190 13:38 10.11.2021
5504 Clear 26 1015 17 10000 2.06 0 12:31 10.11.2021
5505 Clear 23 1018 21 9000 1.03 0 09:29 10.11.2021
5506 Haze 21 1019 24 5000 1.54 260 08:42 10.11.2021
5507 Haze 21 1019 24 5000 1.54 260 08:42 10.11.2021
5508 Clear 13 1019 44 9000 1.03 280 06:50 10.11.2021
5509 Clear 20 1018 32 10000 1.61 301 05:58 10.11.2021
5510 Clear 18 1018 35 10000 2.33 305 04:58 10.11.2021
5511 Clear 13 1019 44 8000 0 0 22:41 09.11.2021
5512 Clear 14 1020 41 9000 1.03 260 20:51 09.11.2021
5513 Clear 16 1020 36 10000 2.06 270 19:51 09.11.2021
5514 Clear 18 1020 29 10000 1.03 240 18:58 09.11.2021
5515 Clear 21 1020 24 10000 2.06 220 17:22 09.11.2021
5516 Clear 25 1019 16 10000 2.06 260 15:37 09.11.2021
5517 Clear 27 1019 12 10000 3.6 250 13:55 09.11.2021
5518 Clear 27 1019 14 10000 3.6 260 12:49 09.11.2021
5519 Clear 26 1020 18 10000 3.09 300 11:34 09.11.2021
5520 Clear 25 1020 18 10000 3.09 280 10:41 09.11.2021
5521 Clear 23 1021 20 10000 2.57 290 09:22 09.11.2021
5522 Clear 15 1021 31 10000 2.06 300 07:55 09.11.2021
5523 Clear 10 1020 40 10000 3.09 320 05:23 09.11.2021
5524 Clear 13 1018 44 10000 1.54 290 01:58 09.11.2021
5525 Clear 13 1018 44 10000 1.54 290 01:39 09.11.2021
5526 Clear 13 1018 47 10000 2.57 310 23:34 08.11.2021
5527 Clear 16 1018 41 10000 2.57 310 22:48 08.11.2021
5528 Clouds 16 1018 44 9000 2.06 290 21:46 08.11.2021
5529 Clouds 16 1018 48 9000 1.03 260 20:38 08.11.2021
5530 Clouds 17 1018 42 9000 1.54 230 19:46 08.11.2021
5531 Clear 20 1017 37 10000 0 0 17:55 08.11.2021
5532 Clear 25 1016 29 10000 2.57 330 15:59 08.11.2021
5533 Clear 28 1016 20 10000 0.51 0 14:57 08.11.2021
5534 Clear 28 1016 20 10000 0.51 0 14:34 08.11.2021
5535 Clear 27 1016 24 10000 2.06 10 13:23 08.11.2021
5536 Clear 26 1016 31 10000 2.57 90 11:56 08.11.2021
5537 Clear 25 1016 33 10000 3.6 80 10:50 08.11.2021
5538 Dust 24 1017 33 4400 1.54 70 09:37 08.11.2021
5539 Dust 24 1017 33 4400 1.54 70 09:37 08.11.2021
5540 Dust 20 1017 37 4100 1.03 0 08:52 08.11.2021
5541 Clear 16 1017 36 7000 1.03 0 07:28 08.11.2021
5542 Clear 10 1014 40 10000 1.54 310 03:42 08.11.2021
5543 Clear 10 1014 40 10000 1.54 310 03:22 08.11.2021
5544 Clear 12 1014 32 10000 2.57 280 23:43 07.11.2021
5545 Clear 15 1013 25 10000 3.6 290 21:46 07.11.2021
5546 Clear 14 1013 30 10000 2.57 310 20:52 07.11.2021
5547 Clear 16 1013 27 10000 3.6 310 19:25 07.11.2021
5548 Clear 20 1012 24 10000 3.6 310 17:49 07.11.2021
5549 Clear 22 1012 24 10000 4.63 320 16:49 07.11.2021
5550 Clear 26 1011 19 10000 5.14 320 15:47 07.11.2021
5551 Clear 27 1011 19 10000 6.17 320 14:28 07.11.2021
5552 Clear 28 1011 20 10000 7.2 330 12:58 07.11.2021
5553 Clear 27 1011 21 10000 6.69 320 11:42 07.11.2021
5554 Clear 24 1013 29 10000 5.14 330 09:26 07.11.2021
5555 Clear 19 1013 39 10000 4.12 340 07:20 07.11.2021
5556 Clear 14 1011 54 10000 3.09 320 02:34 07.11.2021
5557 Clear 15 1011 55 10000 3.6 330 23:22 06.11.2021
5558 Clear 17 1011 48 10000 3.09 310 22:42 06.11.2021
5559 Clear 18 1011 48 10000 4.12 310 21:33 06.11.2021
5560 Clear 21 1011 46 10000 2.57 310 20:50 06.11.2021
5561 Clear 21 1011 40 10000 4.12 310 18:56 06.11.2021
5562 Clear 24 1011 35 10000 2.06 310 16:46 06.11.2021
5563 Clear 24 1011 35 10000 2.06 310 16:46 06.11.2021
5564 Clear 24 1011 35 10000 2.06 310 16:46 06.11.2021
5565 Clear 24 1011 35 10000 2.06 310 16:46 06.11.2021
5566 Clear 29 1011 26 10000 3.6 340 14:38 06.11.2021
5567 Clear 29 1011 28 10000 3.6 300 13:38 06.11.2021
5568 Clear 28 1012 30 10000 4.63 310 11:46 06.11.2021
5569 Clear 25 1014 36 10000 3.09 310 09:25 06.11.2021
5570 Clear 14 1013 58 10000 3.6 320 04:59 06.11.2021
5571 Clear 17 1012 51 10000 4.12 320 01:47 06.11.2021
5572 Clear 18 1012 52 10000 2.06 330 23:35 05.11.2021
5573 Clear 19 1012 45 10000 4.12 310 22:34 05.11.2021
5574 Clear 22 1012 40 10000 2.57 360 21:26 05.11.2021
5575 Clear 21 1012 46 10000 1.54 330 20:20 05.11.2021
5576 Clear 21 1012 43 10000 3.09 330 19:40 05.11.2021
5577 Clear 23 1012 40 10000 3.6 330 18:39 05.11.2021
5578 Clear 24 1012 41 10000 2.57 320 17:26 05.11.2021
5579 Clear 29 1011 32 10000 3.09 320 15:34 05.11.2021
5580 Clear 31 1011 29 10000 2.57 30 13:37 05.11.2021
5581 Clear 29 1012 32 10000 2.57 350 11:22 05.11.2021
5582 Clear 24 1014 43 10000 2.57 300 08:40 05.11.2021
5583 Clear 21 1014 52 10000 3.09 300 07:26 05.11.2021
5584 Clear 17 1013 72 10000 1.54 280 04:44 05.11.2021
5585 Clear 18 1013 68 10000 2.06 290 02:25 05.11.2021
5586 Clear 17 1014 67 10000 1.03 0 00:51 05.11.2021
5587 Clear 18 1014 59 10000 1.54 290 23:18 04.11.2021
5588 Clear 20 1014 56 10000 2.06 280 22:19 04.11.2021
5589 Clear 19 1014 59 10000 1.54 270 21:35 04.11.2021
5590 Clear 20 1015 56 10000 1.54 300 20:41 04.11.2021
5591 Clear 20 1015 56 10000 1.54 300 20:21 04.11.2021
5592 Clear 21 1015 52 10000 1.54 320 19:44 04.11.2021
5593 Clear 23 1014 46 10000 2.57 240 18:44 04.11.2021
5594 Clear 24 1014 43 10000 2.06 240 17:48 04.11.2021
5595 Clear 25 1014 41 10000 3.09 260 16:47 04.11.2021
5596 Clear 28 1014 34 10000 4.63 280 14:38 04.11.2021
5597 Clear 28 1014 34 10000 5.66 270 12:32 04.11.2021
5598 Clear 25 1016 50 10000 5.14 280 09:37 04.11.2021
5599 Clear 24 1017 50 10000 4.63 280 08:30 04.11.2021
5600 Clear 22 1017 56 10000 5.66 290 07:34 04.11.2021
5601 Clear 19 1016 55 10000 3.6 310 02:37 04.11.2021
5602 Clear 23 1016 46 10000 6.17 310 22:50 03.11.2021
5603 Clear 23 1016 49 10000 5.14 300 21:49 03.11.2021
5604 Clear 23 1016 49 10000 5.14 300 21:30 03.11.2021
5605 Clear 24 1015 46 10000 4.12 300 20:35 03.11.2021
5606 Clear 23 1015 46 10000 3.6 320 19:58 03.11.2021
5607 Clouds 27 1014 33 10000 5.1 313 18:56 03.11.2021
5608 Clouds 28 1014 32 10000 5.77 312 18:21 03.11.2021
5609 Clear 27 1015 41 10000 5.14 290 17:35 03.11.2021
5610 Clouds 28 1014 42 10000 5.66 280 16:26 03.11.2021
5611 Clouds 30 1013 37 10000 4.63 280 15:43 03.11.2021
5612 Clouds 31 1013 35 10000 5.14 280 13:55 03.11.2021
5613 Clouds 32 1013 31 10000 2.06 230 11:59 03.11.2021
5614 Clouds 32 1013 31 10000 2.06 230 11:25 03.11.2021
5615 Clouds 31 1014 33 10000 1.54 0 10:46 03.11.2021
5616 Clouds 30 1015 35 10000 2.06 60 09:30 03.11.2021
5617 Clouds 28 1016 39 10000 4.12 40 08:22 03.11.2021
5618 Clouds 26 1015 44 10000 6.69 50 07:39 03.11.2021
5619 Clear 24 1014 50 10000 5.14 70 05:35 03.11.2021
5620 Clouds 24 1014 53 9000 4.12 10 02:28 03.11.2021
5621 Clouds 26 1013 41 9000 2.57 80 23:51 02.11.2021
5622 Clouds 26 1014 41 8000 2.57 30 22:46 02.11.2021
5623 Clear 24 1014 41 10000 6.17 320 21:29 02.11.2021
5624 Clear 25 1013 36 10000 2.57 130 20:33 02.11.2021
5625 Clear 28 1013 32 10000 3.09 110 19:53 02.11.2021
5626 Clear 25 1014 38 8000 1.54 120 18:59 02.11.2021
5627 Clear 25 1014 38 8000 1.54 120 18:26 02.11.2021
5628 Clear 26 1013 36 10000 2.06 120 17:42 02.11.2021
5629 Clear 29 1013 32 10000 2.57 140 16:31 02.11.2021
5630 Clear 32 1013 25 10000 2.06 110 15:32 02.11.2021
5631 Clear 34 1013 21 10000 2.06 130 14:30 02.11.2021
5632 Clear 34 1013 21 10000 2.06 80 13:28 02.11.2021
5633 Clear 35 1014 18 10000 2.06 200 12:41 02.11.2021
5634 Clear 34 1014 22 10000 3.09 140 11:34 02.11.2021
5635 Clear 34 1015 24 10000 2.57 60 10:53 02.11.2021
5636 Clear 34 1015 24 10000 2.57 60 10:28 02.11.2021
5637 Clear 32 1016 29 8000 2.06 70 08:44 02.11.2021
5638 Clouds 25 1016 44 8000 0 0 06:57 02.11.2021
5639 Mist 24 1016 46 6000 4.12 30 03:49 02.11.2021
5640 Clouds 23 1016 53 9000 3.09 340 02:24 02.11.2021
5641 Clouds 24 1016 50 5000 1.03 270 22:55 01.11.2021
5642 Clear 22 1016 53 10000 1.54 340 21:23 01.11.2021
5643 Clear 24 1016 46 10000 0 0 20:38 01.11.2021
5644 Clear 25 1016 44 10000 1.03 40 19:55 01.11.2021
5645 Clear 25 1016 44 10000 1.03 40 19:29 01.11.2021
5646 Clear 25 1016 44 10000 0.51 90 18:21 01.11.2021
5647 Clear 26 1016 38 10000 1.54 120 17:35 01.11.2021
5648 Clear 28 1016 36 10000 1.54 130 16:50 01.11.2021
5649 Clear 31 1016 33 10000 2.57 110 15:47 01.11.2021
5650 Clear 31 1016 33 10000 2.57 110 15:21 01.11.2021
5651 Clouds 33 1016 29 10000 2.57 80 14:42 01.11.2021
5652 Clouds 33 1016 29 10000 2.57 80 14:22 01.11.2021
5653 Clear 33 1016 31 10000 3.09 80 13:49 01.11.2021
5654 Clouds 33 1017 33 9000 4.63 30 12:27 01.11.2021
5655 Clouds 32 1018 35 7000 4.12 360 10:33 01.11.2021
5656 Clouds 31 1019 37 5000 3.09 10 09:35 01.11.2021
5657 Clouds 27 1020 47 5000 1.03 0 07:49 01.11.2021
5658 Clouds 23 1020 56 8000 2.06 360 06:31 01.11.2021
5659 Clear 21 1019 68 10000 1.54 360 03:44 01.11.2021
5660 Clouds 26 1018 40 10000 0.35 129 00:37 01.11.2021
5661 Clouds 23 1020 64 6000 2.57 350 22:24 31.10.2021
5662 Clouds 23 1020 64 7000 2.06 350 20:46 31.10.2021
5663 Clouds 25 1020 61 8000 2.57 340 18:57 31.10.2021
5664 Clouds 25 1020 61 8000 2.57 340 18:37 31.10.2021
5665 Clouds 25 1020 53 7000 3.09 330 17:23 31.10.2021
5666 Clouds 30 1019 42 9000 1.03 50 15:48 31.10.2021
5667 Clouds 31 1019 37 6000 2.57 30 13:56 31.10.2021
5668 Clouds 31 1019 40 10000 1.54 0 12:49 31.10.2021
5669 Clouds 30 1019 42 10000 1.54 80 11:40 31.10.2021
5670 Clouds 29 1020 48 10000 2.06 120 10:42 31.10.2021
5671 Clouds 28 1021 51 10000 4.63 150 09:21 31.10.2021
5672 Clouds 28 1021 51 10000 4.63 150 09:21 31.10.2021
5673 Clouds 25 1021 69 7000 6.17 150 07:20 31.10.2021
5674 Clear 27 1017 54 10000 7.2 120 00:54 31.10.2021
5675 Clouds 29 1017 45 10000 10.29 120 22:36 30.10.2021
5676 Dust 30 1017 45 7000 12.86 120 21:34 30.10.2021
5677 Dust 30 1016 48 6000 10.8 130 20:33 30.10.2021
5678 Clouds 29 1016 48 10000 5.66 110 18:43 30.10.2021
5679 Clouds 30 1015 48 7000 7.72 110 16:53 30.10.2021
5680 Clouds 30 1015 48 7000 7.72 110 16:53 30.10.2021
5681 Clouds 31 1016 51 10000 6.17 110 14:43 30.10.2021
5682 Clouds 31 1016 51 10000 5.66 120 13:39 30.10.2021
5683 Clouds 31 1016 51 10000 5.66 120 13:21 30.10.2021
5684 Clouds 31 1017 45 7000 7.72 120 11:58 30.10.2021
5685 Clouds 31 1017 45 7000 7.72 120 11:39 30.10.2021
5686 Clouds 29 1018 54 6000 5.66 110 10:32 30.10.2021
5687 Clouds 26 1019 53 7000 4.12 90 08:52 30.10.2021
5688 Clouds 22 1018 64 7000 3.09 100 06:26 30.10.2021
5689 Clear 21 1017 64 10000 2.57 80 05:39 30.10.2021
5690 Clouds 21 1015 56 8000 1.03 90 00:45 30.10.2021
5691 Clouds 21 1015 52 8000 1.03 0 22:39 29.10.2021
5692 Clouds 21 1015 52 8000 1.03 0 22:20 29.10.2021
5693 Clouds 25 1015 41 8000 0 0 20:45 29.10.2021
5694 Clouds 24 1014 50 8000 2.06 20 19:50 29.10.2021
5695 Clear 27 1014 39 10000 1.03 290 18:32 29.10.2021
5696 Clear 29 1013 37 10000 1.54 120 16:51 29.10.2021
5697 Clouds 32 1013 23 10000 4.12 140 14:33 29.10.2021
5698 Clear 30 1014 21 10000 5.14 150 11:44 29.10.2021
5699 Clouds 30 1015 20 8000 4.12 140 10:35 29.10.2021
5700 Clear 25 1015 29 10000 3.09 100 08:35 29.10.2021
5701 Clear 25 1014 31 10000 5.14 50 00:37 29.10.2021
5702 Clear 25 1015 31 10000 4.63 30 23:19 28.10.2021
5703 Clear 25 1015 31 10000 3.6 20 21:56 28.10.2021
5704 Clear 26 1015 29 10000 3.6 20 20:32 28.10.2021
5705 Clear 25 1015 33 10000 3.09 350 19:50 28.10.2021
5706 Clouds 26 1014 31 10000 4.63 360 18:23 28.10.2021
5707 Clouds 29 1013 23 10000 2.06 10 16:58 28.10.2021
5708 Clouds 32 1013 19 10000 3.09 40 15:24 28.10.2021
5709 Clouds 32 1013 19 10000 3.09 60 14:23 28.10.2021
5710 Clouds 32 1013 20 10000 4.63 60 13:24 28.10.2021
5711 Clear 31 1014 22 10000 5.14 60 12:41 28.10.2021
5712 Clouds 29 1016 24 10000 7.2 10 10:57 28.10.2021
5713 Clouds 25 1017 31 8000 4.12 350 09:39 28.10.2021
5714 Clouds 25 1017 31 8000 2.57 350 08:59 28.10.2021
5715 Clouds 25 1017 31 8000 2.57 350 08:34 28.10.2021
5716 Clouds 24 1016 29 10000 1.03 0 07:20 28.10.2021
5717 Smoke 18 1014 48 5000 1.54 350 00:20 28.10.2021
5718 Clear 20 1015 42 7000 1.54 10 22:31 27.10.2021
5719 Clear 20 1015 42 9000 1.03 40 21:34 27.10.2021
5720 Clear 21 1015 37 9000 1.03 310 20:53 27.10.2021
5721 Clear 21 1015 37 9000 1.03 310 20:34 27.10.2021
5722 Clear 22 1015 33 9000 1.54 310 19:41 27.10.2021
5723 Clear 25 1015 29 10000 1.54 340 18:53 27.10.2021
5724 Clear 29 1014 23 10000 2.57 340 16:38 27.10.2021
5725 Clear 29 1014 23 10000 2.57 340 16:18 27.10.2021
5726 Clear 32 1014 17 10000 2.06 50 15:21 27.10.2021
5727 Clear 31 1015 18 10000 2.06 20 12:51 27.10.2021
5728 Clear 29 1017 23 9000 2.06 350 10:58 27.10.2021
5729 Dust 27 1017 29 4200 1.54 0 09:51 27.10.2021
5730 Haze 24 1018 33 3400 1.54 290 08:47 27.10.2021
5731 Haze 21 1017 37 4000 1.54 330 07:32 27.10.2021
5732 Clear 17 1015 55 6000 1.54 70 02:39 27.10.2021
5733 Clear 18 1015 48 6000 1.03 0 00:58 27.10.2021
5734 Clear 18 1015 48 6000 1.03 0 00:33 27.10.2021
5735 Clear 19 1015 45 6000 0.51 0 23:50 26.10.2021
5736 Clear 19 1016 39 6000 1.54 110 22:39 26.10.2021
5737 Clear 20 1016 37 7000 2.06 80 21:59 26.10.2021
5738 Clear 23 1016 40 8000 0.51 0 20:51 26.10.2021
5739 Clear 23 1015 33 8000 1.54 60 19:33 26.10.2021
5740 Clear 25 1015 29 10000 2.57 10 18:52 26.10.2021
5741 Clear 30 1014 20 10000 1.03 0 16:57 26.10.2021
5742 Clear 31 1014 18 10000 1.03 0 15:34 26.10.2021
5743 Clear 30 1016 20 10000 1.03 0 11:49 26.10.2021
5744 Clear 28 1016 24 10000 1.03 0 10:42 26.10.2021
5745 Clear 19 1016 39 7000 1.03 300 07:51 26.10.2021
5746 Clear 19 1016 39 7000 1.03 300 07:21 26.10.2021
5747 Clear 17 1015 42 10000 0.51 210 23:51 25.10.2021
5748 Clear 17 1015 39 10000 1.03 170 22:55 25.10.2021
5749 Clear 17 1015 39 10000 1.03 170 22:21 25.10.2021
5750 Clear 20 1015 32 10000 1.54 50 21:39 25.10.2021
5751 Clear 20 1015 34 10000 2.57 10 20:19 25.10.2021
5752 Clear 23 1015 27 10000 1.54 250 19:42 25.10.2021
5753 Clear 23 1015 27 10000 1.54 250 19:20 25.10.2021
5754 Clear 23 1015 28 10000 2.06 270 18:22 25.10.2021
5755 Clear 28 1015 20 10000 2.57 330 16:27 25.10.2021
5756 Clear 30 1014 17 10000 5.66 290 14:36 25.10.2021
5757 Clear 30 1015 15 10000 5.14 290 12:31 25.10.2021
5758 Clear 29 1016 17 10000 2.57 330 10:25 25.10.2021
5759 Clear 22 1016 24 8000 1.54 290 08:54 25.10.2021
5760 Clear 21 1015 18 10000 3.44 342 06:26 25.10.2021
5761 Clear 15 1014 47 10000 1.54 270 02:42 25.10.2021
5762 Clear 17 1014 36 10000 1.54 280 00:47 25.10.2021
5763 Clear 18 1014 34 10000 2.57 270 23:47 24.10.2021
5764 Clear 18 1014 34 10000 2.57 270 23:47 24.10.2021
5765 Clear 18 1014 34 10000 2.57 270 23:19 24.10.2021
5766 Clear 17 1015 36 10000 2.06 270 22:37 24.10.2021
5767 Clear 17 1015 36 10000 2.06 270 22:18 24.10.2021
5768 Clear 20 1015 28 10000 2.06 280 20:46 24.10.2021
5769 Clear 20 1015 28 10000 2.06 280 20:27 24.10.2021
5770 Clear 22 1015 24 10000 2.06 270 19:22 24.10.2021
5771 Clear 23 1014 25 10000 1.54 290 18:27 24.10.2021
5772 Clear 27 1014 19 10000 1.03 0 17:29 24.10.2021
5773 Clear 31 1014 13 10000 5.14 290 15:49 24.10.2021
5774 Clear 31 1014 15 10000 4.63 310 13:58 24.10.2021
5775 Clear 30 1015 15 10000 4.12 300 12:41 24.10.2021
5776 Clear 29 1015 21 8000 3.09 290 11:43 24.10.2021
5777 Clear 28 1016 23 10000 2.06 0 10:47 24.10.2021
5778 Clear 26 1016 25 10000 3.6 300 09:59 24.10.2021
5779 Clouds 16 1015 48 10000 1.54 300 05:35 24.10.2021
5780 Clear 21 1015 35 10000 0 0 00:53 24.10.2021
5781 Clear 21 1015 35 10000 1.03 0 23:34 23.10.2021
5782 Clear 22 1016 35 10000 1.54 290 21:58 23.10.2021
5783 Clouds 25 1016 27 10000 2.06 280 19:54 23.10.2021
5784 Clouds 25 1016 29 10000 2.06 320 18:59 23.10.2021
5785 Clouds 25 1016 29 10000 2.06 320 18:21 23.10.2021
5786 Clouds 27 1015 26 10000 2.06 350 17:43 23.10.2021
5787 Clouds 27 1015 26 10000 2.06 350 17:43 23.10.2021
5788 Clouds 29 1015 21 10000 2.06 340 16:21 23.10.2021
5789 Clear 31 1016 18 10000 3.6 340 13:58 23.10.2021
5790 Clear 15 1016 58 10000 2.06 330 03:33 23.10.2021
5791 Clear 20 1016 32 10000 1.54 270 23:59 22.10.2021
5792 Clear 19 1017 37 10000 1.03 0 22:49 22.10.2021
5793 Clear 22 1017 26 10000 1.54 280 19:51 22.10.2021
5794 Clear 25 1016 23 10000 3.09 280 18:41 22.10.2021
5795 Clear 27 1016 21 10000 3.09 270 17:40 22.10.2021
5796 Clear 30 1016 17 10000 5.66 280 15:25 22.10.2021
5797 Clear 31 1016 16 10000 6.17 280 13:35 22.10.2021
5798 Clear 30 1017 20 10000 7.2 300 11:18 22.10.2021
5799 Clear 28 1018 23 10000 6.69 300 10:38 22.10.2021
5800 Clear 26 1018 25 10000 5.14 300 09:44 22.10.2021
5801 Clear 23 1018 27 10000 5.66 310 08:31 22.10.2021
5802 Clear 21 1018 28 10000 4.63 310 07:22 22.10.2021
5803 Clear 20 1017 30 10000 6.69 300 02:56 22.10.2021
5804 Clear 21 1017 37 10000 4.12 290 23:54 21.10.2021
5805 Clear 21 1017 37 10000 4.12 290 23:29 21.10.2021
5806 Clear 23 1018 38 10000 4.63 300 21:50 21.10.2021
5807 Clear 24 1017 31 10000 4.63 300 20:28 21.10.2021
5808 Clear 25 1017 27 10000 4.12 280 19:58 21.10.2021
5809 Clear 25 1017 27 10000 4.12 280 19:28 21.10.2021
5810 Clear 26 1017 27 10000 3.6 280 18:45 21.10.2021
5811 Clear 27 1017 26 10000 4.12 270 17:56 21.10.2021
5812 Clear 27 1017 26 10000 4.12 270 17:37 21.10.2021
5813 Clear 30 1017 20 10000 6.17 300 15:35 21.10.2021
5814 Clear 31 1017 20 10000 6.17 290 14:58 21.10.2021
5815 Clear 31 1017 20 10000 6.17 290 14:37 21.10.2021
5816 Clear 30 1018 23 10000 4.12 300 12:51 21.10.2021
5817 -273 0 0 0 0 0 10:39 21.10.2021
5818 -273 0 0 0 0 0 10:38 21.10.2021
5819 -273 0 0 0 0 0 10:38 21.10.2021
5820 Clear 28 1019 28 10000 4.63 300 10:38 21.10.2021
5821 Clear 24 1019 33 10000 4.12 290 08:21 21.10.2021
5822 Clear 20 1019 49 10000 2.57 260 07:23 21.10.2021
5823 Clear 18 1017 52 10000 2.06 270 03:24 21.10.2021
5824 Clear 21 1017 43 10000 1.54 300 23:25 20.10.2021
5825 Clear 23 1017 35 10000 3.09 300 21:51 20.10.2021
5826 Clear 23 1017 35 10000 3.09 300 21:29 20.10.2021
5827 Clear 24 1017 35 10000 2.57 290 20:49 20.10.2021
5828 Clear 24 1017 35 10000 2.57 290 20:28 20.10.2021
5829 Clear 25 1017 33 10000 4.12 290 19:40 20.10.2021
5830 Clear 25 1016 31 10000 3.09 300 18:53 20.10.2021
5831 Clear 28 1016 26 10000 5.66 290 17:41 20.10.2021
5832 Clear 31 1015 27 10000 3.09 270 15:26 20.10.2021
5833 Clear 29 1017 32 10000 2.57 260 10:25 20.10.2021
5834 Clear 26 1017 36 10000 1.54 340 08:36 20.10.2021
5835 Clear 19 1015 55 10000 1.03 0 02:47 20.10.2021
5836 Clear 20 1015 49 10000 0.51 0 00:43 20.10.2021
5837 Clear 23 1015 43 10000 1.03 0 23:32 19.10.2021
5838 Clear 22 1015 49 10000 1.03 130 21:41 19.10.2021
5839 Clear 24 1015 43 10000 2.06 10 20:48 19.10.2021
5840 Clear 24 1015 43 10000 2.06 10 20:22 19.10.2021
5841 Clear 24 1014 46 10000 1.54 360 19:40 19.10.2021
5842 Clear 24 1014 38 10000 3.09 330 18:52 19.10.2021
5843 Clear 27 1014 32 10000 3.09 310 17:57 19.10.2021
5844 Clear 31 1013 27 10000 3.09 320 15:38 19.10.2021
5845 Clear 31 1013 27 10000 3.09 320 15:18 19.10.2021
5846 Clear 31 1013 25 10000 4.12 260 14:23 19.10.2021
5847 Clear 30 1014 28 10000 4.63 330 12:34 19.10.2021
5848 Clear 29 1015 30 10000 4.12 330 11:31 19.10.2021
5849 Clear 27 1016 39 10000 2.06 330 09:56 19.10.2021
5850 Clear 25 1016 44 10000 1.54 350 08:57 19.10.2021
5851 Clear 18 1015 59 10000 2.57 290 05:23 19.10.2021
5852 Clear 21 1015 46 10000 1.54 320 00:24 19.10.2021
5853 Clear 22 1015 46 10000 2.06 320 23:49 18.10.2021
5854 Clear 22 1015 46 10000 2.06 320 23:19 18.10.2021
5855 Clear 21 1015 49 8000 1.54 330 22:51 18.10.2021
5856 Clear 22 1015 46 10000 1.03 0 21:19 18.10.2021
5857 Clear 22 1015 43 10000 2.57 300 20:41 18.10.2021
5858 Clear 26 1014 30 10000 3.54 325 19:53 18.10.2021
5859 Clear 27 1014 29 10000 3.7 317 19:29 18.10.2021
5860 Clear 26 1014 36 10000 4.12 290 18:52 18.10.2021
5861 Clear 31 1013 27 10000 4.63 270 15:32 18.10.2021
5862 Clear 31 1013 27 10000 3.6 310 13:32 18.10.2021
5863 Clear 29 1015 34 10000 3.6 320 10:42 18.10.2021
5864 Clear 27 1015 36 10000 2.06 320 09:28 18.10.2021
5865 Clear 19 1013 59 10000 2.06 310 02:30 18.10.2021
5866 Clear 22 1013 40 10000 2.57 310 23:31 17.10.2021
5867 Clear 24 1013 31 10000 3.09 310 21:55 17.10.2021
5868 Clear 24 1013 31 10000 3.09 310 21:18 17.10.2021
5869 Clear 26 1013 27 10000 3.09 300 20:38 17.10.2021
5870 Clear 27 1012 24 10000 2.06 300 19:39 17.10.2021
5871 Clouds 29 1012 21 10000 4.95 313 18:58 17.10.2021
5872 Clear 30 1011 21 10000 4.12 280 17:34 17.10.2021
5873 Clear 32 1011 17 10000 6.69 300 15:42 17.10.2021
5874 Clear 33 1011 18 10000 7.2 300 14:24 17.10.2021
5875 Clear 34 1011 16 10000 8.75 300 13:42 17.10.2021
5876 Clear 32 1012 22 10000 6.69 310 11:57 17.10.2021
5877 Clear 30 1012 32 10000 5.66 290 10:43 17.10.2021
5878 Clear 28 1012 36 10000 6.69 290 09:41 17.10.2021
5879 Clear 23 1011 40 10000 6.69 300 07:19 17.10.2021
5880 Clear 26 1010 36 10000 5.66 310 00:53 17.10.2021
5881 Clear 26 1010 36 10000 5.66 310 00:23 17.10.2021
5882 Clear 30 1010 28 10000 7.2 280 21:52 16.10.2021
5883 Clear 31 1009 27 10000 3.6 270 20:32 16.10.2021
5884 Clear 30 1008 28 10000 2.57 280 19:46 16.10.2021
5885 Clear 30 1008 28 10000 2.57 280 19:23 16.10.2021
5886 Clear 33 1008 25 10000 4.63 290 18:56 16.10.2021
5887 Clear 33 1008 25 10000 4.63 290 18:38 16.10.2021
5888 Clouds 34 1008 18 10000 4.61 301 18:18 16.10.2021
5889 Clouds 33 1008 25 9000 2.57 310 17:27 16.10.2021
5890 Clear 38 1008 18 10000 1.54 300 15:33 16.10.2021
5891 Clouds 38 1008 13 10000 3.13 290 12:26 16.10.2021
5892 Clear 35 1010 23 10000 3.09 270 10:48 16.10.2021
5893 Clear 32 1010 29 7000 1.54 250 08:32 16.10.2021
5894 Clear 25 1010 44 10000 2.57 320 01:26 16.10.2021
5895 Clouds 26 1010 41 6000 2.57 360 23:57 15.10.2021
5896 Clouds 26 1010 41 6000 2.57 360 23:24 15.10.2021
5897 Clear 27 1010 36 10000 0.51 0 22:20 15.10.2021
5898 Clouds 29 1011 30 9000 1.03 180 21:29 15.10.2021
5899 Clouds 29 1011 30 9000 0 0 20:50 15.10.2021
5900 Clear 31 1011 29 10000 1.54 360 19:38 15.10.2021
5901 Clear 32 1011 25 10000 1.54 340 18:41 15.10.2021
5902 Clear 36 1011 20 10000 1.03 0 17:58 15.10.2021
5903 Clear 40 1010 14 10000 1.54 50 15:37 15.10.2021
5904 Clear 40 1012 15 10000 3.09 350 13:34 15.10.2021
5905 Clouds 39 1013 18 9000 2.06 40 11:40 15.10.2021
5906 Clouds 36 1013 21 10000 3.09 110 10:58 15.10.2021
5907 Clouds 36 1013 21 10000 3.09 110 10:19 15.10.2021
5908 Clear 32 1012 17 10000 0.63 357 06:47 15.10.2021
5909 Clouds 26 1012 34 7000 0.51 0 01:48 15.10.2021
5910 Clouds 26 1013 38 6000 3.09 310 00:22 15.10.2021
5911 Mist 27 1013 36 6000 1.03 0 22:52 14.10.2021
5912 Clouds 26 1013 38 6000 0.51 300 21:46 14.10.2021
5913 Clouds 28 1013 36 6000 1.54 360 20:55 14.10.2021
5914 Clouds 28 1013 36 6000 1.54 360 20:19 14.10.2021
5915 Clouds 29 1013 32 6000 2.06 310 19:40 14.10.2021
5916 Clear 35 1012 23 8000 1.54 240 17:39 14.10.2021
5917 Clear 35 1012 23 8000 1.54 240 17:39 14.10.2021
5918 Clear 35 1012 23 8000 1.54 240 17:39 14.10.2021
5919 Clear 37 1012 19 10000 2.06 220 16:56 14.10.2021
5920 Clear 37 1012 19 10000 2.06 220 16:21 14.10.2021
5921 Clear 39 1012 15 10000 1.54 60 14:44 14.10.2021
5922 Clear 39 1012 15 10000 1.54 60 14:24 14.10.2021
5923 Clear 38 1014 17 10000 1.03 0 11:56 14.10.2021
5924 Clear 35 1014 21 9000 2.06 80 10:43 14.10.2021
5925 Clear 32 1014 22 10000 6.18 23 07:37 14.10.2021
5926 Clear 27 1013 34 10000 5.04 4 03:51 14.10.2021
5927 Clouds 28 1012 30 10000 4.45 8 00:31 14.10.2021
5928 Clear 24 1013 38 10000 3.09 310 22:32 13.10.2021
5929 Clear 25 1013 36 10000 3.09 320 21:34 13.10.2021
5930 Clouds 30 1013 29 10000 5.95 12 20:23 13.10.2021
5931 Clear 32 1012 23 10000 5.14 10 19:19 13.10.2021
5932 Clouds 30 1012 30 9000 3.09 350 18:37 13.10.2021
5933 Dust 34 1011 22 5000 7.2 360 15:53 13.10.2021
5934 Dust 34 1012 22 2500 8.75 350 14:46 13.10.2021
5935 Dust 34 1012 22 2500 8.75 350 14:46 13.10.2021
5936 Dust 34 1012 22 2500 8.75 350 14:23 13.10.2021
5937 Clouds 36 1011 9 10000 5.71 356 12:24 13.10.2021
5938 Clouds 35 1013 18 8000 5.66 350 11:35 13.10.2021
5939 Clouds 35 1013 18 8000 5.66 350 11:35 13.10.2021
5940 Clouds 32 1014 19 7000 3.09 360 09:26 13.10.2021
5941 Clouds 24 1013 35 7000 3.6 330 07:48 13.10.2021
5942 Smoke 21 1011 40 5000 0 0 02:51 13.10.2021
5943 Smoke 21 1011 40 5000 0 0 02:19 13.10.2021
5944 Clouds 22 1010 40 5000 1.54 320 23:31 12.10.2021
5945 Clouds 24 1011 33 5000 1.03 0 22:48 12.10.2021
5946 Clouds 24 1011 33 5000 1.03 0 22:23 12.10.2021
5947 Clouds 25 1011 31 7000 2.06 320 20:48 12.10.2021
5948 Clouds 25 1011 31 7000 2.06 320 20:19 12.10.2021
5949 Clear 29 1009 24 10000 1.03 10 18:58 12.10.2021
5950 Clear 29 1009 24 10000 1.03 10 18:23 12.10.2021
5951 Clear 34 1009 18 10000 2.06 350 16:47 12.10.2021
5952 Clear 34 1009 18 10000 2.06 350 16:19 12.10.2021
5953 Clear 36 1009 15 10000 1.54 0 14:51 12.10.2021
5954 Clear 36 1009 16 10000 3.09 260 13:45 12.10.2021
5955 Clear 36 1009 17 10000 2.06 240 12:40 12.10.2021
5956 Clear 33 1010 19 10000 2.06 290 10:38 12.10.2021
5957 Clouds 30 1011 30 8000 2.06 250 09:20 12.10.2021
5958 Clear 31 1010 9 10000 1.56 323 08:00 12.10.2021
5959 Clear 19 1010 45 6000 1.03 340 06:42 12.10.2021
5960 Clear 20 1009 37 7000 2.06 290 04:35 12.10.2021
5961 Clear 21 1009 40 6000 1.54 350 01:31 12.10.2021
5962 Clear 21 1009 35 10000 0.51 0 23:42 11.10.2021
5963 Clear 21 1009 35 10000 0.51 0 23:19 11.10.2021
5964 Clear 23 1009 31 10000 1.03 0 22:30 11.10.2021
5965 Clear 24 1010 31 10000 0 0 21:20 11.10.2021
5966 Clear 27 1010 28 10000 0 0 19:46 11.10.2021
5967 Clear 27 1010 28 10000 0 0 19:22 11.10.2021
5968 Clouds 28 1009 24 10000 2.57 240 18:20 11.10.2021
5969 Clear 35 1009 15 10000 2.57 10 16:40 11.10.2021
5970 Clear 35 1009 15 10000 2.57 10 16:19 11.10.2021
5971 Clear 37 1009 13 10000 4.63 350 15:40 11.10.2021
5972 Clear 37 1009 13 10000 6.17 320 14:53 11.10.2021
5973 Clear 37 1010 12 10000 6.17 300 13:51 11.10.2021
5974 Clear 36 1011 14 10000 3.6 300 12:20 11.10.2021
5975 Clear 32 1012 18 10000 3.6 310 10:49 11.10.2021
5976 Clear 30 1012 21 9000 3.6 300 09:45 11.10.2021
5977 Clear 24 1012 31 10000 4.63 300 07:56 11.10.2021
5978 Clear 21 1011 35 10000 2.57 290 01:42 11.10.2021
5979 Clear 20 1011 30 10000 2.57 300 00:53 11.10.2021
5980 Clear 20 1011 30 10000 2.57 300 00:33 11.10.2021
5981 Clear 25 1012 23 10000 3.09 270 22:22 10.10.2021
5982 Clear 25 1012 22 10000 2.57 270 21:35 10.10.2021
5983 Clear 25 1012 20 10000 2.57 280 20:56 10.10.2021
5984 Clear 25 1012 20 10000 2.57 280 20:36 10.10.2021
5985 Clear 25 1012 20 10000 2.57 280 20:18 10.10.2021
5986 Clear 27 1012 21 10000 3.6 270 19:40 10.10.2021
5987 Clear 27 1011 22 10000 2.57 330 18:41 10.10.2021
5988 Clear 29 1011 18 10000 3.09 320 17:50 10.10.2021
5989 Clear 35 1011 11 10000 6.69 340 15:47 10.10.2021
5990 Clear 36 1011 10 10000 7.2 320 14:44 10.10.2021
5991 Clear 36 1010 5 10000 7.63 326 13:34 10.10.2021
5992 Clear 36 1012 11 10000 8.75 320 12:41 10.10.2021
5993 Clear 34 1013 14 10000 5.66 300 11:29 10.10.2021
5994 Clear 34 1013 14 10000 5.66 300 11:29 10.10.2021
5995 Clear 29 1014 17 10000 5.66 300 09:51 10.10.2021
5996 Clear 26 1014 21 10000 4.12 320 08:54 10.10.2021
5997 Clear 22 1014 23 10000 4.12 310 07:57 10.10.2021
5998 Clear 17 1013 39 10000 4.12 320 03:47 10.10.2021
5999 Clear 17 1013 39 10000 4.12 320 03:47 10.10.2021
6000 Clear 18 1013 34 10000 4.12 320 01:39 10.10.2021
6001 Clear 19 1013 32 10000 3.6 300 00:41 10.10.2021
6002 Clear 21 1013 26 10000 3.6 300 23:23 09.10.2021
6003 Clear 23 1013 25 10000 2.57 280 21:53 09.10.2021
6004 Clear 23 1013 25 10000 2.57 280 21:29 09.10.2021
6005 Clear 27 1013 18 10000 4.12 300 19:50 09.10.2021
6006 Clear 27 1013 18 10000 4.12 300 19:31 09.10.2021
6007 Clear 29 1013 16 10000 5.14 290 18:34 09.10.2021
6008 Clear 30 1012 17 10000 2.06 310 17:51 09.10.2021
6009 Clear 33 1012 14 10000 2.57 330 16:19 09.10.2021
6010 Clear 35 1013 13 10000 5.66 330 13:48 09.10.2021
6011 Clear 35 1013 13 10000 5.66 330 13:25 09.10.2021
6012 Clear 33 1014 12 10000 7.72 350 11:58 09.10.2021
6013 Clear 32 1015 13 10000 5.66 340 10:43 09.10.2021
6014 Clear 32 1015 13 10000 5.66 340 10:18 09.10.2021
6015 Clear 25 1015 20 10000 4.12 300 08:33 09.10.2021
6016 Clear 21 1015 23 10000 4.12 310 07:50 09.10.2021
6017 Clear 21 1015 23 10000 4.12 310 07:49 09.10.2021
6018 Clear 21 1015 23 10000 4.12 310 07:49 09.10.2021
6019 Clear 18 1014 25 10000 3.09 320 06:22 09.10.2021
6020 Clear 17 1013 36 10000 4.12 320 04:31 09.10.2021
6021 Clear 18 1012 45 10000 3.6 320 02:43 09.10.2021
6022 Clear 21 1012 24 10000 3.6 300 23:58 08.10.2021
6023 Clear 21 1012 24 10000 3.6 300 23:31 08.10.2021
6024 Clear 22 1012 23 10000 3.6 300 22:42 08.10.2021
6025 Clear 23 1012 23 10000 4.63 310 21:44 08.10.2021
6026 Clear 26 1012 19 10000 3.6 300 19:47 08.10.2021
6027 Clear 29 1012 16 10000 4.12 270 18:23 08.10.2021
6028 Clear 32 1012 13 10000 4.63 280 16:54 08.10.2021
6029 Clear 32 1012 13 10000 4.63 280 16:24 08.10.2021
6030 Clear 34 1012 13 10000 6.17 290 14:56 08.10.2021
6031 Clear 34 1012 10 10000 6.69 310 13:45 08.10.2021
6032 Clear 31 1014 16 10000 5.14 280 11:41 08.10.2021
6033 Clear 33 1013 7 10000 5.99 324 10:42 08.10.2021
6034 Clear 26 1015 21 10000 4.12 280 09:47 08.10.2021
6035 Clear 17 1013 29 10000 3.09 310 03:38 08.10.2021
6036 Clear 21 1013 28 10000 2.06 290 23:24 07.10.2021
6037 Clear 22 1013 28 10000 3.6 310 21:48 07.10.2021
6038 Clear 22 1013 28 10000 3.6 310 21:28 07.10.2021
6039 Clear 22 1013 28 10000 3.6 310 21:28 07.10.2021
6040 Clear 22 1013 28 10000 3.09 300 20:39 07.10.2021
6041 Clear 25 1013 25 10000 2.57 300 19:32 07.10.2021
6042 Clear 30 1009 28 10000 4.12 300 18:41 07.10.2021
6043 Clear 30 1012 20 10000 5.14 290 17:32 07.10.2021
6044 Clear 33 1012 17 10000 7.72 300 16:25 07.10.2021
6045 Clear 34 1011 15 10000 6.17 300 14:48 07.10.2021
6046 Clear 35 1012 15 10000 5.66 320 13:43 07.10.2021
6047 Clear 34 1012 17 10000 3.09 330 12:53 07.10.2021
6048 Clear 32 1013 22 10000 4.12 340 10:58 07.10.2021
6049 Clear 32 1013 22 10000 4.12 340 10:40 07.10.2021
6050 Clear 30 1013 23 9000 3.6 330 09:43 07.10.2021
6051 Clear 26 1013 29 10000 4.63 330 08:53 07.10.2021
6052 Clear 23 1012 33 9000 4.12 320 07:58 07.10.2021
6053 Clear 23 1012 33 9000 4.12 320 07:38 07.10.2021
6054 Clear 18 1011 42 10000 3.6 320 06:38 07.10.2021
6055 Clear 21 1009 37 10000 3.09 330 00:48 07.10.2021
6056 Clear 23 1009 35 10000 3.09 330 23:18 06.10.2021
6057 Clear 24 1009 33 10000 3.09 320 22:24 06.10.2021
6058 Clear 24 1009 31 10000 4.12 320 21:26 06.10.2021
6059 Clear 24 1009 31 10000 4.12 310 20:28 06.10.2021
6060 Clear 27 1009 28 10000 3.09 320 18:59 06.10.2021
6061 Clear 29 1008 26 10000 3.09 330 17:26 06.10.2021
6062 Clear 34 1008 20 10000 5.14 340 15:37 06.10.2021
6063 Clear 34 1008 18 10000 5.14 350 14:41 06.10.2021
6064 Clear 34 1009 18 10000 4.63 330 13:24 06.10.2021
6065 Clear 34 1009 18 10000 4.12 350 12:47 06.10.2021
6066 Clear 34 1009 18 10000 4.12 350 12:25 06.10.2021
6067 Clear 33 1010 19 10000 4.12 350 11:23 06.10.2021
6068 Clear 29 1011 28 10000 3.09 340 09:40 06.10.2021
6069 Clear 25 1011 33 9000 3.09 310 08:58 06.10.2021
6070 Clear 25 1011 33 9000 3.09 310 08:30 06.10.2021
6071 Clear 19 1010 42 6000 1.54 310 05:56 06.10.2021
6072 Clear 20 1009 45 10000 0 0 01:56 06.10.2021
6073 Clear 20 1010 42 10000 1.03 330 00:22 06.10.2021
6074 Clear 22 1010 43 10000 1.03 360 23:51 05.10.2021
6075 Clear 22 1010 43 10000 1.03 360 23:29 05.10.2021
6076 Clear 24 1010 35 10000 1.54 340 22:31 05.10.2021
6077 Clear 24 1010 35 10000 1.03 340 21:56 05.10.2021
6078 Clear 24 1010 35 10000 1.03 340 21:56 05.10.2021
6079 Clear 24 1010 35 10000 1.03 340 21:20 05.10.2021
6080 Clear 24 1010 31 10000 1.03 280 20:26 05.10.2021
6081 Clear 27 1010 28 10000 1.03 340 19:50 05.10.2021
6082 Clear 27 1010 28 10000 1.03 340 19:23 05.10.2021
6083 Clear 27 1010 26 10000 2.57 330 18:20 05.10.2021
6084 Clear 33 1010 18 10000 2.57 350 15:28 05.10.2021
6085 Clear 33 1010 17 10000 5.14 330 13:49 05.10.2021
6086 Clear 33 1010 17 10000 5.14 330 13:22 05.10.2021
6087 Clear 33 1011 18 10000 4.63 330 12:33 05.10.2021
6088 Clear 32 1012 20 10000 5.14 340 11:41 05.10.2021
6089 Clear 31 1012 18 8000 4.12 340 10:34 05.10.2021
6090 Clear 23 1012 33 6000 1.54 330 07:38 05.10.2021
6091 Clear 21 1010 35 10000 2.06 330 01:28 05.10.2021
6092 Clear 25 1010 38 10000 5.14 300 22:53 04.10.2021
6093 Clear 24 1010 33 10000 3.09 310 21:27 04.10.2021
6094 Clear 30 1010 25 10000 3.6 300 18:51 04.10.2021
6095 Clear 31 1009 25 10000 5.14 300 17:26 04.10.2021
6096 Clear 34 1009 24 10000 5.14 270 15:33 04.10.2021
6097 Clear 34 1009 24 10000 7.72 300 14:46 04.10.2021
6098 Clear 34 1009 24 10000 7.72 300 14:18 04.10.2021
6099 Clear 34 1009 24 10000 6.69 290 13:31 04.10.2021
6100 Clear 34 1010 24 10000 6.69 290 12:50 04.10.2021
6101 Clear 33 1010 29 10000 5.66 290 11:33 04.10.2021
6102 Clear 31 1011 30 10000 5.66 300 10:45 04.10.2021
6103 Clear 29 1011 32 10000 6.17 310 09:35 04.10.2021
6104 Clear 26 1011 34 10000 6.17 310 07:53 04.10.2021
6105 Clear 24 1010 35 10000 4.12 300 06:50 04.10.2021
6106 Clear 27 1007 34 10000 4.12 320 22:51 03.10.2021
6107 Clear 29 1007 28 10000 4.12 310 21:54 03.10.2021
6108 Clear 29 1007 28 10000 4.12 310 21:29 03.10.2021
6109 Clear 32 1007 23 10000 5.66 300 20:45 03.10.2021
6110 Clear 32 1006 23 10000 1.03 300 19:46 03.10.2021
6111 Clear 33 1006 22 10000 1.54 310 18:29 03.10.2021
6112 Clear 33 1006 22 10000 1.54 310 18:29 03.10.2021
6113 Clear 34 1005 21 10000 2.57 320 17:37 03.10.2021
6114 Clear 41 1005 11 10000 3.6 250 15:29 03.10.2021
6115 Clear 42 1005 9 10000 5.14 230 14:30 03.10.2021
6116 Clear 41 1006 11 10000 5.14 200 13:35 03.10.2021
6117 Clear 40 1006 15 10000 3.6 170 12:45 03.10.2021
6118 Clear 38 1007 16 10000 3.6 200 11:19 03.10.2021
6119 Clear 34 1008 22 8000 1.03 0 09:57 03.10.2021
6120 Clouds 31 1006 16 10000 1.94 267 05:38 03.10.2021
6121 Clear 27 1006 28 7000 0.51 0 22:52 02.10.2021
6122 Clear 27 1007 28 8000 0 0 21:51 02.10.2021
6123 Clear 30 1007 23 9000 1.03 80 20:30 02.10.2021
6124 Clear 31 1007 25 10000 2.06 30 18:56 02.10.2021
6125 Clear 31 1007 25 10000 2.06 30 18:20 02.10.2021
6126 Clear 35 1006 18 10000 2.06 360 17:37 02.10.2021
6127 Clear 39 1006 14 10000 2.57 10 16:39 02.10.2021
6128 Clear 31 1009 19 10000 4.12 20 07:30 02.10.2021
6129 Clear 37 1007 16 10000 4.63 290 15:37 30.09.2021
6130 Clear 37 1007 16 10000 4.12 300 13:57 30.09.2021
6131 Clear 35 1009 20 10000 4.63 340 11:54 30.09.2021
6132 Clear 34 1009 21 10000 6.17 330 10:53 30.09.2021
6133 Clear 34 1009 21 10000 6.17 330 10:22 30.09.2021
6134 Clear 29 1009 26 10000 3.6 300 08:31 30.09.2021
6135 Clear 27 1008 29 10000 3.6 300 07:35 30.09.2021
6136 Clear 21 1007 40 10000 1.54 270 05:25 30.09.2021
6137 Clear 25 1006 41 10000 4.12 290 02:19 30.09.2021
6138 Clear 25 1006 31 10000 1.54 260 00:30 30.09.2021
6139 Clear 27 1006 29 10000 2.06 260 22:39 29.09.2021
6140 Clear 27 1006 28 10000 1.54 280 21:28 29.09.2021
6141 Clear 31 1006 23 10000 2.57 240 20:28 29.09.2021
6142 Clear 31 1005 25 10000 2.57 230 19:55 29.09.2021
6143 Clear 34 1005 18 10000 3.09 0 18:54 29.09.2021
6144 Clear 35 1004 18 10000 3.6 150 17:55 29.09.2021
6145 Clear 38 1004 16 10000 3.6 170 16:55 29.09.2021
6146 Clear 38 1004 16 10000 3.6 170 16:21 29.09.2021
6147 Clear 40 1005 15 10000 2.57 170 14:39 29.09.2021
6148 Clear 40 1005 11 10000 3.6 220 13:58 29.09.2021
6149 Clear 40 1005 11 10000 3.6 220 13:27 29.09.2021
6150 Clear 39 1005 14 10000 1.54 80 12:36 29.09.2021
6151 Clear 37 1007 18 9000 1.03 0 10:50 29.09.2021
6152 Clear 35 1007 20 8000 1.54 300 09:58 29.09.2021
6153 Clear 35 1007 20 8000 1.54 300 09:35 29.09.2021
6154 Clear 26 1007 31 10000 3.09 330 07:39 29.09.2021
6155 Clear 21 1006 37 9000 2.57 270 04:39 29.09.2021
6156 Clear 26 1007 31 10000 2.06 330 23:29 28.09.2021
6157 Clear 25 1007 29 10000 2.06 320 22:24 28.09.2021
6158 Clear 25 1007 27 10000 3.09 320 21:45 28.09.2021
6159 Clear 27 1007 28 9000 2.06 340 20:44 28.09.2021
6160 Clear 29 1007 24 10000 2.06 310 19:47 28.09.2021
6161 Clear 31 1007 22 10000 1.54 310 18:51 28.09.2021
6162 Clear 31 1007 22 10000 1.54 310 18:18 28.09.2021
6163 Clear 35 1006 12 10000 3.22 23 16:41 28.09.2021
6164 Clear 37 1006 14 10000 3.09 360 14:37 28.09.2021
6165 Clear 37 1007 13 10000 3.6 350 13:19 28.09.2021
6166 Clear 35 1007 15 10000 3.09 310 12:21 28.09.2021
6167 Clear 35 1008 15 10000 4.12 290 11:47 28.09.2021
6168 Clear 35 1008 15 10000 4.12 290 11:23 28.09.2021
6169 Clear 34 1008 17 10000 4.12 320 10:21 28.09.2021
6170 Clear 34 1008 17 10000 4.12 320 10:21 28.09.2021
6171 Clear 34 1008 17 10000 4.12 320 10:21 28.09.2021
6172 Clear 32 1008 18 10000 5.14 320 09:22 28.09.2021
6173 Clear 29 1008 21 10000 3.6 320 08:39 28.09.2021
6174 Clear 26 1008 25 10000 3.09 320 07:49 28.09.2021
6175 Clear 21 1007 37 10000 2.57 280 05:41 28.09.2021
6176 Clear 23 1006 25 10000 2.06 320 01:26 28.09.2021
6177 Clear 22 1006 26 10000 2.57 310 00:26 28.09.2021
6178 Clear 26 1006 19 10000 3.09 270 23:44 27.09.2021
6179 Clear 26 1006 19 10000 3.09 270 23:23 27.09.2021
6180 Clear 26 1006 21 10000 3.6 260 22:19 27.09.2021
6181 Clear 27 1006 18 10000 3.09 240 20:49 27.09.2021
6182 Clear 27 1006 18 10000 3.09 240 20:23 27.09.2021
6183 Clear 29 1005 16 10000 3.09 240 19:30 27.09.2021
6184 Clear 30 1005 15 10000 3.6 260 18:52 27.09.2021
6185 Clear 32 1005 15 10000 3.6 270 17:36 27.09.2021
6186 Clear 35 1005 12 10000 5.14 270 16:51 27.09.2021
6187 Clear 36 1005 11 10000 6.69 290 15:46 27.09.2021
6188 Clear 36 1005 11 10000 6.69 290 15:27 27.09.2021
6189 Clear 36 1006 11 10000 7.2 300 13:35 27.09.2021
6190 Clear 35 1006 13 10000 7.2 290 12:20 27.09.2021
6191 Clear 33 1007 21 10000 7.72 300 10:48 27.09.2021
6192 Clear 31 1007 25 10000 8.75 310 09:38 27.09.2021
6193 Clear 22 1007 46 10000 5.66 290 06:37 27.09.2021
6194 Clear 21 1007 46 10000 5.14 300 03:31 27.09.2021
6195 Clear 24 1008 46 10000 5.14 300 23:41 26.09.2021
6196 Clear 26 1009 27 10000 6.17 290 21:55 26.09.2021
6197 Clear 26 1009 27 10000 6.17 290 21:26 26.09.2021
6198 Clear 27 1009 28 10000 5.14 290 20:25 26.09.2021
6199 Clear 29 1009 24 10000 5.66 290 19:54 26.09.2021
6200 Clouds 29 1009 23 10000 5.66 290 19:25 26.09.2021
6201 Clouds 29 1009 23 10000 5.66 290 19:25 26.09.2021
6202 Clouds 29 1009 23 10000 5.66 290 19:25 26.09.2021
6203 Clouds 29 1009 23 10000 5.66 290 19:25 26.09.2021
6204 Clear 30 1009 20 10000 3.6 290 18:34 26.09.2021
6205 Clear 31 1009 18 10000 6.17 290 17:37 26.09.2021
6206 Clear 31 1009 18 10000 6.17 290 17:18 26.09.2021
6207 Clear 33 1010 15 10000 9.26 290 16:22 26.09.2021
6208 Clear 34 1010 15 10000 8.75 290 15:27 26.09.2021
6209 Clear 35 1010 14 10000 8.23 310 14:20 26.09.2021
6210 Clear 35 1011 14 10000 8.23 290 13:42 26.09.2021
6211 Clear 33 1011 16 10000 7.72 300 12:31 26.09.2021
6212 Clear 33 1012 15 10000 8.23 300 11:56 26.09.2021
6213 Clear 33 1012 15 10000 8.23 300 11:23 26.09.2021
6214 Clear 29 1013 20 10000 6.17 300 09:50 26.09.2021
6215 Clear 26 1014 27 10000 6.17 300 08:41 26.09.2021
6216 Clear 25 1012 44 10000 4.63 310 00:29 26.09.2021
6217 Clear 25 1012 41 10000 4.12 310 23:46 25.09.2021
6218 Clear 26 1013 36 10000 4.63 310 22:39 25.09.2021
6219 Clear 26 1013 36 10000 4.63 310 22:18 25.09.2021
6220 Clear 26 1013 36 10000 4.63 310 22:18 25.09.2021
6221 Clear 27 1013 34 10000 4.12 290 21:45 25.09.2021
6222 Clear 28 1012 30 10000 3.6 290 20:52 25.09.2021
6223 Clear 28 1012 30 10000 3.6 300 19:40 25.09.2021
6224 Clear 30 1011 28 10000 5.14 310 18:28 25.09.2021
6225 Clear 33 1011 25 10000 6.17 300 17:23 25.09.2021
6226 Clear 35 1011 26 10000 4.12 280 14:38 25.09.2021
6227 Clear 35 1011 28 10000 4.12 270 13:55 25.09.2021
6228 Clear 35 1012 26 10000 3.6 290 12:45 25.09.2021
6229 Clear 34 1012 29 10000 2.57 260 11:27 25.09.2021
6230 Clear 33 1013 33 10000 2.06 0 10:19 25.09.2021
6231 Clear 32 1013 29 10000 2.57 260 09:21 25.09.2021
6232 Clear 27 1012 36 10000 1.03 310 07:48 25.09.2021
6233 Clear 27 1012 36 10000 1.03 310 07:47 25.09.2021
6234 Clear 23 1010 46 10000 2.06 10 00:52 25.09.2021
6235 Clear 30 1009 28 10000 3.47 7 22:18 24.09.2021
6236 Clear 25 1009 41 10000 1.03 20 21:34 24.09.2021
6237 Clear 26 1009 36 10000 0.51 0 20:32 24.09.2021
6238 Clear 29 1008 30 10000 1.54 310 19:31 24.09.2021
6239 Clear 30 1008 28 10000 2.06 290 18:20 24.09.2021
6240 Clear 33 1007 25 10000 4.12 270 17:50 24.09.2021
6241 Clear 33 1007 25 10000 4.12 270 17:31 24.09.2021
6242 Clear 35 1007 26 10000 5.14 270 15:50 24.09.2021
6243 Clear 35 1007 28 10000 5.66 250 13:27 24.09.2021
6244 Clear 34 1007 33 10000 5.14 270 12:43 24.09.2021
6245 Clear 34 1007 33 10000 5.14 270 12:25 24.09.2021
6246 Clear 32 1007 37 10000 4.63 280 10:56 24.09.2021
6247 Clear 31 1007 40 10000 5.66 290 09:55 24.09.2021
6248 Clear 29 1007 39 10000 6.69 300 08:21 24.09.2021
6249 Clear 27 1006 39 8000 4.63 280 07:30 24.09.2021
6250 Clear 23 1005 46 8000 1.54 300 05:57 24.09.2021
6251 Clear 23 1005 46 8000 1.54 300 05:57 24.09.2021
6252 Clear 24 1005 43 10000 2.06 280 04:51 24.09.2021
6253 Clear 27 1003 34 8000 1.54 100 22:38 23.09.2021
6254 Clear 28 1003 30 8000 1.03 290 21:59 23.09.2021
6255 Clear 28 1003 30 8000 1.03 290 21:20 23.09.2021
6256 Clear 28 1003 30 8000 1.03 290 21:20 23.09.2021
6257 Clear 30 1003 30 10000 1.03 300 20:32 23.09.2021
6258 Clear 34 1002 22 10000 2.57 270 18:36 23.09.2021
6259 Clear 37 1002 16 10000 4.12 270 16:47 23.09.2021
6260 Clear 40 1001 13 10000 7.2 220 15:19 23.09.2021
6261 Clear 40 1001 12 10000 8.23 210 14:52 23.09.2021
6262 Clear 40 1002 17 8000 6.69 160 13:27 23.09.2021
6263 Clear 39 1002 17 8000 7.2 140 12:57 23.09.2021
6264 Clear 39 1002 17 8000 7.2 140 12:37 23.09.2021
6265 Clear 39 1002 17 8000 7.2 140 12:18 23.09.2021
6266 Clear 36 1004 19 10000 5.14 150 10:41 23.09.2021
6267 Clear 35 1004 18 8000 4.12 130 09:57 23.09.2021
6268 Clear 35 1004 18 8000 4.12 130 09:38 23.09.2021
6269 Clear 23 1004 40 9000 0.51 0 06:24 23.09.2021
6270 Clear 25 1003 33 10000 1.03 210 00:21 23.09.2021
6271 Clear 28 1003 28 10000 1.03 0 22:54 22.09.2021
6272 Clear 28 1003 28 10000 1.03 0 22:20 22.09.2021
6273 Clear 27 1003 22 10000 1.03 90 21:44 22.09.2021
6274 Clear 30 1003 23 10000 1.03 340 20:58 22.09.2021
6275 Clear 31 1003 25 10000 2.57 320 19:53 22.09.2021
6276 Clear 31 1003 25 10000 2.57 320 19:27 22.09.2021
6277 Clear 34 1003 15 10000 4.28 304 18:34 22.09.2021
6278 Clear 34 1003 14 10000 4.6 304 17:33 22.09.2021
6279 Clear 37 1002 12 10000 6.55 302 15:52 22.09.2021
6280 Clear 39 1003 14 10000 8.23 300 14:29 22.09.2021
6281 Clouds 39 1003 13 10000 7.72 300 13:19 22.09.2021
6282 Clear 36 1005 23 10000 5.14 270 11:20 22.09.2021
6283 Clear 32 1006 29 10000 4.63 290 09:32 22.09.2021
6284 Clear 30 1006 28 10000 5.14 290 08:45 22.09.2021
6285 Clear 30 1006 28 10000 5.14 290 08:45 22.09.2021
6286 Clear 28 1005 28 10000 3.6 270 07:35 22.09.2021
6287 Clear 25 1005 31 10000 3.09 270 06:51 22.09.2021
6288 Clear 24 1005 31 10000 2.06 270 05:48 22.09.2021
6289 Clear 26 1005 29 10000 2.57 270 04:20 22.09.2021
6290 Clear 24 1005 35 10000 2.57 290 03:23 22.09.2021
6291 Clear 31 1005 25 10000 6.17 290 23:54 21.09.2021
6292 Clear 30 1006 25 10000 4.63 290 22:26 21.09.2021
6293 Clear 32 1006 20 10000 5.8 302 20:58 21.09.2021
6294 Clear 32 1006 17 10000 5.19 300 19:37 21.09.2021
6295 Clear 33 1006 15 10000 5.55 301 19:18 21.09.2021
6296 Clear 38 1005 16 10000 6.17 270 16:48 21.09.2021
6297 Clear 39 1006 13 10000 7.72 290 15:57 21.09.2021
6298 Clear 39 1006 14 10000 7.72 280 14:59 21.09.2021
6299 Clear 39 1006 14 10000 7.72 280 14:40 21.09.2021
6300 Clear 39 1007 16 10000 8.75 270 13:40 21.09.2021
6301 Clear 39 1007 17 10000 8.75 270 12:45 21.09.2021
6302 Clear 37 1009 22 10000 6.69 310 10:44 21.09.2021
6303 Clear 34 1009 26 10000 6.69 310 09:28 21.09.2021
6304 Clear 28 1009 34 10000 5.14 310 07:44 21.09.2021
6305 Clear 25 1008 47 10000 3.6 300 05:18 21.09.2021
6306 Clear 27 1008 34 10000 2.57 290 23:51 20.09.2021
6307 Clear 31 1009 25 10000 2.57 280 21:52 20.09.2021
6308 Clear 31 1009 25 10000 2.57 280 21:32 20.09.2021
6309 Clear 32 1008 23 10000 3.09 270 19:55 20.09.2021
6310 Clear 34 1008 21 10000 3.09 280 18:37 20.09.2021
6311 Clear 36 1007 20 10000 4.12 270 17:30 20.09.2021
6312 Clear 37 1007 18 10000 7.72 290 16:26 20.09.2021
6313 Clear 38 1007 16 10000 7.72 280 15:47 20.09.2021
6314 Clear 38 1008 17 10000 7.2 270 14:50 20.09.2021
6315 Clear 37 1009 19 10000 6.17 270 12:53 20.09.2021
6316 Clear 37 1009 19 10000 6.17 270 12:29 20.09.2021
6317 Clear 36 1010 17 10000 5.14 300 10:57 20.09.2021
6318 Clear 34 1011 22 10000 4.63 310 09:52 20.09.2021
6319 Clear 34 1011 22 10000 4.63 310 09:33 20.09.2021
6320 Clear 31 1010 33 10000 4.12 310 08:55 20.09.2021
6321 Clear 25 1010 47 8000 3.09 300 06:34 20.09.2021
6322 Clear 26 1009 34 10000 1.54 330 23:30 19.09.2021
6323 Clear 28 1009 30 10000 2.57 310 21:53 19.09.2021
6324 Clear 28 1009 30 10000 2.57 310 21:21 19.09.2021
6325 Clear 29 1009 24 10000 3.09 300 20:32 19.09.2021
6326 Clear 34 1009 20 10000 4.63 280 18:54 19.09.2021
6327 Clear 36 1008 19 10000 6.69 280 17:57 19.09.2021
6328 Clear 36 1008 19 10000 6.69 280 17:21 19.09.2021
6329 Clear 38 1009 16 10000 9.77 300 15:44 19.09.2021
6330 Clear 39 1009 16 8000 9.77 300 14:49 19.09.2021
6331 Clear 39 1009 16 8000 9.77 300 14:24 19.09.2021
6332 Clear 38 1009 16 10000 7.72 310 12:56 19.09.2021
6333 Clear 38 1009 16 10000 7.72 310 12:30 19.09.2021
6334 Clear 38 1010 17 10000 6.69 330 11:25 19.09.2021
6335 Clear 35 1011 21 10000 5.14 330 09:58 19.09.2021
6336 Clear 35 1011 21 10000 5.14 330 09:26 19.09.2021
6337 Clear 27 1010 34 10000 3.6 330 06:49 19.09.2021
6338 Clear 28 1008 32 10000 4.12 320 01:39 19.09.2021
6339 Clear 31 1008 27 10000 4.63 330 23:25 18.09.2021
6340 Clear 31 1008 29 10000 4.63 340 21:58 18.09.2021
6341 Clear 32 1007 27 10000 4.63 330 20:48 18.09.2021
6342 Clear 32 1007 27 10000 4.63 330 20:26 18.09.2021
6343 Clear 33 1007 27 10000 4.63 330 19:37 18.09.2021
6344 Clear 33 1007 27 10000 4.63 330 19:19 18.09.2021
6345 Clear 35 1006 24 10000 4.12 340 18:31 18.09.2021
6346 Clear 36 1005 23 10000 3.6 340 17:22 18.09.2021
6347 Clear 39 1005 19 10000 6.69 320 15:45 18.09.2021
6348 Clear 40 1005 17 10000 5.14 330 13:46 18.09.2021
6349 Clear 40 1005 17 10000 5.14 330 13:24 18.09.2021
6350 Clear 40 1006 16 10000 5.14 10 12:23 18.09.2021
6351 Clear 39 1006 19 9000 5.66 340 11:34 18.09.2021
6352 Clear 38 1007 18 10000 4.63 360 10:31 18.09.2021
6353 Clear 36 1007 20 10000 4.63 360 09:24 18.09.2021
6354 Clear 34 1007 24 9000 4.63 350 08:28 18.09.2021
6355 Clear 31 1005 24 10000 5.07 7 00:55 18.09.2021
6356 Clear 31 1005 24 10000 5.08 357 23:56 17.09.2021
6357 Clear 31 1005 24 10000 5.08 357 23:32 17.09.2021
6358 Clear 32 1005 24 10000 5.22 343 22:25 17.09.2021
6359 Clear 29 1006 32 10000 3.6 330 21:45 17.09.2021
6360 Clear 32 1005 23 10000 2.06 280 19:52 17.09.2021
6361 Clear 33 1004 22 10000 2.57 320 18:43 17.09.2021
6362 Clear 38 1004 18 10000 3.6 360 16:47 17.09.2021
6363 Clear 38 1004 18 10000 5.14 340 15:25 17.09.2021
6364 Clear 38 1006 18 10000 5.66 350 11:53 17.09.2021
6365 Clear 36 1007 20 10000 5.66 350 10:23 17.09.2021
6366 Clear 29 1006 32 10000 4.12 340 07:49 17.09.2021
6367 Clear 27 1006 34 10000 3.09 330 06:27 17.09.2021
6368 Clear 27 1006 32 10000 3.6 330 00:33 17.09.2021
6369 Clear 27 1006 29 10000 3.6 320 22:42 16.09.2021
6370 Clear 27 1006 29 10000 3.6 320 22:24 16.09.2021
6371 Clear 31 1006 23 10000 4.63 300 21:36 16.09.2021
6372 Clear 32 1006 22 10000 3.6 290 20:31 16.09.2021
6373 Clear 32 1006 22 10000 2.57 320 18:52 16.09.2021
6374 Clear 32 1006 22 10000 2.57 320 18:19 16.09.2021
6375 Clear 32 1006 22 10000 2.57 320 18:19 16.09.2021
6376 Clear 35 1005 20 10000 3.6 340 17:19 16.09.2021
6377 Clear 38 1005 18 10000 7.72 340 14:51 16.09.2021
6378 Clear 39 1006 16 10000 7.2 330 13:40 16.09.2021
6379 Clear 39 1007 16 10000 8.75 330 12:46 16.09.2021
6380 Clear 37 1007 23 10000 6.69 340 11:55 16.09.2021
6381 Clear 36 1008 23 10000 6.69 330 10:56 16.09.2021
6382 Clear 36 1008 23 10000 6.69 330 10:23 16.09.2021
6383 Clear 34 1009 26 10000 6.17 330 09:31 16.09.2021
6384 Clear 28 1008 32 10000 4.63 320 07:59 16.09.2021
6385 Clear 25 1008 36 10000 3.6 290 06:58 16.09.2021
6386 Clear 25 1008 36 10000 3.6 290 06:38 16.09.2021
6387 Clear 24 1006 38 10000 2.57 320 03:54 16.09.2021
6388 Clear 24 1006 35 10000 3.09 300 00:58 16.09.2021
6389 Clear 25 1006 33 10000 3.09 310 23:30 15.09.2021
6390 Clear 27 1006 29 10000 2.06 320 22:39 15.09.2021
6391 Clear 27 1007 34 10000 2.06 350 21:31 15.09.2021
6392 Clear 29 1007 28 10000 1.54 330 20:49 15.09.2021
6393 Clear 31 1006 27 10000 2.06 340 19:33 15.09.2021
6394 Clear 34 1006 21 10000 4.12 280 18:53 15.09.2021
6395 Clear 36 1005 19 10000 5.66 280 17:42 15.09.2021
6396 Clear 38 1006 17 10000 8.23 290 16:43 15.09.2021
6397 Clear 38 1006 17 10000 8.23 290 16:43 15.09.2021
6398 Clear 39 1006 14 10000 9.26 300 15:25 15.09.2021
6399 Clear 40 1006 14 10000 9.26 290 14:43 15.09.2021
6400 Clear 40 1006 14 10000 8.75 300 13:48 15.09.2021
6401 Clear 40 1006 14 10000 8.75 300 13:28 15.09.2021
6402 Clear 39 1007 16 10000 8.23 300 12:33 15.09.2021
6403 Clear 39 1007 15 10000 7.2 320 11:51 15.09.2021
6404 Clear 39 1007 15 10000 7.2 320 11:51 15.09.2021
6405 Clear 37 1008 19 10000 6.69 310 10:58 15.09.2021
6406 Clear 37 1008 19 10000 6.69 310 10:35 15.09.2021
6407 Clear 31 1008 27 8000 5.14 290 08:51 15.09.2021
6408 Clear 28 1008 32 10000 4.63 280 07:27 15.09.2021
6409 Clear 25 1006 47 10000 2.57 320 02:21 15.09.2021
6410 Clear 31 1006 25 10000 4.63 280 22:26 14.09.2021
6411 Clear 31 1006 25 10000 4.63 270 21:26 14.09.2021
6412 Clear 32 1006 23 10000 4.63 270 20:25 14.09.2021
6413 Clear 34 1006 21 10000 5.66 280 19:40 14.09.2021
6414 Clear 36 1005 19 10000 5.14 280 17:33 14.09.2021
6415 Clear 38 1005 18 10000 7.2 270 16:43 14.09.2021
6416 Clear 38 1005 11 10000 7.79 303 15:24 14.09.2021
6417 Clouds 39 1006 15 10000 7.72 270 14:19 14.09.2021
6418 Clear 38 1006 17 10000 8.75 310 11:47 14.09.2021
6419 Clear 37 1007 20 10000 7.2 320 10:44 14.09.2021
6420 Clear 35 1007 26 10000 4.63 350 09:49 14.09.2021
6421 Clear 30 1007 32 10000 4.63 340 07:58 14.09.2021
6422 Clear 26 1005 50 10000 3.09 320 02:55 14.09.2021
6423 Clear 30 1005 35 10000 5.14 300 23:29 13.09.2021
6424 Clear 31 1005 30 10000 5.66 290 22:28 13.09.2021
6425 Clear 32 1005 29 10000 5.14 280 21:56 13.09.2021
6426 Clear 32 1005 29 10000 5.14 280 21:56 13.09.2021
6427 Clear 32 1005 29 10000 5.14 280 21:32 13.09.2021
6428 Clear 34 1005 27 10000 5.14 280 19:38 13.09.2021
6429 Clear 34 1004 27 10000 4.12 270 18:45 13.09.2021
6430 Clear 36 1004 24 10000 5.66 280 17:28 13.09.2021
6431 Clear 37 1004 22 10000 7.2 270 16:49 13.09.2021
6432 Clear 38 1004 19 10000 5.66 270 14:45 13.09.2021
6433 Clear 36 1006 23 10000 4.63 260 11:44 13.09.2021
6434 Clear 35 1006 26 10000 4.63 280 10:41 13.09.2021
6435 Clear 32 1006 27 10000 4.12 300 08:23 13.09.2021
6436 Clear 26 1003 38 10000 4.12 280 00:34 13.09.2021
6437 Clear 27 1004 34 10000 2.06 300 22:51 12.09.2021
6438 Clear 27 1004 34 10000 2.06 300 22:22 12.09.2021
6439 Clear 30 1005 26 10000 3.09 300 20:57 12.09.2021
6440 Clear 30 1005 26 10000 3.09 300 20:19 12.09.2021
6441 Clear 33 1004 24 10000 4.12 290 19:30 12.09.2021
6442 Clear 34 1004 22 10000 5.14 280 18:55 12.09.2021
6443 Clear 36 1004 20 10000 5.66 280 17:50 12.09.2021
6444 Clear 38 1004 18 10000 7.72 270 15:54 12.09.2021
6445 Clear 38 1004 18 10000 6.17 280 14:39 12.09.2021
6446 Clear 38 1005 19 10000 8.23 320 12:42 12.09.2021
6447 Clear 36 1006 24 10000 7.2 310 10:30 12.09.2021
6448 Clear 31 1006 33 10000 5.14 310 08:39 12.09.2021
6449 Clear 28 1006 36 10000 4.63 320 07:26 12.09.2021
6450 Clear 30 1004 34 10000 6.21 319 00:47 12.09.2021
6451 Clear 30 1005 30 10000 5.66 290 22:39 11.09.2021
6452 Clear 31 1005 27 10000 5.66 280 21:39 11.09.2021
6453 Clear 33 1004 24 10000 5.66 280 19:39 11.09.2021
6454 Clear 36 1003 19 10000 6.17 310 17:57 11.09.2021
6455 Clear 36 1003 19 10000 6.17 310 17:27 11.09.2021
6456 Clear 38 1004 17 10000 8.23 290 15:35 11.09.2021
6457 Clear 39 1004 16 10000 9.26 280 13:23 11.09.2021
6458 Clear 37 1005 25 10000 8.75 290 11:42 11.09.2021
6459 Clear 36 1006 24 7000 9.26 310 10:27 11.09.2021
6460 Clear 31 1006 35 10000 9.26 310 08:51 11.09.2021
6461 Clear 30 1006 35 10000 8.75 310 07:43 11.09.2021
6462 Clear 27 1005 39 10000 5.14 310 04:23 11.09.2021
6463 Clear 33 1005 25 9000 5.14 270 22:43 10.09.2021
6464 Clear 33 1005 24 6000 4.63 270 21:57 10.09.2021
6465 Clear 33 1005 24 6000 4.63 270 21:38 10.09.2021
6466 Clear 35 1004 16 8000 6.69 290 19:31 10.09.2021
6467 Clear 38 1004 13 10000 5.66 280 17:56 10.09.2021
6468 Clear 40 1004 12 10000 8.23 300 16:28 10.09.2021
6469 Clear 40 1005 18 10000 8.23 290 13:29 10.09.2021
6470 Clear 36 1006 30 10000 8.75 290 10:52 10.09.2021
6471 Clear 30 1007 42 10000 7.2 290 07:53 10.09.2021
6472 Clear 30 1007 42 10000 7.2 290 07:21 10.09.2021
6473 Clear 31 1005 25 10000 4.12 280 00:40 10.09.2021
6474 Clear 33 1005 22 10000 4.63 270 21:54 09.09.2021
6475 Clear 32 1005 25 10000 4.12 260 20:48 09.09.2021
6476 Clear 32 1005 25 10000 4.12 260 20:28 09.09.2021
6477 Clear 35 1004 23 10000 3.6 270 18:46 09.09.2021
6478 Clear 37 1004 19 10000 5.14 280 17:51 09.09.2021
6479 Clear 39 1004 14 10000 8.23 280 16:39 09.09.2021
6480 Clear 40 1004 17 10000 7.2 280 15:25 09.09.2021
6481 Clear 39 1005 21 10000 9.26 280 12:33 09.09.2021
6482 Clear 38 1006 23 10000 8.75 290 11:23 09.09.2021
6483 Clear 36 1006 32 10000 9.26 300 09:36 09.09.2021
6484 Clear 30 1006 37 10000 8.23 300 07:56 09.09.2021
6485 Clear 26 1006 38 10000 4.63 310 05:51 09.09.2021
6486 Clear 29 1005 42 10000 4.12 300 00:43 09.09.2021
6487 Clear 34 1006 27 10000 6.69 290 21:49 08.09.2021
6488 Clear 35 1006 26 10000 6.17 270 20:54 08.09.2021
6489 Clear 36 1006 21 10000 5.66 270 19:47 08.09.2021
6490 Clear 37 1005 20 10000 6.69 280 18:49 08.09.2021
6491 Clear 37 1005 20 10000 6.69 280 18:25 08.09.2021
6492 Clear 39 1005 18 10000 7.2 280 17:40 08.09.2021
6493 Clear 40 1005 14 10000 7.72 280 16:24 08.09.2021
6494 Clear 42 1006 9 10000 9.26 280 13:46 08.09.2021
6495 Clear 41 1007 13 10000 9.77 280 12:42 08.09.2021
6496 Clear 41 1007 13 10000 9.77 280 12:23 08.09.2021
6497 Clear 42 1007 12 10000 8.75 290 11:26 08.09.2021
6498 Clear 41 1007 14 10000 8.75 300 10:31 08.09.2021
6499 Clear 39 1008 17 10000 7.72 320 09:57 08.09.2021
6500 Clear 32 1007 23 10000 5.14 330 07:47 08.09.2021
6501 Clear 32 1007 23 10000 5.14 330 07:19 08.09.2021
6502 Clear 34 1006 22 10000 7.72 300 23:41 07.09.2021
6503 Clear 34 1006 22 10000 7.72 300 23:41 07.09.2021
6504 Clear 35 1006 17 10000 6.69 290 22:19 07.09.2021
6505 Clear 33 1006 22 10000 3.09 300 20:50 07.09.2021
6506 Clear 35 1006 20 8000 2.06 290 19:40 07.09.2021
6507 Clear 36 1005 17 10000 3.6 320 18:37 07.09.2021
6508 Clear 41 1005 12 10000 4.63 320 17:38 07.09.2021
6509 Clear 44 1005 11 10000 6.17 280 15:57 07.09.2021
6510 Clear 45 1005 11 10000 3.09 0 14:54 07.09.2021
6511 Clear 44 1006 11 10000 3.6 330 13:52 07.09.2021
6512 Clear 44 1006 12 10000 3.6 340 12:20 07.09.2021
6513 Clear 41 1007 15 10000 3.6 330 10:59 07.09.2021
6514 Clear 41 1007 15 10000 3.6 330 10:59 07.09.2021
6515 Clear 41 1007 15 10000 3.6 330 10:20 07.09.2021
6516 Clear 31 1006 23 8000 4.12 320 07:48 07.09.2021
6517 Clear 27 1006 34 10000 2.57 310 06:31 07.09.2021
6518 Clear 26 1005 36 10000 1.54 340 02:39 07.09.2021
6519 Clear 26 1005 36 10000 1.54 340 02:20 07.09.2021
6520 Clear 30 1005 26 10000 2.57 290 00:21 07.09.2021
6521 Clear 30 1005 28 10000 2.57 330 23:31 06.09.2021
6522 Mist 29 1005 32 10000 3.6 320 22:53 06.09.2021
6523 Mist 29 1005 32 10000 3.6 320 22:24 06.09.2021
6524 Clear 31 1005 29 10000 1.54 310 20:37 06.09.2021
6525 Clear 35 1005 21 10000 1.03 270 19:20 06.09.2021
6526 Clear 37 1004 22 10000 1.03 330 18:36 06.09.2021
6527 Clear 39 1004 19 10000 2.06 350 17:54 06.09.2021
6528 Clear 41 1004 15 10000 2.57 340 16:35 06.09.2021
6529 Clear 42 1004 14 10000 4.63 20 15:34 06.09.2021
6530 Clear 42 1005 15 10000 3.6 360 13:45 06.09.2021
6531 Clear 42 1005 15 10000 4.63 350 12:45 06.09.2021
6532 Clear 39 1006 18 3600 3.6 340 10:37 06.09.2021
6533 Clear 29 1006 32 10000 3.09 280 07:48 06.09.2021
6534 Clear 26 1004 34 10000 2.57 290 04:36 06.09.2021
6535 Clear 30 1004 26 10000 2.06 320 23:24 05.09.2021
6536 Clear 31 1004 25 10000 2.06 330 22:33 05.09.2021
6537 Clear 31 1005 25 10000 2.06 330 21:56 05.09.2021
6538 Clear 31 1005 25 10000 2.06 330 21:21 05.09.2021
6539 Clear 32 1004 31 10000 2.06 360 19:47 05.09.2021
6540 Clear 39 1004 16 10000 1.54 320 17:53 05.09.2021
6541 Clear 40 1004 14 10000 2.06 330 16:53 05.09.2021
6542 Clear 41 1004 14 10000 4.12 350 15:21 05.09.2021
6543 Clear 41 1005 15 10000 3.09 360 12:45 05.09.2021
6544 Clear 41 1006 13 10000 4.12 320 11:44 05.09.2021
6545 Clear 40 1006 15 10000 4.12 350 10:42 05.09.2021
6546 Clear 38 1006 17 9000 3.6 340 09:42 05.09.2021
6547 Clear 35 1006 20 7000 2.57 330 08:35 05.09.2021
6548 Clear 27 1005 34 9000 2.57 320 06:33 05.09.2021
6549 Clear 26 1005 36 10000 1.03 240 00:42 05.09.2021
6550 Clear 30 1005 25 10000 1.54 300 23:59 04.09.2021
6551 Clear 30 1005 25 10000 1.54 300 23:26 04.09.2021
6552 Clear 29 1005 30 10000 1.03 340 22:35 04.09.2021
6553 Clear 31 1005 27 10000 0.51 0 21:20 04.09.2021
6554 Clear 33 1004 22 10000 3.6 300 19:40 04.09.2021
6555 Clear 39 1004 18 10000 5.66 300 17:43 04.09.2021
6556 Clear 41 1004 16 10000 7.72 280 15:52 04.09.2021
6557 Clear 40 1005 15 10000 7.2 310 11:54 04.09.2021
6558 Clear 38 1006 18 10000 5.66 330 10:55 04.09.2021
6559 Clear 35 1005 20 10000 4.63 340 08:39 04.09.2021
6560 Clear 31 1003 27 10000 5.66 330 01:59 04.09.2021
6561 Clear 31 1003 30 10000 5.66 320 00:23 04.09.2021
6562 Clear 30 1003 30 10000 3.09 320 23:23 03.09.2021
6563 Clear 30 1003 26 10000 3.6 300 21:43 03.09.2021
6564 Clear 30 1003 26 10000 3.6 300 21:24 03.09.2021
6565 Clear 32 1002 27 10000 3.09 300 20:34 03.09.2021
6566 Clear 33 1002 29 10000 2.06 320 19:44 03.09.2021
6567 Clear 36 1001 23 10000 2.57 300 18:37 03.09.2021
6568 Clear 40 1001 17 10000 5.14 290 17:32 03.09.2021
6569 Clear 42 1001 16 10000 6.69 260 15:46 03.09.2021
6570 Clear 42 1001 17 10000 6.17 260 14:47 03.09.2021
6571 Clear 41 1002 15 10000 5.66 310 11:22 03.09.2021
6572 Clear 38 1003 18 10000 6.17 300 10:19 03.09.2021
6573 Clear 35 1002 21 9000 3.09 300 08:22 03.09.2021
6574 Clear 31 1002 23 10000 3.6 300 06:51 03.09.2021
6575 Clear 32 1001 33 10000 3.09 330 23:59 02.09.2021
6576 Clear 34 1002 26 10000 4.63 310 22:22 02.09.2021
6577 Clear 35 1002 23 10000 2.06 270 20:59 02.09.2021
6578 Clear 41 1001 16 10000 3.09 270 18:52 02.09.2021
6579 Clear 45 1001 13 10000 4.12 280 16:57 02.09.2021
6580 Clear 46 1001 12 10000 5.14 270 15:32 02.09.2021
6581 Clear 46 1002 11 10000 4.63 240 13:42 02.09.2021
6582 Clear 43 1003 15 10000 4.63 270 11:46 02.09.2021
6583 Clear 43 1003 15 10000 4.63 270 11:46 02.09.2021
6584 Clear 43 1003 15 10000 4.63 270 11:24 02.09.2021
6585 Clear 39 1004 21 10000 3.6 250 09:21 02.09.2021
6586 Clear 34 1004 26 9000 2.57 240 07:40 02.09.2021
6587 Clear 29 1003 37 8000 0 0 06:40 02.09.2021
6588 Clear 27 1003 39 9000 1.54 340 02:38 02.09.2021
6589 Clear 29 1002 32 9000 1.54 270 01:53 02.09.2021
6590 Clear 29 1003 32 10000 1.54 280 00:24 02.09.2021
6591 Clear 31 1003 30 9000 2.06 120 23:27 01.09.2021
6592 Clear 33 1004 29 8000 0 0 22:30 01.09.2021
6593 Clear 32 1004 27 8000 0.51 260 21:33 01.09.2021
6594 Clear 37 1004 19 10000 2.57 310 19:38 01.09.2021
6595 Clear 42 1003 16 10000 2.06 360 17:57 01.09.2021
6596 Clear 42 1003 16 10000 2.06 360 17:18 01.09.2021
6597 Clear 45 1003 13 10000 3.6 330 16:46 01.09.2021
6598 Clear 45 1004 11 10000 3.6 350 15:23 01.09.2021
6599 Clear 43 1006 11 10000 5.66 340 11:48 01.09.2021
6600 Clear 42 1006 14 10000 4.12 340 10:42 01.09.2021
6601 Clear 37 1006 19 10000 5.14 350 08:46 01.09.2021
6602 Clear 33 1006 25 10000 3.6 340 07:50 01.09.2021
6603 Clear 33 1004 24 10000 4.12 320 23:41 31.08.2021
6604 Clear 36 1004 20 10000 6.69 300 22:24 31.08.2021
6605 Clear 37 1004 15 10000 3.6 290 20:56 31.08.2021
6606 Clear 37 1004 18 10000 2.57 300 19:44 31.08.2021
6607 Clear 44 1003 13 10000 5.14 300 17:53 31.08.2021
6608 Clear 44 1003 13 10000 5.14 300 17:33 31.08.2021
6609 Clear 46 1003 11 10000 6.17 280 16:49 31.08.2021
6610 Clear 47 1003 11 10000 6.17 290 15:59 31.08.2021
6611 Clear 46 1004 12 10000 6.69 300 12:55 31.08.2021
6612 Clear 43 1005 15 10000 6.69 300 11:25 31.08.2021
6613 Clear 41 1005 18 10000 5.66 310 10:45 31.08.2021
6614 Clear 39 1005 21 10000 6.17 310 09:43 31.08.2021
6615 Clear 36 1005 24 10000 6.69 300 08:23 31.08.2021
6616 Clear 27 1004 32 10000 3.09 290 05:58 31.08.2021
6617 Clear 30 1003 32 10000 3.09 310 00:23 31.08.2021
6618 Clear 34 1003 27 10000 2.57 280 23:25 30.08.2021
6619 Clear 37 1003 18 10000 5.14 300 21:42 30.08.2021
6620 Clear 35 1002 20 10000 4.12 300 20:42 30.08.2021
6621 Clear 40 1002 8 10000 5 317 19:55 30.08.2021
6622 Clear 41 1001 7 10000 5.48 313 19:29 30.08.2021
6623 Clear 42 1001 14 10000 3.6 280 18:23 30.08.2021
6624 Clear 46 1001 9 10000 4.12 270 16:49 30.08.2021
6625 Clear 47 1001 9 10000 4.12 290 15:50 30.08.2021
6626 Clear 47 1001 11 10000 4.63 290 14:37 30.08.2021
6627 Clear 47 1001 11 10000 3.6 260 13:27 30.08.2021
6628 Clear 43 1002 15 8000 3.09 280 11:56 30.08.2021
6629 Clear 35 1002 23 8000 5.14 310 08:23 30.08.2021
6630 Clear 32 999 20 10000 2.57 290 22:20 29.08.2021
6631 Clear 34 999 18 10000 1.54 290 21:31 29.08.2021
6632 Clear 38 998 15 10000 2.57 280 19:33 29.08.2021
6633 Clear 39 997 15 10000 1.54 290 18:30 29.08.2021
6634 Clear 46 997 9 10000 5.66 270 16:33 29.08.2021
6635 Clear 47 997 8 10000 6.69 270 15:25 29.08.2021
6636 Clear 48 998 8 10000 6.69 310 13:57 29.08.2021
6637 Clear 47 998 9 10000 6.69 310 12:58 29.08.2021
6638 Clear 47 998 9 10000 6.69 310 12:21 29.08.2021
6639 Clear 45 999 12 10000 5.66 300 11:41 29.08.2021
6640 Clear 42 999 12 10000 5.14 300 10:49 29.08.2021
6641 Clear 42 999 12 10000 5.14 300 10:30 29.08.2021
6642 Clear 42 999 12 10000 5.14 300 10:30 29.08.2021
6643 Clear 40 1000 13 10000 5.14 310 09:44 29.08.2021
6644 Clear 31 999 19 10000 4.63 310 06:38 29.08.2021
6645 Clear 34 999 24 10000 4.63 310 23:33 28.08.2021
6646 Clear 39 999 14 10000 6.69 280 20:46 28.08.2021
6647 Clear 40 999 12 10000 5.66 280 19:36 28.08.2021
6648 Clear 41 999 12 10000 6.17 280 18:27 28.08.2021
6649 Clear 44 999 10 10000 5.66 290 17:47 28.08.2021
6650 Clear 44 999 10 10000 5.66 290 17:47 28.08.2021
6651 Clear 46 999 8 10000 8.23 310 16:57 28.08.2021
6652 Clear 47 999 7 10000 10.8 310 15:27 28.08.2021
6653 Clear 47 1000 8 10000 10.8 290 13:59 28.08.2021
6654 Clear 47 1000 8 10000 10.8 290 13:41 28.08.2021
6655 Clear 45 1000 11 10000 9.77 280 12:35 28.08.2021
6656 Clear 44 1001 13 10000 9.77 290 11:40 28.08.2021
6657 Clear 42 1002 16 10000 9.77 300 10:18 28.08.2021
6658 Clear 34 1002 21 10000 7.2 280 07:57 28.08.2021
6659 Clear 29 1002 24 10000 3.09 320 02:36 28.08.2021
6660 Clear 34 1003 18 10000 3.6 300 21:45 27.08.2021
6661 Clear 35 1003 18 10000 3.6 300 20:55 27.08.2021
6662 Clear 37 1003 18 10000 3.6 300 19:57 27.08.2021
6663 Clear 41 1002 15 10000 4.63 300 18:39 27.08.2021
6664 Clear 44 1002 13 10000 4.63 290 17:54 27.08.2021
6665 Clear 46 1002 11 10000